<?xml version="1.0" encoding="UTF-8" standalone="no" ?>
<gpx xmlns="http://www.topografix.com/GPX/1/1" xmlns:xsi="http://www.w3.org/2001/XMLSchema-instance" xsi:schemaLocation="http://www.topografix.com/GPX/1/1 http://www.topografix.com/GPX/1/1/gpx.xsd" version="1.1" creator="VisuGPX - https://www.visugpx.com">
  <metadata>
    <name>2020  peyrieu boucle </name>
    <desc><![CDATA[Peyrieu 2020]]></desc>
  </metadata>
  <trk>
    <name><![CDATA[SityTrail - peyrieu 2020]]></name>
    <trkseg>
      <trkpt lat="45.67604" lon="5.6793">
        <ele>226</ele>
        <time>2020-05-17T10:40:34.813Z</time>
      </trkpt>
      <trkpt lat="45.67612" lon="5.67936">
        <ele>225</ele>
        <time>2020-05-17T10:41:11.441Z</time>
      </trkpt>
      <trkpt lat="45.67618" lon="5.67934">
        <ele>225</ele>
        <time>2020-05-17T10:41:15.507Z</time>
      </trkpt>
      <trkpt lat="45.67622" lon="5.67932">
        <ele>225</ele>
        <time>2020-05-17T10:41:20.399Z</time>
      </trkpt>
      <trkpt lat="45.67624" lon="5.67928">
        <ele>226</ele>
        <time>2020-05-17T10:41:24.419Z</time>
      </trkpt>
      <trkpt lat="45.67628" lon="5.6792">
        <ele>227</ele>
        <time>2020-05-17T10:41:29.414Z</time>
      </trkpt>
      <trkpt lat="45.67632" lon="5.67912">
        <ele>227</ele>
        <time>2020-05-17T10:41:33.445Z</time>
      </trkpt>
      <trkpt lat="45.67638" lon="5.67902">
        <ele>228</ele>
        <time>2020-05-17T10:41:38.428Z</time>
      </trkpt>
      <trkpt lat="45.67643" lon="5.67897">
        <ele>228</ele>
        <time>2020-05-17T10:41:43.423Z</time>
      </trkpt>
      <trkpt lat="45.67648" lon="5.67897">
        <ele>228</ele>
        <time>2020-05-17T10:41:48.432Z</time>
      </trkpt>
      <trkpt lat="45.67651" lon="5.67898">
        <ele>228</ele>
        <time>2020-05-17T10:41:53.425Z</time>
      </trkpt>
      <trkpt lat="45.67658" lon="5.67898">
        <ele>229</ele>
        <time>2020-05-17T10:41:58.422Z</time>
      </trkpt>
      <trkpt lat="45.67665" lon="5.67897">
        <ele>229</ele>
        <time>2020-05-17T10:42:03.424Z</time>
      </trkpt>
      <trkpt lat="45.67673" lon="5.67896">
        <ele>229</ele>
        <time>2020-05-17T10:42:08.413Z</time>
      </trkpt>
      <trkpt lat="45.67681" lon="5.67895">
        <ele>229</ele>
        <time>2020-05-17T10:42:13.426Z</time>
      </trkpt>
      <trkpt lat="45.67687" lon="5.67895">
        <ele>229</ele>
        <time>2020-05-17T10:42:18.445Z</time>
      </trkpt>
      <trkpt lat="45.67693" lon="5.67896">
        <ele>229</ele>
        <time>2020-05-17T10:42:23.432Z</time>
      </trkpt>
      <trkpt lat="45.67699" lon="5.67895">
        <ele>229</ele>
        <time>2020-05-17T10:42:27.419Z</time>
      </trkpt>
      <trkpt lat="45.67705" lon="5.67892">
        <ele>229</ele>
        <time>2020-05-17T10:42:32.425Z</time>
      </trkpt>
      <trkpt lat="45.67709" lon="5.67887">
        <ele>228</ele>
        <time>2020-05-17T10:42:37.416Z</time>
      </trkpt>
      <trkpt lat="45.6771" lon="5.67881">
        <ele>228</ele>
        <time>2020-05-17T10:42:41.445Z</time>
      </trkpt>
      <trkpt lat="45.67711" lon="5.67874">
        <ele>230</ele>
        <time>2020-05-17T10:42:46.466Z</time>
      </trkpt>
      <trkpt lat="45.67708" lon="5.67867">
        <ele>230</ele>
        <time>2020-05-17T10:42:50.497Z</time>
      </trkpt>
      <trkpt lat="45.67706" lon="5.6786">
        <ele>230</ele>
        <time>2020-05-17T10:42:54.467Z</time>
      </trkpt>
      <trkpt lat="45.67704" lon="5.67853">
        <ele>230</ele>
        <time>2020-05-17T10:42:59.455Z</time>
      </trkpt>
      <trkpt lat="45.67699" lon="5.67844">
        <ele>231</ele>
        <time>2020-05-17T10:43:04.437Z</time>
      </trkpt>
      <trkpt lat="45.67696" lon="5.67838">
        <ele>231</ele>
        <time>2020-05-17T10:43:08.454Z</time>
      </trkpt>
      <trkpt lat="45.67693" lon="5.6783">
        <ele>231</ele>
        <time>2020-05-17T10:43:13.394Z</time>
      </trkpt>
      <trkpt lat="45.67691" lon="5.67824">
        <ele>231</ele>
        <time>2020-05-17T10:43:17.428Z</time>
      </trkpt>
      <trkpt lat="45.67688" lon="5.67815">
        <ele>231</ele>
        <time>2020-05-17T10:43:22.444Z</time>
      </trkpt>
      <trkpt lat="45.67687" lon="5.67806">
        <ele>231</ele>
        <time>2020-05-17T10:43:27.415Z</time>
      </trkpt>
      <trkpt lat="45.67687" lon="5.67798">
        <ele>231</ele>
        <time>2020-05-17T10:43:32.430Z</time>
      </trkpt>
      <trkpt lat="45.67684" lon="5.67789">
        <ele>232</ele>
        <time>2020-05-17T10:43:37.425Z</time>
      </trkpt>
      <trkpt lat="45.6768" lon="5.67781">
        <ele>231</ele>
        <time>2020-05-17T10:43:42.429Z</time>
      </trkpt>
      <trkpt lat="45.67677" lon="5.67774">
        <ele>231</ele>
        <time>2020-05-17T10:43:47.414Z</time>
      </trkpt>
      <trkpt lat="45.67677" lon="5.67765">
        <ele>231</ele>
        <time>2020-05-17T10:43:52.437Z</time>
      </trkpt>
      <trkpt lat="45.6768" lon="5.67756">
        <ele>233</ele>
        <time>2020-05-17T10:43:57.422Z</time>
      </trkpt>
      <trkpt lat="45.67681" lon="5.67747">
        <ele>232</ele>
        <time>2020-05-17T10:44:02.418Z</time>
      </trkpt>
      <trkpt lat="45.67682" lon="5.67743">
        <ele>232</ele>
        <time>2020-05-17T10:44:06.460Z</time>
      </trkpt>
      <trkpt lat="45.67684" lon="5.67735">
        <ele>234</ele>
        <time>2020-05-17T10:44:11.437Z</time>
      </trkpt>
      <trkpt lat="45.67686" lon="5.67726">
        <ele>234</ele>
        <time>2020-05-17T10:44:16.410Z</time>
      </trkpt>
      <trkpt lat="45.67688" lon="5.67718">
        <ele>234</ele>
        <time>2020-05-17T10:44:21.423Z</time>
      </trkpt>
      <trkpt lat="45.67691" lon="5.6771">
        <ele>234</ele>
        <time>2020-05-17T10:44:26.424Z</time>
      </trkpt>
      <trkpt lat="45.67695" lon="5.67703">
        <ele>236</ele>
        <time>2020-05-17T10:44:31.445Z</time>
      </trkpt>
      <trkpt lat="45.67701" lon="5.67698">
        <ele>236</ele>
        <time>2020-05-17T10:44:36.435Z</time>
      </trkpt>
      <trkpt lat="45.67706" lon="5.67695">
        <ele>236</ele>
        <time>2020-05-17T10:44:40.484Z</time>
      </trkpt>
      <trkpt lat="45.6771" lon="5.67691">
        <ele>237</ele>
        <time>2020-05-17T10:44:45.439Z</time>
      </trkpt>
      <trkpt lat="45.67717" lon="5.67688">
        <ele>237</ele>
        <time>2020-05-17T10:44:50.433Z</time>
      </trkpt>
      <trkpt lat="45.67722" lon="5.67685">
        <ele>237</ele>
        <time>2020-05-17T10:44:55.435Z</time>
      </trkpt>
      <trkpt lat="45.67727" lon="5.67681">
        <ele>237</ele>
        <time>2020-05-17T10:45:00.409Z</time>
      </trkpt>
      <trkpt lat="45.67733" lon="5.67678">
        <ele>240</ele>
        <time>2020-05-17T10:45:04.417Z</time>
      </trkpt>
      <trkpt lat="45.67737" lon="5.67675">
        <ele>240</ele>
        <time>2020-05-17T10:45:08.445Z</time>
      </trkpt>
      <trkpt lat="45.67743" lon="5.6767">
        <ele>240</ele>
        <time>2020-05-17T10:45:13.421Z</time>
      </trkpt>
      <trkpt lat="45.67749" lon="5.67665">
        <ele>240</ele>
        <time>2020-05-17T10:45:18.424Z</time>
      </trkpt>
      <trkpt lat="45.67755" lon="5.67659">
        <ele>240</ele>
        <time>2020-05-17T10:45:23.415Z</time>
      </trkpt>
      <trkpt lat="45.67759" lon="5.67653">
        <ele>240</ele>
        <time>2020-05-17T10:45:28.433Z</time>
      </trkpt>
      <trkpt lat="45.67762" lon="5.6765">
        <ele>242</ele>
        <time>2020-05-17T10:45:33.440Z</time>
      </trkpt>
      <trkpt lat="45.67767" lon="5.67648">
        <ele>241</ele>
        <time>2020-05-17T10:45:37.431Z</time>
      </trkpt>
      <trkpt lat="45.67775" lon="5.67645">
        <ele>241</ele>
        <time>2020-05-17T10:45:42.428Z</time>
      </trkpt>
      <trkpt lat="45.67783" lon="5.67638">
        <ele>241</ele>
        <time>2020-05-17T10:45:47.433Z</time>
      </trkpt>
      <trkpt lat="45.67787" lon="5.67635">
        <ele>241</ele>
        <time>2020-05-17T10:45:52.428Z</time>
      </trkpt>
      <trkpt lat="45.6779" lon="5.67632">
        <ele>241</ele>
        <time>2020-05-17T10:45:56.437Z</time>
      </trkpt>
      <trkpt lat="45.67794" lon="5.67628">
        <ele>241</ele>
        <time>2020-05-17T10:46:01.425Z</time>
      </trkpt>
      <trkpt lat="45.67798" lon="5.67623">
        <ele>243</ele>
        <time>2020-05-17T10:46:06.418Z</time>
      </trkpt>
      <trkpt lat="45.67802" lon="5.67618">
        <ele>243</ele>
        <time>2020-05-17T10:46:11.408Z</time>
      </trkpt>
      <trkpt lat="45.67805" lon="5.67614">
        <ele>243</ele>
        <time>2020-05-17T10:46:16.492Z</time>
      </trkpt>
      <trkpt lat="45.67809" lon="5.67607">
        <ele>243</ele>
        <time>2020-05-17T10:46:21.435Z</time>
      </trkpt>
      <trkpt lat="45.67811" lon="5.67604">
        <ele>243</ele>
        <time>2020-05-17T10:46:26.428Z</time>
      </trkpt>
      <trkpt lat="45.67817" lon="5.67599">
        <ele>243</ele>
        <time>2020-05-17T10:46:31.433Z</time>
      </trkpt>
      <trkpt lat="45.67819" lon="5.67596">
        <ele>244</ele>
        <time>2020-05-17T10:46:36.437Z</time>
      </trkpt>
      <trkpt lat="45.67819" lon="5.67586">
        <ele>244</ele>
        <time>2020-05-17T10:46:41.419Z</time>
      </trkpt>
      <trkpt lat="45.67819" lon="5.6758">
        <ele>244</ele>
        <time>2020-05-17T10:46:45.438Z</time>
      </trkpt>
      <trkpt lat="45.67819" lon="5.67575">
        <ele>244</ele>
        <time>2020-05-17T10:46:50.447Z</time>
      </trkpt>
      <trkpt lat="45.67818" lon="5.67573">
        <ele>244</ele>
        <time>2020-05-17T10:46:55.484Z</time>
      </trkpt>
      <trkpt lat="45.67816" lon="5.67573">
        <ele>244</ele>
        <time>2020-05-17T10:47:00.420Z</time>
      </trkpt>
      <trkpt lat="45.67823" lon="5.67582">
        <ele>246</ele>
        <time>2020-05-17T10:47:56.436Z</time>
      </trkpt>
      <trkpt lat="45.67823" lon="5.67582">
        <ele>246</ele>
        <time>2020-05-17T10:48:00.463Z</time>
      </trkpt>
      <trkpt lat="45.67825" lon="5.67582">
        <ele>246</ele>
        <time>2020-05-17T10:48:04.421Z</time>
      </trkpt>
      <trkpt lat="45.67826" lon="5.67579">
        <ele>246</ele>
        <time>2020-05-17T10:48:09.442Z</time>
      </trkpt>
      <trkpt lat="45.67827" lon="5.67573">
        <ele>246</ele>
        <time>2020-05-17T10:48:13.443Z</time>
      </trkpt>
      <trkpt lat="45.67822" lon="5.67577">
        <ele>246</ele>
        <time>2020-05-17T10:49:34.435Z</time>
      </trkpt>
      <trkpt lat="45.67822" lon="5.67577">
        <ele>246</ele>
        <time>2020-05-17T10:49:38.418Z</time>
      </trkpt>
      <trkpt lat="45.67821" lon="5.67579">
        <ele>246</ele>
        <time>2020-05-17T10:49:43.417Z</time>
      </trkpt>
      <trkpt lat="45.67821" lon="5.67579">
        <ele>246</ele>
        <time>2020-05-17T10:49:47.417Z</time>
      </trkpt>
      <trkpt lat="45.67824" lon="5.67583">
        <ele>246</ele>
        <time>2020-05-17T10:49:51.444Z</time>
      </trkpt>
      <trkpt lat="45.67826" lon="5.67576">
        <ele>246</ele>
        <time>2020-05-17T10:49:56.430Z</time>
      </trkpt>
      <trkpt lat="45.67829" lon="5.67566">
        <ele>246</ele>
        <time>2020-05-17T10:50:01.431Z</time>
      </trkpt>
      <trkpt lat="45.67827" lon="5.67557">
        <ele>246</ele>
        <time>2020-05-17T10:50:06.416Z</time>
      </trkpt>
      <trkpt lat="45.67825" lon="5.67546">
        <ele>246</ele>
        <time>2020-05-17T10:50:11.431Z</time>
      </trkpt>
      <trkpt lat="45.67822" lon="5.67536">
        <ele>246</ele>
        <time>2020-05-17T10:50:16.422Z</time>
      </trkpt>
      <trkpt lat="45.67825" lon="5.6753">
        <ele>246</ele>
        <time>2020-05-17T10:50:20.489Z</time>
      </trkpt>
      <trkpt lat="45.6783" lon="5.67524">
        <ele>246</ele>
        <time>2020-05-17T10:50:25.411Z</time>
      </trkpt>
      <trkpt lat="45.67835" lon="5.6752">
        <ele>246</ele>
        <time>2020-05-17T10:50:30.437Z</time>
      </trkpt>
      <trkpt lat="45.67838" lon="5.67513">
        <ele>247</ele>
        <time>2020-05-17T10:50:35.446Z</time>
      </trkpt>
      <trkpt lat="45.67842" lon="5.67501">
        <ele>247</ele>
        <time>2020-05-17T10:50:40.418Z</time>
      </trkpt>
      <trkpt lat="45.67844" lon="5.67494">
        <ele>247</ele>
        <time>2020-05-17T10:50:44.436Z</time>
      </trkpt>
      <trkpt lat="45.67846" lon="5.67485">
        <ele>248</ele>
        <time>2020-05-17T10:50:49.430Z</time>
      </trkpt>
      <trkpt lat="45.67849" lon="5.67478">
        <ele>248</ele>
        <time>2020-05-17T10:50:53.449Z</time>
      </trkpt>
      <trkpt lat="45.67851" lon="5.67468">
        <ele>248</ele>
        <time>2020-05-17T10:50:58.428Z</time>
      </trkpt>
      <trkpt lat="45.67853" lon="5.67459">
        <ele>248</ele>
        <time>2020-05-17T10:51:03.428Z</time>
      </trkpt>
      <trkpt lat="45.67855" lon="5.67451">
        <ele>249</ele>
        <time>2020-05-17T10:51:08.489Z</time>
      </trkpt>
      <trkpt lat="45.67857" lon="5.67441">
        <ele>249</ele>
        <time>2020-05-17T10:51:13.445Z</time>
      </trkpt>
      <trkpt lat="45.67858" lon="5.67432">
        <ele>249</ele>
        <time>2020-05-17T10:51:17.442Z</time>
      </trkpt>
      <trkpt lat="45.67859" lon="5.67423">
        <ele>249</ele>
        <time>2020-05-17T10:51:22.428Z</time>
      </trkpt>
      <trkpt lat="45.67861" lon="5.67413">
        <ele>249</ele>
        <time>2020-05-17T10:51:27.433Z</time>
      </trkpt>
      <trkpt lat="45.67862" lon="5.67403">
        <ele>249</ele>
        <time>2020-05-17T10:51:32.433Z</time>
      </trkpt>
      <trkpt lat="45.67864" lon="5.67392">
        <ele>251</ele>
        <time>2020-05-17T10:51:37.480Z</time>
      </trkpt>
      <trkpt lat="45.67864" lon="5.67383">
        <ele>251</ele>
        <time>2020-05-17T10:51:42.426Z</time>
      </trkpt>
      <trkpt lat="45.67863" lon="5.67373">
        <ele>252</ele>
        <time>2020-05-17T10:51:47.433Z</time>
      </trkpt>
      <trkpt lat="45.67862" lon="5.67364">
        <ele>252</ele>
        <time>2020-05-17T10:51:52.424Z</time>
      </trkpt>
      <trkpt lat="45.67859" lon="5.67355">
        <ele>252</ele>
        <time>2020-05-17T10:51:57.442Z</time>
      </trkpt>
      <trkpt lat="45.6786" lon="5.67344">
        <ele>255</ele>
        <time>2020-05-17T10:52:02.418Z</time>
      </trkpt>
      <trkpt lat="45.6786" lon="5.67334">
        <ele>255</ele>
        <time>2020-05-17T10:52:07.464Z</time>
      </trkpt>
      <trkpt lat="45.6786" lon="5.67326">
        <ele>255</ele>
        <time>2020-05-17T10:52:11.458Z</time>
      </trkpt>
      <trkpt lat="45.6786" lon="5.67315">
        <ele>260</ele>
        <time>2020-05-17T10:52:16.445Z</time>
      </trkpt>
      <trkpt lat="45.67863" lon="5.67305">
        <ele>260</ele>
        <time>2020-05-17T10:52:21.423Z</time>
      </trkpt>
      <trkpt lat="45.67866" lon="5.67297">
        <ele>260</ele>
        <time>2020-05-17T10:52:26.442Z</time>
      </trkpt>
      <trkpt lat="45.6787" lon="5.67288">
        <ele>269</ele>
        <time>2020-05-17T10:52:31.427Z</time>
      </trkpt>
      <trkpt lat="45.67875" lon="5.67283">
        <ele>263</ele>
        <time>2020-05-17T10:52:36.406Z</time>
      </trkpt>
      <trkpt lat="45.67883" lon="5.67278">
        <ele>263</ele>
        <time>2020-05-17T10:52:41.433Z</time>
      </trkpt>
      <trkpt lat="45.67889" lon="5.67273">
        <ele>263</ele>
        <time>2020-05-17T10:52:46.472Z</time>
      </trkpt>
      <trkpt lat="45.67895" lon="5.67271">
        <ele>263</ele>
        <time>2020-05-17T10:52:51.438Z</time>
      </trkpt>
      <trkpt lat="45.67902" lon="5.67269">
        <ele>263</ele>
        <time>2020-05-17T10:52:56.423Z</time>
      </trkpt>
      <trkpt lat="45.67908" lon="5.67263">
        <ele>264</ele>
        <time>2020-05-17T10:53:00.480Z</time>
      </trkpt>
      <trkpt lat="45.67913" lon="5.67255">
        <ele>264</ele>
        <time>2020-05-17T10:53:05.447Z</time>
      </trkpt>
      <trkpt lat="45.67918" lon="5.67247">
        <ele>264</ele>
        <time>2020-05-17T10:53:10.409Z</time>
      </trkpt>
      <trkpt lat="45.67922" lon="5.67241">
        <ele>264</ele>
        <time>2020-05-17T10:53:14.443Z</time>
      </trkpt>
      <trkpt lat="45.67928" lon="5.67235">
        <ele>267</ele>
        <time>2020-05-17T10:53:19.500Z</time>
      </trkpt>
      <trkpt lat="45.67932" lon="5.67227">
        <ele>266</ele>
        <time>2020-05-17T10:53:24.446Z</time>
      </trkpt>
      <trkpt lat="45.67935" lon="5.67222">
        <ele>266</ele>
        <time>2020-05-17T10:53:28.467Z</time>
      </trkpt>
      <trkpt lat="45.67938" lon="5.67216">
        <ele>266</ele>
        <time>2020-05-17T10:53:32.467Z</time>
      </trkpt>
      <trkpt lat="45.67943" lon="5.67208">
        <ele>272</ele>
        <time>2020-05-17T10:53:37.454Z</time>
      </trkpt>
      <trkpt lat="45.67948" lon="5.67201">
        <ele>272</ele>
        <time>2020-05-17T10:53:42.480Z</time>
      </trkpt>
      <trkpt lat="45.67954" lon="5.67197">
        <ele>272</ele>
        <time>2020-05-17T10:53:47.463Z</time>
      </trkpt>
      <trkpt lat="45.67961" lon="5.67193">
        <ele>272</ele>
        <time>2020-05-17T10:53:52.458Z</time>
      </trkpt>
      <trkpt lat="45.67968" lon="5.67189">
        <ele>272</ele>
        <time>2020-05-17T10:53:57.412Z</time>
      </trkpt>
      <trkpt lat="45.67974" lon="5.67187">
        <ele>272</ele>
        <time>2020-05-17T10:54:01.455Z</time>
      </trkpt>
      <trkpt lat="45.67981" lon="5.67186">
        <ele>272</ele>
        <time>2020-05-17T10:54:06.443Z</time>
      </trkpt>
      <trkpt lat="45.67987" lon="5.67184">
        <ele>274</ele>
        <time>2020-05-17T10:54:11.441Z</time>
      </trkpt>
      <trkpt lat="45.67993" lon="5.67182">
        <ele>274</ele>
        <time>2020-05-17T10:54:16.429Z</time>
      </trkpt>
      <trkpt lat="45.67998" lon="5.67178">
        <ele>284</ele>
        <time>2020-05-17T10:54:20.467Z</time>
      </trkpt>
      <trkpt lat="45.68002" lon="5.67174">
        <ele>284</ele>
        <time>2020-05-17T10:54:24.511Z</time>
      </trkpt>
      <trkpt lat="45.68008" lon="5.6717">
        <ele>284</ele>
        <time>2020-05-17T10:54:29.457Z</time>
      </trkpt>
      <trkpt lat="45.68013" lon="5.67167">
        <ele>284</ele>
        <time>2020-05-17T10:54:33.459Z</time>
      </trkpt>
      <trkpt lat="45.68021" lon="5.67163">
        <ele>279</ele>
        <time>2020-05-17T10:54:38.463Z</time>
      </trkpt>
      <trkpt lat="45.68028" lon="5.6716">
        <ele>279</ele>
        <time>2020-05-17T10:54:43.446Z</time>
      </trkpt>
      <trkpt lat="45.68034" lon="5.67157">
        <ele>279</ele>
        <time>2020-05-17T10:54:47.462Z</time>
      </trkpt>
      <trkpt lat="45.68041" lon="5.67153">
        <ele>289</ele>
        <time>2020-05-17T10:54:52.491Z</time>
      </trkpt>
      <trkpt lat="45.68047" lon="5.67151">
        <ele>285</ele>
        <time>2020-05-17T10:54:57.454Z</time>
      </trkpt>
      <trkpt lat="45.68054" lon="5.67146">
        <ele>285</ele>
        <time>2020-05-17T10:55:02.449Z</time>
      </trkpt>
      <trkpt lat="45.6806" lon="5.67142">
        <ele>285</ele>
        <time>2020-05-17T10:55:07.456Z</time>
      </trkpt>
      <trkpt lat="45.68066" lon="5.67135">
        <ele>285</ele>
        <time>2020-05-17T10:55:12.459Z</time>
      </trkpt>
      <trkpt lat="45.68072" lon="5.67129">
        <ele>283</ele>
        <time>2020-05-17T10:55:17.459Z</time>
      </trkpt>
      <trkpt lat="45.68078" lon="5.67121">
        <ele>293</ele>
        <time>2020-05-17T10:55:21.492Z</time>
      </trkpt>
      <trkpt lat="45.68083" lon="5.67117">
        <ele>293</ele>
        <time>2020-05-17T10:55:26.500Z</time>
      </trkpt>
      <trkpt lat="45.68089" lon="5.67113">
        <ele>293</ele>
        <time>2020-05-17T10:55:31.491Z</time>
      </trkpt>
      <trkpt lat="45.68095" lon="5.67111">
        <ele>293</ele>
        <time>2020-05-17T10:55:36.458Z</time>
      </trkpt>
      <trkpt lat="45.681" lon="5.67107">
        <ele>291</ele>
        <time>2020-05-17T10:55:40.496Z</time>
      </trkpt>
      <trkpt lat="45.68105" lon="5.67105">
        <ele>291</ele>
        <time>2020-05-17T10:55:45.455Z</time>
      </trkpt>
      <trkpt lat="45.6811" lon="5.67102">
        <ele>291</ele>
        <time>2020-05-17T10:55:50.461Z</time>
      </trkpt>
      <trkpt lat="45.68114" lon="5.67097">
        <ele>297</ele>
        <time>2020-05-17T10:55:54.477Z</time>
      </trkpt>
      <trkpt lat="45.68119" lon="5.67093">
        <ele>297</ele>
        <time>2020-05-17T10:55:59.476Z</time>
      </trkpt>
      <trkpt lat="45.68124" lon="5.67091">
        <ele>297</ele>
        <time>2020-05-17T10:56:04.447Z</time>
      </trkpt>
      <trkpt lat="45.68129" lon="5.67087">
        <ele>297</ele>
        <time>2020-05-17T10:56:08.500Z</time>
      </trkpt>
      <trkpt lat="45.68134" lon="5.67082">
        <ele>297</ele>
        <time>2020-05-17T10:56:13.466Z</time>
      </trkpt>
      <trkpt lat="45.68141" lon="5.67081">
        <ele>297</ele>
        <time>2020-05-17T10:56:18.447Z</time>
      </trkpt>
      <trkpt lat="45.68146" lon="5.67082">
        <ele>297</ele>
        <time>2020-05-17T10:56:22.486Z</time>
      </trkpt>
      <trkpt lat="45.68156" lon="5.67077">
        <ele>299</ele>
        <time>2020-05-17T10:56:27.462Z</time>
      </trkpt>
      <trkpt lat="45.68163" lon="5.67077">
        <ele>299</ele>
        <time>2020-05-17T10:56:31.468Z</time>
      </trkpt>
      <trkpt lat="45.6817" lon="5.67078">
        <ele>299</ele>
        <time>2020-05-17T10:56:36.453Z</time>
      </trkpt>
      <trkpt lat="45.68177" lon="5.67078">
        <ele>299</ele>
        <time>2020-05-17T10:56:41.470Z</time>
      </trkpt>
      <trkpt lat="45.68182" lon="5.6708">
        <ele>299</ele>
        <time>2020-05-17T10:56:46.439Z</time>
      </trkpt>
      <trkpt lat="45.68187" lon="5.67086">
        <ele>299</ele>
        <time>2020-05-17T10:56:51.454Z</time>
      </trkpt>
      <trkpt lat="45.68192" lon="5.67087">
        <ele>299</ele>
        <time>2020-05-17T10:56:55.464Z</time>
      </trkpt>
      <trkpt lat="45.68196" lon="5.67082">
        <ele>299</ele>
        <time>2020-05-17T10:57:00.434Z</time>
      </trkpt>
      <trkpt lat="45.68195" lon="5.67074">
        <ele>299</ele>
        <time>2020-05-17T10:57:04.458Z</time>
      </trkpt>
      <trkpt lat="45.68191" lon="5.67069">
        <ele>303</ele>
        <time>2020-05-17T10:57:09.490Z</time>
      </trkpt>
      <trkpt lat="45.68185" lon="5.67064">
        <ele>303</ele>
        <time>2020-05-17T10:57:14.472Z</time>
      </trkpt>
      <trkpt lat="45.68179" lon="5.6706">
        <ele>302</ele>
        <time>2020-05-17T10:57:19.451Z</time>
      </trkpt>
      <trkpt lat="45.68173" lon="5.67056">
        <ele>302</ele>
        <time>2020-05-17T10:57:24.525Z</time>
      </trkpt>
      <trkpt lat="45.68166" lon="5.67055">
        <ele>302</ele>
        <time>2020-05-17T10:57:29.454Z</time>
      </trkpt>
      <trkpt lat="45.68161" lon="5.67056">
        <ele>302</ele>
        <time>2020-05-17T10:57:34.461Z</time>
      </trkpt>
      <trkpt lat="45.68157" lon="5.67056">
        <ele>302</ele>
        <time>2020-05-17T10:57:38.438Z</time>
      </trkpt>
      <trkpt lat="45.68152" lon="5.67053">
        <ele>301</ele>
        <time>2020-05-17T10:57:43.461Z</time>
      </trkpt>
      <trkpt lat="45.6815" lon="5.67048">
        <ele>301</ele>
        <time>2020-05-17T10:57:48.463Z</time>
      </trkpt>
      <trkpt lat="45.68155" lon="5.67047">
        <ele>302</ele>
        <time>2020-05-17T10:57:53.444Z</time>
      </trkpt>
      <trkpt lat="45.68161" lon="5.67044">
        <ele>302</ele>
        <time>2020-05-17T10:57:57.487Z</time>
      </trkpt>
      <trkpt lat="45.68169" lon="5.67042">
        <ele>302</ele>
        <time>2020-05-17T10:58:02.463Z</time>
      </trkpt>
      <trkpt lat="45.68175" lon="5.6704">
        <ele>306</ele>
        <time>2020-05-17T10:58:06.473Z</time>
      </trkpt>
      <trkpt lat="45.6818" lon="5.67038">
        <ele>306</ele>
        <time>2020-05-17T10:58:10.511Z</time>
      </trkpt>
      <trkpt lat="45.68187" lon="5.67036">
        <ele>307</ele>
        <time>2020-05-17T10:58:15.470Z</time>
      </trkpt>
      <trkpt lat="45.68194" lon="5.67038">
        <ele>307</ele>
        <time>2020-05-17T10:58:20.461Z</time>
      </trkpt>
      <trkpt lat="45.682" lon="5.67039">
        <ele>307</ele>
        <time>2020-05-17T10:58:24.463Z</time>
      </trkpt>
      <trkpt lat="45.68206" lon="5.67041">
        <ele>307</ele>
        <time>2020-05-17T10:58:29.451Z</time>
      </trkpt>
      <trkpt lat="45.68211" lon="5.67041">
        <ele>310</ele>
        <time>2020-05-17T10:58:33.501Z</time>
      </trkpt>
      <trkpt lat="45.68218" lon="5.67044">
        <ele>305</ele>
        <time>2020-05-17T10:58:38.456Z</time>
      </trkpt>
      <trkpt lat="45.68222" lon="5.67047">
        <ele>305</ele>
        <time>2020-05-17T10:58:42.444Z</time>
      </trkpt>
      <trkpt lat="45.68223" lon="5.67049">
        <ele>305</ele>
        <time>2020-05-17T10:58:47.468Z</time>
      </trkpt>
      <trkpt lat="45.68227" lon="5.67054">
        <ele>305</ele>
        <time>2020-05-17T10:58:52.480Z</time>
      </trkpt>
      <trkpt lat="45.68232" lon="5.67061">
        <ele>305</ele>
        <time>2020-05-17T10:58:57.466Z</time>
      </trkpt>
      <trkpt lat="45.68234" lon="5.6707">
        <ele>301</ele>
        <time>2020-05-17T10:59:02.406Z</time>
      </trkpt>
      <trkpt lat="45.68237" lon="5.67078">
        <ele>305</ele>
        <time>2020-05-17T10:59:07.407Z</time>
      </trkpt>
      <trkpt lat="45.68242" lon="5.67085">
        <ele>305</ele>
        <time>2020-05-17T10:59:11.467Z</time>
      </trkpt>
      <trkpt lat="45.68247" lon="5.6708">
        <ele>305</ele>
        <time>2020-05-17T10:59:16.448Z</time>
      </trkpt>
      <trkpt lat="45.68246" lon="5.6707">
        <ele>305</ele>
        <time>2020-05-17T10:59:21.423Z</time>
      </trkpt>
      <trkpt lat="45.68244" lon="5.67063">
        <ele>310</ele>
        <time>2020-05-17T10:59:25.450Z</time>
      </trkpt>
      <trkpt lat="45.68242" lon="5.67056">
        <ele>310</ele>
        <time>2020-05-17T10:59:29.461Z</time>
      </trkpt>
      <trkpt lat="45.68242" lon="5.67046">
        <ele>310</ele>
        <time>2020-05-17T10:59:34.469Z</time>
      </trkpt>
      <trkpt lat="45.68243" lon="5.67037">
        <ele>316</ele>
        <time>2020-05-17T10:59:39.455Z</time>
      </trkpt>
      <trkpt lat="45.68246" lon="5.67033">
        <ele>316</ele>
        <time>2020-05-17T10:59:43.470Z</time>
      </trkpt>
      <trkpt lat="45.68251" lon="5.67027">
        <ele>316</ele>
        <time>2020-05-17T10:59:48.447Z</time>
      </trkpt>
      <trkpt lat="45.68255" lon="5.67021">
        <ele>316</ele>
        <time>2020-05-17T10:59:53.502Z</time>
      </trkpt>
      <trkpt lat="45.68259" lon="5.67017">
        <ele>316</ele>
        <time>2020-05-17T10:59:58.458Z</time>
      </trkpt>
      <trkpt lat="45.6826" lon="5.67012">
        <ele>323</ele>
        <time>2020-05-17T11:00:03.465Z</time>
      </trkpt>
      <trkpt lat="45.68263" lon="5.67005">
        <ele>323</ele>
        <time>2020-05-17T11:00:08.470Z</time>
      </trkpt>
      <trkpt lat="45.68267" lon="5.66993">
        <ele>329</ele>
        <time>2020-05-17T11:00:13.484Z</time>
      </trkpt>
      <trkpt lat="45.68273" lon="5.66983">
        <ele>334</ele>
        <time>2020-05-17T11:00:18.447Z</time>
      </trkpt>
      <trkpt lat="45.68275" lon="5.66974">
        <ele>334</ele>
        <time>2020-05-17T11:00:22.514Z</time>
      </trkpt>
      <trkpt lat="45.68277" lon="5.66967">
        <ele>334</ele>
        <time>2020-05-17T11:00:27.462Z</time>
      </trkpt>
      <trkpt lat="45.68279" lon="5.66961">
        <ele>334</ele>
        <time>2020-05-17T11:00:32.472Z</time>
      </trkpt>
      <trkpt lat="45.6828" lon="5.66954">
        <ele>337</ele>
        <time>2020-05-17T11:00:37.457Z</time>
      </trkpt>
      <trkpt lat="45.6828" lon="5.66953">
        <ele>337</ele>
        <time>2020-05-17T11:00:42.448Z</time>
      </trkpt>
      <trkpt lat="45.6828" lon="5.66951">
        <ele>337</ele>
        <time>2020-05-17T11:00:46.510Z</time>
      </trkpt>
      <trkpt lat="45.6828" lon="5.6695">
        <ele>337</ele>
        <time>2020-05-17T11:00:51.484Z</time>
      </trkpt>
      <trkpt lat="45.6828" lon="5.66948">
        <ele>337</ele>
        <time>2020-05-17T11:00:56.477Z</time>
      </trkpt>
      <trkpt lat="45.68282" lon="5.66938">
        <ele>337</ele>
        <time>2020-05-17T11:01:01.444Z</time>
      </trkpt>
      <trkpt lat="45.68283" lon="5.66932">
        <ele>337</ele>
        <time>2020-05-17T11:01:06.478Z</time>
      </trkpt>
      <trkpt lat="45.68286" lon="5.66915">
        <ele>340</ele>
        <time>2020-05-17T11:01:11.472Z</time>
      </trkpt>
      <trkpt lat="45.68285" lon="5.66902">
        <ele>346</ele>
        <time>2020-05-17T11:01:16.458Z</time>
      </trkpt>
      <trkpt lat="45.68287" lon="5.66895">
        <ele>346</ele>
        <time>2020-05-17T11:01:21.525Z</time>
      </trkpt>
      <trkpt lat="45.68288" lon="5.66891">
        <ele>346</ele>
        <time>2020-05-17T11:01:26.454Z</time>
      </trkpt>
      <trkpt lat="45.6829" lon="5.66882">
        <ele>346</ele>
        <time>2020-05-17T11:01:31.456Z</time>
      </trkpt>
      <trkpt lat="45.68293" lon="5.66875">
        <ele>347</ele>
        <time>2020-05-17T11:01:35.440Z</time>
      </trkpt>
      <trkpt lat="45.68298" lon="5.66869">
        <ele>354</ele>
        <time>2020-05-17T11:01:40.450Z</time>
      </trkpt>
      <trkpt lat="45.68298" lon="5.66868">
        <ele>354</ele>
        <time>2020-05-17T11:01:45.456Z</time>
      </trkpt>
      <trkpt lat="45.683" lon="5.66864">
        <ele>354</ele>
        <time>2020-05-17T11:01:50.462Z</time>
      </trkpt>
      <trkpt lat="45.68305" lon="5.66857">
        <ele>354</ele>
        <time>2020-05-17T11:01:54.455Z</time>
      </trkpt>
      <trkpt lat="45.68309" lon="5.66849">
        <ele>354</ele>
        <time>2020-05-17T11:01:59.458Z</time>
      </trkpt>
      <trkpt lat="45.68314" lon="5.66843">
        <ele>359</ele>
        <time>2020-05-17T11:02:04.453Z</time>
      </trkpt>
      <trkpt lat="45.68321" lon="5.66831">
        <ele>356</ele>
        <time>2020-05-17T11:02:09.466Z</time>
      </trkpt>
      <trkpt lat="45.68325" lon="5.66826">
        <ele>356</ele>
        <time>2020-05-17T11:02:14.461Z</time>
      </trkpt>
      <trkpt lat="45.68328" lon="5.66817">
        <ele>361</ele>
        <time>2020-05-17T11:02:19.440Z</time>
      </trkpt>
      <trkpt lat="45.68331" lon="5.66811">
        <ele>361</ele>
        <time>2020-05-17T11:02:23.481Z</time>
      </trkpt>
      <trkpt lat="45.68334" lon="5.66803">
        <ele>361</ele>
        <time>2020-05-17T11:02:28.457Z</time>
      </trkpt>
      <trkpt lat="45.68338" lon="5.66796">
        <ele>361</ele>
        <time>2020-05-17T11:02:33.459Z</time>
      </trkpt>
      <trkpt lat="45.68342" lon="5.66792">
        <ele>369</ele>
        <time>2020-05-17T11:02:38.457Z</time>
      </trkpt>
      <trkpt lat="45.68346" lon="5.6679">
        <ele>369</ele>
        <time>2020-05-17T11:02:43.462Z</time>
      </trkpt>
      <trkpt lat="45.68354" lon="5.66791">
        <ele>364</ele>
        <time>2020-05-17T11:02:48.442Z</time>
      </trkpt>
      <trkpt lat="45.68359" lon="5.6679">
        <ele>364</ele>
        <time>2020-05-17T11:02:53.472Z</time>
      </trkpt>
      <trkpt lat="45.68364" lon="5.66787">
        <ele>364</ele>
        <time>2020-05-17T11:02:58.454Z</time>
      </trkpt>
      <trkpt lat="45.68376" lon="5.66786">
        <ele>360</ele>
        <time>2020-05-17T11:03:46.438Z</time>
      </trkpt>
      <trkpt lat="45.68376" lon="5.66785">
        <ele>360</ele>
        <time>2020-05-17T11:03:50.500Z</time>
      </trkpt>
      <trkpt lat="45.68376" lon="5.66788">
        <ele>360</ele>
        <time>2020-05-17T11:03:55.379Z</time>
      </trkpt>
      <trkpt lat="45.68376" lon="5.66788">
        <ele>360</ele>
        <time>2020-05-17T11:04:00.367Z</time>
      </trkpt>
      <trkpt lat="45.68377" lon="5.66788">
        <ele>360</ele>
        <time>2020-05-17T11:04:04.397Z</time>
      </trkpt>
      <trkpt lat="45.68378" lon="5.66789">
        <ele>360</ele>
        <time>2020-05-17T11:04:21.457Z</time>
      </trkpt>
      <trkpt lat="45.68378" lon="5.66786">
        <ele>360</ele>
        <time>2020-05-17T11:04:26.431Z</time>
      </trkpt>
      <trkpt lat="45.68379" lon="5.66785">
        <ele>360</ele>
        <time>2020-05-17T11:04:30.427Z</time>
      </trkpt>
      <trkpt lat="45.68382" lon="5.66779">
        <ele>360</ele>
        <time>2020-05-17T11:04:35.489Z</time>
      </trkpt>
      <trkpt lat="45.68386" lon="5.66772">
        <ele>360</ele>
        <time>2020-05-17T11:04:40.422Z</time>
      </trkpt>
      <trkpt lat="45.68386" lon="5.6677">
        <ele>360</ele>
        <time>2020-05-17T11:04:44.472Z</time>
      </trkpt>
      <trkpt lat="45.68388" lon="5.66771">
        <ele>360</ele>
        <time>2020-05-17T11:04:48.449Z</time>
      </trkpt>
      <trkpt lat="45.68394" lon="5.66773">
        <ele>360</ele>
        <time>2020-05-17T11:04:53.445Z</time>
      </trkpt>
      <trkpt lat="45.68398" lon="5.66772">
        <ele>360</ele>
        <time>2020-05-17T11:04:57.464Z</time>
      </trkpt>
      <trkpt lat="45.68404" lon="5.66773">
        <ele>358</ele>
        <time>2020-05-17T11:05:02.461Z</time>
      </trkpt>
      <trkpt lat="45.68408" lon="5.66773">
        <ele>358</ele>
        <time>2020-05-17T11:05:06.459Z</time>
      </trkpt>
      <trkpt lat="45.68415" lon="5.66773">
        <ele>358</ele>
        <time>2020-05-17T11:05:11.464Z</time>
      </trkpt>
      <trkpt lat="45.68422" lon="5.66772">
        <ele>358</ele>
        <time>2020-05-17T11:05:16.466Z</time>
      </trkpt>
      <trkpt lat="45.68428" lon="5.66771">
        <ele>358</ele>
        <time>2020-05-17T11:05:20.509Z</time>
      </trkpt>
      <trkpt lat="45.68434" lon="5.66771">
        <ele>359</ele>
        <time>2020-05-17T11:05:25.443Z</time>
      </trkpt>
      <trkpt lat="45.6844" lon="5.66768">
        <ele>359</ele>
        <time>2020-05-17T11:05:30.471Z</time>
      </trkpt>
      <trkpt lat="45.68448" lon="5.66767">
        <ele>359</ele>
        <time>2020-05-17T11:05:35.466Z</time>
      </trkpt>
      <trkpt lat="45.68453" lon="5.66766">
        <ele>359</ele>
        <time>2020-05-17T11:05:39.476Z</time>
      </trkpt>
      <trkpt lat="45.68459" lon="5.66764">
        <ele>358</ele>
        <time>2020-05-17T11:05:44.452Z</time>
      </trkpt>
      <trkpt lat="45.68465" lon="5.66763">
        <ele>371</ele>
        <time>2020-05-17T11:05:49.476Z</time>
      </trkpt>
      <trkpt lat="45.6847" lon="5.66761">
        <ele>371</ele>
        <time>2020-05-17T11:05:54.446Z</time>
      </trkpt>
      <trkpt lat="45.68476" lon="5.66761">
        <ele>371</ele>
        <time>2020-05-17T11:05:58.469Z</time>
      </trkpt>
      <trkpt lat="45.68483" lon="5.66761">
        <ele>371</ele>
        <time>2020-05-17T11:06:03.457Z</time>
      </trkpt>
      <trkpt lat="45.68488" lon="5.6676">
        <ele>371</ele>
        <time>2020-05-17T11:06:08.506Z</time>
      </trkpt>
      <trkpt lat="45.68494" lon="5.66757">
        <ele>371</ele>
        <time>2020-05-17T11:06:13.480Z</time>
      </trkpt>
      <trkpt lat="45.68499" lon="5.66755">
        <ele>371</ele>
        <time>2020-05-17T11:06:18.455Z</time>
      </trkpt>
      <trkpt lat="45.68505" lon="5.66753">
        <ele>371</ele>
        <time>2020-05-17T11:06:23.466Z</time>
      </trkpt>
      <trkpt lat="45.6851" lon="5.66751">
        <ele>371</ele>
        <time>2020-05-17T11:06:28.474Z</time>
      </trkpt>
      <trkpt lat="45.68516" lon="5.66751">
        <ele>366</ele>
        <time>2020-05-17T11:06:33.469Z</time>
      </trkpt>
      <trkpt lat="45.68521" lon="5.66746">
        <ele>366</ele>
        <time>2020-05-17T11:06:38.455Z</time>
      </trkpt>
      <trkpt lat="45.68525" lon="5.66741">
        <ele>366</ele>
        <time>2020-05-17T11:06:43.479Z</time>
      </trkpt>
      <trkpt lat="45.6853" lon="5.66735">
        <ele>374</ele>
        <time>2020-05-17T11:06:48.477Z</time>
      </trkpt>
      <trkpt lat="45.68534" lon="5.66732">
        <ele>374</ele>
        <time>2020-05-17T11:06:53.458Z</time>
      </trkpt>
      <trkpt lat="45.68542" lon="5.66731">
        <ele>370</ele>
        <time>2020-05-17T11:06:58.460Z</time>
      </trkpt>
      <trkpt lat="45.68549" lon="5.6673">
        <ele>370</ele>
        <time>2020-05-17T11:07:03.474Z</time>
      </trkpt>
      <trkpt lat="45.68554" lon="5.66727">
        <ele>370</ele>
        <time>2020-05-17T11:07:08.441Z</time>
      </trkpt>
      <trkpt lat="45.68559" lon="5.66725">
        <ele>370</ele>
        <time>2020-05-17T11:07:12.466Z</time>
      </trkpt>
      <trkpt lat="45.68565" lon="5.66723">
        <ele>370</ele>
        <time>2020-05-17T11:07:17.470Z</time>
      </trkpt>
      <trkpt lat="45.68568" lon="5.66722">
        <ele>370</ele>
        <time>2020-05-17T11:07:22.466Z</time>
      </trkpt>
      <trkpt lat="45.68573" lon="5.66719">
        <ele>363</ele>
        <time>2020-05-17T11:07:26.549Z</time>
      </trkpt>
      <trkpt lat="45.6858" lon="5.66715">
        <ele>363</ele>
        <time>2020-05-17T11:07:31.491Z</time>
      </trkpt>
      <trkpt lat="45.68591" lon="5.66713">
        <ele>363</ele>
        <time>2020-05-17T11:07:36.475Z</time>
      </trkpt>
      <trkpt lat="45.68597" lon="5.66715">
        <ele>363</ele>
        <time>2020-05-17T11:07:40.464Z</time>
      </trkpt>
      <trkpt lat="45.68602" lon="5.66713">
        <ele>357</ele>
        <time>2020-05-17T11:07:44.537Z</time>
      </trkpt>
      <trkpt lat="45.68609" lon="5.66711">
        <ele>357</ele>
        <time>2020-05-17T11:07:49.481Z</time>
      </trkpt>
      <trkpt lat="45.68614" lon="5.66706">
        <ele>364</ele>
        <time>2020-05-17T11:07:54.462Z</time>
      </trkpt>
      <trkpt lat="45.68618" lon="5.66696">
        <ele>364</ele>
        <time>2020-05-17T11:07:59.471Z</time>
      </trkpt>
      <trkpt lat="45.68617" lon="5.66686">
        <ele>364</ele>
        <time>2020-05-17T11:08:04.458Z</time>
      </trkpt>
      <trkpt lat="45.68615" lon="5.66675">
        <ele>368</ele>
        <time>2020-05-17T11:08:09.457Z</time>
      </trkpt>
      <trkpt lat="45.68613" lon="5.66666">
        <ele>368</ele>
        <time>2020-05-17T11:08:14.462Z</time>
      </trkpt>
      <trkpt lat="45.6861" lon="5.66657">
        <ele>368</ele>
        <time>2020-05-17T11:08:19.438Z</time>
      </trkpt>
      <trkpt lat="45.68608" lon="5.66648">
        <ele>370</ele>
        <time>2020-05-17T11:08:24.486Z</time>
      </trkpt>
      <trkpt lat="45.68607" lon="5.66641">
        <ele>370</ele>
        <time>2020-05-17T11:08:28.485Z</time>
      </trkpt>
      <trkpt lat="45.68606" lon="5.66632">
        <ele>370</ele>
        <time>2020-05-17T11:08:33.456Z</time>
      </trkpt>
      <trkpt lat="45.68604" lon="5.66624">
        <ele>371</ele>
        <time>2020-05-17T11:08:37.457Z</time>
      </trkpt>
      <trkpt lat="45.68603" lon="5.66613">
        <ele>371</ele>
        <time>2020-05-17T11:08:42.437Z</time>
      </trkpt>
      <trkpt lat="45.68602" lon="5.66605">
        <ele>371</ele>
        <time>2020-05-17T11:08:47.431Z</time>
      </trkpt>
      <trkpt lat="45.686" lon="5.66597">
        <ele>371</ele>
        <time>2020-05-17T11:08:51.467Z</time>
      </trkpt>
      <trkpt lat="45.68599" lon="5.66589">
        <ele>372</ele>
        <time>2020-05-17T11:08:55.481Z</time>
      </trkpt>
      <trkpt lat="45.68597" lon="5.66582">
        <ele>373</ele>
        <time>2020-05-17T11:09:00.465Z</time>
      </trkpt>
      <trkpt lat="45.68597" lon="5.66579">
        <ele>372</ele>
        <time>2020-05-17T11:09:05.453Z</time>
      </trkpt>
      <trkpt lat="45.68596" lon="5.66571">
        <ele>373</ele>
        <time>2020-05-17T11:09:10.472Z</time>
      </trkpt>
      <trkpt lat="45.68593" lon="5.66565">
        <ele>373</ele>
        <time>2020-05-17T11:09:15.430Z</time>
      </trkpt>
      <trkpt lat="45.68593" lon="5.66557">
        <ele>373</ele>
        <time>2020-05-17T11:09:19.446Z</time>
      </trkpt>
      <trkpt lat="45.68592" lon="5.66548">
        <ele>373</ele>
        <time>2020-05-17T11:09:24.476Z</time>
      </trkpt>
      <trkpt lat="45.68591" lon="5.66545">
        <ele>373</ele>
        <time>2020-05-17T11:09:29.468Z</time>
      </trkpt>
      <trkpt lat="45.68592" lon="5.6654">
        <ele>372</ele>
        <time>2020-05-17T11:09:34.482Z</time>
      </trkpt>
      <trkpt lat="45.68594" lon="5.66525">
        <ele>372</ele>
        <time>2020-05-17T11:09:39.459Z</time>
      </trkpt>
      <trkpt lat="45.68594" lon="5.66517">
        <ele>372</ele>
        <time>2020-05-17T11:09:44.471Z</time>
      </trkpt>
      <trkpt lat="45.68592" lon="5.66513">
        <ele>374</ele>
        <time>2020-05-17T11:09:49.453Z</time>
      </trkpt>
      <trkpt lat="45.68592" lon="5.66505">
        <ele>374</ele>
        <time>2020-05-17T11:09:54.461Z</time>
      </trkpt>
      <trkpt lat="45.68591" lon="5.6649">
        <ele>374</ele>
        <time>2020-05-17T11:09:59.476Z</time>
      </trkpt>
      <trkpt lat="45.68589" lon="5.66482">
        <ele>375</ele>
        <time>2020-05-17T11:10:04.444Z</time>
      </trkpt>
      <trkpt lat="45.68586" lon="5.66472">
        <ele>375</ele>
        <time>2020-05-17T11:10:09.465Z</time>
      </trkpt>
      <trkpt lat="45.68586" lon="5.66461">
        <ele>375</ele>
        <time>2020-05-17T11:10:13.473Z</time>
      </trkpt>
      <trkpt lat="45.68586" lon="5.66451">
        <ele>374</ele>
        <time>2020-05-17T11:10:18.470Z</time>
      </trkpt>
      <trkpt lat="45.6858" lon="5.6644">
        <ele>374</ele>
        <time>2020-05-17T11:10:23.473Z</time>
      </trkpt>
      <trkpt lat="45.68578" lon="5.66431">
        <ele>374</ele>
        <time>2020-05-17T11:10:28.485Z</time>
      </trkpt>
      <trkpt lat="45.68577" lon="5.66424">
        <ele>373</ele>
        <time>2020-05-17T11:10:33.464Z</time>
      </trkpt>
      <trkpt lat="45.68574" lon="5.66417">
        <ele>373</ele>
        <time>2020-05-17T11:10:38.467Z</time>
      </trkpt>
      <trkpt lat="45.68571" lon="5.66414">
        <ele>373</ele>
        <time>2020-05-17T11:10:42.472Z</time>
      </trkpt>
      <trkpt lat="45.68566" lon="5.66411">
        <ele>372</ele>
        <time>2020-05-17T11:10:47.460Z</time>
      </trkpt>
      <trkpt lat="45.6856" lon="5.66409">
        <ele>372</ele>
        <time>2020-05-17T11:10:52.476Z</time>
      </trkpt>
      <trkpt lat="45.68554" lon="5.66406">
        <ele>372</ele>
        <time>2020-05-17T11:10:57.446Z</time>
      </trkpt>
      <trkpt lat="45.68552" lon="5.66406">
        <ele>372</ele>
        <time>2020-05-17T11:11:01.504Z</time>
      </trkpt>
      <trkpt lat="45.6855" lon="5.66406">
        <ele>372</ele>
        <time>2020-05-17T11:11:38.463Z</time>
      </trkpt>
      <trkpt lat="45.6855" lon="5.66406">
        <ele>372</ele>
        <time>2020-05-17T11:11:42.428Z</time>
      </trkpt>
      <trkpt lat="45.6855" lon="5.66406">
        <ele>372</ele>
        <time>2020-05-17T11:11:47.440Z</time>
      </trkpt>
      <trkpt lat="45.68547" lon="5.66406">
        <ele>372</ele>
        <time>2020-05-17T11:11:51.479Z</time>
      </trkpt>
      <trkpt lat="45.68539" lon="5.66405">
        <ele>373</ele>
        <time>2020-05-17T11:11:56.481Z</time>
      </trkpt>
      <trkpt lat="45.68533" lon="5.66402">
        <ele>370</ele>
        <time>2020-05-17T11:12:00.476Z</time>
      </trkpt>
      <trkpt lat="45.68527" lon="5.66397">
        <ele>370</ele>
        <time>2020-05-17T11:12:05.462Z</time>
      </trkpt>
      <trkpt lat="45.68519" lon="5.6639">
        <ele>370</ele>
        <time>2020-05-17T11:12:10.443Z</time>
      </trkpt>
      <trkpt lat="45.68514" lon="5.66389">
        <ele>370</ele>
        <time>2020-05-17T11:12:14.455Z</time>
      </trkpt>
      <trkpt lat="45.6851" lon="5.66386">
        <ele>373</ele>
        <time>2020-05-17T11:12:19.438Z</time>
      </trkpt>
      <trkpt lat="45.68505" lon="5.66383">
        <ele>373</ele>
        <time>2020-05-17T11:12:23.473Z</time>
      </trkpt>
      <trkpt lat="45.685" lon="5.6638">
        <ele>373</ele>
        <time>2020-05-17T11:12:28.452Z</time>
      </trkpt>
      <trkpt lat="45.68496" lon="5.66375">
        <ele>373</ele>
        <time>2020-05-17T11:12:33.454Z</time>
      </trkpt>
      <trkpt lat="45.6849" lon="5.66368">
        <ele>367</ele>
        <time>2020-05-17T11:12:38.418Z</time>
      </trkpt>
      <trkpt lat="45.68485" lon="5.66364">
        <ele>375</ele>
        <time>2020-05-17T11:12:42.475Z</time>
      </trkpt>
      <trkpt lat="45.68481" lon="5.6636">
        <ele>375</ele>
        <time>2020-05-17T11:12:47.473Z</time>
      </trkpt>
      <trkpt lat="45.68479" lon="5.66354">
        <ele>375</ele>
        <time>2020-05-17T11:12:52.453Z</time>
      </trkpt>
      <trkpt lat="45.68475" lon="5.66346">
        <ele>370</ele>
        <time>2020-05-17T11:12:57.478Z</time>
      </trkpt>
      <trkpt lat="45.68471" lon="5.66337">
        <ele>370</ele>
        <time>2020-05-17T11:13:02.432Z</time>
      </trkpt>
      <trkpt lat="45.68468" lon="5.6633">
        <ele>370</ele>
        <time>2020-05-17T11:13:06.458Z</time>
      </trkpt>
      <trkpt lat="45.68466" lon="5.6632">
        <ele>370</ele>
        <time>2020-05-17T11:13:11.461Z</time>
      </trkpt>
      <trkpt lat="45.68465" lon="5.6631">
        <ele>367</ele>
        <time>2020-05-17T11:13:15.467Z</time>
      </trkpt>
      <trkpt lat="45.68462" lon="5.663">
        <ele>367</ele>
        <time>2020-05-17T11:13:20.445Z</time>
      </trkpt>
      <trkpt lat="45.6846" lon="5.66291">
        <ele>365</ele>
        <time>2020-05-17T11:13:25.440Z</time>
      </trkpt>
      <trkpt lat="45.68458" lon="5.66282">
        <ele>381</ele>
        <time>2020-05-17T11:13:30.448Z</time>
      </trkpt>
      <trkpt lat="45.68457" lon="5.66273">
        <ele>381</ele>
        <time>2020-05-17T11:13:35.467Z</time>
      </trkpt>
      <trkpt lat="45.68456" lon="5.66264">
        <ele>381</ele>
        <time>2020-05-17T11:13:40.482Z</time>
      </trkpt>
      <trkpt lat="45.68455" lon="5.66255">
        <ele>380</ele>
        <time>2020-05-17T11:13:45.480Z</time>
      </trkpt>
      <trkpt lat="45.68451" lon="5.66248">
        <ele>380</ele>
        <time>2020-05-17T11:13:50.445Z</time>
      </trkpt>
      <trkpt lat="45.68452" lon="5.66239">
        <ele>380</ele>
        <time>2020-05-17T11:13:54.455Z</time>
      </trkpt>
      <trkpt lat="45.68451" lon="5.66229">
        <ele>379</ele>
        <time>2020-05-17T11:13:59.452Z</time>
      </trkpt>
      <trkpt lat="45.6845" lon="5.66221">
        <ele>379</ele>
        <time>2020-05-17T11:14:03.470Z</time>
      </trkpt>
      <trkpt lat="45.6845" lon="5.66212">
        <ele>379</ele>
        <time>2020-05-17T11:14:08.427Z</time>
      </trkpt>
      <trkpt lat="45.6845" lon="5.66204">
        <ele>378</ele>
        <time>2020-05-17T11:14:12.471Z</time>
      </trkpt>
      <trkpt lat="45.68452" lon="5.66194">
        <ele>378</ele>
        <time>2020-05-17T11:14:17.419Z</time>
      </trkpt>
      <trkpt lat="45.68452" lon="5.66185">
        <ele>378</ele>
        <time>2020-05-17T11:14:22.422Z</time>
      </trkpt>
      <trkpt lat="45.68453" lon="5.66176">
        <ele>377</ele>
        <time>2020-05-17T11:14:27.478Z</time>
      </trkpt>
      <trkpt lat="45.68453" lon="5.66167">
        <ele>377</ele>
        <time>2020-05-17T11:14:32.457Z</time>
      </trkpt>
      <trkpt lat="45.68453" lon="5.66159">
        <ele>377</ele>
        <time>2020-05-17T11:14:36.454Z</time>
      </trkpt>
      <trkpt lat="45.68452" lon="5.6615">
        <ele>374</ele>
        <time>2020-05-17T11:14:41.460Z</time>
      </trkpt>
      <trkpt lat="45.68452" lon="5.66142">
        <ele>374</ele>
        <time>2020-05-17T11:14:46.419Z</time>
      </trkpt>
      <trkpt lat="45.68455" lon="5.66142">
        <ele>374</ele>
        <time>2020-05-17T11:14:50.432Z</time>
      </trkpt>
      <trkpt lat="45.68458" lon="5.66143">
        <ele>374</ele>
        <time>2020-05-17T11:14:55.460Z</time>
      </trkpt>
      <trkpt lat="45.68458" lon="5.66143">
        <ele>374</ele>
        <time>2020-05-17T11:15:00.421Z</time>
      </trkpt>
      <trkpt lat="45.68462" lon="5.66137">
        <ele>373</ele>
        <time>2020-05-17T11:15:05.433Z</time>
      </trkpt>
      <trkpt lat="45.68467" lon="5.66135">
        <ele>373</ele>
        <time>2020-05-17T11:15:09.446Z</time>
      </trkpt>
      <trkpt lat="45.68475" lon="5.66134">
        <ele>373</ele>
        <time>2020-05-17T11:15:14.452Z</time>
      </trkpt>
      <trkpt lat="45.68482" lon="5.66133">
        <ele>373</ele>
        <time>2020-05-17T11:15:19.439Z</time>
      </trkpt>
      <trkpt lat="45.68488" lon="5.66132">
        <ele>376</ele>
        <time>2020-05-17T11:15:24.447Z</time>
      </trkpt>
      <trkpt lat="45.68493" lon="5.6613">
        <ele>376</ele>
        <time>2020-05-17T11:15:28.465Z</time>
      </trkpt>
      <trkpt lat="45.68502" lon="5.6613">
        <ele>376</ele>
        <time>2020-05-17T11:15:33.466Z</time>
      </trkpt>
      <trkpt lat="45.68508" lon="5.66128">
        <ele>376</ele>
        <time>2020-05-17T11:15:38.444Z</time>
      </trkpt>
      <trkpt lat="45.68512" lon="5.66124">
        <ele>380</ele>
        <time>2020-05-17T11:15:42.477Z</time>
      </trkpt>
      <trkpt lat="45.68518" lon="5.66122">
        <ele>384</ele>
        <time>2020-05-17T11:15:47.470Z</time>
      </trkpt>
      <trkpt lat="45.68525" lon="5.6612">
        <ele>384</ele>
        <time>2020-05-17T11:15:52.477Z</time>
      </trkpt>
      <trkpt lat="45.68531" lon="5.66118">
        <ele>384</ele>
        <time>2020-05-17T11:15:57.461Z</time>
      </trkpt>
      <trkpt lat="45.68533" lon="5.66117">
        <ele>384</ele>
        <time>2020-05-17T11:16:01.438Z</time>
      </trkpt>
      <trkpt lat="45.68536" lon="5.66116">
        <ele>384</ele>
        <time>2020-05-17T11:16:06.454Z</time>
      </trkpt>
      <trkpt lat="45.68546" lon="5.66113">
        <ele>383</ele>
        <time>2020-05-17T11:16:11.476Z</time>
      </trkpt>
      <trkpt lat="45.68554" lon="5.66112">
        <ele>383</ele>
        <time>2020-05-17T11:16:16.441Z</time>
      </trkpt>
      <trkpt lat="45.68559" lon="5.66109">
        <ele>383</ele>
        <time>2020-05-17T11:16:20.470Z</time>
      </trkpt>
      <trkpt lat="45.68567" lon="5.66106">
        <ele>383</ele>
        <time>2020-05-17T11:16:25.463Z</time>
      </trkpt>
      <trkpt lat="45.68572" lon="5.66104">
        <ele>383</ele>
        <time>2020-05-17T11:16:30.445Z</time>
      </trkpt>
      <trkpt lat="45.68578" lon="5.66102">
        <ele>383</ele>
        <time>2020-05-17T11:16:35.465Z</time>
      </trkpt>
      <trkpt lat="45.68583" lon="5.66099">
        <ele>383</ele>
        <time>2020-05-17T11:16:39.462Z</time>
      </trkpt>
      <trkpt lat="45.6859" lon="5.66098">
        <ele>383</ele>
        <time>2020-05-17T11:16:44.460Z</time>
      </trkpt>
      <trkpt lat="45.68595" lon="5.66098">
        <ele>383</ele>
        <time>2020-05-17T11:16:49.456Z</time>
      </trkpt>
      <trkpt lat="45.68599" lon="5.66097">
        <ele>391</ele>
        <time>2020-05-17T11:16:53.510Z</time>
      </trkpt>
      <trkpt lat="45.68603" lon="5.66098">
        <ele>383</ele>
        <time>2020-05-17T11:16:58.453Z</time>
      </trkpt>
      <trkpt lat="45.68612" lon="5.66098">
        <ele>383</ele>
        <time>2020-05-17T11:17:02.446Z</time>
      </trkpt>
      <trkpt lat="45.68618" lon="5.66098">
        <ele>383</ele>
        <time>2020-05-17T11:17:07.448Z</time>
      </trkpt>
      <trkpt lat="45.68625" lon="5.66097">
        <ele>391</ele>
        <time>2020-05-17T11:17:12.448Z</time>
      </trkpt>
      <trkpt lat="45.68631" lon="5.66096">
        <ele>389</ele>
        <time>2020-05-17T11:17:17.456Z</time>
      </trkpt>
      <trkpt lat="45.68635" lon="5.66095">
        <ele>389</ele>
        <time>2020-05-17T11:17:21.510Z</time>
      </trkpt>
      <trkpt lat="45.68642" lon="5.66092">
        <ele>389</ele>
        <time>2020-05-17T11:17:26.455Z</time>
      </trkpt>
      <trkpt lat="45.68648" lon="5.66088">
        <ele>389</ele>
        <time>2020-05-17T11:17:31.456Z</time>
      </trkpt>
      <trkpt lat="45.68655" lon="5.66082">
        <ele>388</ele>
        <time>2020-05-17T11:17:36.443Z</time>
      </trkpt>
      <trkpt lat="45.68659" lon="5.66079">
        <ele>388</ele>
        <time>2020-05-17T11:17:40.456Z</time>
      </trkpt>
      <trkpt lat="45.6866" lon="5.66078">
        <ele>388</ele>
        <time>2020-05-17T11:17:45.435Z</time>
      </trkpt>
      <trkpt lat="45.68664" lon="5.66076">
        <ele>388</ele>
        <time>2020-05-17T11:17:49.470Z</time>
      </trkpt>
      <trkpt lat="45.68671" lon="5.66075">
        <ele>388</ele>
        <time>2020-05-17T11:17:54.457Z</time>
      </trkpt>
      <trkpt lat="45.68678" lon="5.66072">
        <ele>388</ele>
        <time>2020-05-17T11:17:58.474Z</time>
      </trkpt>
      <trkpt lat="45.68685" lon="5.66067">
        <ele>396</ele>
        <time>2020-05-17T11:18:03.459Z</time>
      </trkpt>
      <trkpt lat="45.68692" lon="5.66062">
        <ele>396</ele>
        <time>2020-05-17T11:18:08.461Z</time>
      </trkpt>
      <trkpt lat="45.68698" lon="5.66056">
        <ele>396</ele>
        <time>2020-05-17T11:18:12.464Z</time>
      </trkpt>
      <trkpt lat="45.68703" lon="5.66052">
        <ele>396</ele>
        <time>2020-05-17T11:18:17.429Z</time>
      </trkpt>
      <trkpt lat="45.68711" lon="5.6605">
        <ele>395</ele>
        <time>2020-05-17T11:18:22.448Z</time>
      </trkpt>
      <trkpt lat="45.6872" lon="5.66049">
        <ele>395</ele>
        <time>2020-05-17T11:18:27.453Z</time>
      </trkpt>
      <trkpt lat="45.68732" lon="5.6605">
        <ele>395</ele>
        <time>2020-05-17T11:18:31.443Z</time>
      </trkpt>
      <trkpt lat="45.68742" lon="5.6605">
        <ele>396</ele>
        <time>2020-05-17T11:18:36.458Z</time>
      </trkpt>
      <trkpt lat="45.68748" lon="5.66047">
        <ele>396</ele>
        <time>2020-05-17T11:18:40.516Z</time>
      </trkpt>
      <trkpt lat="45.68754" lon="5.66045">
        <ele>396</ele>
        <time>2020-05-17T11:18:45.454Z</time>
      </trkpt>
      <trkpt lat="45.68758" lon="5.66042">
        <ele>396</ele>
        <time>2020-05-17T11:18:50.458Z</time>
      </trkpt>
      <trkpt lat="45.68763" lon="5.66042">
        <ele>396</ele>
        <time>2020-05-17T11:18:54.491Z</time>
      </trkpt>
      <trkpt lat="45.68769" lon="5.66042">
        <ele>400</ele>
        <time>2020-05-17T11:18:59.443Z</time>
      </trkpt>
      <trkpt lat="45.68778" lon="5.66042">
        <ele>400</ele>
        <time>2020-05-17T11:19:04.497Z</time>
      </trkpt>
      <trkpt lat="45.68787" lon="5.66041">
        <ele>398</ele>
        <time>2020-05-17T11:19:09.456Z</time>
      </trkpt>
      <trkpt lat="45.68791" lon="5.66043">
        <ele>400</ele>
        <time>2020-05-17T11:19:13.462Z</time>
      </trkpt>
      <trkpt lat="45.68798" lon="5.66045">
        <ele>404</ele>
        <time>2020-05-17T11:19:18.445Z</time>
      </trkpt>
      <trkpt lat="45.68804" lon="5.66044">
        <ele>404</ele>
        <time>2020-05-17T11:19:22.468Z</time>
      </trkpt>
      <trkpt lat="45.6881" lon="5.6604">
        <ele>402</ele>
        <time>2020-05-17T11:19:27.447Z</time>
      </trkpt>
      <trkpt lat="45.68818" lon="5.66038">
        <ele>402</ele>
        <time>2020-05-17T11:19:32.475Z</time>
      </trkpt>
      <trkpt lat="45.68824" lon="5.66037">
        <ele>403</ele>
        <time>2020-05-17T11:19:36.474Z</time>
      </trkpt>
      <trkpt lat="45.68832" lon="5.66036">
        <ele>403</ele>
        <time>2020-05-17T11:19:41.461Z</time>
      </trkpt>
      <trkpt lat="45.68838" lon="5.66036">
        <ele>403</ele>
        <time>2020-05-17T11:19:45.502Z</time>
      </trkpt>
      <trkpt lat="45.68844" lon="5.66035">
        <ele>403</ele>
        <time>2020-05-17T11:19:50.462Z</time>
      </trkpt>
      <trkpt lat="45.68852" lon="5.66034">
        <ele>403</ele>
        <time>2020-05-17T11:19:55.446Z</time>
      </trkpt>
      <trkpt lat="45.68859" lon="5.66031">
        <ele>403</ele>
        <time>2020-05-17T11:20:00.463Z</time>
      </trkpt>
      <trkpt lat="45.68862" lon="5.66031">
        <ele>403</ele>
        <time>2020-05-17T11:20:03.418Z</time>
      </trkpt>
      <trkpt lat="45.68871" lon="5.66034">
        <ele>403</ele>
        <time>2020-05-17T11:20:12.456Z</time>
      </trkpt>
      <trkpt lat="45.68879" lon="5.66038">
        <ele>402</ele>
        <time>2020-05-17T11:20:17.424Z</time>
      </trkpt>
      <trkpt lat="45.68885" lon="5.6604">
        <ele>402</ele>
        <time>2020-05-17T11:20:21.477Z</time>
      </trkpt>
      <trkpt lat="45.68892" lon="5.66039">
        <ele>402</ele>
        <time>2020-05-17T11:20:26.452Z</time>
      </trkpt>
      <trkpt lat="45.68899" lon="5.66038">
        <ele>402</ele>
        <time>2020-05-17T11:20:30.441Z</time>
      </trkpt>
      <trkpt lat="45.68903" lon="5.66036">
        <ele>403</ele>
        <time>2020-05-17T11:20:35.457Z</time>
      </trkpt>
      <trkpt lat="45.68908" lon="5.66031">
        <ele>403</ele>
        <time>2020-05-17T11:20:40.446Z</time>
      </trkpt>
      <trkpt lat="45.68917" lon="5.66026">
        <ele>403</ele>
        <time>2020-05-17T11:20:44.444Z</time>
      </trkpt>
      <trkpt lat="45.68924" lon="5.6602">
        <ele>403</ele>
        <time>2020-05-17T11:20:49.446Z</time>
      </trkpt>
      <trkpt lat="45.68929" lon="5.66018">
        <ele>403</ele>
        <time>2020-05-17T11:20:53.448Z</time>
      </trkpt>
      <trkpt lat="45.68933" lon="5.66018">
        <ele>404</ele>
        <time>2020-05-17T11:20:58.436Z</time>
      </trkpt>
      <trkpt lat="45.6894" lon="5.66018">
        <ele>404</ele>
        <time>2020-05-17T11:21:03.445Z</time>
      </trkpt>
      <trkpt lat="45.68947" lon="5.66017">
        <ele>404</ele>
        <time>2020-05-17T11:21:08.453Z</time>
      </trkpt>
      <trkpt lat="45.68951" lon="5.66016">
        <ele>404</ele>
        <time>2020-05-17T11:21:13.448Z</time>
      </trkpt>
      <trkpt lat="45.68952" lon="5.66015">
        <ele>404</ele>
        <time>2020-05-17T11:21:17.451Z</time>
      </trkpt>
      <trkpt lat="45.68953" lon="5.66015">
        <ele>404</ele>
        <time>2020-05-17T11:21:21.476Z</time>
      </trkpt>
      <trkpt lat="45.68955" lon="5.66014">
        <ele>403</ele>
        <time>2020-05-17T11:21:26.465Z</time>
      </trkpt>
      <trkpt lat="45.68962" lon="5.6601">
        <ele>405</ele>
        <time>2020-05-17T11:21:30.475Z</time>
      </trkpt>
      <trkpt lat="45.68964" lon="5.66009">
        <ele>405</ele>
        <time>2020-05-17T11:21:35.487Z</time>
      </trkpt>
      <trkpt lat="45.68968" lon="5.66009">
        <ele>405</ele>
        <time>2020-05-17T11:21:39.459Z</time>
      </trkpt>
      <trkpt lat="45.68979" lon="5.66008">
        <ele>405</ele>
        <time>2020-05-17T11:21:44.453Z</time>
      </trkpt>
      <trkpt lat="45.68986" lon="5.66006">
        <ele>405</ele>
        <time>2020-05-17T11:21:48.495Z</time>
      </trkpt>
      <trkpt lat="45.68994" lon="5.66009">
        <ele>405</ele>
        <time>2020-05-17T11:21:53.453Z</time>
      </trkpt>
      <trkpt lat="45.68995" lon="5.66009">
        <ele>405</ele>
        <time>2020-05-17T11:21:57.466Z</time>
      </trkpt>
      <trkpt lat="45.69003" lon="5.66013">
        <ele>405</ele>
        <time>2020-05-17T11:22:02.433Z</time>
      </trkpt>
      <trkpt lat="45.69013" lon="5.66011">
        <ele>405</ele>
        <time>2020-05-17T11:22:07.465Z</time>
      </trkpt>
      <trkpt lat="45.6902" lon="5.66008">
        <ele>404</ele>
        <time>2020-05-17T11:22:12.458Z</time>
      </trkpt>
      <trkpt lat="45.69027" lon="5.66008">
        <ele>404</ele>
        <time>2020-05-17T11:22:16.467Z</time>
      </trkpt>
      <trkpt lat="45.69031" lon="5.66005">
        <ele>404</ele>
        <time>2020-05-17T11:22:21.467Z</time>
      </trkpt>
      <trkpt lat="45.69034" lon="5.65998">
        <ele>404</ele>
        <time>2020-05-17T11:22:26.479Z</time>
      </trkpt>
      <trkpt lat="45.69038" lon="5.65993">
        <ele>404</ele>
        <time>2020-05-17T11:22:31.477Z</time>
      </trkpt>
      <trkpt lat="45.69041" lon="5.65988">
        <ele>404</ele>
        <time>2020-05-17T11:22:36.476Z</time>
      </trkpt>
      <trkpt lat="45.69043" lon="5.65986">
        <ele>398</ele>
        <time>2020-05-17T11:22:40.469Z</time>
      </trkpt>
      <trkpt lat="45.69047" lon="5.65981">
        <ele>398</ele>
        <time>2020-05-17T11:22:45.453Z</time>
      </trkpt>
      <trkpt lat="45.69049" lon="5.6598">
        <ele>398</ele>
        <time>2020-05-17T11:22:50.476Z</time>
      </trkpt>
      <trkpt lat="45.69053" lon="5.65978">
        <ele>398</ele>
        <time>2020-05-17T11:22:54.486Z</time>
      </trkpt>
      <trkpt lat="45.6906" lon="5.65975">
        <ele>398</ele>
        <time>2020-05-17T11:22:59.497Z</time>
      </trkpt>
      <trkpt lat="45.69067" lon="5.65973">
        <ele>398</ele>
        <time>2020-05-17T11:23:04.460Z</time>
      </trkpt>
      <trkpt lat="45.69072" lon="5.65971">
        <ele>394</ele>
        <time>2020-05-17T11:23:08.463Z</time>
      </trkpt>
      <trkpt lat="45.69077" lon="5.65971">
        <ele>394</ele>
        <time>2020-05-17T11:23:13.456Z</time>
      </trkpt>
      <trkpt lat="45.69084" lon="5.6597">
        <ele>394</ele>
        <time>2020-05-17T11:23:18.455Z</time>
      </trkpt>
      <trkpt lat="45.69087" lon="5.65969">
        <ele>394</ele>
        <time>2020-05-17T11:23:22.481Z</time>
      </trkpt>
      <trkpt lat="45.69089" lon="5.65971">
        <ele>394</ele>
        <time>2020-05-17T11:23:27.484Z</time>
      </trkpt>
      <trkpt lat="45.69094" lon="5.65973">
        <ele>394</ele>
        <time>2020-05-17T11:23:32.446Z</time>
      </trkpt>
      <trkpt lat="45.69099" lon="5.65971">
        <ele>389</ele>
        <time>2020-05-17T11:23:36.452Z</time>
      </trkpt>
      <trkpt lat="45.69101" lon="5.65968">
        <ele>389</ele>
        <time>2020-05-17T11:23:41.481Z</time>
      </trkpt>
      <trkpt lat="45.69105" lon="5.65967">
        <ele>389</ele>
        <time>2020-05-17T11:23:46.479Z</time>
      </trkpt>
      <trkpt lat="45.6911" lon="5.65961">
        <ele>389</ele>
        <time>2020-05-17T11:23:51.458Z</time>
      </trkpt>
      <trkpt lat="45.69114" lon="5.65952">
        <ele>389</ele>
        <time>2020-05-17T11:23:56.469Z</time>
      </trkpt>
      <trkpt lat="45.69119" lon="5.65946">
        <ele>389</ele>
        <time>2020-05-17T11:24:01.481Z</time>
      </trkpt>
      <trkpt lat="45.69125" lon="5.65942">
        <ele>389</ele>
        <time>2020-05-17T11:24:06.458Z</time>
      </trkpt>
      <trkpt lat="45.69131" lon="5.65939">
        <ele>382</ele>
        <time>2020-05-17T11:24:11.457Z</time>
      </trkpt>
      <trkpt lat="45.69132" lon="5.65937">
        <ele>382</ele>
        <time>2020-05-17T11:24:15.479Z</time>
      </trkpt>
      <trkpt lat="45.69139" lon="5.65935">
        <ele>382</ele>
        <time>2020-05-17T11:24:20.450Z</time>
      </trkpt>
      <trkpt lat="45.69144" lon="5.65936">
        <ele>382</ele>
        <time>2020-05-17T11:24:25.484Z</time>
      </trkpt>
      <trkpt lat="45.69148" lon="5.65935">
        <ele>382</ele>
        <time>2020-05-17T11:24:30.471Z</time>
      </trkpt>
      <trkpt lat="45.69152" lon="5.6593">
        <ele>384</ele>
        <time>2020-05-17T11:24:35.461Z</time>
      </trkpt>
      <trkpt lat="45.69156" lon="5.65929">
        <ele>374</ele>
        <time>2020-05-17T11:24:40.450Z</time>
      </trkpt>
      <trkpt lat="45.69158" lon="5.65929">
        <ele>374</ele>
        <time>2020-05-17T11:24:45.480Z</time>
      </trkpt>
      <trkpt lat="45.69164" lon="5.6593">
        <ele>374</ele>
        <time>2020-05-17T11:24:50.434Z</time>
      </trkpt>
      <trkpt lat="45.69166" lon="5.65931">
        <ele>374</ele>
        <time>2020-05-17T11:24:54.438Z</time>
      </trkpt>
      <trkpt lat="45.69173" lon="5.6593">
        <ele>374</ele>
        <time>2020-05-17T11:24:59.442Z</time>
      </trkpt>
      <trkpt lat="45.69179" lon="5.65927">
        <ele>374</ele>
        <time>2020-05-17T11:25:03.443Z</time>
      </trkpt>
      <trkpt lat="45.69188" lon="5.65924">
        <ele>363</ele>
        <time>2020-05-17T11:25:08.469Z</time>
      </trkpt>
      <trkpt lat="45.69196" lon="5.65923">
        <ele>363</ele>
        <time>2020-05-17T11:25:13.466Z</time>
      </trkpt>
      <trkpt lat="45.69201" lon="5.65921">
        <ele>363</ele>
        <time>2020-05-17T11:25:18.445Z</time>
      </trkpt>
      <trkpt lat="45.69206" lon="5.65917">
        <ele>363</ele>
        <time>2020-05-17T11:25:22.474Z</time>
      </trkpt>
      <trkpt lat="45.69213" lon="5.65913">
        <ele>361</ele>
        <time>2020-05-17T11:25:27.452Z</time>
      </trkpt>
      <trkpt lat="45.69217" lon="5.65911">
        <ele>361</ele>
        <time>2020-05-17T11:25:31.536Z</time>
      </trkpt>
      <trkpt lat="45.69221" lon="5.65905">
        <ele>361</ele>
        <time>2020-05-17T11:25:36.447Z</time>
      </trkpt>
      <trkpt lat="45.69225" lon="5.65897">
        <ele>361</ele>
        <time>2020-05-17T11:25:41.452Z</time>
      </trkpt>
      <trkpt lat="45.69229" lon="5.65892">
        <ele>361</ele>
        <time>2020-05-17T11:25:46.459Z</time>
      </trkpt>
      <trkpt lat="45.69234" lon="5.65888">
        <ele>361</ele>
        <time>2020-05-17T11:25:50.455Z</time>
      </trkpt>
      <trkpt lat="45.69239" lon="5.65881">
        <ele>352</ele>
        <time>2020-05-17T11:25:54.480Z</time>
      </trkpt>
      <trkpt lat="45.69252" lon="5.65867">
        <ele>353</ele>
        <time>2020-05-17T11:25:59.448Z</time>
      </trkpt>
      <trkpt lat="45.69269" lon="5.6585">
        <ele>346</ele>
        <time>2020-05-17T11:26:04.448Z</time>
      </trkpt>
      <trkpt lat="45.69283" lon="5.65836">
        <ele>351</ele>
        <time>2020-05-17T11:26:08.462Z</time>
      </trkpt>
      <trkpt lat="45.69306" lon="5.65821">
        <ele>348</ele>
        <time>2020-05-17T11:26:13.444Z</time>
      </trkpt>
      <trkpt lat="45.69331" lon="5.65807">
        <ele>348</ele>
        <time>2020-05-17T11:26:18.449Z</time>
      </trkpt>
      <trkpt lat="45.69349" lon="5.65794">
        <ele>347</ele>
        <time>2020-05-17T11:26:22.461Z</time>
      </trkpt>
      <trkpt lat="45.69374" lon="5.65776">
        <ele>350</ele>
        <time>2020-05-17T11:26:27.481Z</time>
      </trkpt>
      <trkpt lat="45.69397" lon="5.65753">
        <ele>350</ele>
        <time>2020-05-17T11:26:32.469Z</time>
      </trkpt>
      <trkpt lat="45.69405" lon="5.65745">
        <ele>349</ele>
        <time>2020-05-17T11:26:36.470Z</time>
      </trkpt>
      <trkpt lat="45.69412" lon="5.65737">
        <ele>349</ele>
        <time>2020-05-17T11:26:41.461Z</time>
      </trkpt>
      <trkpt lat="45.69417" lon="5.6573">
        <ele>349</ele>
        <time>2020-05-17T11:26:45.467Z</time>
      </trkpt>
      <trkpt lat="45.69423" lon="5.65724">
        <ele>349</ele>
        <time>2020-05-17T11:26:50.468Z</time>
      </trkpt>
      <trkpt lat="45.69427" lon="5.65718">
        <ele>349</ele>
        <time>2020-05-17T11:26:54.529Z</time>
      </trkpt>
      <trkpt lat="45.69432" lon="5.65713">
        <ele>349</ele>
        <time>2020-05-17T11:26:59.472Z</time>
      </trkpt>
      <trkpt lat="45.69436" lon="5.65709">
        <ele>349</ele>
        <time>2020-05-17T11:27:04.482Z</time>
      </trkpt>
      <trkpt lat="45.69441" lon="5.65703">
        <ele>350</ele>
        <time>2020-05-17T11:27:09.487Z</time>
      </trkpt>
      <trkpt lat="45.69447" lon="5.65696">
        <ele>350</ele>
        <time>2020-05-17T11:27:14.469Z</time>
      </trkpt>
      <trkpt lat="45.69453" lon="5.6569">
        <ele>350</ele>
        <time>2020-05-17T11:27:19.453Z</time>
      </trkpt>
      <trkpt lat="45.69457" lon="5.65685">
        <ele>350</ele>
        <time>2020-05-17T11:27:23.459Z</time>
      </trkpt>
      <trkpt lat="45.69462" lon="5.65678">
        <ele>352</ele>
        <time>2020-05-17T11:27:28.460Z</time>
      </trkpt>
      <trkpt lat="45.69466" lon="5.65672">
        <ele>352</ele>
        <time>2020-05-17T11:27:32.488Z</time>
      </trkpt>
      <trkpt lat="45.69471" lon="5.65667">
        <ele>352</ele>
        <time>2020-05-17T11:27:37.462Z</time>
      </trkpt>
      <trkpt lat="45.69482" lon="5.65668">
        <ele>352</ele>
        <time>2020-05-17T11:27:41.465Z</time>
      </trkpt>
      <trkpt lat="45.69492" lon="5.65675">
        <ele>355</ele>
        <time>2020-05-17T11:27:46.479Z</time>
      </trkpt>
      <trkpt lat="45.69499" lon="5.65678">
        <ele>355</ele>
        <time>2020-05-17T11:27:51.466Z</time>
      </trkpt>
      <trkpt lat="45.69505" lon="5.65682">
        <ele>355</ele>
        <time>2020-05-17T11:27:56.450Z</time>
      </trkpt>
      <trkpt lat="45.69512" lon="5.65687">
        <ele>355</ele>
        <time>2020-05-17T11:28:01.500Z</time>
      </trkpt>
      <trkpt lat="45.69521" lon="5.65692">
        <ele>359</ele>
        <time>2020-05-17T11:28:06.473Z</time>
      </trkpt>
      <trkpt lat="45.69527" lon="5.65691">
        <ele>359</ele>
        <time>2020-05-17T11:28:11.433Z</time>
      </trkpt>
      <trkpt lat="45.69535" lon="5.65689">
        <ele>359</ele>
        <time>2020-05-17T11:28:16.479Z</time>
      </trkpt>
      <trkpt lat="45.69541" lon="5.65688">
        <ele>359</ele>
        <time>2020-05-17T11:28:21.459Z</time>
      </trkpt>
      <trkpt lat="45.69547" lon="5.65686">
        <ele>362</ele>
        <time>2020-05-17T11:28:26.451Z</time>
      </trkpt>
      <trkpt lat="45.69553" lon="5.65685">
        <ele>362</ele>
        <time>2020-05-17T11:28:31.458Z</time>
      </trkpt>
      <trkpt lat="45.69559" lon="5.65685">
        <ele>362</ele>
        <time>2020-05-17T11:28:35.528Z</time>
      </trkpt>
      <trkpt lat="45.69565" lon="5.65681">
        <ele>362</ele>
        <time>2020-05-17T11:28:40.481Z</time>
      </trkpt>
      <trkpt lat="45.69571" lon="5.65679">
        <ele>362</ele>
        <time>2020-05-17T11:28:45.453Z</time>
      </trkpt>
      <trkpt lat="45.69576" lon="5.65678">
        <ele>362</ele>
        <time>2020-05-17T11:28:49.469Z</time>
      </trkpt>
      <trkpt lat="45.69581" lon="5.65674">
        <ele>362</ele>
        <time>2020-05-17T11:28:53.518Z</time>
      </trkpt>
      <trkpt lat="45.69587" lon="5.65668">
        <ele>362</ele>
        <time>2020-05-17T11:28:58.469Z</time>
      </trkpt>
      <trkpt lat="45.6959" lon="5.65665">
        <ele>362</ele>
        <time>2020-05-17T11:29:02.477Z</time>
      </trkpt>
      <trkpt lat="45.69597" lon="5.6566">
        <ele>362</ele>
        <time>2020-05-17T11:29:07.456Z</time>
      </trkpt>
      <trkpt lat="45.69602" lon="5.65656">
        <ele>368</ele>
        <time>2020-05-17T11:29:11.462Z</time>
      </trkpt>
      <trkpt lat="45.69607" lon="5.65651">
        <ele>364</ele>
        <time>2020-05-17T11:29:16.497Z</time>
      </trkpt>
      <trkpt lat="45.69612" lon="5.65649">
        <ele>364</ele>
        <time>2020-05-17T11:29:21.495Z</time>
      </trkpt>
      <trkpt lat="45.69616" lon="5.65643">
        <ele>364</ele>
        <time>2020-05-17T11:29:26.486Z</time>
      </trkpt>
      <trkpt lat="45.69624" lon="5.65638">
        <ele>364</ele>
        <time>2020-05-17T11:29:31.464Z</time>
      </trkpt>
      <trkpt lat="45.6963" lon="5.65633">
        <ele>370</ele>
        <time>2020-05-17T11:29:36.439Z</time>
      </trkpt>
      <trkpt lat="45.69635" lon="5.65629">
        <ele>370</ele>
        <time>2020-05-17T11:29:40.483Z</time>
      </trkpt>
      <trkpt lat="45.6964" lon="5.65626">
        <ele>370</ele>
        <time>2020-05-17T11:29:44.451Z</time>
      </trkpt>
      <trkpt lat="45.69648" lon="5.65626">
        <ele>370</ele>
        <time>2020-05-17T11:29:49.450Z</time>
      </trkpt>
      <trkpt lat="45.69654" lon="5.65624">
        <ele>370</ele>
        <time>2020-05-17T11:29:53.466Z</time>
      </trkpt>
      <trkpt lat="45.69659" lon="5.65619">
        <ele>370</ele>
        <time>2020-05-17T11:29:58.467Z</time>
      </trkpt>
      <trkpt lat="45.69666" lon="5.65613">
        <ele>370</ele>
        <time>2020-05-17T11:30:03.467Z</time>
      </trkpt>
      <trkpt lat="45.69671" lon="5.65608">
        <ele>370</ele>
        <time>2020-05-17T11:30:07.478Z</time>
      </trkpt>
      <trkpt lat="45.69678" lon="5.65605">
        <ele>370</ele>
        <time>2020-05-17T11:30:12.457Z</time>
      </trkpt>
      <trkpt lat="45.69685" lon="5.65601">
        <ele>374</ele>
        <time>2020-05-17T11:30:17.514Z</time>
      </trkpt>
      <trkpt lat="45.69687" lon="5.65598">
        <ele>374</ele>
        <time>2020-05-17T11:30:20.473Z</time>
      </trkpt>
      <trkpt lat="45.69697" lon="5.65593">
        <ele>370</ele>
        <time>2020-05-17T11:30:29.455Z</time>
      </trkpt>
      <trkpt lat="45.69703" lon="5.65592">
        <ele>370</ele>
        <time>2020-05-17T11:30:34.471Z</time>
      </trkpt>
      <trkpt lat="45.69709" lon="5.65588">
        <ele>372</ele>
        <time>2020-05-17T11:30:39.453Z</time>
      </trkpt>
      <trkpt lat="45.69715" lon="5.65585">
        <ele>372</ele>
        <time>2020-05-17T11:30:44.501Z</time>
      </trkpt>
      <trkpt lat="45.69721" lon="5.65579">
        <ele>372</ele>
        <time>2020-05-17T11:30:49.451Z</time>
      </trkpt>
      <trkpt lat="45.69728" lon="5.65572">
        <ele>372</ele>
        <time>2020-05-17T11:30:54.452Z</time>
      </trkpt>
      <trkpt lat="45.69734" lon="5.6557">
        <ele>372</ele>
        <time>2020-05-17T11:30:59.461Z</time>
      </trkpt>
      <trkpt lat="45.6974" lon="5.65571">
        <ele>376</ele>
        <time>2020-05-17T11:31:03.487Z</time>
      </trkpt>
      <trkpt lat="45.69745" lon="5.65569">
        <ele>372</ele>
        <time>2020-05-17T11:31:08.482Z</time>
      </trkpt>
      <trkpt lat="45.69751" lon="5.65567">
        <ele>372</ele>
        <time>2020-05-17T11:31:13.461Z</time>
      </trkpt>
      <trkpt lat="45.69756" lon="5.65566">
        <ele>372</ele>
        <time>2020-05-17T11:31:18.419Z</time>
      </trkpt>
      <trkpt lat="45.69762" lon="5.65565">
        <ele>372</ele>
        <time>2020-05-17T11:31:22.483Z</time>
      </trkpt>
      <trkpt lat="45.69768" lon="5.65566">
        <ele>375</ele>
        <time>2020-05-17T11:31:27.443Z</time>
      </trkpt>
      <trkpt lat="45.69771" lon="5.65567">
        <ele>375</ele>
        <time>2020-05-17T11:31:29.418Z</time>
      </trkpt>
      <trkpt lat="45.69783" lon="5.65568">
        <ele>375</ele>
        <time>2020-05-17T11:31:38.479Z</time>
      </trkpt>
      <trkpt lat="45.69789" lon="5.6557">
        <ele>378</ele>
        <time>2020-05-17T11:31:43.446Z</time>
      </trkpt>
      <trkpt lat="45.69794" lon="5.65567">
        <ele>373</ele>
        <time>2020-05-17T11:31:48.455Z</time>
      </trkpt>
      <trkpt lat="45.69801" lon="5.65562">
        <ele>373</ele>
        <time>2020-05-17T11:31:53.458Z</time>
      </trkpt>
      <trkpt lat="45.69806" lon="5.65558">
        <ele>373</ele>
        <time>2020-05-17T11:31:58.439Z</time>
      </trkpt>
      <trkpt lat="45.69812" lon="5.65556">
        <ele>373</ele>
        <time>2020-05-17T11:32:02.451Z</time>
      </trkpt>
      <trkpt lat="45.69819" lon="5.65551">
        <ele>373</ele>
        <time>2020-05-17T11:32:06.451Z</time>
      </trkpt>
      <trkpt lat="45.69826" lon="5.65547">
        <ele>370</ele>
        <time>2020-05-17T11:32:11.452Z</time>
      </trkpt>
      <trkpt lat="45.6983" lon="5.65542">
        <ele>370</ele>
        <time>2020-05-17T11:32:15.481Z</time>
      </trkpt>
      <trkpt lat="45.69835" lon="5.65534">
        <ele>369</ele>
        <time>2020-05-17T11:32:20.487Z</time>
      </trkpt>
      <trkpt lat="45.69841" lon="5.65526">
        <ele>369</ele>
        <time>2020-05-17T11:32:25.450Z</time>
      </trkpt>
      <trkpt lat="45.69846" lon="5.65518">
        <ele>369</ele>
        <time>2020-05-17T11:32:30.447Z</time>
      </trkpt>
      <trkpt lat="45.69848" lon="5.65509">
        <ele>368</ele>
        <time>2020-05-17T11:32:35.443Z</time>
      </trkpt>
      <trkpt lat="45.6985" lon="5.65503">
        <ele>368</ele>
        <time>2020-05-17T11:32:39.479Z</time>
      </trkpt>
      <trkpt lat="45.69857" lon="5.65485">
        <ele>366</ele>
        <time>2020-05-17T11:32:44.467Z</time>
      </trkpt>
      <trkpt lat="45.6986" lon="5.65476">
        <ele>366</ele>
        <time>2020-05-17T11:32:49.451Z</time>
      </trkpt>
      <trkpt lat="45.69861" lon="5.6547">
        <ele>366</ele>
        <time>2020-05-17T11:32:53.481Z</time>
      </trkpt>
      <trkpt lat="45.69862" lon="5.65461">
        <ele>366</ele>
        <time>2020-05-17T11:32:58.466Z</time>
      </trkpt>
      <trkpt lat="45.69865" lon="5.65453">
        <ele>363</ele>
        <time>2020-05-17T11:33:03.455Z</time>
      </trkpt>
      <trkpt lat="45.69869" lon="5.65451">
        <ele>363</ele>
        <time>2020-05-17T11:33:08.460Z</time>
      </trkpt>
      <trkpt lat="45.69871" lon="5.65451">
        <ele>363</ele>
        <time>2020-05-17T11:33:13.456Z</time>
      </trkpt>
      <trkpt lat="45.69871" lon="5.65447">
        <ele>363</ele>
        <time>2020-05-17T11:33:37.475Z</time>
      </trkpt>
      <trkpt lat="45.69871" lon="5.65446">
        <ele>363</ele>
        <time>2020-05-17T11:33:42.437Z</time>
      </trkpt>
      <trkpt lat="45.69871" lon="5.65446">
        <ele>363</ele>
        <time>2020-05-17T11:33:46.482Z</time>
      </trkpt>
      <trkpt lat="45.69872" lon="5.65446">
        <ele>363</ele>
        <time>2020-05-17T11:33:51.473Z</time>
      </trkpt>
      <trkpt lat="45.69876" lon="5.65438">
        <ele>366</ele>
        <time>2020-05-17T11:33:55.473Z</time>
      </trkpt>
      <trkpt lat="45.69879" lon="5.65433">
        <ele>366</ele>
        <time>2020-05-17T11:33:59.470Z</time>
      </trkpt>
      <trkpt lat="45.69882" lon="5.65429">
        <ele>362</ele>
        <time>2020-05-17T11:34:04.463Z</time>
      </trkpt>
      <trkpt lat="45.69885" lon="5.65424">
        <ele>362</ele>
        <time>2020-05-17T11:34:09.467Z</time>
      </trkpt>
      <trkpt lat="45.69888" lon="5.6542">
        <ele>362</ele>
        <time>2020-05-17T11:34:14.465Z</time>
      </trkpt>
      <trkpt lat="45.69896" lon="5.65411">
        <ele>362</ele>
        <time>2020-05-17T11:34:23.441Z</time>
      </trkpt>
      <trkpt lat="45.69896" lon="5.65408">
        <ele>362</ele>
        <time>2020-05-17T11:34:28.440Z</time>
      </trkpt>
      <trkpt lat="45.69896" lon="5.65408">
        <ele>362</ele>
        <time>2020-05-17T11:34:33.474Z</time>
      </trkpt>
      <trkpt lat="45.69896" lon="5.65408">
        <ele>362</ele>
        <time>2020-05-17T11:34:38.473Z</time>
      </trkpt>
      <trkpt lat="45.69897" lon="5.65406">
        <ele>362</ele>
        <time>2020-05-17T11:34:42.525Z</time>
      </trkpt>
      <trkpt lat="45.69898" lon="5.65399">
        <ele>357</ele>
        <time>2020-05-17T11:34:47.463Z</time>
      </trkpt>
      <trkpt lat="45.699" lon="5.65394">
        <ele>357</ele>
        <time>2020-05-17T11:34:52.472Z</time>
      </trkpt>
      <trkpt lat="45.699" lon="5.65388">
        <ele>357</ele>
        <time>2020-05-17T11:34:57.445Z</time>
      </trkpt>
      <trkpt lat="45.699" lon="5.65383">
        <ele>357</ele>
        <time>2020-05-17T11:35:01.462Z</time>
      </trkpt>
      <trkpt lat="45.69903" lon="5.65379">
        <ele>357</ele>
        <time>2020-05-17T11:35:05.519Z</time>
      </trkpt>
      <trkpt lat="45.69906" lon="5.65373">
        <ele>350</ele>
        <time>2020-05-17T11:35:10.444Z</time>
      </trkpt>
      <trkpt lat="45.69911" lon="5.65367">
        <ele>350</ele>
        <time>2020-05-17T11:35:15.475Z</time>
      </trkpt>
      <trkpt lat="45.69912" lon="5.65367">
        <ele>350</ele>
        <time>2020-05-17T11:35:20.448Z</time>
      </trkpt>
      <trkpt lat="45.69914" lon="5.65366">
        <ele>350</ele>
        <time>2020-05-17T11:35:59.444Z</time>
      </trkpt>
      <trkpt lat="45.69914" lon="5.65366">
        <ele>350</ele>
        <time>2020-05-17T11:36:03.453Z</time>
      </trkpt>
      <trkpt lat="45.69915" lon="5.65365">
        <ele>350</ele>
        <time>2020-05-17T11:36:07.446Z</time>
      </trkpt>
      <trkpt lat="45.69917" lon="5.65364">
        <ele>350</ele>
        <time>2020-05-17T11:36:11.446Z</time>
      </trkpt>
      <trkpt lat="45.69921" lon="5.65357">
        <ele>350</ele>
        <time>2020-05-17T11:36:16.430Z</time>
      </trkpt>
      <trkpt lat="45.69922" lon="5.65354">
        <ele>350</ele>
        <time>2020-05-17T11:36:21.483Z</time>
      </trkpt>
      <trkpt lat="45.69924" lon="5.65351">
        <ele>350</ele>
        <time>2020-05-17T11:36:26.439Z</time>
      </trkpt>
      <trkpt lat="45.69924" lon="5.65349">
        <ele>350</ele>
        <time>2020-05-17T11:36:30.452Z</time>
      </trkpt>
      <trkpt lat="45.69927" lon="5.65344">
        <ele>344</ele>
        <time>2020-05-17T11:36:35.455Z</time>
      </trkpt>
      <trkpt lat="45.6993" lon="5.65337">
        <ele>344</ele>
        <time>2020-05-17T11:36:40.432Z</time>
      </trkpt>
      <trkpt lat="45.69931" lon="5.65332">
        <ele>344</ele>
        <time>2020-05-17T11:36:44.474Z</time>
      </trkpt>
      <trkpt lat="45.69933" lon="5.65325">
        <ele>344</ele>
        <time>2020-05-17T11:36:49.469Z</time>
      </trkpt>
      <trkpt lat="45.69933" lon="5.65319">
        <ele>337</ele>
        <time>2020-05-17T11:36:54.448Z</time>
      </trkpt>
      <trkpt lat="45.69934" lon="5.65315">
        <ele>337</ele>
        <time>2020-05-17T11:36:58.473Z</time>
      </trkpt>
      <trkpt lat="45.69935" lon="5.65311">
        <ele>337</ele>
        <time>2020-05-17T11:37:02.523Z</time>
      </trkpt>
      <trkpt lat="45.69939" lon="5.65309">
        <ele>337</ele>
        <time>2020-05-17T11:37:07.427Z</time>
      </trkpt>
      <trkpt lat="45.69942" lon="5.65306">
        <ele>337</ele>
        <time>2020-05-17T11:37:11.441Z</time>
      </trkpt>
      <trkpt lat="45.69945" lon="5.65302">
        <ele>337</ele>
        <time>2020-05-17T11:37:16.444Z</time>
      </trkpt>
      <trkpt lat="45.69949" lon="5.65299">
        <ele>337</ele>
        <time>2020-05-17T11:37:20.470Z</time>
      </trkpt>
      <trkpt lat="45.69951" lon="5.65299">
        <ele>337</ele>
        <time>2020-05-17T11:37:25.464Z</time>
      </trkpt>
      <trkpt lat="45.69952" lon="5.65295">
        <ele>337</ele>
        <time>2020-05-17T11:37:30.468Z</time>
      </trkpt>
      <trkpt lat="45.69955" lon="5.65292">
        <ele>337</ele>
        <time>2020-05-17T11:37:35.477Z</time>
      </trkpt>
      <trkpt lat="45.69958" lon="5.6529">
        <ele>331</ele>
        <time>2020-05-17T11:37:40.486Z</time>
      </trkpt>
      <trkpt lat="45.69959" lon="5.65289">
        <ele>329</ele>
        <time>2020-05-17T11:37:45.458Z</time>
      </trkpt>
      <trkpt lat="45.6996" lon="5.65287">
        <ele>329</ele>
        <time>2020-05-17T11:37:50.473Z</time>
      </trkpt>
      <trkpt lat="45.69961" lon="5.65284">
        <ele>329</ele>
        <time>2020-05-17T11:37:55.480Z</time>
      </trkpt>
      <trkpt lat="45.69964" lon="5.65278">
        <ele>329</ele>
        <time>2020-05-17T11:37:59.464Z</time>
      </trkpt>
      <trkpt lat="45.6997" lon="5.65268">
        <ele>329</ele>
        <time>2020-05-17T11:38:04.481Z</time>
      </trkpt>
      <trkpt lat="45.69974" lon="5.65263">
        <ele>325</ele>
        <time>2020-05-17T11:38:09.458Z</time>
      </trkpt>
      <trkpt lat="45.69975" lon="5.6526">
        <ele>325</ele>
        <time>2020-05-17T11:38:14.463Z</time>
      </trkpt>
      <trkpt lat="45.69978" lon="5.65257">
        <ele>325</ele>
        <time>2020-05-17T11:38:18.507Z</time>
      </trkpt>
      <trkpt lat="45.6998" lon="5.65257">
        <ele>325</ele>
        <time>2020-05-17T11:38:23.465Z</time>
      </trkpt>
      <trkpt lat="45.69984" lon="5.65257">
        <ele>325</ele>
        <time>2020-05-17T11:38:28.464Z</time>
      </trkpt>
      <trkpt lat="45.69988" lon="5.65256">
        <ele>322</ele>
        <time>2020-05-17T11:38:32.470Z</time>
      </trkpt>
      <trkpt lat="45.6999" lon="5.65253">
        <ele>322</ele>
        <time>2020-05-17T11:38:36.504Z</time>
      </trkpt>
      <trkpt lat="45.69994" lon="5.65246">
        <ele>322</ele>
        <time>2020-05-17T11:38:41.449Z</time>
      </trkpt>
      <trkpt lat="45.69996" lon="5.65245">
        <ele>322</ele>
        <time>2020-05-17T11:38:45.473Z</time>
      </trkpt>
      <trkpt lat="45.69996" lon="5.65246">
        <ele>322</ele>
        <time>2020-05-17T11:38:54.519Z</time>
      </trkpt>
      <trkpt lat="45.69996" lon="5.65245">
        <ele>322</ele>
        <time>2020-05-17T11:38:59.460Z</time>
      </trkpt>
      <trkpt lat="45.69998" lon="5.65243">
        <ele>322</ele>
        <time>2020-05-17T11:39:04.437Z</time>
      </trkpt>
      <trkpt lat="45.70001" lon="5.65237">
        <ele>322</ele>
        <time>2020-05-17T11:39:08.473Z</time>
      </trkpt>
      <trkpt lat="45.70004" lon="5.65232">
        <ele>320</ele>
        <time>2020-05-17T11:39:13.451Z</time>
      </trkpt>
      <trkpt lat="45.70008" lon="5.65227">
        <ele>320</ele>
        <time>2020-05-17T11:39:18.505Z</time>
      </trkpt>
      <trkpt lat="45.70014" lon="5.6522">
        <ele>319</ele>
        <time>2020-05-17T11:39:23.467Z</time>
      </trkpt>
      <trkpt lat="45.70018" lon="5.65216">
        <ele>319</ele>
        <time>2020-05-17T11:39:28.468Z</time>
      </trkpt>
      <trkpt lat="45.70021" lon="5.65212">
        <ele>319</ele>
        <time>2020-05-17T11:39:32.491Z</time>
      </trkpt>
      <trkpt lat="45.70023" lon="5.65205">
        <ele>320</ele>
        <time>2020-05-17T11:39:36.478Z</time>
      </trkpt>
      <trkpt lat="45.70027" lon="5.65197">
        <ele>320</ele>
        <time>2020-05-17T11:39:41.483Z</time>
      </trkpt>
      <trkpt lat="45.70032" lon="5.65189">
        <ele>320</ele>
        <time>2020-05-17T11:39:46.449Z</time>
      </trkpt>
      <trkpt lat="45.70035" lon="5.65185">
        <ele>320</ele>
        <time>2020-05-17T11:39:50.499Z</time>
      </trkpt>
      <trkpt lat="45.70039" lon="5.65179">
        <ele>321</ele>
        <time>2020-05-17T11:39:55.458Z</time>
      </trkpt>
      <trkpt lat="45.70042" lon="5.65175">
        <ele>324</ele>
        <time>2020-05-17T11:39:59.468Z</time>
      </trkpt>
      <trkpt lat="45.70046" lon="5.65169">
        <ele>324</ele>
        <time>2020-05-17T11:40:04.462Z</time>
      </trkpt>
      <trkpt lat="45.70048" lon="5.65162">
        <ele>324</ele>
        <time>2020-05-17T11:40:09.469Z</time>
      </trkpt>
      <trkpt lat="45.70051" lon="5.65156">
        <ele>324</ele>
        <time>2020-05-17T11:40:13.527Z</time>
      </trkpt>
      <trkpt lat="45.70055" lon="5.65149">
        <ele>324</ele>
        <time>2020-05-17T11:40:18.417Z</time>
      </trkpt>
      <trkpt lat="45.70058" lon="5.65143">
        <ele>324</ele>
        <time>2020-05-17T11:40:22.482Z</time>
      </trkpt>
      <trkpt lat="45.70063" lon="5.65135">
        <ele>324</ele>
        <time>2020-05-17T11:40:27.475Z</time>
      </trkpt>
      <trkpt lat="45.70067" lon="5.65129">
        <ele>324</ele>
        <time>2020-05-17T11:40:32.454Z</time>
      </trkpt>
      <trkpt lat="45.70072" lon="5.65123">
        <ele>325</ele>
        <time>2020-05-17T11:40:37.509Z</time>
      </trkpt>
      <trkpt lat="45.70076" lon="5.65117">
        <ele>325</ele>
        <time>2020-05-17T11:40:41.481Z</time>
      </trkpt>
      <trkpt lat="45.7008" lon="5.65113">
        <ele>325</ele>
        <time>2020-05-17T11:40:46.449Z</time>
      </trkpt>
      <trkpt lat="45.70083" lon="5.65107">
        <ele>325</ele>
        <time>2020-05-17T11:40:50.465Z</time>
      </trkpt>
      <trkpt lat="45.70085" lon="5.65103">
        <ele>325</ele>
        <time>2020-05-17T11:40:55.455Z</time>
      </trkpt>
      <trkpt lat="45.70092" lon="5.65102">
        <ele>325</ele>
        <time>2020-05-17T11:41:00.443Z</time>
      </trkpt>
      <trkpt lat="45.70095" lon="5.65099">
        <ele>325</ele>
        <time>2020-05-17T11:41:05.439Z</time>
      </trkpt>
      <trkpt lat="45.70098" lon="5.65093">
        <ele>325</ele>
        <time>2020-05-17T11:41:47.485Z</time>
      </trkpt>
      <trkpt lat="45.70098" lon="5.65093">
        <ele>325</ele>
        <time>2020-05-17T11:41:52.458Z</time>
      </trkpt>
      <trkpt lat="45.70103" lon="5.65088">
        <ele>325</ele>
        <time>2020-05-17T11:41:57.453Z</time>
      </trkpt>
      <trkpt lat="45.70108" lon="5.65083">
        <ele>325</ele>
        <time>2020-05-17T11:42:02.468Z</time>
      </trkpt>
      <trkpt lat="45.70113" lon="5.65079">
        <ele>325</ele>
        <time>2020-05-17T11:42:07.446Z</time>
      </trkpt>
      <trkpt lat="45.70116" lon="5.65077">
        <ele>325</ele>
        <time>2020-05-17T11:42:11.492Z</time>
      </trkpt>
      <trkpt lat="45.70118" lon="5.65076">
        <ele>325</ele>
        <time>2020-05-17T11:42:16.462Z</time>
      </trkpt>
      <trkpt lat="45.70124" lon="5.65074">
        <ele>325</ele>
        <time>2020-05-17T11:42:21.517Z</time>
      </trkpt>
      <trkpt lat="45.70128" lon="5.65072">
        <ele>324</ele>
        <time>2020-05-17T11:42:26.423Z</time>
      </trkpt>
      <trkpt lat="45.70128" lon="5.65069">
        <ele>327</ele>
        <time>2020-05-17T11:42:48.472Z</time>
      </trkpt>
      <trkpt lat="45.70128" lon="5.65069">
        <ele>327</ele>
        <time>2020-05-17T11:42:53.467Z</time>
      </trkpt>
      <trkpt lat="45.70129" lon="5.65067">
        <ele>327</ele>
        <time>2020-05-17T11:42:57.475Z</time>
      </trkpt>
      <trkpt lat="45.70127" lon="5.65063">
        <ele>327</ele>
        <time>2020-05-17T11:43:02.443Z</time>
      </trkpt>
      <trkpt lat="45.70125" lon="5.65057">
        <ele>326</ele>
        <time>2020-05-17T11:43:06.447Z</time>
      </trkpt>
      <trkpt lat="45.70123" lon="5.65052">
        <ele>326</ele>
        <time>2020-05-17T11:43:10.475Z</time>
      </trkpt>
      <trkpt lat="45.70119" lon="5.65047">
        <ele>326</ele>
        <time>2020-05-17T11:43:14.525Z</time>
      </trkpt>
      <trkpt lat="45.70113" lon="5.65039">
        <ele>326</ele>
        <time>2020-05-17T11:43:19.441Z</time>
      </trkpt>
      <trkpt lat="45.70109" lon="5.65033">
        <ele>326</ele>
        <time>2020-05-17T11:43:23.486Z</time>
      </trkpt>
      <trkpt lat="45.70103" lon="5.65023">
        <ele>326</ele>
        <time>2020-05-17T11:43:28.487Z</time>
      </trkpt>
      <trkpt lat="45.70099" lon="5.65016">
        <ele>326</ele>
        <time>2020-05-17T11:43:33.451Z</time>
      </trkpt>
      <trkpt lat="45.70094" lon="5.65009">
        <ele>325</ele>
        <time>2020-05-17T11:43:37.463Z</time>
      </trkpt>
      <trkpt lat="45.70089" lon="5.65002">
        <ele>325</ele>
        <time>2020-05-17T11:43:42.467Z</time>
      </trkpt>
      <trkpt lat="45.70084" lon="5.64995">
        <ele>325</ele>
        <time>2020-05-17T11:43:47.436Z</time>
      </trkpt>
      <trkpt lat="45.7008" lon="5.64989">
        <ele>325</ele>
        <time>2020-05-17T11:43:51.473Z</time>
      </trkpt>
      <trkpt lat="45.70075" lon="5.64981">
        <ele>327</ele>
        <time>2020-05-17T11:43:56.465Z</time>
      </trkpt>
      <trkpt lat="45.70069" lon="5.64974">
        <ele>322</ele>
        <time>2020-05-17T11:44:01.475Z</time>
      </trkpt>
      <trkpt lat="45.70063" lon="5.64967">
        <ele>322</ele>
        <time>2020-05-17T11:44:06.435Z</time>
      </trkpt>
      <trkpt lat="45.70056" lon="5.64961">
        <ele>322</ele>
        <time>2020-05-17T11:44:11.480Z</time>
      </trkpt>
      <trkpt lat="45.7005" lon="5.64954">
        <ele>325</ele>
        <time>2020-05-17T11:44:16.481Z</time>
      </trkpt>
      <trkpt lat="45.70045" lon="5.64949">
        <ele>325</ele>
        <time>2020-05-17T11:44:20.514Z</time>
      </trkpt>
      <trkpt lat="45.70038" lon="5.64946">
        <ele>320</ele>
        <time>2020-05-17T11:44:25.466Z</time>
      </trkpt>
      <trkpt lat="45.70032" lon="5.64939">
        <ele>320</ele>
        <time>2020-05-17T11:44:30.460Z</time>
      </trkpt>
      <trkpt lat="45.70027" lon="5.64935">
        <ele>320</ele>
        <time>2020-05-17T11:44:35.456Z</time>
      </trkpt>
      <trkpt lat="45.70022" lon="5.6493">
        <ele>322</ele>
        <time>2020-05-17T11:44:40.468Z</time>
      </trkpt>
      <trkpt lat="45.70016" lon="5.64924">
        <ele>322</ele>
        <time>2020-05-17T11:44:45.466Z</time>
      </trkpt>
      <trkpt lat="45.7001" lon="5.64919">
        <ele>318</ele>
        <time>2020-05-17T11:44:50.472Z</time>
      </trkpt>
      <trkpt lat="45.70004" lon="5.64915">
        <ele>318</ele>
        <time>2020-05-17T11:44:55.458Z</time>
      </trkpt>
      <trkpt lat="45.69999" lon="5.64914">
        <ele>318</ele>
        <time>2020-05-17T11:45:00.484Z</time>
      </trkpt>
      <trkpt lat="45.69999" lon="5.64913">
        <ele>318</ele>
        <time>2020-05-17T11:45:10.425Z</time>
      </trkpt>
      <trkpt lat="45.7" lon="5.64913">
        <ele>318</ele>
        <time>2020-05-17T11:45:14.471Z</time>
      </trkpt>
      <trkpt lat="45.69998" lon="5.64911">
        <ele>318</ele>
        <time>2020-05-17T11:45:19.516Z</time>
      </trkpt>
      <trkpt lat="45.69996" lon="5.64902">
        <ele>320</ele>
        <time>2020-05-17T11:45:24.477Z</time>
      </trkpt>
      <trkpt lat="45.69995" lon="5.64894">
        <ele>320</ele>
        <time>2020-05-17T11:45:29.457Z</time>
      </trkpt>
      <trkpt lat="45.69991" lon="5.64887">
        <ele>320</ele>
        <time>2020-05-17T11:45:34.436Z</time>
      </trkpt>
      <trkpt lat="45.69985" lon="5.64883">
        <ele>317</ele>
        <time>2020-05-17T11:45:39.412Z</time>
      </trkpt>
      <trkpt lat="45.69981" lon="5.64879">
        <ele>317</ele>
        <time>2020-05-17T11:45:43.449Z</time>
      </trkpt>
      <trkpt lat="45.69975" lon="5.64875">
        <ele>319</ele>
        <time>2020-05-17T11:45:48.453Z</time>
      </trkpt>
      <trkpt lat="45.69971" lon="5.64871">
        <ele>319</ele>
        <time>2020-05-17T11:45:52.444Z</time>
      </trkpt>
      <trkpt lat="45.69964" lon="5.64867">
        <ele>319</ele>
        <time>2020-05-17T11:45:56.480Z</time>
      </trkpt>
      <trkpt lat="45.69957" lon="5.64862">
        <ele>316</ele>
        <time>2020-05-17T11:46:01.449Z</time>
      </trkpt>
      <trkpt lat="45.6995" lon="5.64858">
        <ele>316</ele>
        <time>2020-05-17T11:46:06.463Z</time>
      </trkpt>
      <trkpt lat="45.69947" lon="5.64856">
        <ele>316</ele>
        <time>2020-05-17T11:46:11.459Z</time>
      </trkpt>
      <trkpt lat="45.69943" lon="5.64851">
        <ele>316</ele>
        <time>2020-05-17T11:46:16.475Z</time>
      </trkpt>
      <trkpt lat="45.69938" lon="5.64846">
        <ele>320</ele>
        <time>2020-05-17T11:46:21.487Z</time>
      </trkpt>
      <trkpt lat="45.69932" lon="5.6484">
        <ele>320</ele>
        <time>2020-05-17T11:46:26.470Z</time>
      </trkpt>
      <trkpt lat="45.69928" lon="5.64837">
        <ele>316</ele>
        <time>2020-05-17T11:46:30.460Z</time>
      </trkpt>
      <trkpt lat="45.69922" lon="5.64831">
        <ele>316</ele>
        <time>2020-05-17T11:46:35.464Z</time>
      </trkpt>
      <trkpt lat="45.69918" lon="5.64826">
        <ele>316</ele>
        <time>2020-05-17T11:46:39.410Z</time>
      </trkpt>
      <trkpt lat="45.69907" lon="5.64814">
        <ele>319</ele>
        <time>2020-05-17T11:46:48.405Z</time>
      </trkpt>
      <trkpt lat="45.69894" lon="5.64791">
        <ele>316</ele>
        <time>2020-05-17T11:47:06.485Z</time>
      </trkpt>
      <trkpt lat="45.69892" lon="5.64788">
        <ele>316</ele>
        <time>2020-05-17T11:47:11.447Z</time>
      </trkpt>
      <trkpt lat="45.6989" lon="5.64783">
        <ele>316</ele>
        <time>2020-05-17T11:47:15.446Z</time>
      </trkpt>
      <trkpt lat="45.69889" lon="5.6478">
        <ele>316</ele>
        <time>2020-05-17T11:47:19.472Z</time>
      </trkpt>
      <trkpt lat="45.69886" lon="5.64775">
        <ele>316</ele>
        <time>2020-05-17T11:47:24.471Z</time>
      </trkpt>
      <trkpt lat="45.69882" lon="5.64766">
        <ele>316</ele>
        <time>2020-05-17T11:47:29.538Z</time>
      </trkpt>
      <trkpt lat="45.69878" lon="5.64757">
        <ele>319</ele>
        <time>2020-05-17T11:47:34.482Z</time>
      </trkpt>
      <trkpt lat="45.69874" lon="5.64748">
        <ele>314</ele>
        <time>2020-05-17T11:47:39.470Z</time>
      </trkpt>
      <trkpt lat="45.69869" lon="5.64739">
        <ele>314</ele>
        <time>2020-05-17T11:47:44.477Z</time>
      </trkpt>
      <trkpt lat="45.69866" lon="5.64732">
        <ele>316</ele>
        <time>2020-05-17T11:47:49.470Z</time>
      </trkpt>
      <trkpt lat="45.69865" lon="5.64729">
        <ele>316</ele>
        <time>2020-05-17T11:47:53.518Z</time>
      </trkpt>
      <trkpt lat="45.69861" lon="5.64722">
        <ele>316</ele>
        <time>2020-05-17T11:47:58.479Z</time>
      </trkpt>
      <trkpt lat="45.69857" lon="5.64714">
        <ele>316</ele>
        <time>2020-05-17T11:48:03.448Z</time>
      </trkpt>
      <trkpt lat="45.69852" lon="5.64707">
        <ele>318</ele>
        <time>2020-05-17T11:48:08.406Z</time>
      </trkpt>
      <trkpt lat="45.69849" lon="5.64702">
        <ele>318</ele>
        <time>2020-05-17T11:48:12.492Z</time>
      </trkpt>
      <trkpt lat="45.69844" lon="5.64696">
        <ele>315</ele>
        <time>2020-05-17T11:48:17.462Z</time>
      </trkpt>
      <trkpt lat="45.69838" lon="5.6469">
        <ele>315</ele>
        <time>2020-05-17T11:48:22.469Z</time>
      </trkpt>
      <trkpt lat="45.69832" lon="5.64684">
        <ele>315</ele>
        <time>2020-05-17T11:48:27.461Z</time>
      </trkpt>
      <trkpt lat="45.69827" lon="5.64679">
        <ele>316</ele>
        <time>2020-05-17T11:48:32.471Z</time>
      </trkpt>
      <trkpt lat="45.69822" lon="5.64674">
        <ele>316</ele>
        <time>2020-05-17T11:48:37.451Z</time>
      </trkpt>
      <trkpt lat="45.69816" lon="5.64667">
        <ele>310</ele>
        <time>2020-05-17T11:48:42.462Z</time>
      </trkpt>
      <trkpt lat="45.69812" lon="5.64659">
        <ele>310</ele>
        <time>2020-05-17T11:48:47.452Z</time>
      </trkpt>
      <trkpt lat="45.69809" lon="5.64653">
        <ele>310</ele>
        <time>2020-05-17T11:48:52.530Z</time>
      </trkpt>
      <trkpt lat="45.69808" lon="5.64643">
        <ele>311</ele>
        <time>2020-05-17T11:48:57.459Z</time>
      </trkpt>
      <trkpt lat="45.69807" lon="5.64634">
        <ele>311</ele>
        <time>2020-05-17T11:49:02.444Z</time>
      </trkpt>
      <trkpt lat="45.69808" lon="5.64625">
        <ele>312</ele>
        <time>2020-05-17T11:49:07.445Z</time>
      </trkpt>
      <trkpt lat="45.69809" lon="5.64617">
        <ele>312</ele>
        <time>2020-05-17T11:49:11.471Z</time>
      </trkpt>
      <trkpt lat="45.69813" lon="5.6461">
        <ele>312</ele>
        <time>2020-05-17T11:49:16.483Z</time>
      </trkpt>
      <trkpt lat="45.69817" lon="5.64605">
        <ele>312</ele>
        <time>2020-05-17T11:49:21.464Z</time>
      </trkpt>
      <trkpt lat="45.69826" lon="5.64592">
        <ele>313</ele>
        <time>2020-05-17T11:49:26.465Z</time>
      </trkpt>
      <trkpt lat="45.69831" lon="5.64582">
        <ele>313</ele>
        <time>2020-05-17T11:49:31.497Z</time>
      </trkpt>
      <trkpt lat="45.69836" lon="5.64575">
        <ele>313</ele>
        <time>2020-05-17T11:49:36.492Z</time>
      </trkpt>
      <trkpt lat="45.69841" lon="5.64567">
        <ele>310</ele>
        <time>2020-05-17T11:49:41.469Z</time>
      </trkpt>
      <trkpt lat="45.69843" lon="5.6456">
        <ele>310</ele>
        <time>2020-05-17T11:49:45.469Z</time>
      </trkpt>
      <trkpt lat="45.69847" lon="5.64552">
        <ele>312</ele>
        <time>2020-05-17T11:49:50.468Z</time>
      </trkpt>
      <trkpt lat="45.69851" lon="5.64544">
        <ele>312</ele>
        <time>2020-05-17T11:49:55.445Z</time>
      </trkpt>
      <trkpt lat="45.69855" lon="5.64538">
        <ele>310</ele>
        <time>2020-05-17T11:49:59.451Z</time>
      </trkpt>
      <trkpt lat="45.6986" lon="5.6453">
        <ele>310</ele>
        <time>2020-05-17T11:50:04.450Z</time>
      </trkpt>
      <trkpt lat="45.69864" lon="5.64521">
        <ele>310</ele>
        <time>2020-05-17T11:50:09.467Z</time>
      </trkpt>
      <trkpt lat="45.69867" lon="5.64517">
        <ele>310</ele>
        <time>2020-05-17T11:50:13.456Z</time>
      </trkpt>
      <trkpt lat="45.69871" lon="5.64509">
        <ele>308</ele>
        <time>2020-05-17T11:50:18.454Z</time>
      </trkpt>
      <trkpt lat="45.69875" lon="5.645">
        <ele>312</ele>
        <time>2020-05-17T11:50:23.449Z</time>
      </trkpt>
      <trkpt lat="45.69878" lon="5.64496">
        <ele>312</ele>
        <time>2020-05-17T11:50:26.405Z</time>
      </trkpt>
      <trkpt lat="45.69886" lon="5.64482">
        <ele>310</ele>
        <time>2020-05-17T11:50:35.468Z</time>
      </trkpt>
      <trkpt lat="45.69889" lon="5.64474">
        <ele>310</ele>
        <time>2020-05-17T11:50:40.440Z</time>
      </trkpt>
      <trkpt lat="45.69893" lon="5.64466">
        <ele>310</ele>
        <time>2020-05-17T11:50:44.481Z</time>
      </trkpt>
      <trkpt lat="45.69897" lon="5.64458">
        <ele>310</ele>
        <time>2020-05-17T11:50:49.445Z</time>
      </trkpt>
      <trkpt lat="45.69902" lon="5.64444">
        <ele>309</ele>
        <time>2020-05-17T11:50:54.411Z</time>
      </trkpt>
      <trkpt lat="45.69905" lon="5.64436">
        <ele>316</ele>
        <time>2020-05-17T11:50:58.460Z</time>
      </trkpt>
      <trkpt lat="45.6991" lon="5.64428">
        <ele>315</ele>
        <time>2020-05-17T11:51:03.473Z</time>
      </trkpt>
      <trkpt lat="45.69914" lon="5.64419">
        <ele>315</ele>
        <time>2020-05-17T11:51:08.466Z</time>
      </trkpt>
      <trkpt lat="45.69917" lon="5.64412">
        <ele>315</ele>
        <time>2020-05-17T11:51:12.450Z</time>
      </trkpt>
      <trkpt lat="45.6992" lon="5.64403">
        <ele>312</ele>
        <time>2020-05-17T11:51:17.522Z</time>
      </trkpt>
      <trkpt lat="45.69923" lon="5.64396">
        <ele>312</ele>
        <time>2020-05-17T11:51:22.452Z</time>
      </trkpt>
      <trkpt lat="45.69927" lon="5.64387">
        <ele>312</ele>
        <time>2020-05-17T11:51:27.460Z</time>
      </trkpt>
      <trkpt lat="45.6993" lon="5.64381">
        <ele>312</ele>
        <time>2020-05-17T11:51:31.491Z</time>
      </trkpt>
      <trkpt lat="45.69935" lon="5.64373">
        <ele>313</ele>
        <time>2020-05-17T11:51:36.460Z</time>
      </trkpt>
      <trkpt lat="45.69939" lon="5.64363">
        <ele>313</ele>
        <time>2020-05-17T11:51:41.478Z</time>
      </trkpt>
      <trkpt lat="45.69942" lon="5.64357">
        <ele>313</ele>
        <time>2020-05-17T11:51:45.461Z</time>
      </trkpt>
      <trkpt lat="45.69945" lon="5.64349">
        <ele>313</ele>
        <time>2020-05-17T11:51:50.457Z</time>
      </trkpt>
      <trkpt lat="45.69947" lon="5.64346">
        <ele>310</ele>
        <time>2020-05-17T11:51:52.411Z</time>
      </trkpt>
      <trkpt lat="45.69953" lon="5.6433">
        <ele>310</ele>
        <time>2020-05-17T11:52:01.448Z</time>
      </trkpt>
      <trkpt lat="45.69956" lon="5.64323">
        <ele>310</ele>
        <time>2020-05-17T11:52:05.467Z</time>
      </trkpt>
      <trkpt lat="45.6996" lon="5.64315">
        <ele>314</ele>
        <time>2020-05-17T11:52:10.463Z</time>
      </trkpt>
      <trkpt lat="45.69966" lon="5.643">
        <ele>314</ele>
        <time>2020-05-17T11:52:15.415Z</time>
      </trkpt>
      <trkpt lat="45.69968" lon="5.64295">
        <ele>314</ele>
        <time>2020-05-17T11:52:16.409Z</time>
      </trkpt>
      <trkpt lat="45.69978" lon="5.64275">
        <ele>312</ele>
        <time>2020-05-17T11:52:25.457Z</time>
      </trkpt>
      <trkpt lat="45.6998" lon="5.64267">
        <ele>312</ele>
        <time>2020-05-17T11:52:29.462Z</time>
      </trkpt>
      <trkpt lat="45.69983" lon="5.64259">
        <ele>310</ele>
        <time>2020-05-17T11:52:34.467Z</time>
      </trkpt>
      <trkpt lat="45.69986" lon="5.64252">
        <ele>310</ele>
        <time>2020-05-17T11:52:38.403Z</time>
      </trkpt>
      <trkpt lat="45.69994" lon="5.64239">
        <ele>310</ele>
        <time>2020-05-17T11:52:47.478Z</time>
      </trkpt>
      <trkpt lat="45.69999" lon="5.64232">
        <ele>310</ele>
        <time>2020-05-17T11:52:52.453Z</time>
      </trkpt>
      <trkpt lat="45.70003" lon="5.64224">
        <ele>310</ele>
        <time>2020-05-17T11:52:57.478Z</time>
      </trkpt>
      <trkpt lat="45.70006" lon="5.64214">
        <ele>310</ele>
        <time>2020-05-17T11:53:02.480Z</time>
      </trkpt>
      <trkpt lat="45.70009" lon="5.64204">
        <ele>311</ele>
        <time>2020-05-17T11:53:07.456Z</time>
      </trkpt>
      <trkpt lat="45.70013" lon="5.64197">
        <ele>311</ele>
        <time>2020-05-17T11:53:12.460Z</time>
      </trkpt>
      <trkpt lat="45.70017" lon="5.6419">
        <ele>313</ele>
        <time>2020-05-17T11:53:17.496Z</time>
      </trkpt>
      <trkpt lat="45.70019" lon="5.64184">
        <ele>313</ele>
        <time>2020-05-17T11:53:21.481Z</time>
      </trkpt>
      <trkpt lat="45.70022" lon="5.64175">
        <ele>314</ele>
        <time>2020-05-17T11:53:26.465Z</time>
      </trkpt>
      <trkpt lat="45.70025" lon="5.64165">
        <ele>314</ele>
        <time>2020-05-17T11:53:31.461Z</time>
      </trkpt>
      <trkpt lat="45.70028" lon="5.64158">
        <ele>314</ele>
        <time>2020-05-17T11:53:36.473Z</time>
      </trkpt>
      <trkpt lat="45.7003" lon="5.64151">
        <ele>314</ele>
        <time>2020-05-17T11:53:41.421Z</time>
      </trkpt>
      <trkpt lat="45.70033" lon="5.64146">
        <ele>314</ele>
        <time>2020-05-17T11:53:45.462Z</time>
      </trkpt>
      <trkpt lat="45.70038" lon="5.64137">
        <ele>314</ele>
        <time>2020-05-17T11:53:50.477Z</time>
      </trkpt>
      <trkpt lat="45.70042" lon="5.6413">
        <ele>316</ele>
        <time>2020-05-17T11:53:55.467Z</time>
      </trkpt>
      <trkpt lat="45.70046" lon="5.64121">
        <ele>316</ele>
        <time>2020-05-17T11:54:00.494Z</time>
      </trkpt>
      <trkpt lat="45.70048" lon="5.64113">
        <ele>316</ele>
        <time>2020-05-17T11:54:05.469Z</time>
      </trkpt>
      <trkpt lat="45.70053" lon="5.64105">
        <ele>316</ele>
        <time>2020-05-17T11:54:10.476Z</time>
      </trkpt>
      <trkpt lat="45.70058" lon="5.64101">
        <ele>316</ele>
        <time>2020-05-17T11:54:14.473Z</time>
      </trkpt>
      <trkpt lat="45.70062" lon="5.64095">
        <ele>316</ele>
        <time>2020-05-17T11:54:19.470Z</time>
      </trkpt>
      <trkpt lat="45.70068" lon="5.64089">
        <ele>316</ele>
        <time>2020-05-17T11:54:24.470Z</time>
      </trkpt>
      <trkpt lat="45.70071" lon="5.64081">
        <ele>316</ele>
        <time>2020-05-17T11:54:28.470Z</time>
      </trkpt>
      <trkpt lat="45.70075" lon="5.64073">
        <ele>316</ele>
        <time>2020-05-17T11:54:33.476Z</time>
      </trkpt>
      <trkpt lat="45.70079" lon="5.64068">
        <ele>315</ele>
        <time>2020-05-17T11:54:38.478Z</time>
      </trkpt>
      <trkpt lat="45.70086" lon="5.64064">
        <ele>315</ele>
        <time>2020-05-17T11:54:43.456Z</time>
      </trkpt>
      <trkpt lat="45.70092" lon="5.64063">
        <ele>315</ele>
        <time>2020-05-17T11:54:48.494Z</time>
      </trkpt>
      <trkpt lat="45.70097" lon="5.64059">
        <ele>315</ele>
        <time>2020-05-17T11:54:53.447Z</time>
      </trkpt>
      <trkpt lat="45.70103" lon="5.64057">
        <ele>316</ele>
        <time>2020-05-17T11:54:58.463Z</time>
      </trkpt>
      <trkpt lat="45.7011" lon="5.64054">
        <ele>316</ele>
        <time>2020-05-17T11:55:03.436Z</time>
      </trkpt>
      <trkpt lat="45.70116" lon="5.64055">
        <ele>316</ele>
        <time>2020-05-17T11:55:08.485Z</time>
      </trkpt>
      <trkpt lat="45.70122" lon="5.64061">
        <ele>316</ele>
        <time>2020-05-17T11:55:13.454Z</time>
      </trkpt>
      <trkpt lat="45.70128" lon="5.64067">
        <ele>315</ele>
        <time>2020-05-17T11:55:18.470Z</time>
      </trkpt>
      <trkpt lat="45.70132" lon="5.64069">
        <ele>315</ele>
        <time>2020-05-17T11:55:22.460Z</time>
      </trkpt>
      <trkpt lat="45.70137" lon="5.64075">
        <ele>315</ele>
        <time>2020-05-17T11:55:27.467Z</time>
      </trkpt>
      <trkpt lat="45.70143" lon="5.6408">
        <ele>315</ele>
        <time>2020-05-17T11:55:32.465Z</time>
      </trkpt>
      <trkpt lat="45.70146" lon="5.64084">
        <ele>315</ele>
        <time>2020-05-17T11:55:36.482Z</time>
      </trkpt>
      <trkpt lat="45.70153" lon="5.64086">
        <ele>314</ele>
        <time>2020-05-17T11:55:41.461Z</time>
      </trkpt>
      <trkpt lat="45.70158" lon="5.64087">
        <ele>314</ele>
        <time>2020-05-17T11:55:46.474Z</time>
      </trkpt>
      <trkpt lat="45.70161" lon="5.64087">
        <ele>314</ele>
        <time>2020-05-17T11:55:51.466Z</time>
      </trkpt>
      <trkpt lat="45.70164" lon="5.64091">
        <ele>314</ele>
        <time>2020-05-17T11:56:21.450Z</time>
      </trkpt>
      <trkpt lat="45.70172" lon="5.64092">
        <ele>314</ele>
        <time>2020-05-17T11:56:26.465Z</time>
      </trkpt>
      <trkpt lat="45.70183" lon="5.64085">
        <ele>320</ele>
        <time>2020-05-17T11:56:31.518Z</time>
      </trkpt>
      <trkpt lat="45.70193" lon="5.64078">
        <ele>320</ele>
        <time>2020-05-17T11:56:36.470Z</time>
      </trkpt>
      <trkpt lat="45.70198" lon="5.64072">
        <ele>320</ele>
        <time>2020-05-17T11:56:41.473Z</time>
      </trkpt>
      <trkpt lat="45.70202" lon="5.64067">
        <ele>317</ele>
        <time>2020-05-17T11:56:46.478Z</time>
      </trkpt>
      <trkpt lat="45.70208" lon="5.64061">
        <ele>317</ele>
        <time>2020-05-17T11:56:51.475Z</time>
      </trkpt>
      <trkpt lat="45.70213" lon="5.64056">
        <ele>324</ele>
        <time>2020-05-17T11:56:56.451Z</time>
      </trkpt>
      <trkpt lat="45.70218" lon="5.64048">
        <ele>324</ele>
        <time>2020-05-17T11:57:01.433Z</time>
      </trkpt>
      <trkpt lat="45.70223" lon="5.64042">
        <ele>324</ele>
        <time>2020-05-17T11:57:05.443Z</time>
      </trkpt>
      <trkpt lat="45.70228" lon="5.64034">
        <ele>320</ele>
        <time>2020-05-17T11:57:10.466Z</time>
      </trkpt>
      <trkpt lat="45.70231" lon="5.6403">
        <ele>320</ele>
        <time>2020-05-17T11:57:13.403Z</time>
      </trkpt>
      <trkpt lat="45.7024" lon="5.64018">
        <ele>327</ele>
        <time>2020-05-17T11:57:22.428Z</time>
      </trkpt>
      <trkpt lat="45.70243" lon="5.64013">
        <ele>323</ele>
        <time>2020-05-17T11:57:26.467Z</time>
      </trkpt>
      <trkpt lat="45.70248" lon="5.64005">
        <ele>323</ele>
        <time>2020-05-17T11:57:31.472Z</time>
      </trkpt>
      <trkpt lat="45.70253" lon="5.63998">
        <ele>323</ele>
        <time>2020-05-17T11:57:36.445Z</time>
      </trkpt>
      <trkpt lat="45.70257" lon="5.6399">
        <ele>323</ele>
        <time>2020-05-17T11:57:41.454Z</time>
      </trkpt>
      <trkpt lat="45.7026" lon="5.63983">
        <ele>319</ele>
        <time>2020-05-17T11:57:45.464Z</time>
      </trkpt>
      <trkpt lat="45.70264" lon="5.63976">
        <ele>328</ele>
        <time>2020-05-17T11:57:50.518Z</time>
      </trkpt>
      <trkpt lat="45.70268" lon="5.63968">
        <ele>328</ele>
        <time>2020-05-17T11:57:55.465Z</time>
      </trkpt>
      <trkpt lat="45.70271" lon="5.6396">
        <ele>328</ele>
        <time>2020-05-17T11:58:00.466Z</time>
      </trkpt>
      <trkpt lat="45.70275" lon="5.63955">
        <ele>324</ele>
        <time>2020-05-17T11:58:05.477Z</time>
      </trkpt>
      <trkpt lat="45.70282" lon="5.63951">
        <ele>324</ele>
        <time>2020-05-17T11:58:10.475Z</time>
      </trkpt>
      <trkpt lat="45.70285" lon="5.63946">
        <ele>324</ele>
        <time>2020-05-17T11:58:14.500Z</time>
      </trkpt>
      <trkpt lat="45.7029" lon="5.63941">
        <ele>324</ele>
        <time>2020-05-17T11:58:19.472Z</time>
      </trkpt>
      <trkpt lat="45.70296" lon="5.63936">
        <ele>332</ele>
        <time>2020-05-17T11:58:24.457Z</time>
      </trkpt>
      <trkpt lat="45.70301" lon="5.6393">
        <ele>329</ele>
        <time>2020-05-17T11:58:29.445Z</time>
      </trkpt>
      <trkpt lat="45.70304" lon="5.63927">
        <ele>329</ele>
        <time>2020-05-17T11:58:33.406Z</time>
      </trkpt>
      <trkpt lat="45.70314" lon="5.63919">
        <ele>329</ele>
        <time>2020-05-17T11:58:42.470Z</time>
      </trkpt>
      <trkpt lat="45.70319" lon="5.63913">
        <ele>329</ele>
        <time>2020-05-17T11:58:47.448Z</time>
      </trkpt>
      <trkpt lat="45.70325" lon="5.63909">
        <ele>337</ele>
        <time>2020-05-17T11:58:52.455Z</time>
      </trkpt>
      <trkpt lat="45.7033" lon="5.63904">
        <ele>337</ele>
        <time>2020-05-17T11:58:57.464Z</time>
      </trkpt>
      <trkpt lat="45.70335" lon="5.63898">
        <ele>334</ele>
        <time>2020-05-17T11:59:02.473Z</time>
      </trkpt>
      <trkpt lat="45.7034" lon="5.63893">
        <ele>334</ele>
        <time>2020-05-17T11:59:07.478Z</time>
      </trkpt>
      <trkpt lat="45.70345" lon="5.63888">
        <ele>334</ele>
        <time>2020-05-17T11:59:12.450Z</time>
      </trkpt>
      <trkpt lat="45.7035" lon="5.63885">
        <ele>339</ele>
        <time>2020-05-17T11:59:16.463Z</time>
      </trkpt>
      <trkpt lat="45.70357" lon="5.63881">
        <ele>339</ele>
        <time>2020-05-17T11:59:21.454Z</time>
      </trkpt>
      <trkpt lat="45.70362" lon="5.63878">
        <ele>339</ele>
        <time>2020-05-17T11:59:25.448Z</time>
      </trkpt>
      <trkpt lat="45.70369" lon="5.63873">
        <ele>336</ele>
        <time>2020-05-17T11:59:30.522Z</time>
      </trkpt>
      <trkpt lat="45.70375" lon="5.63869">
        <ele>336</ele>
        <time>2020-05-17T11:59:35.472Z</time>
      </trkpt>
      <trkpt lat="45.70381" lon="5.63864">
        <ele>341</ele>
        <time>2020-05-17T11:59:40.445Z</time>
      </trkpt>
      <trkpt lat="45.70387" lon="5.63862">
        <ele>341</ele>
        <time>2020-05-17T11:59:45.439Z</time>
      </trkpt>
      <trkpt lat="45.70392" lon="5.6386">
        <ele>341</ele>
        <time>2020-05-17T11:59:49.474Z</time>
      </trkpt>
      <trkpt lat="45.70396" lon="5.63857">
        <ele>341</ele>
        <time>2020-05-17T11:59:53.456Z</time>
      </trkpt>
      <trkpt lat="45.70398" lon="5.63856">
        <ele>341</ele>
        <time>2020-05-17T11:59:58.457Z</time>
      </trkpt>
      <trkpt lat="45.70399" lon="5.63853">
        <ele>341</ele>
        <time>2020-05-17T12:00:16.480Z</time>
      </trkpt>
      <trkpt lat="45.70406" lon="5.63849">
        <ele>345</ele>
        <time>2020-05-17T12:00:21.465Z</time>
      </trkpt>
      <trkpt lat="45.70413" lon="5.63846">
        <ele>342</ele>
        <time>2020-05-17T12:00:26.458Z</time>
      </trkpt>
      <trkpt lat="45.70418" lon="5.63844">
        <ele>342</ele>
        <time>2020-05-17T12:00:30.466Z</time>
      </trkpt>
      <trkpt lat="45.70425" lon="5.63842">
        <ele>342</ele>
        <time>2020-05-17T12:00:35.471Z</time>
      </trkpt>
      <trkpt lat="45.70432" lon="5.63839">
        <ele>348</ele>
        <time>2020-05-17T12:00:40.410Z</time>
      </trkpt>
      <trkpt lat="45.70436" lon="5.63835">
        <ele>348</ele>
        <time>2020-05-17T12:00:44.492Z</time>
      </trkpt>
      <trkpt lat="45.70443" lon="5.63832">
        <ele>348</ele>
        <time>2020-05-17T12:00:49.455Z</time>
      </trkpt>
      <trkpt lat="45.70446" lon="5.6383">
        <ele>348</ele>
        <time>2020-05-17T12:00:51.423Z</time>
      </trkpt>
      <trkpt lat="45.70455" lon="5.63819">
        <ele>342</ele>
        <time>2020-05-17T12:01:00.480Z</time>
      </trkpt>
      <trkpt lat="45.70455" lon="5.63818">
        <ele>342</ele>
        <time>2020-05-17T12:01:05.482Z</time>
      </trkpt>
      <trkpt lat="45.70456" lon="5.63818">
        <ele>342</ele>
        <time>2020-05-17T12:01:09.554Z</time>
      </trkpt>
      <trkpt lat="45.7046" lon="5.63814">
        <ele>348</ele>
        <time>2020-05-17T12:01:14.423Z</time>
      </trkpt>
      <trkpt lat="45.70465" lon="5.63809">
        <ele>348</ele>
        <time>2020-05-17T12:01:19.477Z</time>
      </trkpt>
      <trkpt lat="45.7047" lon="5.63806">
        <ele>348</ele>
        <time>2020-05-17T12:01:24.465Z</time>
      </trkpt>
      <trkpt lat="45.70475" lon="5.63804">
        <ele>348</ele>
        <time>2020-05-17T12:01:28.456Z</time>
      </trkpt>
      <trkpt lat="45.70477" lon="5.63802">
        <ele>348</ele>
        <time>2020-05-17T12:01:30.411Z</time>
      </trkpt>
      <trkpt lat="45.70487" lon="5.63794">
        <ele>352</ele>
        <time>2020-05-17T12:01:39.479Z</time>
      </trkpt>
      <trkpt lat="45.70493" lon="5.6379">
        <ele>348</ele>
        <time>2020-05-17T12:01:44.432Z</time>
      </trkpt>
      <trkpt lat="45.70497" lon="5.63786">
        <ele>348</ele>
        <time>2020-05-17T12:01:48.457Z</time>
      </trkpt>
      <trkpt lat="45.70502" lon="5.63783">
        <ele>348</ele>
        <time>2020-05-17T12:01:53.445Z</time>
      </trkpt>
      <trkpt lat="45.70506" lon="5.63781">
        <ele>348</ele>
        <time>2020-05-17T12:01:57.458Z</time>
      </trkpt>
      <trkpt lat="45.70511" lon="5.63778">
        <ele>348</ele>
        <time>2020-05-17T12:02:02.463Z</time>
      </trkpt>
      <trkpt lat="45.70515" lon="5.63775">
        <ele>353</ele>
        <time>2020-05-17T12:02:06.459Z</time>
      </trkpt>
      <trkpt lat="45.7052" lon="5.63772">
        <ele>353</ele>
        <time>2020-05-17T12:02:11.445Z</time>
      </trkpt>
      <trkpt lat="45.70525" lon="5.63768">
        <ele>353</ele>
        <time>2020-05-17T12:02:15.434Z</time>
      </trkpt>
      <trkpt lat="45.70528" lon="5.6376">
        <ele>349</ele>
        <time>2020-05-17T12:03:05.431Z</time>
      </trkpt>
      <trkpt lat="45.70529" lon="5.6376">
        <ele>349</ele>
        <time>2020-05-17T12:03:09.500Z</time>
      </trkpt>
      <trkpt lat="45.70531" lon="5.63758">
        <ele>349</ele>
        <time>2020-05-17T12:03:14.437Z</time>
      </trkpt>
      <trkpt lat="45.7054" lon="5.6375">
        <ele>349</ele>
        <time>2020-05-17T12:03:19.446Z</time>
      </trkpt>
      <trkpt lat="45.70542" lon="5.63748">
        <ele>352</ele>
        <time>2020-05-17T12:03:24.478Z</time>
      </trkpt>
      <trkpt lat="45.70543" lon="5.63748">
        <ele>352</ele>
        <time>2020-05-17T12:03:39.460Z</time>
      </trkpt>
      <trkpt lat="45.70543" lon="5.63748">
        <ele>352</ele>
        <time>2020-05-17T12:03:43.434Z</time>
      </trkpt>
      <trkpt lat="45.70545" lon="5.63747">
        <ele>352</ele>
        <time>2020-05-17T12:03:48.408Z</time>
      </trkpt>
      <trkpt lat="45.70548" lon="5.63745">
        <ele>352</ele>
        <time>2020-05-17T12:03:52.472Z</time>
      </trkpt>
      <trkpt lat="45.70552" lon="5.6374">
        <ele>352</ele>
        <time>2020-05-17T12:03:57.450Z</time>
      </trkpt>
      <trkpt lat="45.70557" lon="5.63734">
        <ele>350</ele>
        <time>2020-05-17T12:04:02.443Z</time>
      </trkpt>
      <trkpt lat="45.70562" lon="5.63727">
        <ele>350</ele>
        <time>2020-05-17T12:04:06.441Z</time>
      </trkpt>
      <trkpt lat="45.70566" lon="5.63721">
        <ele>350</ele>
        <time>2020-05-17T12:04:11.446Z</time>
      </trkpt>
      <trkpt lat="45.7057" lon="5.63712">
        <ele>353</ele>
        <time>2020-05-17T12:04:16.464Z</time>
      </trkpt>
      <trkpt lat="45.70573" lon="5.63704">
        <ele>351</ele>
        <time>2020-05-17T12:04:21.449Z</time>
      </trkpt>
      <trkpt lat="45.70577" lon="5.63696">
        <ele>351</ele>
        <time>2020-05-17T12:04:26.479Z</time>
      </trkpt>
      <trkpt lat="45.70582" lon="5.63685">
        <ele>351</ele>
        <time>2020-05-17T12:04:31.464Z</time>
      </trkpt>
      <trkpt lat="45.70586" lon="5.63676">
        <ele>349</ele>
        <time>2020-05-17T12:04:36.450Z</time>
      </trkpt>
      <trkpt lat="45.7059" lon="5.63672">
        <ele>349</ele>
        <time>2020-05-17T12:04:40.457Z</time>
      </trkpt>
      <trkpt lat="45.70596" lon="5.63666">
        <ele>349</ele>
        <time>2020-05-17T12:04:45.439Z</time>
      </trkpt>
      <trkpt lat="45.70602" lon="5.63662">
        <ele>354</ele>
        <time>2020-05-17T12:04:50.480Z</time>
      </trkpt>
      <trkpt lat="45.7061" lon="5.63659">
        <ele>354</ele>
        <time>2020-05-17T12:04:55.459Z</time>
      </trkpt>
      <trkpt lat="45.70616" lon="5.63655">
        <ele>354</ele>
        <time>2020-05-17T12:05:00.473Z</time>
      </trkpt>
      <trkpt lat="45.70622" lon="5.63652">
        <ele>353</ele>
        <time>2020-05-17T12:05:05.458Z</time>
      </trkpt>
      <trkpt lat="45.70628" lon="5.63649">
        <ele>356</ele>
        <time>2020-05-17T12:05:10.445Z</time>
      </trkpt>
      <trkpt lat="45.70632" lon="5.63647">
        <ele>356</ele>
        <time>2020-05-17T12:05:14.458Z</time>
      </trkpt>
      <trkpt lat="45.70639" lon="5.63642">
        <ele>356</ele>
        <time>2020-05-17T12:05:19.495Z</time>
      </trkpt>
      <trkpt lat="45.70645" lon="5.63638">
        <ele>356</ele>
        <time>2020-05-17T12:05:23.516Z</time>
      </trkpt>
      <trkpt lat="45.7065" lon="5.63634">
        <ele>356</ele>
        <time>2020-05-17T12:05:28.449Z</time>
      </trkpt>
      <trkpt lat="45.70656" lon="5.63631">
        <ele>361</ele>
        <time>2020-05-17T12:05:32.447Z</time>
      </trkpt>
      <trkpt lat="45.70662" lon="5.63626">
        <ele>361</ele>
        <time>2020-05-17T12:05:37.464Z</time>
      </trkpt>
      <trkpt lat="45.70667" lon="5.63623">
        <ele>360</ele>
        <time>2020-05-17T12:05:42.411Z</time>
      </trkpt>
      <trkpt lat="45.70673" lon="5.63622">
        <ele>360</ele>
        <time>2020-05-17T12:05:46.408Z</time>
      </trkpt>
      <trkpt lat="45.70677" lon="5.63622">
        <ele>360</ele>
        <time>2020-05-17T12:05:50.465Z</time>
      </trkpt>
      <trkpt lat="45.70683" lon="5.63618">
        <ele>364</ele>
        <time>2020-05-17T12:05:55.457Z</time>
      </trkpt>
      <trkpt lat="45.70689" lon="5.63613">
        <ele>364</ele>
        <time>2020-05-17T12:06:00.449Z</time>
      </trkpt>
      <trkpt lat="45.70694" lon="5.63609">
        <ele>364</ele>
        <time>2020-05-17T12:06:04.449Z</time>
      </trkpt>
      <trkpt lat="45.70699" lon="5.63603">
        <ele>364</ele>
        <time>2020-05-17T12:06:09.464Z</time>
      </trkpt>
      <trkpt lat="45.70705" lon="5.63598">
        <ele>364</ele>
        <time>2020-05-17T12:06:14.447Z</time>
      </trkpt>
      <trkpt lat="45.70711" lon="5.63593">
        <ele>364</ele>
        <time>2020-05-17T12:06:19.467Z</time>
      </trkpt>
      <trkpt lat="45.70716" lon="5.6359">
        <ele>364</ele>
        <time>2020-05-17T12:06:23.479Z</time>
      </trkpt>
      <trkpt lat="45.70722" lon="5.63588">
        <ele>364</ele>
        <time>2020-05-17T12:06:28.472Z</time>
      </trkpt>
      <trkpt lat="45.70728" lon="5.63585">
        <ele>364</ele>
        <time>2020-05-17T12:06:33.439Z</time>
      </trkpt>
      <trkpt lat="45.70732" lon="5.6358">
        <ele>364</ele>
        <time>2020-05-17T12:06:37.466Z</time>
      </trkpt>
      <trkpt lat="45.70738" lon="5.63575">
        <ele>368</ele>
        <time>2020-05-17T12:06:42.467Z</time>
      </trkpt>
      <trkpt lat="45.70743" lon="5.63572">
        <ele>368</ele>
        <time>2020-05-17T12:06:46.472Z</time>
      </trkpt>
      <trkpt lat="45.70749" lon="5.63568">
        <ele>368</ele>
        <time>2020-05-17T12:06:51.468Z</time>
      </trkpt>
      <trkpt lat="45.70756" lon="5.63563">
        <ele>368</ele>
        <time>2020-05-17T12:06:56.441Z</time>
      </trkpt>
      <trkpt lat="45.70762" lon="5.63559">
        <ele>368</ele>
        <time>2020-05-17T12:07:01.469Z</time>
      </trkpt>
      <trkpt lat="45.70768" lon="5.63556">
        <ele>369</ele>
        <time>2020-05-17T12:07:06.452Z</time>
      </trkpt>
      <trkpt lat="45.70775" lon="5.63552">
        <ele>369</ele>
        <time>2020-05-17T12:07:11.458Z</time>
      </trkpt>
      <trkpt lat="45.70782" lon="5.63548">
        <ele>369</ele>
        <time>2020-05-17T12:07:16.436Z</time>
      </trkpt>
      <trkpt lat="45.70787" lon="5.63545">
        <ele>369</ele>
        <time>2020-05-17T12:07:20.494Z</time>
      </trkpt>
      <trkpt lat="45.70792" lon="5.63542">
        <ele>370</ele>
        <time>2020-05-17T12:07:25.443Z</time>
      </trkpt>
      <trkpt lat="45.70799" lon="5.63538">
        <ele>369</ele>
        <time>2020-05-17T12:07:30.470Z</time>
      </trkpt>
      <trkpt lat="45.70804" lon="5.63536">
        <ele>369</ele>
        <time>2020-05-17T12:07:34.481Z</time>
      </trkpt>
      <trkpt lat="45.7081" lon="5.63534">
        <ele>369</ele>
        <time>2020-05-17T12:07:39.450Z</time>
      </trkpt>
      <trkpt lat="45.70816" lon="5.63532">
        <ele>369</ele>
        <time>2020-05-17T12:07:43.506Z</time>
      </trkpt>
      <trkpt lat="45.70823" lon="5.63528">
        <ele>371</ele>
        <time>2020-05-17T12:07:48.468Z</time>
      </trkpt>
      <trkpt lat="45.7083" lon="5.63526">
        <ele>371</ele>
        <time>2020-05-17T12:07:53.442Z</time>
      </trkpt>
      <trkpt lat="45.70834" lon="5.63523">
        <ele>371</ele>
        <time>2020-05-17T12:07:57.455Z</time>
      </trkpt>
      <trkpt lat="45.70841" lon="5.63518">
        <ele>371</ele>
        <time>2020-05-17T12:08:02.477Z</time>
      </trkpt>
      <trkpt lat="45.70848" lon="5.63513">
        <ele>374</ele>
        <time>2020-05-17T12:08:07.452Z</time>
      </trkpt>
      <trkpt lat="45.70854" lon="5.63509">
        <ele>374</ele>
        <time>2020-05-17T12:08:12.448Z</time>
      </trkpt>
      <trkpt lat="45.7086" lon="5.63505">
        <ele>374</ele>
        <time>2020-05-17T12:08:17.449Z</time>
      </trkpt>
      <trkpt lat="45.70867" lon="5.63499">
        <ele>374</ele>
        <time>2020-05-17T12:08:22.449Z</time>
      </trkpt>
      <trkpt lat="45.70873" lon="5.63496">
        <ele>374</ele>
        <time>2020-05-17T12:08:27.458Z</time>
      </trkpt>
      <trkpt lat="45.70879" lon="5.6349">
        <ele>378</ele>
        <time>2020-05-17T12:08:32.435Z</time>
      </trkpt>
      <trkpt lat="45.70884" lon="5.63486">
        <ele>378</ele>
        <time>2020-05-17T12:08:36.511Z</time>
      </trkpt>
      <trkpt lat="45.7089" lon="5.63482">
        <ele>378</ele>
        <time>2020-05-17T12:08:41.455Z</time>
      </trkpt>
      <trkpt lat="45.70895" lon="5.63478">
        <ele>378</ele>
        <time>2020-05-17T12:08:46.439Z</time>
      </trkpt>
      <trkpt lat="45.70901" lon="5.63474">
        <ele>378</ele>
        <time>2020-05-17T12:08:51.454Z</time>
      </trkpt>
      <trkpt lat="45.70907" lon="5.63472">
        <ele>379</ele>
        <time>2020-05-17T12:08:56.449Z</time>
      </trkpt>
      <trkpt lat="45.70912" lon="5.63473">
        <ele>379</ele>
        <time>2020-05-17T12:09:01.445Z</time>
      </trkpt>
      <trkpt lat="45.70918" lon="5.63477">
        <ele>379</ele>
        <time>2020-05-17T12:09:06.526Z</time>
      </trkpt>
      <trkpt lat="45.70923" lon="5.63484">
        <ele>379</ele>
        <time>2020-05-17T12:09:11.467Z</time>
      </trkpt>
      <trkpt lat="45.70926" lon="5.63488">
        <ele>384</ele>
        <time>2020-05-17T12:09:16.407Z</time>
      </trkpt>
      <trkpt lat="45.70928" lon="5.63489">
        <ele>384</ele>
        <time>2020-05-17T12:09:17.398Z</time>
      </trkpt>
      <trkpt lat="45.70939" lon="5.6349">
        <ele>387</ele>
        <time>2020-05-17T12:09:26.446Z</time>
      </trkpt>
      <trkpt lat="45.70944" lon="5.63489">
        <ele>387</ele>
        <time>2020-05-17T12:09:30.488Z</time>
      </trkpt>
      <trkpt lat="45.70951" lon="5.63484">
        <ele>381</ele>
        <time>2020-05-17T12:09:35.453Z</time>
      </trkpt>
      <trkpt lat="45.70958" lon="5.6348">
        <ele>387</ele>
        <time>2020-05-17T12:09:40.461Z</time>
      </trkpt>
      <trkpt lat="45.70965" lon="5.63475">
        <ele>387</ele>
        <time>2020-05-17T12:09:45.402Z</time>
      </trkpt>
      <trkpt lat="45.7097" lon="5.63471">
        <ele>387</ele>
        <time>2020-05-17T12:09:49.451Z</time>
      </trkpt>
      <trkpt lat="45.7098" lon="5.63462">
        <ele>387</ele>
        <time>2020-05-17T12:09:54.449Z</time>
      </trkpt>
      <trkpt lat="45.7099" lon="5.63454">
        <ele>388</ele>
        <time>2020-05-17T12:09:59.443Z</time>
      </trkpt>
      <trkpt lat="45.70991" lon="5.63453">
        <ele>388</ele>
        <time>2020-05-17T12:10:00.413Z</time>
      </trkpt>
      <trkpt lat="45.71" lon="5.63445">
        <ele>388</ele>
        <time>2020-05-17T12:10:09.443Z</time>
      </trkpt>
      <trkpt lat="45.71007" lon="5.63444">
        <ele>388</ele>
        <time>2020-05-17T12:10:14.478Z</time>
      </trkpt>
      <trkpt lat="45.71012" lon="5.63439">
        <ele>388</ele>
        <time>2020-05-17T12:10:19.436Z</time>
      </trkpt>
      <trkpt lat="45.71016" lon="5.63435">
        <ele>394</ele>
        <time>2020-05-17T12:10:23.442Z</time>
      </trkpt>
      <trkpt lat="45.71023" lon="5.63434">
        <ele>394</ele>
        <time>2020-05-17T12:10:28.480Z</time>
      </trkpt>
      <trkpt lat="45.71027" lon="5.6343">
        <ele>390</ele>
        <time>2020-05-17T12:10:33.438Z</time>
      </trkpt>
      <trkpt lat="45.71032" lon="5.63426">
        <ele>390</ele>
        <time>2020-05-17T12:10:37.452Z</time>
      </trkpt>
      <trkpt lat="45.71038" lon="5.63422">
        <ele>390</ele>
        <time>2020-05-17T12:10:42.448Z</time>
      </trkpt>
      <trkpt lat="45.71042" lon="5.63417">
        <ele>397</ele>
        <time>2020-05-17T12:10:47.462Z</time>
      </trkpt>
      <trkpt lat="45.71046" lon="5.63401">
        <ele>391</ele>
        <time>2020-05-17T12:10:52.451Z</time>
      </trkpt>
      <trkpt lat="45.71045" lon="5.63392">
        <ele>391</ele>
        <time>2020-05-17T12:10:57.449Z</time>
      </trkpt>
      <trkpt lat="45.71044" lon="5.63382">
        <ele>391</ele>
        <time>2020-05-17T12:11:02.405Z</time>
      </trkpt>
      <trkpt lat="45.71042" lon="5.63375">
        <ele>386</ele>
        <time>2020-05-17T12:11:06.401Z</time>
      </trkpt>
      <trkpt lat="45.71041" lon="5.63368">
        <ele>381</ele>
        <time>2020-05-17T12:11:10.452Z</time>
      </trkpt>
      <trkpt lat="45.71043" lon="5.63359">
        <ele>386</ele>
        <time>2020-05-17T12:11:14.455Z</time>
      </trkpt>
      <trkpt lat="45.71044" lon="5.63354">
        <ele>386</ele>
        <time>2020-05-17T12:11:18.502Z</time>
      </trkpt>
      <trkpt lat="45.7105" lon="5.63352">
        <ele>386</ele>
        <time>2020-05-17T12:11:23.406Z</time>
      </trkpt>
      <trkpt lat="45.71052" lon="5.63349">
        <ele>386</ele>
        <time>2020-05-17T12:11:25.412Z</time>
      </trkpt>
      <trkpt lat="45.71062" lon="5.63344">
        <ele>382</ele>
        <time>2020-05-17T12:11:34.442Z</time>
      </trkpt>
      <trkpt lat="45.71068" lon="5.63341">
        <ele>382</ele>
        <time>2020-05-17T12:11:38.442Z</time>
      </trkpt>
      <trkpt lat="45.71074" lon="5.63338">
        <ele>385</ele>
        <time>2020-05-17T12:11:43.436Z</time>
      </trkpt>
      <trkpt lat="45.71079" lon="5.63331">
        <ele>385</ele>
        <time>2020-05-17T12:11:48.484Z</time>
      </trkpt>
      <trkpt lat="45.71088" lon="5.63325">
        <ele>385</ele>
        <time>2020-05-17T12:11:53.446Z</time>
      </trkpt>
      <trkpt lat="45.71094" lon="5.63322">
        <ele>385</ele>
        <time>2020-05-17T12:11:57.456Z</time>
      </trkpt>
      <trkpt lat="45.71102" lon="5.6332">
        <ele>386</ele>
        <time>2020-05-17T12:12:02.454Z</time>
      </trkpt>
      <trkpt lat="45.71108" lon="5.63318">
        <ele>383</ele>
        <time>2020-05-17T12:12:07.451Z</time>
      </trkpt>
      <trkpt lat="45.71118" lon="5.63315">
        <ele>383</ele>
        <time>2020-05-17T12:12:12.469Z</time>
      </trkpt>
      <trkpt lat="45.71126" lon="5.63315">
        <ele>385</ele>
        <time>2020-05-17T12:12:17.449Z</time>
      </trkpt>
      <trkpt lat="45.71128" lon="5.63317">
        <ele>385</ele>
        <time>2020-05-17T12:12:22.434Z</time>
      </trkpt>
      <trkpt lat="45.71132" lon="5.63316">
        <ele>385</ele>
        <time>2020-05-17T12:12:27.454Z</time>
      </trkpt>
      <trkpt lat="45.71137" lon="5.63312">
        <ele>385</ele>
        <time>2020-05-17T12:12:32.450Z</time>
      </trkpt>
      <trkpt lat="45.71139" lon="5.6331">
        <ele>385</ele>
        <time>2020-05-17T12:12:36.508Z</time>
      </trkpt>
      <trkpt lat="45.71144" lon="5.63309">
        <ele>385</ele>
        <time>2020-05-17T12:12:41.422Z</time>
      </trkpt>
      <trkpt lat="45.71149" lon="5.63307">
        <ele>385</ele>
        <time>2020-05-17T12:12:45.443Z</time>
      </trkpt>
      <trkpt lat="45.71155" lon="5.63306">
        <ele>387</ele>
        <time>2020-05-17T12:12:50.451Z</time>
      </trkpt>
      <trkpt lat="45.7116" lon="5.63305">
        <ele>387</ele>
        <time>2020-05-17T12:12:54.535Z</time>
      </trkpt>
      <trkpt lat="45.71168" lon="5.633">
        <ele>387</ele>
        <time>2020-05-17T12:12:59.454Z</time>
      </trkpt>
      <trkpt lat="45.71175" lon="5.63294">
        <ele>387</ele>
        <time>2020-05-17T12:13:03.459Z</time>
      </trkpt>
      <trkpt lat="45.71181" lon="5.63288">
        <ele>382</ele>
        <time>2020-05-17T12:13:08.443Z</time>
      </trkpt>
      <trkpt lat="45.71186" lon="5.63284">
        <ele>382</ele>
        <time>2020-05-17T12:13:12.443Z</time>
      </trkpt>
      <trkpt lat="45.71192" lon="5.63278">
        <ele>382</ele>
        <time>2020-05-17T12:13:17.453Z</time>
      </trkpt>
      <trkpt lat="45.71197" lon="5.63275">
        <ele>382</ele>
        <time>2020-05-17T12:13:22.468Z</time>
      </trkpt>
      <trkpt lat="45.71205" lon="5.63272">
        <ele>382</ele>
        <time>2020-05-17T12:13:27.478Z</time>
      </trkpt>
      <trkpt lat="45.71212" lon="5.63271">
        <ele>381</ele>
        <time>2020-05-17T12:13:32.461Z</time>
      </trkpt>
      <trkpt lat="45.71216" lon="5.6327">
        <ele>381</ele>
        <time>2020-05-17T12:13:36.520Z</time>
      </trkpt>
      <trkpt lat="45.71223" lon="5.63272">
        <ele>381</ele>
        <time>2020-05-17T12:13:41.448Z</time>
      </trkpt>
      <trkpt lat="45.71225" lon="5.63273">
        <ele>381</ele>
        <time>2020-05-17T12:13:45.451Z</time>
      </trkpt>
      <trkpt lat="45.71229" lon="5.63276">
        <ele>381</ele>
        <time>2020-05-17T12:13:50.450Z</time>
      </trkpt>
      <trkpt lat="45.71238" lon="5.63292">
        <ele>381</ele>
        <time>2020-05-17T12:13:54.518Z</time>
      </trkpt>
      <trkpt lat="45.71246" lon="5.63311">
        <ele>381</ele>
        <time>2020-05-17T12:13:59.450Z</time>
      </trkpt>
      <trkpt lat="45.7125" lon="5.63322">
        <ele>382</ele>
        <time>2020-05-17T12:14:04.397Z</time>
      </trkpt>
      <trkpt lat="45.7125" lon="5.63326">
        <ele>382</ele>
        <time>2020-05-17T12:14:08.435Z</time>
      </trkpt>
      <trkpt lat="45.71249" lon="5.63333">
        <ele>382</ele>
        <time>2020-05-17T12:14:13.402Z</time>
      </trkpt>
      <trkpt lat="45.71248" lon="5.63336">
        <ele>382</ele>
        <time>2020-05-17T12:14:17.473Z</time>
      </trkpt>
      <trkpt lat="45.71247" lon="5.63341">
        <ele>382</ele>
        <time>2020-05-17T12:14:22.439Z</time>
      </trkpt>
      <trkpt lat="45.71248" lon="5.63352">
        <ele>383</ele>
        <time>2020-05-17T12:14:26.457Z</time>
      </trkpt>
      <trkpt lat="45.71251" lon="5.63366">
        <ele>383</ele>
        <time>2020-05-17T12:14:31.497Z</time>
      </trkpt>
      <trkpt lat="45.71251" lon="5.63372">
        <ele>383</ele>
        <time>2020-05-17T12:14:36.447Z</time>
      </trkpt>
      <trkpt lat="45.71251" lon="5.6338">
        <ele>384</ele>
        <time>2020-05-17T12:14:40.450Z</time>
      </trkpt>
      <trkpt lat="45.71252" lon="5.63392">
        <ele>384</ele>
        <time>2020-05-17T12:14:45.450Z</time>
      </trkpt>
      <trkpt lat="45.71255" lon="5.63403">
        <ele>384</ele>
        <time>2020-05-17T12:14:50.450Z</time>
      </trkpt>
      <trkpt lat="45.71256" lon="5.63411">
        <ele>384</ele>
        <time>2020-05-17T12:14:55.452Z</time>
      </trkpt>
      <trkpt lat="45.71259" lon="5.63421">
        <ele>384</ele>
        <time>2020-05-17T12:15:00.409Z</time>
      </trkpt>
      <trkpt lat="45.71259" lon="5.6343">
        <ele>384</ele>
        <time>2020-05-17T12:15:04.461Z</time>
      </trkpt>
      <trkpt lat="45.71263" lon="5.63441">
        <ele>384</ele>
        <time>2020-05-17T12:15:09.460Z</time>
      </trkpt>
      <trkpt lat="45.71269" lon="5.63453">
        <ele>382</ele>
        <time>2020-05-17T12:15:14.467Z</time>
      </trkpt>
      <trkpt lat="45.71274" lon="5.63461">
        <ele>383</ele>
        <time>2020-05-17T12:15:19.453Z</time>
      </trkpt>
      <trkpt lat="45.71277" lon="5.63464">
        <ele>383</ele>
        <time>2020-05-17T12:15:23.466Z</time>
      </trkpt>
      <trkpt lat="45.71285" lon="5.63471">
        <ele>383</ele>
        <time>2020-05-17T12:15:28.450Z</time>
      </trkpt>
      <trkpt lat="45.71297" lon="5.63473">
        <ele>383</ele>
        <time>2020-05-17T12:15:33.446Z</time>
      </trkpt>
      <trkpt lat="45.71305" lon="5.63468">
        <ele>383</ele>
        <time>2020-05-17T12:15:38.438Z</time>
      </trkpt>
      <trkpt lat="45.71311" lon="5.63463">
        <ele>383</ele>
        <time>2020-05-17T12:15:43.448Z</time>
      </trkpt>
      <trkpt lat="45.71317" lon="5.63456">
        <ele>380</ele>
        <time>2020-05-17T12:15:48.433Z</time>
      </trkpt>
      <trkpt lat="45.71323" lon="5.63448">
        <ele>381</ele>
        <time>2020-05-17T12:15:52.450Z</time>
      </trkpt>
      <trkpt lat="45.7133" lon="5.63432">
        <ele>381</ele>
        <time>2020-05-17T12:15:57.465Z</time>
      </trkpt>
      <trkpt lat="45.71339" lon="5.6341">
        <ele>377</ele>
        <time>2020-05-17T12:16:02.390Z</time>
      </trkpt>
      <trkpt lat="45.71359" lon="5.6339">
        <ele>376</ele>
        <time>2020-05-17T12:16:11.455Z</time>
      </trkpt>
      <trkpt lat="45.71367" lon="5.63382">
        <ele>376</ele>
        <time>2020-05-17T12:16:16.457Z</time>
      </trkpt>
      <trkpt lat="45.71375" lon="5.63376">
        <ele>376</ele>
        <time>2020-05-17T12:16:21.514Z</time>
      </trkpt>
      <trkpt lat="45.71382" lon="5.63368">
        <ele>376</ele>
        <time>2020-05-17T12:16:26.471Z</time>
      </trkpt>
      <trkpt lat="45.71387" lon="5.63362">
        <ele>376</ele>
        <time>2020-05-17T12:16:31.451Z</time>
      </trkpt>
      <trkpt lat="45.71389" lon="5.63352">
        <ele>376</ele>
        <time>2020-05-17T12:16:36.462Z</time>
      </trkpt>
      <trkpt lat="45.71388" lon="5.63343">
        <ele>376</ele>
        <time>2020-05-17T12:16:41.439Z</time>
      </trkpt>
      <trkpt lat="45.71388" lon="5.63336">
        <ele>376</ele>
        <time>2020-05-17T12:16:45.463Z</time>
      </trkpt>
      <trkpt lat="45.71392" lon="5.63333">
        <ele>376</ele>
        <time>2020-05-17T12:16:50.447Z</time>
      </trkpt>
      <trkpt lat="45.71401" lon="5.6333">
        <ele>376</ele>
        <time>2020-05-17T12:16:55.455Z</time>
      </trkpt>
      <trkpt lat="45.71415" lon="5.63327">
        <ele>380</ele>
        <time>2020-05-17T12:16:59.454Z</time>
      </trkpt>
      <trkpt lat="45.71427" lon="5.63326">
        <ele>380</ele>
        <time>2020-05-17T12:17:04.449Z</time>
      </trkpt>
      <trkpt lat="45.71434" lon="5.63329">
        <ele>380</ele>
        <time>2020-05-17T12:17:08.406Z</time>
      </trkpt>
      <trkpt lat="45.71439" lon="5.6333">
        <ele>380</ele>
        <time>2020-05-17T12:17:13.462Z</time>
      </trkpt>
      <trkpt lat="45.71448" lon="5.63328">
        <ele>380</ele>
        <time>2020-05-17T12:17:18.445Z</time>
      </trkpt>
      <trkpt lat="45.71456" lon="5.63328">
        <ele>380</ele>
        <time>2020-05-17T12:17:22.443Z</time>
      </trkpt>
      <trkpt lat="45.71478" lon="5.63326">
        <ele>379</ele>
        <time>2020-05-17T12:17:31.418Z</time>
      </trkpt>
      <trkpt lat="45.71486" lon="5.63323">
        <ele>379</ele>
        <time>2020-05-17T12:17:35.442Z</time>
      </trkpt>
      <trkpt lat="45.71496" lon="5.63319">
        <ele>380</ele>
        <time>2020-05-17T12:17:40.460Z</time>
      </trkpt>
      <trkpt lat="45.71515" lon="5.63311">
        <ele>381</ele>
        <time>2020-05-17T12:17:45.448Z</time>
      </trkpt>
      <trkpt lat="45.71526" lon="5.63307">
        <ele>381</ele>
        <time>2020-05-17T12:17:50.457Z</time>
      </trkpt>
      <trkpt lat="45.71534" lon="5.63303">
        <ele>381</ele>
        <time>2020-05-17T12:17:54.446Z</time>
      </trkpt>
      <trkpt lat="45.71543" lon="5.6329">
        <ele>384</ele>
        <time>2020-05-17T12:17:59.465Z</time>
      </trkpt>
      <trkpt lat="45.71552" lon="5.6328">
        <ele>384</ele>
        <time>2020-05-17T12:18:03.451Z</time>
      </trkpt>
      <trkpt lat="45.71559" lon="5.63259">
        <ele>384</ele>
        <time>2020-05-17T12:18:08.451Z</time>
      </trkpt>
      <trkpt lat="45.71564" lon="5.63245">
        <ele>384</ele>
        <time>2020-05-17T12:18:13.406Z</time>
      </trkpt>
      <trkpt lat="45.71567" lon="5.63235">
        <ele>385</ele>
        <time>2020-05-17T12:18:17.432Z</time>
      </trkpt>
      <trkpt lat="45.71572" lon="5.63223">
        <ele>383</ele>
        <time>2020-05-17T12:18:21.482Z</time>
      </trkpt>
      <trkpt lat="45.71578" lon="5.63211">
        <ele>383</ele>
        <time>2020-05-17T12:18:26.453Z</time>
      </trkpt>
      <trkpt lat="45.71585" lon="5.63201">
        <ele>387</ele>
        <time>2020-05-17T12:18:30.462Z</time>
      </trkpt>
      <trkpt lat="45.71591" lon="5.63194">
        <ele>387</ele>
        <time>2020-05-17T12:18:35.456Z</time>
      </trkpt>
      <trkpt lat="45.71596" lon="5.6319">
        <ele>387</ele>
        <time>2020-05-17T12:18:40.449Z</time>
      </trkpt>
      <trkpt lat="45.71601" lon="5.63187">
        <ele>385</ele>
        <time>2020-05-17T12:18:45.437Z</time>
      </trkpt>
      <trkpt lat="45.71606" lon="5.63185">
        <ele>385</ele>
        <time>2020-05-17T12:18:50.457Z</time>
      </trkpt>
      <trkpt lat="45.71616" lon="5.63182">
        <ele>385</ele>
        <time>2020-05-17T12:18:55.445Z</time>
      </trkpt>
      <trkpt lat="45.71621" lon="5.6318">
        <ele>389</ele>
        <time>2020-05-17T12:19:00.441Z</time>
      </trkpt>
      <trkpt lat="45.71626" lon="5.63179">
        <ele>385</ele>
        <time>2020-05-17T12:19:05.449Z</time>
      </trkpt>
      <trkpt lat="45.71631" lon="5.63177">
        <ele>385</ele>
        <time>2020-05-17T12:19:09.532Z</time>
      </trkpt>
      <trkpt lat="45.71642" lon="5.63178">
        <ele>385</ele>
        <time>2020-05-17T12:19:14.459Z</time>
      </trkpt>
      <trkpt lat="45.71654" lon="5.63177">
        <ele>382</ele>
        <time>2020-05-17T12:19:19.402Z</time>
      </trkpt>
      <trkpt lat="45.71671" lon="5.63174">
        <ele>382</ele>
        <time>2020-05-17T12:19:28.447Z</time>
      </trkpt>
      <trkpt lat="45.71679" lon="5.63172">
        <ele>382</ele>
        <time>2020-05-17T12:19:33.473Z</time>
      </trkpt>
      <trkpt lat="45.71687" lon="5.6317">
        <ele>382</ele>
        <time>2020-05-17T12:19:38.449Z</time>
      </trkpt>
      <trkpt lat="45.71691" lon="5.63169">
        <ele>382</ele>
        <time>2020-05-17T12:19:42.434Z</time>
      </trkpt>
      <trkpt lat="45.71715" lon="5.6317">
        <ele>383</ele>
        <time>2020-05-17T12:19:47.451Z</time>
      </trkpt>
      <trkpt lat="45.71729" lon="5.63171">
        <ele>383</ele>
        <time>2020-05-17T12:19:52.452Z</time>
      </trkpt>
      <trkpt lat="45.71737" lon="5.6317">
        <ele>384</ele>
        <time>2020-05-17T12:19:57.474Z</time>
      </trkpt>
      <trkpt lat="45.71744" lon="5.6317">
        <ele>384</ele>
        <time>2020-05-17T12:20:02.449Z</time>
      </trkpt>
      <trkpt lat="45.7175" lon="5.63172">
        <ele>384</ele>
        <time>2020-05-17T12:20:07.452Z</time>
      </trkpt>
      <trkpt lat="45.71755" lon="5.63174">
        <ele>384</ele>
        <time>2020-05-17T12:20:12.442Z</time>
      </trkpt>
      <trkpt lat="45.71763" lon="5.63177">
        <ele>384</ele>
        <time>2020-05-17T12:20:17.452Z</time>
      </trkpt>
      <trkpt lat="45.71772" lon="5.63174">
        <ele>385</ele>
        <time>2020-05-17T12:20:22.438Z</time>
      </trkpt>
      <trkpt lat="45.71779" lon="5.63176">
        <ele>385</ele>
        <time>2020-05-17T12:20:27.419Z</time>
      </trkpt>
      <trkpt lat="45.71785" lon="5.63179">
        <ele>385</ele>
        <time>2020-05-17T12:20:31.422Z</time>
      </trkpt>
      <trkpt lat="45.71795" lon="5.63173">
        <ele>386</ele>
        <time>2020-05-17T12:20:36.449Z</time>
      </trkpt>
      <trkpt lat="45.71805" lon="5.63166">
        <ele>386</ele>
        <time>2020-05-17T12:20:40.539Z</time>
      </trkpt>
      <trkpt lat="45.71817" lon="5.63153">
        <ele>387</ele>
        <time>2020-05-17T12:20:45.439Z</time>
      </trkpt>
      <trkpt lat="45.71824" lon="5.63147">
        <ele>384</ele>
        <time>2020-05-17T12:20:50.454Z</time>
      </trkpt>
      <trkpt lat="45.7183" lon="5.63142">
        <ele>384</ele>
        <time>2020-05-17T12:20:55.461Z</time>
      </trkpt>
      <trkpt lat="45.71837" lon="5.63132">
        <ele>384</ele>
        <time>2020-05-17T12:21:00.457Z</time>
      </trkpt>
      <trkpt lat="45.71841" lon="5.6312">
        <ele>387</ele>
        <time>2020-05-17T12:21:05.451Z</time>
      </trkpt>
      <trkpt lat="45.71846" lon="5.63113">
        <ele>387</ele>
        <time>2020-05-17T12:21:09.449Z</time>
      </trkpt>
      <trkpt lat="45.71852" lon="5.63112">
        <ele>384</ele>
        <time>2020-05-17T12:21:14.439Z</time>
      </trkpt>
      <trkpt lat="45.71861" lon="5.63112">
        <ele>384</ele>
        <time>2020-05-17T12:21:18.481Z</time>
      </trkpt>
      <trkpt lat="45.71869" lon="5.63112">
        <ele>384</ele>
        <time>2020-05-17T12:21:23.445Z</time>
      </trkpt>
      <trkpt lat="45.71874" lon="5.63112">
        <ele>384</ele>
        <time>2020-05-17T12:21:27.432Z</time>
      </trkpt>
      <trkpt lat="45.71892" lon="5.63108">
        <ele>382</ele>
        <time>2020-05-17T12:21:32.401Z</time>
      </trkpt>
      <trkpt lat="45.71906" lon="5.63105">
        <ele>382</ele>
        <time>2020-05-17T12:21:36.462Z</time>
      </trkpt>
      <trkpt lat="45.7193" lon="5.63107">
        <ele>382</ele>
        <time>2020-05-17T12:21:41.446Z</time>
      </trkpt>
      <trkpt lat="45.71948" lon="5.63105">
        <ele>383</ele>
        <time>2020-05-17T12:21:45.457Z</time>
      </trkpt>
      <trkpt lat="45.71969" lon="5.63104">
        <ele>384</ele>
        <time>2020-05-17T12:21:50.444Z</time>
      </trkpt>
      <trkpt lat="45.71978" lon="5.63103">
        <ele>384</ele>
        <time>2020-05-17T12:21:54.470Z</time>
      </trkpt>
      <trkpt lat="45.71987" lon="5.63101">
        <ele>387</ele>
        <time>2020-05-17T12:21:59.474Z</time>
      </trkpt>
      <trkpt lat="45.71993" lon="5.63101">
        <ele>387</ele>
        <time>2020-05-17T12:22:04.456Z</time>
      </trkpt>
      <trkpt lat="45.71998" lon="5.63104">
        <ele>387</ele>
        <time>2020-05-17T12:22:09.449Z</time>
      </trkpt>
      <trkpt lat="45.72004" lon="5.63107">
        <ele>387</ele>
        <time>2020-05-17T12:22:14.442Z</time>
      </trkpt>
      <trkpt lat="45.7201" lon="5.63111">
        <ele>387</ele>
        <time>2020-05-17T12:22:18.461Z</time>
      </trkpt>
      <trkpt lat="45.72016" lon="5.63115">
        <ele>392</ele>
        <time>2020-05-17T12:22:23.443Z</time>
      </trkpt>
      <trkpt lat="45.72019" lon="5.63121">
        <ele>392</ele>
        <time>2020-05-17T12:22:28.457Z</time>
      </trkpt>
      <trkpt lat="45.72022" lon="5.63125">
        <ele>391</ele>
        <time>2020-05-17T12:22:33.442Z</time>
      </trkpt>
      <trkpt lat="45.72024" lon="5.6313">
        <ele>391</ele>
        <time>2020-05-17T12:22:38.438Z</time>
      </trkpt>
      <trkpt lat="45.72027" lon="5.6314">
        <ele>391</ele>
        <time>2020-05-17T12:22:43.458Z</time>
      </trkpt>
      <trkpt lat="45.7203" lon="5.63153">
        <ele>389</ele>
        <time>2020-05-17T12:22:48.440Z</time>
      </trkpt>
      <trkpt lat="45.72034" lon="5.6317">
        <ele>389</ele>
        <time>2020-05-17T12:22:53.455Z</time>
      </trkpt>
      <trkpt lat="45.72036" lon="5.6318">
        <ele>389</ele>
        <time>2020-05-17T12:22:58.433Z</time>
      </trkpt>
      <trkpt lat="45.7204" lon="5.63187">
        <ele>389</ele>
        <time>2020-05-17T12:23:03.462Z</time>
      </trkpt>
      <trkpt lat="45.72042" lon="5.6319">
        <ele>402</ele>
        <time>2020-05-17T12:23:07.410Z</time>
      </trkpt>
      <trkpt lat="45.7204" lon="5.63205">
        <ele>389</ele>
        <time>2020-05-17T12:23:16.458Z</time>
      </trkpt>
      <trkpt lat="45.72035" lon="5.63214">
        <ele>392</ele>
        <time>2020-05-17T12:23:21.466Z</time>
      </trkpt>
      <trkpt lat="45.72031" lon="5.63222">
        <ele>392</ele>
        <time>2020-05-17T12:23:26.448Z</time>
      </trkpt>
      <trkpt lat="45.72029" lon="5.63227">
        <ele>392</ele>
        <time>2020-05-17T12:23:30.499Z</time>
      </trkpt>
      <trkpt lat="45.72025" lon="5.63242">
        <ele>396</ele>
        <time>2020-05-17T12:23:35.443Z</time>
      </trkpt>
      <trkpt lat="45.72026" lon="5.63257">
        <ele>396</ele>
        <time>2020-05-17T12:23:40.405Z</time>
      </trkpt>
      <trkpt lat="45.72027" lon="5.63266">
        <ele>398</ele>
        <time>2020-05-17T12:23:44.444Z</time>
      </trkpt>
      <trkpt lat="45.72029" lon="5.63275">
        <ele>398</ele>
        <time>2020-05-17T12:23:49.439Z</time>
      </trkpt>
      <trkpt lat="45.72031" lon="5.63284">
        <ele>398</ele>
        <time>2020-05-17T12:23:53.425Z</time>
      </trkpt>
      <trkpt lat="45.72032" lon="5.6329">
        <ele>398</ele>
        <time>2020-05-17T12:23:58.442Z</time>
      </trkpt>
      <trkpt lat="45.72037" lon="5.633">
        <ele>400</ele>
        <time>2020-05-17T12:24:03.443Z</time>
      </trkpt>
      <trkpt lat="45.72042" lon="5.63308">
        <ele>398</ele>
        <time>2020-05-17T12:24:08.436Z</time>
      </trkpt>
      <trkpt lat="45.72046" lon="5.63317">
        <ele>398</ele>
        <time>2020-05-17T12:24:12.466Z</time>
      </trkpt>
      <trkpt lat="45.72049" lon="5.63327">
        <ele>397</ele>
        <time>2020-05-17T12:24:17.430Z</time>
      </trkpt>
      <trkpt lat="45.72051" lon="5.63335">
        <ele>397</ele>
        <time>2020-05-17T12:24:21.500Z</time>
      </trkpt>
      <trkpt lat="45.72054" lon="5.63342">
        <ele>397</ele>
        <time>2020-05-17T12:24:25.451Z</time>
      </trkpt>
      <trkpt lat="45.72056" lon="5.63353">
        <ele>396</ele>
        <time>2020-05-17T12:24:30.471Z</time>
      </trkpt>
      <trkpt lat="45.7206" lon="5.63364">
        <ele>396</ele>
        <time>2020-05-17T12:24:35.450Z</time>
      </trkpt>
      <trkpt lat="45.72062" lon="5.63375">
        <ele>395</ele>
        <time>2020-05-17T12:24:39.472Z</time>
      </trkpt>
      <trkpt lat="45.72066" lon="5.63384">
        <ele>395</ele>
        <time>2020-05-17T12:24:44.440Z</time>
      </trkpt>
      <trkpt lat="45.72071" lon="5.63392">
        <ele>395</ele>
        <time>2020-05-17T12:24:49.442Z</time>
      </trkpt>
      <trkpt lat="45.72075" lon="5.63398">
        <ele>395</ele>
        <time>2020-05-17T12:24:53.442Z</time>
      </trkpt>
      <trkpt lat="45.72081" lon="5.63405">
        <ele>394</ele>
        <time>2020-05-17T12:24:58.457Z</time>
      </trkpt>
      <trkpt lat="45.72088" lon="5.63409">
        <ele>394</ele>
        <time>2020-05-17T12:25:02.474Z</time>
      </trkpt>
      <trkpt lat="45.72095" lon="5.63416">
        <ele>394</ele>
        <time>2020-05-17T12:25:07.443Z</time>
      </trkpt>
      <trkpt lat="45.72101" lon="5.63421">
        <ele>388</ele>
        <time>2020-05-17T12:25:11.446Z</time>
      </trkpt>
      <trkpt lat="45.72107" lon="5.63424">
        <ele>388</ele>
        <time>2020-05-17T12:25:15.456Z</time>
      </trkpt>
      <trkpt lat="45.72115" lon="5.63429">
        <ele>388</ele>
        <time>2020-05-17T12:25:20.463Z</time>
      </trkpt>
      <trkpt lat="45.72121" lon="5.63431">
        <ele>387</ele>
        <time>2020-05-17T12:25:25.450Z</time>
      </trkpt>
      <trkpt lat="45.72126" lon="5.6343">
        <ele>382</ele>
        <time>2020-05-17T12:25:30.448Z</time>
      </trkpt>
      <trkpt lat="45.72133" lon="5.63429">
        <ele>382</ele>
        <time>2020-05-17T12:25:35.450Z</time>
      </trkpt>
      <trkpt lat="45.72139" lon="5.63424">
        <ele>382</ele>
        <time>2020-05-17T12:25:40.434Z</time>
      </trkpt>
      <trkpt lat="45.72148" lon="5.6342">
        <ele>382</ele>
        <time>2020-05-17T12:25:44.509Z</time>
      </trkpt>
      <trkpt lat="45.72157" lon="5.63419">
        <ele>377</ele>
        <time>2020-05-17T12:25:49.469Z</time>
      </trkpt>
      <trkpt lat="45.72161" lon="5.63417">
        <ele>377</ele>
        <time>2020-05-17T12:25:53.450Z</time>
      </trkpt>
      <trkpt lat="45.72169" lon="5.63415">
        <ele>377</ele>
        <time>2020-05-17T12:25:58.471Z</time>
      </trkpt>
      <trkpt lat="45.72175" lon="5.63416">
        <ele>377</ele>
        <time>2020-05-17T12:26:02.441Z</time>
      </trkpt>
      <trkpt lat="45.72184" lon="5.63416">
        <ele>370</ele>
        <time>2020-05-17T12:26:07.437Z</time>
      </trkpt>
      <trkpt lat="45.7219" lon="5.63416">
        <ele>370</ele>
        <time>2020-05-17T12:26:12.457Z</time>
      </trkpt>
      <trkpt lat="45.72198" lon="5.63418">
        <ele>370</ele>
        <time>2020-05-17T12:26:17.445Z</time>
      </trkpt>
      <trkpt lat="45.72204" lon="5.63415">
        <ele>370</ele>
        <time>2020-05-17T12:26:22.453Z</time>
      </trkpt>
      <trkpt lat="45.7221" lon="5.63411">
        <ele>365</ele>
        <time>2020-05-17T12:26:26.517Z</time>
      </trkpt>
      <trkpt lat="45.72216" lon="5.6341">
        <ele>365</ele>
        <time>2020-05-17T12:26:31.446Z</time>
      </trkpt>
      <trkpt lat="45.72226" lon="5.63406">
        <ele>365</ele>
        <time>2020-05-17T12:26:36.447Z</time>
      </trkpt>
      <trkpt lat="45.72233" lon="5.63403">
        <ele>371</ele>
        <time>2020-05-17T12:26:41.449Z</time>
      </trkpt>
      <trkpt lat="45.72242" lon="5.63398">
        <ele>369</ele>
        <time>2020-05-17T12:26:46.445Z</time>
      </trkpt>
      <trkpt lat="45.7225" lon="5.63397">
        <ele>369</ele>
        <time>2020-05-17T12:26:51.442Z</time>
      </trkpt>
      <trkpt lat="45.72256" lon="5.63397">
        <ele>369</ele>
        <time>2020-05-17T12:26:55.441Z</time>
      </trkpt>
      <trkpt lat="45.72265" lon="5.634">
        <ele>369</ele>
        <time>2020-05-17T12:27:00.446Z</time>
      </trkpt>
      <trkpt lat="45.72269" lon="5.63403">
        <ele>362</ele>
        <time>2020-05-17T12:27:04.460Z</time>
      </trkpt>
      <trkpt lat="45.7228" lon="5.63406">
        <ele>362</ele>
        <time>2020-05-17T12:27:09.459Z</time>
      </trkpt>
      <trkpt lat="45.72287" lon="5.63404">
        <ele>362</ele>
        <time>2020-05-17T12:27:14.466Z</time>
      </trkpt>
      <trkpt lat="45.72294" lon="5.63405">
        <ele>360</ele>
        <time>2020-05-17T12:27:19.450Z</time>
      </trkpt>
      <trkpt lat="45.723" lon="5.63408">
        <ele>360</ele>
        <time>2020-05-17T12:27:24.498Z</time>
      </trkpt>
      <trkpt lat="45.72306" lon="5.6341">
        <ele>360</ele>
        <time>2020-05-17T12:27:29.450Z</time>
      </trkpt>
      <trkpt lat="45.72313" lon="5.63413">
        <ele>360</ele>
        <time>2020-05-17T12:27:34.441Z</time>
      </trkpt>
      <trkpt lat="45.72319" lon="5.63412">
        <ele>360</ele>
        <time>2020-05-17T12:27:38.451Z</time>
      </trkpt>
      <trkpt lat="45.72325" lon="5.63413">
        <ele>361</ele>
        <time>2020-05-17T12:27:42.502Z</time>
      </trkpt>
      <trkpt lat="45.7233" lon="5.63416">
        <ele>361</ele>
        <time>2020-05-17T12:27:47.435Z</time>
      </trkpt>
      <trkpt lat="45.72336" lon="5.63419">
        <ele>361</ele>
        <time>2020-05-17T12:27:52.449Z</time>
      </trkpt>
      <trkpt lat="45.7234" lon="5.63423">
        <ele>361</ele>
        <time>2020-05-17T12:27:57.443Z</time>
      </trkpt>
      <trkpt lat="45.72343" lon="5.63428">
        <ele>361</ele>
        <time>2020-05-17T12:28:01.459Z</time>
      </trkpt>
      <trkpt lat="45.72346" lon="5.63436">
        <ele>356</ele>
        <time>2020-05-17T12:28:06.419Z</time>
      </trkpt>
      <trkpt lat="45.72345" lon="5.63441">
        <ele>356</ele>
        <time>2020-05-17T12:28:10.479Z</time>
      </trkpt>
      <trkpt lat="45.72342" lon="5.6345">
        <ele>356</ele>
        <time>2020-05-17T12:28:15.460Z</time>
      </trkpt>
      <trkpt lat="45.7234" lon="5.63461">
        <ele>353</ele>
        <time>2020-05-17T12:28:20.469Z</time>
      </trkpt>
      <trkpt lat="45.72339" lon="5.63471">
        <ele>353</ele>
        <time>2020-05-17T12:28:25.465Z</time>
      </trkpt>
      <trkpt lat="45.72338" lon="5.63483">
        <ele>353</ele>
        <time>2020-05-17T12:28:30.459Z</time>
      </trkpt>
      <trkpt lat="45.72337" lon="5.63494">
        <ele>351</ele>
        <time>2020-05-17T12:28:35.438Z</time>
      </trkpt>
      <trkpt lat="45.72337" lon="5.63505">
        <ele>351</ele>
        <time>2020-05-17T12:28:39.461Z</time>
      </trkpt>
      <trkpt lat="45.7234" lon="5.63522">
        <ele>353</ele>
        <time>2020-05-17T12:28:44.441Z</time>
      </trkpt>
      <trkpt lat="45.72343" lon="5.63528">
        <ele>353</ele>
        <time>2020-05-17T12:28:48.474Z</time>
      </trkpt>
      <trkpt lat="45.72349" lon="5.63536">
        <ele>355</ele>
        <time>2020-05-17T12:28:53.446Z</time>
      </trkpt>
      <trkpt lat="45.7235" lon="5.63541">
        <ele>355</ele>
        <time>2020-05-17T12:28:57.455Z</time>
      </trkpt>
      <trkpt lat="45.72354" lon="5.63544">
        <ele>360</ele>
        <time>2020-05-17T12:29:02.436Z</time>
      </trkpt>
      <trkpt lat="45.7236" lon="5.63547">
        <ele>360</ele>
        <time>2020-05-17T12:29:07.424Z</time>
      </trkpt>
      <trkpt lat="45.72365" lon="5.63549">
        <ele>360</ele>
        <time>2020-05-17T12:29:11.427Z</time>
      </trkpt>
      <trkpt lat="45.72371" lon="5.63553">
        <ele>360</ele>
        <time>2020-05-17T12:29:15.429Z</time>
      </trkpt>
      <trkpt lat="45.72378" lon="5.63555">
        <ele>360</ele>
        <time>2020-05-17T12:29:20.442Z</time>
      </trkpt>
      <trkpt lat="45.72386" lon="5.63554">
        <ele>360</ele>
        <time>2020-05-17T12:29:25.449Z</time>
      </trkpt>
      <trkpt lat="45.72395" lon="5.63555">
        <ele>360</ele>
        <time>2020-05-17T12:29:30.445Z</time>
      </trkpt>
      <trkpt lat="45.72404" lon="5.63555">
        <ele>360</ele>
        <time>2020-05-17T12:29:35.498Z</time>
      </trkpt>
      <trkpt lat="45.72413" lon="5.63554">
        <ele>360</ele>
        <time>2020-05-17T12:29:40.430Z</time>
      </trkpt>
      <trkpt lat="45.7242" lon="5.63556">
        <ele>360</ele>
        <time>2020-05-17T12:29:45.454Z</time>
      </trkpt>
      <trkpt lat="45.72425" lon="5.63556">
        <ele>360</ele>
        <time>2020-05-17T12:29:49.458Z</time>
      </trkpt>
      <trkpt lat="45.72434" lon="5.63557">
        <ele>362</ele>
        <time>2020-05-17T12:29:54.450Z</time>
      </trkpt>
      <trkpt lat="45.7244" lon="5.63556">
        <ele>362</ele>
        <time>2020-05-17T12:29:58.459Z</time>
      </trkpt>
      <trkpt lat="45.72449" lon="5.6355">
        <ele>362</ele>
        <time>2020-05-17T12:30:03.446Z</time>
      </trkpt>
      <trkpt lat="45.7246" lon="5.63543">
        <ele>363</ele>
        <time>2020-05-17T12:30:27.427Z</time>
      </trkpt>
      <trkpt lat="45.7246" lon="5.63543">
        <ele>363</ele>
        <time>2020-05-17T12:30:32.459Z</time>
      </trkpt>
      <trkpt lat="45.72466" lon="5.6354">
        <ele>358</ele>
        <time>2020-05-17T12:30:37.437Z</time>
      </trkpt>
      <trkpt lat="45.72471" lon="5.63539">
        <ele>358</ele>
        <time>2020-05-17T12:30:41.472Z</time>
      </trkpt>
      <trkpt lat="45.72477" lon="5.63536">
        <ele>358</ele>
        <time>2020-05-17T12:30:46.476Z</time>
      </trkpt>
      <trkpt lat="45.72483" lon="5.63532">
        <ele>358</ele>
        <time>2020-05-17T12:30:51.437Z</time>
      </trkpt>
      <trkpt lat="45.72488" lon="5.63532">
        <ele>360</ele>
        <time>2020-05-17T12:30:56.438Z</time>
      </trkpt>
      <trkpt lat="45.72491" lon="5.63534">
        <ele>360</ele>
        <time>2020-05-17T12:31:01.452Z</time>
      </trkpt>
      <trkpt lat="45.72496" lon="5.63536">
        <ele>360</ele>
        <time>2020-05-17T12:31:05.502Z</time>
      </trkpt>
      <trkpt lat="45.72502" lon="5.63535">
        <ele>360</ele>
        <time>2020-05-17T12:31:10.449Z</time>
      </trkpt>
      <trkpt lat="45.72508" lon="5.63534">
        <ele>360</ele>
        <time>2020-05-17T12:31:15.445Z</time>
      </trkpt>
      <trkpt lat="45.72516" lon="5.6353">
        <ele>361</ele>
        <time>2020-05-17T12:31:20.439Z</time>
      </trkpt>
      <trkpt lat="45.72523" lon="5.63526">
        <ele>361</ele>
        <time>2020-05-17T12:31:25.449Z</time>
      </trkpt>
      <trkpt lat="45.72529" lon="5.63527">
        <ele>361</ele>
        <time>2020-05-17T12:31:30.440Z</time>
      </trkpt>
      <trkpt lat="45.72535" lon="5.63526">
        <ele>361</ele>
        <time>2020-05-17T12:31:34.433Z</time>
      </trkpt>
      <trkpt lat="45.72538" lon="5.63526">
        <ele>361</ele>
        <time>2020-05-17T12:31:36.443Z</time>
      </trkpt>
      <trkpt lat="45.72549" lon="5.63531">
        <ele>359</ele>
        <time>2020-05-17T12:31:45.431Z</time>
      </trkpt>
      <trkpt lat="45.72556" lon="5.63532">
        <ele>359</ele>
        <time>2020-05-17T12:31:50.504Z</time>
      </trkpt>
      <trkpt lat="45.72564" lon="5.63532">
        <ele>359</ele>
        <time>2020-05-17T12:31:55.438Z</time>
      </trkpt>
      <trkpt lat="45.7257" lon="5.63531">
        <ele>361</ele>
        <time>2020-05-17T12:32:00.436Z</time>
      </trkpt>
      <trkpt lat="45.72575" lon="5.63533">
        <ele>361</ele>
        <time>2020-05-17T12:32:04.448Z</time>
      </trkpt>
      <trkpt lat="45.72581" lon="5.63531">
        <ele>361</ele>
        <time>2020-05-17T12:32:09.450Z</time>
      </trkpt>
      <trkpt lat="45.72585" lon="5.63529">
        <ele>361</ele>
        <time>2020-05-17T12:32:13.446Z</time>
      </trkpt>
      <trkpt lat="45.72591" lon="5.63528">
        <ele>361</ele>
        <time>2020-05-17T12:32:18.455Z</time>
      </trkpt>
      <trkpt lat="45.72598" lon="5.63526">
        <ele>362</ele>
        <time>2020-05-17T12:32:23.442Z</time>
      </trkpt>
      <trkpt lat="45.72606" lon="5.63522">
        <ele>362</ele>
        <time>2020-05-17T12:32:28.456Z</time>
      </trkpt>
      <trkpt lat="45.72614" lon="5.63519">
        <ele>362</ele>
        <time>2020-05-17T12:32:33.462Z</time>
      </trkpt>
      <trkpt lat="45.72622" lon="5.63512">
        <ele>356</ele>
        <time>2020-05-17T12:32:38.447Z</time>
      </trkpt>
      <trkpt lat="45.7263" lon="5.63507">
        <ele>353</ele>
        <time>2020-05-17T12:32:42.452Z</time>
      </trkpt>
      <trkpt lat="45.72637" lon="5.63504">
        <ele>353</ele>
        <time>2020-05-17T12:32:47.513Z</time>
      </trkpt>
      <trkpt lat="45.72644" lon="5.63503">
        <ele>353</ele>
        <time>2020-05-17T12:32:52.481Z</time>
      </trkpt>
      <trkpt lat="45.72649" lon="5.63503">
        <ele>353</ele>
        <time>2020-05-17T12:32:57.472Z</time>
      </trkpt>
      <trkpt lat="45.72657" lon="5.63505">
        <ele>357</ele>
        <time>2020-05-17T12:33:02.447Z</time>
      </trkpt>
      <trkpt lat="45.72664" lon="5.63507">
        <ele>357</ele>
        <time>2020-05-17T12:33:06.437Z</time>
      </trkpt>
      <trkpt lat="45.7267" lon="5.63509">
        <ele>357</ele>
        <time>2020-05-17T12:33:11.442Z</time>
      </trkpt>
      <trkpt lat="45.72674" lon="5.63512">
        <ele>357</ele>
        <time>2020-05-17T12:33:16.458Z</time>
      </trkpt>
      <trkpt lat="45.72679" lon="5.63514">
        <ele>367</ele>
        <time>2020-05-17T12:33:21.447Z</time>
      </trkpt>
      <trkpt lat="45.72685" lon="5.63518">
        <ele>371</ele>
        <time>2020-05-17T12:33:26.456Z</time>
      </trkpt>
      <trkpt lat="45.7269" lon="5.63521">
        <ele>371</ele>
        <time>2020-05-17T12:33:30.434Z</time>
      </trkpt>
      <trkpt lat="45.72701" lon="5.6352">
        <ele>371</ele>
        <time>2020-05-17T12:33:35.467Z</time>
      </trkpt>
      <trkpt lat="45.72709" lon="5.63516">
        <ele>372</ele>
        <time>2020-05-17T12:33:39.474Z</time>
      </trkpt>
      <trkpt lat="45.72716" lon="5.63515">
        <ele>372</ele>
        <time>2020-05-17T12:33:44.451Z</time>
      </trkpt>
      <trkpt lat="45.72722" lon="5.63516">
        <ele>372</ele>
        <time>2020-05-17T12:33:49.486Z</time>
      </trkpt>
      <trkpt lat="45.72728" lon="5.63516">
        <ele>372</ele>
        <time>2020-05-17T12:33:54.454Z</time>
      </trkpt>
      <trkpt lat="45.72734" lon="5.63518">
        <ele>372</ele>
        <time>2020-05-17T12:33:59.497Z</time>
      </trkpt>
      <trkpt lat="45.72741" lon="5.63518">
        <ele>371</ele>
        <time>2020-05-17T12:34:04.449Z</time>
      </trkpt>
      <trkpt lat="45.72748" lon="5.63517">
        <ele>371</ele>
        <time>2020-05-17T12:34:09.444Z</time>
      </trkpt>
      <trkpt lat="45.72755" lon="5.63516">
        <ele>371</ele>
        <time>2020-05-17T12:34:14.449Z</time>
      </trkpt>
      <trkpt lat="45.72762" lon="5.63515">
        <ele>371</ele>
        <time>2020-05-17T12:34:18.474Z</time>
      </trkpt>
      <trkpt lat="45.72769" lon="5.63514">
        <ele>362</ele>
        <time>2020-05-17T12:34:23.402Z</time>
      </trkpt>
      <trkpt lat="45.72775" lon="5.63515">
        <ele>368</ele>
        <time>2020-05-17T12:34:27.449Z</time>
      </trkpt>
      <trkpt lat="45.72781" lon="5.63514">
        <ele>368</ele>
        <time>2020-05-17T12:34:32.434Z</time>
      </trkpt>
      <trkpt lat="45.72788" lon="5.63517">
        <ele>368</ele>
        <time>2020-05-17T12:34:37.457Z</time>
      </trkpt>
      <trkpt lat="45.72793" lon="5.6352">
        <ele>365</ele>
        <time>2020-05-17T12:34:41.428Z</time>
      </trkpt>
      <trkpt lat="45.72798" lon="5.63525">
        <ele>365</ele>
        <time>2020-05-17T12:34:46.431Z</time>
      </trkpt>
      <trkpt lat="45.72804" lon="5.63532">
        <ele>365</ele>
        <time>2020-05-17T12:34:51.465Z</time>
      </trkpt>
      <trkpt lat="45.72807" lon="5.63537">
        <ele>365</ele>
        <time>2020-05-17T12:34:56.452Z</time>
      </trkpt>
      <trkpt lat="45.72812" lon="5.63545">
        <ele>365</ele>
        <time>2020-05-17T12:35:01.446Z</time>
      </trkpt>
      <trkpt lat="45.72816" lon="5.63552">
        <ele>365</ele>
        <time>2020-05-17T12:35:06.460Z</time>
      </trkpt>
      <trkpt lat="45.72818" lon="5.63555">
        <ele>365</ele>
        <time>2020-05-17T12:35:11.463Z</time>
      </trkpt>
      <trkpt lat="45.72821" lon="5.63561">
        <ele>366</ele>
        <time>2020-05-17T12:35:16.438Z</time>
      </trkpt>
      <trkpt lat="45.72825" lon="5.63566">
        <ele>366</ele>
        <time>2020-05-17T12:35:20.459Z</time>
      </trkpt>
      <trkpt lat="45.72829" lon="5.63574">
        <ele>363</ele>
        <time>2020-05-17T12:35:25.459Z</time>
      </trkpt>
      <trkpt lat="45.7283" lon="5.6358">
        <ele>363</ele>
        <time>2020-05-17T12:35:30.452Z</time>
      </trkpt>
      <trkpt lat="45.72834" lon="5.63584">
        <ele>363</ele>
        <time>2020-05-17T12:35:35.473Z</time>
      </trkpt>
      <trkpt lat="45.72837" lon="5.6359">
        <ele>363</ele>
        <time>2020-05-17T12:35:40.441Z</time>
      </trkpt>
      <trkpt lat="45.72839" lon="5.63594">
        <ele>363</ele>
        <time>2020-05-17T12:35:44.437Z</time>
      </trkpt>
      <trkpt lat="45.72843" lon="5.63599">
        <ele>361</ele>
        <time>2020-05-17T12:35:49.430Z</time>
      </trkpt>
      <trkpt lat="45.7285" lon="5.63608">
        <ele>362</ele>
        <time>2020-05-17T12:35:53.472Z</time>
      </trkpt>
      <trkpt lat="45.72861" lon="5.63612">
        <ele>362</ele>
        <time>2020-05-17T12:35:58.497Z</time>
      </trkpt>
      <trkpt lat="45.72868" lon="5.63613">
        <ele>362</ele>
        <time>2020-05-17T12:36:03.458Z</time>
      </trkpt>
      <trkpt lat="45.72876" lon="5.63613">
        <ele>364</ele>
        <time>2020-05-17T12:36:08.533Z</time>
      </trkpt>
      <trkpt lat="45.72882" lon="5.63612">
        <ele>364</ele>
        <time>2020-05-17T12:36:13.461Z</time>
      </trkpt>
      <trkpt lat="45.72886" lon="5.63611">
        <ele>364</ele>
        <time>2020-05-17T12:36:18.450Z</time>
      </trkpt>
      <trkpt lat="45.7289" lon="5.63613">
        <ele>364</ele>
        <time>2020-05-17T12:36:22.446Z</time>
      </trkpt>
      <trkpt lat="45.72895" lon="5.63618">
        <ele>364</ele>
        <time>2020-05-17T12:36:26.504Z</time>
      </trkpt>
      <trkpt lat="45.72898" lon="5.63626">
        <ele>362</ele>
        <time>2020-05-17T12:36:31.441Z</time>
      </trkpt>
      <trkpt lat="45.72905" lon="5.63636">
        <ele>366</ele>
        <time>2020-05-17T12:36:36.426Z</time>
      </trkpt>
      <trkpt lat="45.72913" lon="5.63638">
        <ele>366</ele>
        <time>2020-05-17T12:36:40.448Z</time>
      </trkpt>
      <trkpt lat="45.72919" lon="5.63635">
        <ele>366</ele>
        <time>2020-05-17T12:36:44.438Z</time>
      </trkpt>
      <trkpt lat="45.72924" lon="5.63632">
        <ele>366</ele>
        <time>2020-05-17T12:36:49.458Z</time>
      </trkpt>
      <trkpt lat="45.72931" lon="5.63632">
        <ele>367</ele>
        <time>2020-05-17T12:36:54.437Z</time>
      </trkpt>
      <trkpt lat="45.72936" lon="5.6363">
        <ele>367</ele>
        <time>2020-05-17T12:36:59.430Z</time>
      </trkpt>
      <trkpt lat="45.72943" lon="5.6363">
        <ele>367</ele>
        <time>2020-05-17T12:37:04.438Z</time>
      </trkpt>
      <trkpt lat="45.72949" lon="5.63629">
        <ele>367</ele>
        <time>2020-05-17T12:37:08.453Z</time>
      </trkpt>
      <trkpt lat="45.72957" lon="5.63631">
        <ele>367</ele>
        <time>2020-05-17T12:37:13.494Z</time>
      </trkpt>
      <trkpt lat="45.72964" lon="5.63631">
        <ele>365</ele>
        <time>2020-05-17T12:37:18.443Z</time>
      </trkpt>
      <trkpt lat="45.72972" lon="5.63629">
        <ele>365</ele>
        <time>2020-05-17T12:37:23.442Z</time>
      </trkpt>
      <trkpt lat="45.72976" lon="5.63628">
        <ele>365</ele>
        <time>2020-05-17T12:37:27.452Z</time>
      </trkpt>
      <trkpt lat="45.72983" lon="5.63626">
        <ele>365</ele>
        <time>2020-05-17T12:37:32.450Z</time>
      </trkpt>
      <trkpt lat="45.72988" lon="5.63622">
        <ele>371</ele>
        <time>2020-05-17T12:37:37.443Z</time>
      </trkpt>
      <trkpt lat="45.72995" lon="5.63621">
        <ele>371</ele>
        <time>2020-05-17T12:37:42.427Z</time>
      </trkpt>
      <trkpt lat="45.73002" lon="5.6362">
        <ele>371</ele>
        <time>2020-05-17T12:37:47.490Z</time>
      </trkpt>
      <trkpt lat="45.73008" lon="5.63619">
        <ele>371</ele>
        <time>2020-05-17T12:37:52.470Z</time>
      </trkpt>
      <trkpt lat="45.73014" lon="5.63618">
        <ele>370</ele>
        <time>2020-05-17T12:37:57.450Z</time>
      </trkpt>
      <trkpt lat="45.73021" lon="5.63618">
        <ele>370</ele>
        <time>2020-05-17T12:38:02.457Z</time>
      </trkpt>
      <trkpt lat="45.7303" lon="5.63616">
        <ele>370</ele>
        <time>2020-05-17T12:38:07.445Z</time>
      </trkpt>
      <trkpt lat="45.73037" lon="5.63615">
        <ele>370</ele>
        <time>2020-05-17T12:38:12.451Z</time>
      </trkpt>
      <trkpt lat="45.73045" lon="5.63613">
        <ele>366</ele>
        <time>2020-05-17T12:38:17.450Z</time>
      </trkpt>
      <trkpt lat="45.7305" lon="5.63611">
        <ele>366</ele>
        <time>2020-05-17T12:38:21.459Z</time>
      </trkpt>
      <trkpt lat="45.73055" lon="5.63607">
        <ele>366</ele>
        <time>2020-05-17T12:38:26.446Z</time>
      </trkpt>
      <trkpt lat="45.73061" lon="5.63604">
        <ele>366</ele>
        <time>2020-05-17T12:38:31.430Z</time>
      </trkpt>
      <trkpt lat="45.73068" lon="5.63604">
        <ele>366</ele>
        <time>2020-05-17T12:38:36.414Z</time>
      </trkpt>
      <trkpt lat="45.73071" lon="5.63601">
        <ele>368</ele>
        <time>2020-05-17T12:38:40.485Z</time>
      </trkpt>
      <trkpt lat="45.73077" lon="5.63598">
        <ele>368</ele>
        <time>2020-05-17T12:38:45.446Z</time>
      </trkpt>
      <trkpt lat="45.73084" lon="5.63595">
        <ele>373</ele>
        <time>2020-05-17T12:38:49.453Z</time>
      </trkpt>
      <trkpt lat="45.73091" lon="5.6359">
        <ele>373</ele>
        <time>2020-05-17T12:38:54.454Z</time>
      </trkpt>
      <trkpt lat="45.73096" lon="5.63587">
        <ele>373</ele>
        <time>2020-05-17T12:38:59.444Z</time>
      </trkpt>
      <trkpt lat="45.73102" lon="5.63585">
        <ele>373</ele>
        <time>2020-05-17T12:39:04.446Z</time>
      </trkpt>
      <trkpt lat="45.73109" lon="5.63582">
        <ele>373</ele>
        <time>2020-05-17T12:39:09.440Z</time>
      </trkpt>
      <trkpt lat="45.73121" lon="5.63574">
        <ele>373</ele>
        <time>2020-05-17T12:39:14.481Z</time>
      </trkpt>
      <trkpt lat="45.73129" lon="5.63571">
        <ele>371</ele>
        <time>2020-05-17T12:39:19.464Z</time>
      </trkpt>
      <trkpt lat="45.73133" lon="5.6357">
        <ele>371</ele>
        <time>2020-05-17T12:39:24.472Z</time>
      </trkpt>
      <trkpt lat="45.73136" lon="5.6357">
        <ele>371</ele>
        <time>2020-05-17T12:39:28.458Z</time>
      </trkpt>
      <trkpt lat="45.73138" lon="5.6357">
        <ele>371</ele>
        <time>2020-05-17T12:39:33.493Z</time>
      </trkpt>
      <trkpt lat="45.73142" lon="5.63572">
        <ele>371</ele>
        <time>2020-05-17T12:39:38.465Z</time>
      </trkpt>
      <trkpt lat="45.73148" lon="5.63572">
        <ele>371</ele>
        <time>2020-05-17T12:39:43.438Z</time>
      </trkpt>
      <trkpt lat="45.73154" lon="5.63572">
        <ele>370</ele>
        <time>2020-05-17T12:39:47.454Z</time>
      </trkpt>
      <trkpt lat="45.73161" lon="5.63571">
        <ele>370</ele>
        <time>2020-05-17T12:39:52.463Z</time>
      </trkpt>
      <trkpt lat="45.73167" lon="5.63569">
        <ele>375</ele>
        <time>2020-05-17T12:39:57.456Z</time>
      </trkpt>
      <trkpt lat="45.73173" lon="5.63568">
        <ele>375</ele>
        <time>2020-05-17T12:40:02.467Z</time>
      </trkpt>
      <trkpt lat="45.73181" lon="5.63566">
        <ele>372</ele>
        <time>2020-05-17T12:40:07.467Z</time>
      </trkpt>
      <trkpt lat="45.7319" lon="5.63561">
        <ele>372</ele>
        <time>2020-05-17T12:40:12.469Z</time>
      </trkpt>
      <trkpt lat="45.73197" lon="5.63559">
        <ele>372</ele>
        <time>2020-05-17T12:40:17.429Z</time>
      </trkpt>
      <trkpt lat="45.73202" lon="5.63558">
        <ele>372</ele>
        <time>2020-05-17T12:40:21.521Z</time>
      </trkpt>
      <trkpt lat="45.73206" lon="5.63557">
        <ele>372</ele>
        <time>2020-05-17T12:40:26.476Z</time>
      </trkpt>
      <trkpt lat="45.73213" lon="5.63557">
        <ele>371</ele>
        <time>2020-05-17T12:40:31.437Z</time>
      </trkpt>
      <trkpt lat="45.73217" lon="5.63558">
        <ele>371</ele>
        <time>2020-05-17T12:40:35.444Z</time>
      </trkpt>
      <trkpt lat="45.73224" lon="5.6356">
        <ele>371</ele>
        <time>2020-05-17T12:40:40.426Z</time>
      </trkpt>
      <trkpt lat="45.73232" lon="5.63556">
        <ele>371</ele>
        <time>2020-05-17T12:40:45.448Z</time>
      </trkpt>
      <trkpt lat="45.73239" lon="5.63547">
        <ele>372</ele>
        <time>2020-05-17T12:40:50.446Z</time>
      </trkpt>
      <trkpt lat="45.73245" lon="5.63545">
        <ele>372</ele>
        <time>2020-05-17T12:40:55.432Z</time>
      </trkpt>
      <trkpt lat="45.73252" lon="5.63542">
        <ele>372</ele>
        <time>2020-05-17T12:41:00.445Z</time>
      </trkpt>
      <trkpt lat="45.73257" lon="5.63541">
        <ele>376</ele>
        <time>2020-05-17T12:41:04.463Z</time>
      </trkpt>
      <trkpt lat="45.73262" lon="5.63537">
        <ele>376</ele>
        <time>2020-05-17T12:41:09.477Z</time>
      </trkpt>
      <trkpt lat="45.73267" lon="5.63534">
        <ele>376</ele>
        <time>2020-05-17T12:41:14.449Z</time>
      </trkpt>
      <trkpt lat="45.73273" lon="5.63533">
        <ele>376</ele>
        <time>2020-05-17T12:41:19.458Z</time>
      </trkpt>
      <trkpt lat="45.73279" lon="5.63531">
        <ele>376</ele>
        <time>2020-05-17T12:41:24.453Z</time>
      </trkpt>
      <trkpt lat="45.73284" lon="5.63525">
        <ele>376</ele>
        <time>2020-05-17T12:41:29.436Z</time>
      </trkpt>
      <trkpt lat="45.73288" lon="5.6352">
        <ele>376</ele>
        <time>2020-05-17T12:41:34.449Z</time>
      </trkpt>
      <trkpt lat="45.73291" lon="5.63512">
        <ele>379</ele>
        <time>2020-05-17T12:41:39.447Z</time>
      </trkpt>
      <trkpt lat="45.73292" lon="5.63511">
        <ele>380</ele>
        <time>2020-05-17T12:41:43.456Z</time>
      </trkpt>
      <trkpt lat="45.73296" lon="5.63506">
        <ele>380</ele>
        <time>2020-05-17T12:41:48.438Z</time>
      </trkpt>
      <trkpt lat="45.73304" lon="5.63494">
        <ele>380</ele>
        <time>2020-05-17T12:41:53.447Z</time>
      </trkpt>
      <trkpt lat="45.73308" lon="5.6349">
        <ele>380</ele>
        <time>2020-05-17T12:41:57.476Z</time>
      </trkpt>
      <trkpt lat="45.73314" lon="5.63487">
        <ele>380</ele>
        <time>2020-05-17T12:42:02.442Z</time>
      </trkpt>
      <trkpt lat="45.73319" lon="5.63487">
        <ele>380</ele>
        <time>2020-05-17T12:42:07.476Z</time>
      </trkpt>
      <trkpt lat="45.73325" lon="5.63487">
        <ele>379</ele>
        <time>2020-05-17T12:42:12.471Z</time>
      </trkpt>
      <trkpt lat="45.73334" lon="5.63487">
        <ele>379</ele>
        <time>2020-05-17T12:42:17.442Z</time>
      </trkpt>
      <trkpt lat="45.73342" lon="5.63485">
        <ele>381</ele>
        <time>2020-05-17T12:42:22.416Z</time>
      </trkpt>
      <trkpt lat="45.73349" lon="5.6348">
        <ele>381</ele>
        <time>2020-05-17T12:42:27.456Z</time>
      </trkpt>
      <trkpt lat="45.73351" lon="5.63473">
        <ele>381</ele>
        <time>2020-05-17T12:42:32.457Z</time>
      </trkpt>
      <trkpt lat="45.73351" lon="5.63468">
        <ele>381</ele>
        <time>2020-05-17T12:42:36.450Z</time>
      </trkpt>
      <trkpt lat="45.73352" lon="5.63462">
        <ele>381</ele>
        <time>2020-05-17T12:42:41.466Z</time>
      </trkpt>
      <trkpt lat="45.73354" lon="5.63454">
        <ele>382</ele>
        <time>2020-05-17T12:42:46.464Z</time>
      </trkpt>
      <trkpt lat="45.73355" lon="5.63448">
        <ele>382</ele>
        <time>2020-05-17T12:42:51.459Z</time>
      </trkpt>
      <trkpt lat="45.73357" lon="5.63442">
        <ele>382</ele>
        <time>2020-05-17T12:42:56.457Z</time>
      </trkpt>
      <trkpt lat="45.7336" lon="5.63432">
        <ele>382</ele>
        <time>2020-05-17T12:43:01.447Z</time>
      </trkpt>
      <trkpt lat="45.73366" lon="5.63423">
        <ele>383</ele>
        <time>2020-05-17T12:43:06.458Z</time>
      </trkpt>
      <trkpt lat="45.73374" lon="5.63419">
        <ele>383</ele>
        <time>2020-05-17T12:43:11.537Z</time>
      </trkpt>
      <trkpt lat="45.73379" lon="5.6342">
        <ele>383</ele>
        <time>2020-05-17T12:43:16.460Z</time>
      </trkpt>
      <trkpt lat="45.73385" lon="5.63419">
        <ele>383</ele>
        <time>2020-05-17T12:43:21.441Z</time>
      </trkpt>
      <trkpt lat="45.73392" lon="5.63417">
        <ele>383</ele>
        <time>2020-05-17T12:43:26.452Z</time>
      </trkpt>
      <trkpt lat="45.73397" lon="5.63418">
        <ele>383</ele>
        <time>2020-05-17T12:43:30.453Z</time>
      </trkpt>
      <trkpt lat="45.73402" lon="5.63419">
        <ele>383</ele>
        <time>2020-05-17T12:43:35.499Z</time>
      </trkpt>
      <trkpt lat="45.73414" lon="5.63413">
        <ele>381</ele>
        <time>2020-05-17T12:43:40.439Z</time>
      </trkpt>
      <trkpt lat="45.73423" lon="5.63408">
        <ele>381</ele>
        <time>2020-05-17T12:43:44.455Z</time>
      </trkpt>
      <trkpt lat="45.73429" lon="5.63407">
        <ele>381</ele>
        <time>2020-05-17T12:43:49.486Z</time>
      </trkpt>
      <trkpt lat="45.73439" lon="5.63404">
        <ele>379</ele>
        <time>2020-05-17T12:43:54.444Z</time>
      </trkpt>
      <trkpt lat="45.73446" lon="5.63403">
        <ele>380</ele>
        <time>2020-05-17T12:43:59.439Z</time>
      </trkpt>
      <trkpt lat="45.73454" lon="5.634">
        <ele>380</ele>
        <time>2020-05-17T12:44:04.444Z</time>
      </trkpt>
      <trkpt lat="45.7346" lon="5.634">
        <ele>378</ele>
        <time>2020-05-17T12:44:09.462Z</time>
      </trkpt>
      <trkpt lat="45.73465" lon="5.63392">
        <ele>378</ele>
        <time>2020-05-17T12:44:14.449Z</time>
      </trkpt>
      <trkpt lat="45.7347" lon="5.63385">
        <ele>378</ele>
        <time>2020-05-17T12:44:19.454Z</time>
      </trkpt>
      <trkpt lat="45.73475" lon="5.63379">
        <ele>378</ele>
        <time>2020-05-17T12:44:24.459Z</time>
      </trkpt>
      <trkpt lat="45.73479" lon="5.63374">
        <ele>378</ele>
        <time>2020-05-17T12:44:28.471Z</time>
      </trkpt>
      <trkpt lat="45.73485" lon="5.6337">
        <ele>378</ele>
        <time>2020-05-17T12:44:33.445Z</time>
      </trkpt>
      <trkpt lat="45.7349" lon="5.63369">
        <ele>376</ele>
        <time>2020-05-17T12:44:38.463Z</time>
      </trkpt>
      <trkpt lat="45.73496" lon="5.63371">
        <ele>376</ele>
        <time>2020-05-17T12:44:43.443Z</time>
      </trkpt>
      <trkpt lat="45.73502" lon="5.63372">
        <ele>376</ele>
        <time>2020-05-17T12:44:48.434Z</time>
      </trkpt>
      <trkpt lat="45.73507" lon="5.63374">
        <ele>376</ele>
        <time>2020-05-17T12:44:53.441Z</time>
      </trkpt>
      <trkpt lat="45.73513" lon="5.63377">
        <ele>375</ele>
        <time>2020-05-17T12:44:57.470Z</time>
      </trkpt>
      <trkpt lat="45.7352" lon="5.63378">
        <ele>374</ele>
        <time>2020-05-17T12:45:02.475Z</time>
      </trkpt>
      <trkpt lat="45.73525" lon="5.6338">
        <ele>374</ele>
        <time>2020-05-17T12:45:07.459Z</time>
      </trkpt>
      <trkpt lat="45.73533" lon="5.63384">
        <ele>374</ele>
        <time>2020-05-17T12:45:12.449Z</time>
      </trkpt>
      <trkpt lat="45.7354" lon="5.63385">
        <ele>374</ele>
        <time>2020-05-17T12:45:17.460Z</time>
      </trkpt>
      <trkpt lat="45.73546" lon="5.63387">
        <ele>374</ele>
        <time>2020-05-17T12:45:22.516Z</time>
      </trkpt>
      <trkpt lat="45.7355" lon="5.63388">
        <ele>374</ele>
        <time>2020-05-17T12:45:27.457Z</time>
      </trkpt>
      <trkpt lat="45.73556" lon="5.6339">
        <ele>374</ele>
        <time>2020-05-17T12:45:32.448Z</time>
      </trkpt>
      <trkpt lat="45.73561" lon="5.63393">
        <ele>374</ele>
        <time>2020-05-17T12:45:36.481Z</time>
      </trkpt>
      <trkpt lat="45.73567" lon="5.63393">
        <ele>374</ele>
        <time>2020-05-17T12:45:41.449Z</time>
      </trkpt>
      <trkpt lat="45.73575" lon="5.63393">
        <ele>374</ele>
        <time>2020-05-17T12:45:46.441Z</time>
      </trkpt>
      <trkpt lat="45.73585" lon="5.63393">
        <ele>374</ele>
        <time>2020-05-17T12:45:51.439Z</time>
      </trkpt>
      <trkpt lat="45.73591" lon="5.63391">
        <ele>374</ele>
        <time>2020-05-17T12:45:55.455Z</time>
      </trkpt>
      <trkpt lat="45.73597" lon="5.63391">
        <ele>374</ele>
        <time>2020-05-17T12:46:00.451Z</time>
      </trkpt>
      <trkpt lat="45.73601" lon="5.63391">
        <ele>374</ele>
        <time>2020-05-17T12:46:05.463Z</time>
      </trkpt>
      <trkpt lat="45.73608" lon="5.63391">
        <ele>374</ele>
        <time>2020-05-17T12:46:10.501Z</time>
      </trkpt>
      <trkpt lat="45.73613" lon="5.63391">
        <ele>374</ele>
        <time>2020-05-17T12:46:15.449Z</time>
      </trkpt>
      <trkpt lat="45.73617" lon="5.63391">
        <ele>374</ele>
        <time>2020-05-17T12:46:19.468Z</time>
      </trkpt>
      <trkpt lat="45.73622" lon="5.63393">
        <ele>374</ele>
        <time>2020-05-17T12:46:24.439Z</time>
      </trkpt>
      <trkpt lat="45.73629" lon="5.63393">
        <ele>372</ele>
        <time>2020-05-17T12:46:29.444Z</time>
      </trkpt>
      <trkpt lat="45.73633" lon="5.63393">
        <ele>372</ele>
        <time>2020-05-17T12:46:33.484Z</time>
      </trkpt>
      <trkpt lat="45.7364" lon="5.63396">
        <ele>372</ele>
        <time>2020-05-17T12:46:38.469Z</time>
      </trkpt>
      <trkpt lat="45.73646" lon="5.63397">
        <ele>372</ele>
        <time>2020-05-17T12:46:43.480Z</time>
      </trkpt>
      <trkpt lat="45.73653" lon="5.63398">
        <ele>372</ele>
        <time>2020-05-17T12:46:48.424Z</time>
      </trkpt>
      <trkpt lat="45.73658" lon="5.63398">
        <ele>369</ele>
        <time>2020-05-17T12:46:53.442Z</time>
      </trkpt>
      <trkpt lat="45.73664" lon="5.63398">
        <ele>369</ele>
        <time>2020-05-17T12:46:57.433Z</time>
      </trkpt>
      <trkpt lat="45.73667" lon="5.63393">
        <ele>369</ele>
        <time>2020-05-17T12:47:02.444Z</time>
      </trkpt>
      <trkpt lat="45.73669" lon="5.63386">
        <ele>369</ele>
        <time>2020-05-17T12:47:07.480Z</time>
      </trkpt>
      <trkpt lat="45.7367" lon="5.63374">
        <ele>368</ele>
        <time>2020-05-17T12:47:12.449Z</time>
      </trkpt>
      <trkpt lat="45.7367" lon="5.63367">
        <ele>368</ele>
        <time>2020-05-17T12:47:16.437Z</time>
      </trkpt>
      <trkpt lat="45.73671" lon="5.63357">
        <ele>368</ele>
        <time>2020-05-17T12:47:21.424Z</time>
      </trkpt>
      <trkpt lat="45.73672" lon="5.6335">
        <ele>368</ele>
        <time>2020-05-17T12:47:25.439Z</time>
      </trkpt>
      <trkpt lat="45.73672" lon="5.63342">
        <ele>367</ele>
        <time>2020-05-17T12:47:30.447Z</time>
      </trkpt>
      <trkpt lat="45.73673" lon="5.63337">
        <ele>367</ele>
        <time>2020-05-17T12:47:35.444Z</time>
      </trkpt>
      <trkpt lat="45.73676" lon="5.63333">
        <ele>367</ele>
        <time>2020-05-17T12:47:40.422Z</time>
      </trkpt>
      <trkpt lat="45.73679" lon="5.63326">
        <ele>367</ele>
        <time>2020-05-17T12:47:45.434Z</time>
      </trkpt>
      <trkpt lat="45.7368" lon="5.63316">
        <ele>368</ele>
        <time>2020-05-17T12:47:50.459Z</time>
      </trkpt>
      <trkpt lat="45.73683" lon="5.63305">
        <ele>366</ele>
        <time>2020-05-17T12:47:55.446Z</time>
      </trkpt>
      <trkpt lat="45.73685" lon="5.63294">
        <ele>366</ele>
        <time>2020-05-17T12:48:00.437Z</time>
      </trkpt>
      <trkpt lat="45.73685" lon="5.63286">
        <ele>365</ele>
        <time>2020-05-17T12:48:04.457Z</time>
      </trkpt>
      <trkpt lat="45.73684" lon="5.63275">
        <ele>365</ele>
        <time>2020-05-17T12:48:09.463Z</time>
      </trkpt>
      <trkpt lat="45.73683" lon="5.63267">
        <ele>365</ele>
        <time>2020-05-17T12:48:14.434Z</time>
      </trkpt>
      <trkpt lat="45.73683" lon="5.63259">
        <ele>362</ele>
        <time>2020-05-17T12:48:19.453Z</time>
      </trkpt>
      <trkpt lat="45.73684" lon="5.63249">
        <ele>362</ele>
        <time>2020-05-17T12:48:24.454Z</time>
      </trkpt>
      <trkpt lat="45.73686" lon="5.63238">
        <ele>362</ele>
        <time>2020-05-17T12:48:29.453Z</time>
      </trkpt>
      <trkpt lat="45.73682" lon="5.63222">
        <ele>361</ele>
        <time>2020-05-17T12:48:34.412Z</time>
      </trkpt>
      <trkpt lat="45.73676" lon="5.63205">
        <ele>360</ele>
        <time>2020-05-17T12:48:39.434Z</time>
      </trkpt>
      <trkpt lat="45.73675" lon="5.63199">
        <ele>360</ele>
        <time>2020-05-17T12:48:44.459Z</time>
      </trkpt>
      <trkpt lat="45.73674" lon="5.63188">
        <ele>360</ele>
        <time>2020-05-17T12:48:49.438Z</time>
      </trkpt>
      <trkpt lat="45.73673" lon="5.6318">
        <ele>358</ele>
        <time>2020-05-17T12:48:53.452Z</time>
      </trkpt>
      <trkpt lat="45.73673" lon="5.6317">
        <ele>358</ele>
        <time>2020-05-17T12:48:58.461Z</time>
      </trkpt>
      <trkpt lat="45.73672" lon="5.63158">
        <ele>358</ele>
        <time>2020-05-17T12:49:03.441Z</time>
      </trkpt>
      <trkpt lat="45.7367" lon="5.63148">
        <ele>357</ele>
        <time>2020-05-17T12:49:08.498Z</time>
      </trkpt>
      <trkpt lat="45.73669" lon="5.63138">
        <ele>357</ele>
        <time>2020-05-17T12:49:13.458Z</time>
      </trkpt>
      <trkpt lat="45.73668" lon="5.6313">
        <ele>357</ele>
        <time>2020-05-17T12:49:17.517Z</time>
      </trkpt>
      <trkpt lat="45.73668" lon="5.63121">
        <ele>357</ele>
        <time>2020-05-17T12:49:22.469Z</time>
      </trkpt>
      <trkpt lat="45.73668" lon="5.63113">
        <ele>357</ele>
        <time>2020-05-17T12:49:27.445Z</time>
      </trkpt>
      <trkpt lat="45.73667" lon="5.63104">
        <ele>357</ele>
        <time>2020-05-17T12:49:32.444Z</time>
      </trkpt>
      <trkpt lat="45.73665" lon="5.63092">
        <ele>357</ele>
        <time>2020-05-17T12:49:37.449Z</time>
      </trkpt>
      <trkpt lat="45.73663" lon="5.63083">
        <ele>357</ele>
        <time>2020-05-17T12:49:42.440Z</time>
      </trkpt>
      <trkpt lat="45.73664" lon="5.63074">
        <ele>357</ele>
        <time>2020-05-17T12:49:46.461Z</time>
      </trkpt>
      <trkpt lat="45.73665" lon="5.63065">
        <ele>358</ele>
        <time>2020-05-17T12:49:51.442Z</time>
      </trkpt>
      <trkpt lat="45.73664" lon="5.63056">
        <ele>358</ele>
        <time>2020-05-17T12:49:56.446Z</time>
      </trkpt>
      <trkpt lat="45.73662" lon="5.63045">
        <ele>358</ele>
        <time>2020-05-17T12:50:01.450Z</time>
      </trkpt>
      <trkpt lat="45.73659" lon="5.63033">
        <ele>359</ele>
        <time>2020-05-17T12:50:06.438Z</time>
      </trkpt>
      <trkpt lat="45.73658" lon="5.63025">
        <ele>359</ele>
        <time>2020-05-17T12:50:11.478Z</time>
      </trkpt>
      <trkpt lat="45.73657" lon="5.63015">
        <ele>359</ele>
        <time>2020-05-17T12:50:16.530Z</time>
      </trkpt>
      <trkpt lat="45.73655" lon="5.63007">
        <ele>359</ele>
        <time>2020-05-17T12:50:21.457Z</time>
      </trkpt>
      <trkpt lat="45.73653" lon="5.62999">
        <ele>359</ele>
        <time>2020-05-17T12:50:25.469Z</time>
      </trkpt>
      <trkpt lat="45.73649" lon="5.62985">
        <ele>359</ele>
        <time>2020-05-17T12:50:30.451Z</time>
      </trkpt>
      <trkpt lat="45.73649" lon="5.62977">
        <ele>359</ele>
        <time>2020-05-17T12:50:35.467Z</time>
      </trkpt>
      <trkpt lat="45.73649" lon="5.62968">
        <ele>359</ele>
        <time>2020-05-17T12:50:40.459Z</time>
      </trkpt>
      <trkpt lat="45.73647" lon="5.62962">
        <ele>359</ele>
        <time>2020-05-17T12:50:45.419Z</time>
      </trkpt>
      <trkpt lat="45.73646" lon="5.62955">
        <ele>360</ele>
        <time>2020-05-17T12:50:49.442Z</time>
      </trkpt>
      <trkpt lat="45.73645" lon="5.62945">
        <ele>360</ele>
        <time>2020-05-17T12:50:54.440Z</time>
      </trkpt>
      <trkpt lat="45.73642" lon="5.62933">
        <ele>360</ele>
        <time>2020-05-17T12:50:59.461Z</time>
      </trkpt>
      <trkpt lat="45.73638" lon="5.62926">
        <ele>361</ele>
        <time>2020-05-17T12:51:03.487Z</time>
      </trkpt>
      <trkpt lat="45.73636" lon="5.62917">
        <ele>361</ele>
        <time>2020-05-17T12:51:08.441Z</time>
      </trkpt>
      <trkpt lat="45.73636" lon="5.62908">
        <ele>361</ele>
        <time>2020-05-17T12:51:12.459Z</time>
      </trkpt>
      <trkpt lat="45.73637" lon="5.62901">
        <ele>362</ele>
        <time>2020-05-17T12:51:17.449Z</time>
      </trkpt>
      <trkpt lat="45.73637" lon="5.62892">
        <ele>362</ele>
        <time>2020-05-17T12:51:22.448Z</time>
      </trkpt>
      <trkpt lat="45.73636" lon="5.62886">
        <ele>362</ele>
        <time>2020-05-17T12:51:26.463Z</time>
      </trkpt>
      <trkpt lat="45.73638" lon="5.62878">
        <ele>362</ele>
        <time>2020-05-17T12:51:31.449Z</time>
      </trkpt>
      <trkpt lat="45.73641" lon="5.62871">
        <ele>362</ele>
        <time>2020-05-17T12:51:35.470Z</time>
      </trkpt>
      <trkpt lat="45.73644" lon="5.62862">
        <ele>362</ele>
        <time>2020-05-17T12:51:40.468Z</time>
      </trkpt>
      <trkpt lat="45.73646" lon="5.62856">
        <ele>362</ele>
        <time>2020-05-17T12:51:44.473Z</time>
      </trkpt>
      <trkpt lat="45.73648" lon="5.62845">
        <ele>361</ele>
        <time>2020-05-17T12:51:49.465Z</time>
      </trkpt>
      <trkpt lat="45.73651" lon="5.62836">
        <ele>361</ele>
        <time>2020-05-17T12:51:54.467Z</time>
      </trkpt>
      <trkpt lat="45.73651" lon="5.62827">
        <ele>361</ele>
        <time>2020-05-17T12:51:59.447Z</time>
      </trkpt>
      <trkpt lat="45.73651" lon="5.62818">
        <ele>358</ele>
        <time>2020-05-17T12:52:04.401Z</time>
      </trkpt>
      <trkpt lat="45.7365" lon="5.62811">
        <ele>358</ele>
        <time>2020-05-17T12:52:08.424Z</time>
      </trkpt>
      <trkpt lat="45.73649" lon="5.62807">
        <ele>358</ele>
        <time>2020-05-17T12:52:13.421Z</time>
      </trkpt>
      <trkpt lat="45.73647" lon="5.62806">
        <ele>358</ele>
        <time>2020-05-17T12:52:22.466Z</time>
      </trkpt>
      <trkpt lat="45.73647" lon="5.62804">
        <ele>358</ele>
        <time>2020-05-17T12:52:27.440Z</time>
      </trkpt>
      <trkpt lat="45.73646" lon="5.62802">
        <ele>358</ele>
        <time>2020-05-17T12:52:32.473Z</time>
      </trkpt>
      <trkpt lat="45.73643" lon="5.62801">
        <ele>358</ele>
        <time>2020-05-17T12:52:37.452Z</time>
      </trkpt>
      <trkpt lat="45.73638" lon="5.62798">
        <ele>358</ele>
        <time>2020-05-17T12:52:42.423Z</time>
      </trkpt>
      <trkpt lat="45.73633" lon="5.62788">
        <ele>357</ele>
        <time>2020-05-17T12:52:47.464Z</time>
      </trkpt>
      <trkpt lat="45.73628" lon="5.62782">
        <ele>357</ele>
        <time>2020-05-17T12:52:52.474Z</time>
      </trkpt>
      <trkpt lat="45.73622" lon="5.62779">
        <ele>356</ele>
        <time>2020-05-17T12:52:57.445Z</time>
      </trkpt>
      <trkpt lat="45.7362" lon="5.62776">
        <ele>356</ele>
        <time>2020-05-17T12:53:01.474Z</time>
      </trkpt>
      <trkpt lat="45.73614" lon="5.6277">
        <ele>356</ele>
        <time>2020-05-17T12:53:06.462Z</time>
      </trkpt>
      <trkpt lat="45.73608" lon="5.62764">
        <ele>356</ele>
        <time>2020-05-17T12:53:11.452Z</time>
      </trkpt>
      <trkpt lat="45.73603" lon="5.6276">
        <ele>357</ele>
        <time>2020-05-17T12:53:16.447Z</time>
      </trkpt>
      <trkpt lat="45.736" lon="5.62756">
        <ele>357</ele>
        <time>2020-05-17T12:53:21.456Z</time>
      </trkpt>
      <trkpt lat="45.73601" lon="5.62758">
        <ele>357</ele>
        <time>2020-05-17T12:53:26.448Z</time>
      </trkpt>
      <trkpt lat="45.736" lon="5.62758">
        <ele>357</ele>
        <time>2020-05-17T12:53:31.482Z</time>
      </trkpt>
      <trkpt lat="45.73599" lon="5.62757">
        <ele>357</ele>
        <time>2020-05-17T12:53:36.468Z</time>
      </trkpt>
      <trkpt lat="45.73592" lon="5.62753">
        <ele>355</ele>
        <time>2020-05-17T12:53:41.449Z</time>
      </trkpt>
      <trkpt lat="45.73585" lon="5.62747">
        <ele>355</ele>
        <time>2020-05-17T12:53:46.454Z</time>
      </trkpt>
      <trkpt lat="45.7358" lon="5.6274">
        <ele>355</ele>
        <time>2020-05-17T12:53:51.451Z</time>
      </trkpt>
      <trkpt lat="45.73575" lon="5.62733">
        <ele>356</ele>
        <time>2020-05-17T12:53:56.462Z</time>
      </trkpt>
      <trkpt lat="45.73569" lon="5.62732">
        <ele>351</ele>
        <time>2020-05-17T12:54:01.427Z</time>
      </trkpt>
      <trkpt lat="45.73564" lon="5.6273">
        <ele>351</ele>
        <time>2020-05-17T12:54:05.450Z</time>
      </trkpt>
      <trkpt lat="45.73558" lon="5.62731">
        <ele>351</ele>
        <time>2020-05-17T12:54:10.435Z</time>
      </trkpt>
      <trkpt lat="45.73553" lon="5.62732">
        <ele>351</ele>
        <time>2020-05-17T12:54:14.465Z</time>
      </trkpt>
      <trkpt lat="45.73546" lon="5.62732">
        <ele>351</ele>
        <time>2020-05-17T12:54:19.457Z</time>
      </trkpt>
      <trkpt lat="45.73542" lon="5.62732">
        <ele>351</ele>
        <time>2020-05-17T12:54:23.446Z</time>
      </trkpt>
      <trkpt lat="45.73537" lon="5.62728">
        <ele>350</ele>
        <time>2020-05-17T12:54:28.469Z</time>
      </trkpt>
      <trkpt lat="45.73533" lon="5.62722">
        <ele>350</ele>
        <time>2020-05-17T12:54:33.465Z</time>
      </trkpt>
      <trkpt lat="45.73531" lon="5.62715">
        <ele>350</ele>
        <time>2020-05-17T12:54:38.457Z</time>
      </trkpt>
      <trkpt lat="45.7353" lon="5.62707">
        <ele>348</ele>
        <time>2020-05-17T12:54:43.462Z</time>
      </trkpt>
      <trkpt lat="45.7353" lon="5.62701">
        <ele>348</ele>
        <time>2020-05-17T12:54:48.459Z</time>
      </trkpt>
      <trkpt lat="45.73531" lon="5.62692">
        <ele>348</ele>
        <time>2020-05-17T12:54:53.463Z</time>
      </trkpt>
      <trkpt lat="45.73533" lon="5.62684">
        <ele>348</ele>
        <time>2020-05-17T12:54:58.449Z</time>
      </trkpt>
      <trkpt lat="45.73533" lon="5.62672">
        <ele>347</ele>
        <time>2020-05-17T12:55:47.458Z</time>
      </trkpt>
      <trkpt lat="45.73533" lon="5.62672">
        <ele>347</ele>
        <time>2020-05-17T12:55:52.456Z</time>
      </trkpt>
      <trkpt lat="45.73533" lon="5.62672">
        <ele>347</ele>
        <time>2020-05-17T12:55:56.437Z</time>
      </trkpt>
      <trkpt lat="45.73534" lon="5.62667">
        <ele>347</ele>
        <time>2020-05-17T12:56:01.463Z</time>
      </trkpt>
      <trkpt lat="45.73531" lon="5.62656">
        <ele>347</ele>
        <time>2020-05-17T12:56:06.447Z</time>
      </trkpt>
      <trkpt lat="45.73532" lon="5.62655">
        <ele>347</ele>
        <time>2020-05-17T12:56:11.513Z</time>
      </trkpt>
      <trkpt lat="45.73531" lon="5.62651">
        <ele>344</ele>
        <time>2020-05-17T12:56:16.450Z</time>
      </trkpt>
      <trkpt lat="45.73531" lon="5.62641">
        <ele>344</ele>
        <time>2020-05-17T12:56:21.463Z</time>
      </trkpt>
      <trkpt lat="45.73529" lon="5.62631">
        <ele>344</ele>
        <time>2020-05-17T12:56:26.431Z</time>
      </trkpt>
      <trkpt lat="45.73528" lon="5.62623">
        <ele>341</ele>
        <time>2020-05-17T12:56:31.467Z</time>
      </trkpt>
      <trkpt lat="45.73527" lon="5.62615">
        <ele>341</ele>
        <time>2020-05-17T12:56:35.450Z</time>
      </trkpt>
      <trkpt lat="45.73524" lon="5.62607">
        <ele>341</ele>
        <time>2020-05-17T12:56:40.445Z</time>
      </trkpt>
      <trkpt lat="45.73521" lon="5.62598">
        <ele>341</ele>
        <time>2020-05-17T12:56:45.449Z</time>
      </trkpt>
      <trkpt lat="45.73518" lon="5.62592">
        <ele>338</ele>
        <time>2020-05-17T12:56:49.466Z</time>
      </trkpt>
      <trkpt lat="45.73514" lon="5.62584">
        <ele>337</ele>
        <time>2020-05-17T12:56:54.437Z</time>
      </trkpt>
      <trkpt lat="45.73509" lon="5.62579">
        <ele>337</ele>
        <time>2020-05-17T12:56:59.444Z</time>
      </trkpt>
      <trkpt lat="45.73504" lon="5.62573">
        <ele>337</ele>
        <time>2020-05-17T12:57:04.453Z</time>
      </trkpt>
      <trkpt lat="45.735" lon="5.62567">
        <ele>333</ele>
        <time>2020-05-17T12:57:09.454Z</time>
      </trkpt>
      <trkpt lat="45.73495" lon="5.62564">
        <ele>333</ele>
        <time>2020-05-17T12:57:14.479Z</time>
      </trkpt>
      <trkpt lat="45.7349" lon="5.62559">
        <ele>333</ele>
        <time>2020-05-17T12:57:19.461Z</time>
      </trkpt>
      <trkpt lat="45.73483" lon="5.62555">
        <ele>332</ele>
        <time>2020-05-17T12:57:24.443Z</time>
      </trkpt>
      <trkpt lat="45.73478" lon="5.62552">
        <ele>332</ele>
        <time>2020-05-17T12:57:28.469Z</time>
      </trkpt>
      <trkpt lat="45.7347" lon="5.62546">
        <ele>332</ele>
        <time>2020-05-17T12:57:33.458Z</time>
      </trkpt>
      <trkpt lat="45.73462" lon="5.62544">
        <ele>332</ele>
        <time>2020-05-17T12:57:38.518Z</time>
      </trkpt>
      <trkpt lat="45.73457" lon="5.62542">
        <ele>332</ele>
        <time>2020-05-17T12:57:43.460Z</time>
      </trkpt>
      <trkpt lat="45.73451" lon="5.62543">
        <ele>332</ele>
        <time>2020-05-17T12:57:48.444Z</time>
      </trkpt>
      <trkpt lat="45.73447" lon="5.62544">
        <ele>332</ele>
        <time>2020-05-17T12:57:52.463Z</time>
      </trkpt>
      <trkpt lat="45.73441" lon="5.62543">
        <ele>332</ele>
        <time>2020-05-17T12:57:57.444Z</time>
      </trkpt>
      <trkpt lat="45.73433" lon="5.62542">
        <ele>332</ele>
        <time>2020-05-17T12:58:02.490Z</time>
      </trkpt>
      <trkpt lat="45.73426" lon="5.62544">
        <ele>334</ele>
        <time>2020-05-17T12:58:07.455Z</time>
      </trkpt>
      <trkpt lat="45.73419" lon="5.62544">
        <ele>334</ele>
        <time>2020-05-17T12:58:12.442Z</time>
      </trkpt>
      <trkpt lat="45.73414" lon="5.62545">
        <ele>334</ele>
        <time>2020-05-17T12:58:16.454Z</time>
      </trkpt>
      <trkpt lat="45.73407" lon="5.62545">
        <ele>334</ele>
        <time>2020-05-17T12:58:21.442Z</time>
      </trkpt>
      <trkpt lat="45.734" lon="5.62544">
        <ele>335</ele>
        <time>2020-05-17T12:58:26.444Z</time>
      </trkpt>
      <trkpt lat="45.73394" lon="5.62544">
        <ele>335</ele>
        <time>2020-05-17T12:58:31.450Z</time>
      </trkpt>
      <trkpt lat="45.73389" lon="5.62545">
        <ele>335</ele>
        <time>2020-05-17T12:58:36.421Z</time>
      </trkpt>
      <trkpt lat="45.73382" lon="5.62544">
        <ele>335</ele>
        <time>2020-05-17T12:58:40.523Z</time>
      </trkpt>
      <trkpt lat="45.73375" lon="5.62544">
        <ele>335</ele>
        <time>2020-05-17T12:58:45.452Z</time>
      </trkpt>
      <trkpt lat="45.73369" lon="5.62545">
        <ele>334</ele>
        <time>2020-05-17T12:58:50.457Z</time>
      </trkpt>
      <trkpt lat="45.73362" lon="5.62545">
        <ele>334</ele>
        <time>2020-05-17T12:58:55.451Z</time>
      </trkpt>
      <trkpt lat="45.73358" lon="5.62546">
        <ele>334</ele>
        <time>2020-05-17T12:58:59.465Z</time>
      </trkpt>
      <trkpt lat="45.73351" lon="5.62547">
        <ele>334</ele>
        <time>2020-05-17T12:59:04.451Z</time>
      </trkpt>
      <trkpt lat="45.73344" lon="5.62542">
        <ele>327</ele>
        <time>2020-05-17T12:59:09.438Z</time>
      </trkpt>
      <trkpt lat="45.7334" lon="5.62532">
        <ele>327</ele>
        <time>2020-05-17T12:59:14.501Z</time>
      </trkpt>
      <trkpt lat="45.73338" lon="5.62525">
        <ele>327</ele>
        <time>2020-05-17T12:59:19.459Z</time>
      </trkpt>
      <trkpt lat="45.73337" lon="5.62515">
        <ele>327</ele>
        <time>2020-05-17T12:59:24.433Z</time>
      </trkpt>
      <trkpt lat="45.73337" lon="5.62511">
        <ele>325</ele>
        <time>2020-05-17T12:59:28.471Z</time>
      </trkpt>
      <trkpt lat="45.73336" lon="5.62501">
        <ele>325</ele>
        <time>2020-05-17T12:59:33.440Z</time>
      </trkpt>
      <trkpt lat="45.73335" lon="5.62494">
        <ele>325</ele>
        <time>2020-05-17T12:59:37.523Z</time>
      </trkpt>
      <trkpt lat="45.73335" lon="5.62486">
        <ele>324</ele>
        <time>2020-05-17T12:59:42.467Z</time>
      </trkpt>
      <trkpt lat="45.73334" lon="5.62478">
        <ele>324</ele>
        <time>2020-05-17T12:59:46.457Z</time>
      </trkpt>
      <trkpt lat="45.73333" lon="5.62468">
        <ele>324</ele>
        <time>2020-05-17T12:59:51.433Z</time>
      </trkpt>
      <trkpt lat="45.73332" lon="5.62458">
        <ele>324</ele>
        <time>2020-05-17T12:59:56.448Z</time>
      </trkpt>
      <trkpt lat="45.73331" lon="5.62452">
        <ele>324</ele>
        <time>2020-05-17T13:00:00.449Z</time>
      </trkpt>
      <trkpt lat="45.73329" lon="5.62442">
        <ele>324</ele>
        <time>2020-05-17T13:00:05.478Z</time>
      </trkpt>
      <trkpt lat="45.73327" lon="5.62432">
        <ele>324</ele>
        <time>2020-05-17T13:00:10.447Z</time>
      </trkpt>
      <trkpt lat="45.73327" lon="5.62424">
        <ele>324</ele>
        <time>2020-05-17T13:00:15.440Z</time>
      </trkpt>
      <trkpt lat="45.73328" lon="5.62417">
        <ele>324</ele>
        <time>2020-05-17T13:00:20.440Z</time>
      </trkpt>
      <trkpt lat="45.73327" lon="5.62411">
        <ele>324</ele>
        <time>2020-05-17T13:00:25.440Z</time>
      </trkpt>
      <trkpt lat="45.73325" lon="5.62404">
        <ele>324</ele>
        <time>2020-05-17T13:00:29.433Z</time>
      </trkpt>
      <trkpt lat="45.73323" lon="5.62395">
        <ele>325</ele>
        <time>2020-05-17T13:00:34.467Z</time>
      </trkpt>
      <trkpt lat="45.73324" lon="5.62384">
        <ele>325</ele>
        <time>2020-05-17T13:00:39.460Z</time>
      </trkpt>
      <trkpt lat="45.73321" lon="5.62374">
        <ele>325</ele>
        <time>2020-05-17T13:00:44.460Z</time>
      </trkpt>
      <trkpt lat="45.73319" lon="5.62367">
        <ele>325</ele>
        <time>2020-05-17T13:00:49.444Z</time>
      </trkpt>
      <trkpt lat="45.73318" lon="5.62357">
        <ele>325</ele>
        <time>2020-05-17T13:00:54.444Z</time>
      </trkpt>
      <trkpt lat="45.73318" lon="5.6235">
        <ele>325</ele>
        <time>2020-05-17T13:00:58.453Z</time>
      </trkpt>
      <trkpt lat="45.73319" lon="5.62341">
        <ele>325</ele>
        <time>2020-05-17T13:01:03.451Z</time>
      </trkpt>
      <trkpt lat="45.73318" lon="5.62333">
        <ele>325</ele>
        <time>2020-05-17T13:01:08.427Z</time>
      </trkpt>
      <trkpt lat="45.73317" lon="5.62327">
        <ele>325</ele>
        <time>2020-05-17T13:01:12.456Z</time>
      </trkpt>
      <trkpt lat="45.73316" lon="5.62317">
        <ele>324</ele>
        <time>2020-05-17T13:01:16.435Z</time>
      </trkpt>
      <trkpt lat="45.73316" lon="5.6231">
        <ele>324</ele>
        <time>2020-05-17T13:01:21.446Z</time>
      </trkpt>
      <trkpt lat="45.73316" lon="5.62303">
        <ele>324</ele>
        <time>2020-05-17T13:01:26.454Z</time>
      </trkpt>
      <trkpt lat="45.73315" lon="5.62294">
        <ele>324</ele>
        <time>2020-05-17T13:01:31.446Z</time>
      </trkpt>
      <trkpt lat="45.73315" lon="5.62285">
        <ele>324</ele>
        <time>2020-05-17T13:01:36.462Z</time>
      </trkpt>
      <trkpt lat="45.73314" lon="5.62279">
        <ele>324</ele>
        <time>2020-05-17T13:01:40.501Z</time>
      </trkpt>
      <trkpt lat="45.73313" lon="5.62268">
        <ele>324</ele>
        <time>2020-05-17T13:01:45.447Z</time>
      </trkpt>
      <trkpt lat="45.73312" lon="5.6226">
        <ele>324</ele>
        <time>2020-05-17T13:01:50.451Z</time>
      </trkpt>
      <trkpt lat="45.73312" lon="5.6225">
        <ele>324</ele>
        <time>2020-05-17T13:01:55.467Z</time>
      </trkpt>
      <trkpt lat="45.73312" lon="5.6224">
        <ele>324</ele>
        <time>2020-05-17T13:02:00.439Z</time>
      </trkpt>
      <trkpt lat="45.73311" lon="5.62231">
        <ele>324</ele>
        <time>2020-05-17T13:02:05.443Z</time>
      </trkpt>
      <trkpt lat="45.7331" lon="5.6222">
        <ele>324</ele>
        <time>2020-05-17T13:02:09.513Z</time>
      </trkpt>
      <trkpt lat="45.7331" lon="5.62211">
        <ele>324</ele>
        <time>2020-05-17T13:02:14.443Z</time>
      </trkpt>
      <trkpt lat="45.73309" lon="5.62204">
        <ele>324</ele>
        <time>2020-05-17T13:02:19.465Z</time>
      </trkpt>
      <trkpt lat="45.7331" lon="5.62196">
        <ele>324</ele>
        <time>2020-05-17T13:02:24.460Z</time>
      </trkpt>
      <trkpt lat="45.73311" lon="5.62185">
        <ele>324</ele>
        <time>2020-05-17T13:02:29.444Z</time>
      </trkpt>
      <trkpt lat="45.7331" lon="5.62174">
        <ele>325</ele>
        <time>2020-05-17T13:02:53.415Z</time>
      </trkpt>
      <trkpt lat="45.73309" lon="5.62174">
        <ele>325</ele>
        <time>2020-05-17T13:02:58.401Z</time>
      </trkpt>
      <trkpt lat="45.73309" lon="5.62171">
        <ele>325</ele>
        <time>2020-05-17T13:03:02.431Z</time>
      </trkpt>
      <trkpt lat="45.73309" lon="5.62167">
        <ele>325</ele>
        <time>2020-05-17T13:03:07.394Z</time>
      </trkpt>
      <trkpt lat="45.73312" lon="5.62165">
        <ele>325</ele>
        <time>2020-05-17T13:03:11.402Z</time>
      </trkpt>
      <trkpt lat="45.73312" lon="5.62162">
        <ele>325</ele>
        <time>2020-05-17T13:06:02.459Z</time>
      </trkpt>
      <trkpt lat="45.73308" lon="5.62164">
        <ele>325</ele>
        <time>2020-05-17T13:06:07.439Z</time>
      </trkpt>
      <trkpt lat="45.73309" lon="5.6217">
        <ele>325</ele>
        <time>2020-05-17T13:06:11.445Z</time>
      </trkpt>
      <trkpt lat="45.73308" lon="5.62172">
        <ele>325</ele>
        <time>2020-05-17T13:06:15.442Z</time>
      </trkpt>
      <trkpt lat="45.73308" lon="5.62178">
        <ele>325</ele>
        <time>2020-05-17T13:06:20.436Z</time>
      </trkpt>
      <trkpt lat="45.73309" lon="5.62176">
        <ele>325</ele>
        <time>2020-05-17T13:06:49.441Z</time>
      </trkpt>
      <trkpt lat="45.7331" lon="5.62173">
        <ele>325</ele>
        <time>2020-05-17T13:06:53.453Z</time>
      </trkpt>
      <trkpt lat="45.73312" lon="5.62166">
        <ele>325</ele>
        <time>2020-05-17T13:06:58.431Z</time>
      </trkpt>
      <trkpt lat="45.73313" lon="5.6216">
        <ele>325</ele>
        <time>2020-05-17T13:07:02.457Z</time>
      </trkpt>
      <trkpt lat="45.73313" lon="5.62153">
        <ele>326</ele>
        <time>2020-05-17T13:07:07.436Z</time>
      </trkpt>
      <trkpt lat="45.73314" lon="5.62152">
        <ele>326</ele>
        <time>2020-05-17T13:07:11.488Z</time>
      </trkpt>
      <trkpt lat="45.73315" lon="5.62144">
        <ele>326</ele>
        <time>2020-05-17T13:07:16.459Z</time>
      </trkpt>
      <trkpt lat="45.73318" lon="5.62136">
        <ele>326</ele>
        <time>2020-05-17T13:07:21.443Z</time>
      </trkpt>
      <trkpt lat="45.73322" lon="5.6213">
        <ele>325</ele>
        <time>2020-05-17T13:07:26.458Z</time>
      </trkpt>
      <trkpt lat="45.73326" lon="5.62127">
        <ele>325</ele>
        <time>2020-05-17T13:07:30.481Z</time>
      </trkpt>
      <trkpt lat="45.7333" lon="5.62124">
        <ele>327</ele>
        <time>2020-05-17T13:07:35.457Z</time>
      </trkpt>
      <trkpt lat="45.73335" lon="5.62122">
        <ele>327</ele>
        <time>2020-05-17T13:07:40.490Z</time>
      </trkpt>
      <trkpt lat="45.73343" lon="5.62122">
        <ele>327</ele>
        <time>2020-05-17T13:07:45.453Z</time>
      </trkpt>
      <trkpt lat="45.73351" lon="5.6212">
        <ele>328</ele>
        <time>2020-05-17T13:07:50.459Z</time>
      </trkpt>
      <trkpt lat="45.73357" lon="5.62117">
        <ele>328</ele>
        <time>2020-05-17T13:07:55.443Z</time>
      </trkpt>
      <trkpt lat="45.73361" lon="5.62117">
        <ele>328</ele>
        <time>2020-05-17T13:08:00.445Z</time>
      </trkpt>
      <trkpt lat="45.73365" lon="5.62115">
        <ele>328</ele>
        <time>2020-05-17T13:08:05.442Z</time>
      </trkpt>
      <trkpt lat="45.73371" lon="5.62118">
        <ele>328</ele>
        <time>2020-05-17T13:08:09.460Z</time>
      </trkpt>
      <trkpt lat="45.73378" lon="5.62117">
        <ele>328</ele>
        <time>2020-05-17T13:08:13.476Z</time>
      </trkpt>
      <trkpt lat="45.73385" lon="5.62118">
        <ele>328</ele>
        <time>2020-05-17T13:08:18.463Z</time>
      </trkpt>
      <trkpt lat="45.73391" lon="5.62118">
        <ele>328</ele>
        <time>2020-05-17T13:08:23.468Z</time>
      </trkpt>
      <trkpt lat="45.73397" lon="5.62119">
        <ele>328</ele>
        <time>2020-05-17T13:08:28.450Z</time>
      </trkpt>
      <trkpt lat="45.73404" lon="5.6212">
        <ele>330</ele>
        <time>2020-05-17T13:08:33.476Z</time>
      </trkpt>
      <trkpt lat="45.7341" lon="5.62121">
        <ele>330</ele>
        <time>2020-05-17T13:08:38.440Z</time>
      </trkpt>
      <trkpt lat="45.73416" lon="5.6212">
        <ele>330</ele>
        <time>2020-05-17T13:08:43.493Z</time>
      </trkpt>
      <trkpt lat="45.73423" lon="5.62122">
        <ele>330</ele>
        <time>2020-05-17T13:08:48.445Z</time>
      </trkpt>
      <trkpt lat="45.73431" lon="5.62125">
        <ele>329</ele>
        <time>2020-05-17T13:08:53.455Z</time>
      </trkpt>
      <trkpt lat="45.73435" lon="5.62126">
        <ele>329</ele>
        <time>2020-05-17T13:08:58.450Z</time>
      </trkpt>
      <trkpt lat="45.7344" lon="5.62128">
        <ele>329</ele>
        <time>2020-05-17T13:09:03.461Z</time>
      </trkpt>
      <trkpt lat="45.73445" lon="5.62131">
        <ele>329</ele>
        <time>2020-05-17T13:09:08.450Z</time>
      </trkpt>
      <trkpt lat="45.73451" lon="5.62134">
        <ele>329</ele>
        <time>2020-05-17T13:09:13.457Z</time>
      </trkpt>
      <trkpt lat="45.7346" lon="5.62136">
        <ele>329</ele>
        <time>2020-05-17T13:09:17.501Z</time>
      </trkpt>
      <trkpt lat="45.73469" lon="5.62138">
        <ele>329</ele>
        <time>2020-05-17T13:09:22.430Z</time>
      </trkpt>
      <trkpt lat="45.73475" lon="5.62139">
        <ele>329</ele>
        <time>2020-05-17T13:09:26.445Z</time>
      </trkpt>
      <trkpt lat="45.7348" lon="5.62139">
        <ele>329</ele>
        <time>2020-05-17T13:09:30.473Z</time>
      </trkpt>
      <trkpt lat="45.73487" lon="5.62137">
        <ele>328</ele>
        <time>2020-05-17T13:09:35.452Z</time>
      </trkpt>
      <trkpt lat="45.73495" lon="5.62135">
        <ele>328</ele>
        <time>2020-05-17T13:09:40.417Z</time>
      </trkpt>
      <trkpt lat="45.73505" lon="5.62135">
        <ele>328</ele>
        <time>2020-05-17T13:09:44.431Z</time>
      </trkpt>
      <trkpt lat="45.73515" lon="5.62136">
        <ele>328</ele>
        <time>2020-05-17T13:09:48.473Z</time>
      </trkpt>
      <trkpt lat="45.73522" lon="5.6214">
        <ele>328</ele>
        <time>2020-05-17T13:09:53.442Z</time>
      </trkpt>
      <trkpt lat="45.7353" lon="5.62137">
        <ele>328</ele>
        <time>2020-05-17T13:09:58.435Z</time>
      </trkpt>
      <trkpt lat="45.73536" lon="5.62137">
        <ele>328</ele>
        <time>2020-05-17T13:10:03.437Z</time>
      </trkpt>
      <trkpt lat="45.73543" lon="5.62138">
        <ele>329</ele>
        <time>2020-05-17T13:10:08.492Z</time>
      </trkpt>
      <trkpt lat="45.73549" lon="5.62138">
        <ele>329</ele>
        <time>2020-05-17T13:10:13.442Z</time>
      </trkpt>
      <trkpt lat="45.73556" lon="5.62137">
        <ele>329</ele>
        <time>2020-05-17T13:10:18.433Z</time>
      </trkpt>
      <trkpt lat="45.73561" lon="5.6214">
        <ele>329</ele>
        <time>2020-05-17T13:10:23.442Z</time>
      </trkpt>
      <trkpt lat="45.73567" lon="5.6214">
        <ele>329</ele>
        <time>2020-05-17T13:10:28.424Z</time>
      </trkpt>
      <trkpt lat="45.73573" lon="5.62142">
        <ele>328</ele>
        <time>2020-05-17T13:10:33.427Z</time>
      </trkpt>
      <trkpt lat="45.73579" lon="5.62143">
        <ele>328</ele>
        <time>2020-05-17T13:10:38.472Z</time>
      </trkpt>
      <trkpt lat="45.73584" lon="5.62145">
        <ele>328</ele>
        <time>2020-05-17T13:10:43.449Z</time>
      </trkpt>
      <trkpt lat="45.73588" lon="5.62147">
        <ele>328</ele>
        <time>2020-05-17T13:10:47.469Z</time>
      </trkpt>
      <trkpt lat="45.73594" lon="5.62148">
        <ele>328</ele>
        <time>2020-05-17T13:10:52.436Z</time>
      </trkpt>
      <trkpt lat="45.73601" lon="5.6215">
        <ele>327</ele>
        <time>2020-05-17T13:10:57.408Z</time>
      </trkpt>
      <trkpt lat="45.73614" lon="5.62152">
        <ele>327</ele>
        <time>2020-05-17T13:11:06.456Z</time>
      </trkpt>
      <trkpt lat="45.7362" lon="5.62152">
        <ele>327</ele>
        <time>2020-05-17T13:11:10.459Z</time>
      </trkpt>
      <trkpt lat="45.73627" lon="5.62152">
        <ele>326</ele>
        <time>2020-05-17T13:11:15.430Z</time>
      </trkpt>
      <trkpt lat="45.73635" lon="5.6215">
        <ele>326</ele>
        <time>2020-05-17T13:11:20.418Z</time>
      </trkpt>
      <trkpt lat="45.73639" lon="5.6215">
        <ele>326</ele>
        <time>2020-05-17T13:11:24.463Z</time>
      </trkpt>
      <trkpt lat="45.73647" lon="5.62151">
        <ele>326</ele>
        <time>2020-05-17T13:11:29.429Z</time>
      </trkpt>
      <trkpt lat="45.73653" lon="5.62151">
        <ele>326</ele>
        <time>2020-05-17T13:11:34.401Z</time>
      </trkpt>
      <trkpt lat="45.73665" lon="5.62153">
        <ele>324</ele>
        <time>2020-05-17T13:11:43.438Z</time>
      </trkpt>
      <trkpt lat="45.73672" lon="5.62152">
        <ele>326</ele>
        <time>2020-05-17T13:11:48.466Z</time>
      </trkpt>
      <trkpt lat="45.73679" lon="5.62153">
        <ele>324</ele>
        <time>2020-05-17T13:11:53.437Z</time>
      </trkpt>
      <trkpt lat="45.73689" lon="5.62152">
        <ele>325</ele>
        <time>2020-05-17T13:11:58.440Z</time>
      </trkpt>
      <trkpt lat="45.73695" lon="5.62152">
        <ele>325</ele>
        <time>2020-05-17T13:12:03.431Z</time>
      </trkpt>
      <trkpt lat="45.73701" lon="5.62153">
        <ele>323</ele>
        <time>2020-05-17T13:12:07.446Z</time>
      </trkpt>
      <trkpt lat="45.73708" lon="5.62155">
        <ele>323</ele>
        <time>2020-05-17T13:12:12.431Z</time>
      </trkpt>
      <trkpt lat="45.73714" lon="5.62156">
        <ele>323</ele>
        <time>2020-05-17T13:12:16.443Z</time>
      </trkpt>
      <trkpt lat="45.73722" lon="5.62156">
        <ele>323</ele>
        <time>2020-05-17T13:12:21.473Z</time>
      </trkpt>
      <trkpt lat="45.7373" lon="5.62155">
        <ele>323</ele>
        <time>2020-05-17T13:12:26.433Z</time>
      </trkpt>
      <trkpt lat="45.73734" lon="5.62156">
        <ele>323</ele>
        <time>2020-05-17T13:12:30.438Z</time>
      </trkpt>
      <trkpt lat="45.7374" lon="5.62156">
        <ele>324</ele>
        <time>2020-05-17T13:12:34.488Z</time>
      </trkpt>
      <trkpt lat="45.73746" lon="5.62159">
        <ele>324</ele>
        <time>2020-05-17T13:12:39.462Z</time>
      </trkpt>
      <trkpt lat="45.73754" lon="5.62161">
        <ele>324</ele>
        <time>2020-05-17T13:12:44.447Z</time>
      </trkpt>
      <trkpt lat="45.73761" lon="5.62163">
        <ele>324</ele>
        <time>2020-05-17T13:12:49.447Z</time>
      </trkpt>
      <trkpt lat="45.73769" lon="5.62165">
        <ele>324</ele>
        <time>2020-05-17T13:12:54.447Z</time>
      </trkpt>
      <trkpt lat="45.73777" lon="5.62165">
        <ele>324</ele>
        <time>2020-05-17T13:12:59.460Z</time>
      </trkpt>
      <trkpt lat="45.73785" lon="5.62166">
        <ele>324</ele>
        <time>2020-05-17T13:13:04.405Z</time>
      </trkpt>
      <trkpt lat="45.73791" lon="5.62167">
        <ele>324</ele>
        <time>2020-05-17T13:13:08.466Z</time>
      </trkpt>
      <trkpt lat="45.73797" lon="5.62168">
        <ele>324</ele>
        <time>2020-05-17T13:13:12.508Z</time>
      </trkpt>
      <trkpt lat="45.73803" lon="5.6217">
        <ele>324</ele>
        <time>2020-05-17T13:13:17.456Z</time>
      </trkpt>
      <trkpt lat="45.73811" lon="5.62171">
        <ele>324</ele>
        <time>2020-05-17T13:13:22.460Z</time>
      </trkpt>
      <trkpt lat="45.73817" lon="5.62174">
        <ele>324</ele>
        <time>2020-05-17T13:13:27.454Z</time>
      </trkpt>
      <trkpt lat="45.73823" lon="5.62175">
        <ele>325</ele>
        <time>2020-05-17T13:13:31.459Z</time>
      </trkpt>
      <trkpt lat="45.73829" lon="5.62176">
        <ele>325</ele>
        <time>2020-05-17T13:13:35.505Z</time>
      </trkpt>
      <trkpt lat="45.73834" lon="5.62177">
        <ele>325</ele>
        <time>2020-05-17T13:13:40.437Z</time>
      </trkpt>
      <trkpt lat="45.73841" lon="5.6218">
        <ele>325</ele>
        <time>2020-05-17T13:13:45.447Z</time>
      </trkpt>
      <trkpt lat="45.73848" lon="5.62181">
        <ele>326</ele>
        <time>2020-05-17T13:13:50.452Z</time>
      </trkpt>
      <trkpt lat="45.73855" lon="5.62183">
        <ele>326</ele>
        <time>2020-05-17T13:13:55.451Z</time>
      </trkpt>
      <trkpt lat="45.73863" lon="5.62183">
        <ele>326</ele>
        <time>2020-05-17T13:14:00.459Z</time>
      </trkpt>
      <trkpt lat="45.73871" lon="5.62184">
        <ele>326</ele>
        <time>2020-05-17T13:14:05.451Z</time>
      </trkpt>
      <trkpt lat="45.73877" lon="5.62185">
        <ele>325</ele>
        <time>2020-05-17T13:14:10.446Z</time>
      </trkpt>
      <trkpt lat="45.73885" lon="5.62184">
        <ele>325</ele>
        <time>2020-05-17T13:14:15.444Z</time>
      </trkpt>
      <trkpt lat="45.73891" lon="5.62184">
        <ele>325</ele>
        <time>2020-05-17T13:14:19.459Z</time>
      </trkpt>
      <trkpt lat="45.73899" lon="5.62186">
        <ele>325</ele>
        <time>2020-05-17T13:14:24.461Z</time>
      </trkpt>
      <trkpt lat="45.73908" lon="5.62186">
        <ele>325</ele>
        <time>2020-05-17T13:14:29.445Z</time>
      </trkpt>
      <trkpt lat="45.73918" lon="5.62186">
        <ele>325</ele>
        <time>2020-05-17T13:14:34.499Z</time>
      </trkpt>
      <trkpt lat="45.73928" lon="5.62185">
        <ele>325</ele>
        <time>2020-05-17T13:14:39.447Z</time>
      </trkpt>
      <trkpt lat="45.73937" lon="5.62184">
        <ele>326</ele>
        <time>2020-05-17T13:14:44.412Z</time>
      </trkpt>
      <trkpt lat="45.73946" lon="5.62183">
        <ele>326</ele>
        <time>2020-05-17T13:14:49.457Z</time>
      </trkpt>
      <trkpt lat="45.73953" lon="5.62182">
        <ele>326</ele>
        <time>2020-05-17T13:14:54.431Z</time>
      </trkpt>
      <trkpt lat="45.7396" lon="5.62183">
        <ele>327</ele>
        <time>2020-05-17T13:14:59.447Z</time>
      </trkpt>
      <trkpt lat="45.73968" lon="5.62182">
        <ele>327</ele>
        <time>2020-05-17T13:15:04.457Z</time>
      </trkpt>
      <trkpt lat="45.73975" lon="5.62182">
        <ele>327</ele>
        <time>2020-05-17T13:15:08.467Z</time>
      </trkpt>
      <trkpt lat="45.73982" lon="5.6218">
        <ele>327</ele>
        <time>2020-05-17T13:15:13.432Z</time>
      </trkpt>
      <trkpt lat="45.73988" lon="5.62179">
        <ele>328</ele>
        <time>2020-05-17T13:15:17.505Z</time>
      </trkpt>
      <trkpt lat="45.73995" lon="5.6218">
        <ele>328</ele>
        <time>2020-05-17T13:15:22.436Z</time>
      </trkpt>
      <trkpt lat="45.74001" lon="5.62178">
        <ele>328</ele>
        <time>2020-05-17T13:15:27.460Z</time>
      </trkpt>
      <trkpt lat="45.74007" lon="5.6218">
        <ele>328</ele>
        <time>2020-05-17T13:15:32.439Z</time>
      </trkpt>
      <trkpt lat="45.74013" lon="5.62181">
        <ele>327</ele>
        <time>2020-05-17T13:15:36.454Z</time>
      </trkpt>
      <trkpt lat="45.74018" lon="5.62184">
        <ele>327</ele>
        <time>2020-05-17T13:15:41.447Z</time>
      </trkpt>
      <trkpt lat="45.74016" lon="5.62194">
        <ele>327</ele>
        <time>2020-05-17T13:15:46.456Z</time>
      </trkpt>
      <trkpt lat="45.74015" lon="5.62204">
        <ele>327</ele>
        <time>2020-05-17T13:15:50.468Z</time>
      </trkpt>
      <trkpt lat="45.74013" lon="5.62214">
        <ele>327</ele>
        <time>2020-05-17T13:16:04.439Z</time>
      </trkpt>
      <trkpt lat="45.74012" lon="5.62218">
        <ele>327</ele>
        <time>2020-05-17T13:16:08.476Z</time>
      </trkpt>
      <trkpt lat="45.74012" lon="5.62222">
        <ele>327</ele>
        <time>2020-05-17T13:16:13.434Z</time>
      </trkpt>
      <trkpt lat="45.74013" lon="5.62225">
        <ele>327</ele>
        <time>2020-05-17T13:16:17.445Z</time>
      </trkpt>
      <trkpt lat="45.74015" lon="5.6223">
        <ele>326</ele>
        <time>2020-05-17T13:16:22.443Z</time>
      </trkpt>
      <trkpt lat="45.74016" lon="5.62235">
        <ele>326</ele>
        <time>2020-05-17T13:16:27.481Z</time>
      </trkpt>
      <trkpt lat="45.74017" lon="5.62242">
        <ele>326</ele>
        <time>2020-05-17T13:16:32.447Z</time>
      </trkpt>
      <trkpt lat="45.74017" lon="5.62251">
        <ele>326</ele>
        <time>2020-05-17T13:16:37.447Z</time>
      </trkpt>
      <trkpt lat="45.74017" lon="5.62259">
        <ele>326</ele>
        <time>2020-05-17T13:16:42.465Z</time>
      </trkpt>
      <trkpt lat="45.74015" lon="5.62268">
        <ele>325</ele>
        <time>2020-05-17T13:17:10.459Z</time>
      </trkpt>
      <trkpt lat="45.74013" lon="5.62272">
        <ele>326</ele>
        <time>2020-05-17T13:17:15.459Z</time>
      </trkpt>
      <trkpt lat="45.74013" lon="5.62283">
        <ele>326</ele>
        <time>2020-05-17T13:17:20.492Z</time>
      </trkpt>
      <trkpt lat="45.74013" lon="5.62293">
        <ele>326</ele>
        <time>2020-05-17T13:17:25.434Z</time>
      </trkpt>
      <trkpt lat="45.74017" lon="5.62296">
        <ele>325</ele>
        <time>2020-05-17T13:17:29.461Z</time>
      </trkpt>
      <trkpt lat="45.74024" lon="5.623">
        <ele>325</ele>
        <time>2020-05-17T13:17:34.460Z</time>
      </trkpt>
      <trkpt lat="45.74029" lon="5.62306">
        <ele>325</ele>
        <time>2020-05-17T13:17:39.446Z</time>
      </trkpt>
      <trkpt lat="45.74034" lon="5.62309">
        <ele>325</ele>
        <time>2020-05-17T13:17:44.441Z</time>
      </trkpt>
      <trkpt lat="45.74036" lon="5.62311">
        <ele>325</ele>
        <time>2020-05-17T13:17:49.437Z</time>
      </trkpt>
      <trkpt lat="45.74037" lon="5.62311">
        <ele>325</ele>
        <time>2020-05-17T13:17:54.456Z</time>
      </trkpt>
      <trkpt lat="45.74038" lon="5.62311">
        <ele>325</ele>
        <time>2020-05-17T13:17:58.499Z</time>
      </trkpt>
      <trkpt lat="45.74039" lon="5.62311">
        <ele>325</ele>
        <time>2020-05-17T13:18:03.459Z</time>
      </trkpt>
      <trkpt lat="45.74042" lon="5.62315">
        <ele>325</ele>
        <time>2020-05-17T13:18:08.465Z</time>
      </trkpt>
      <trkpt lat="45.74046" lon="5.6232">
        <ele>326</ele>
        <time>2020-05-17T13:18:13.458Z</time>
      </trkpt>
      <trkpt lat="45.74049" lon="5.62325">
        <ele>326</ele>
        <time>2020-05-17T13:18:18.439Z</time>
      </trkpt>
      <trkpt lat="45.74055" lon="5.62327">
        <ele>326</ele>
        <time>2020-05-17T13:18:23.457Z</time>
      </trkpt>
      <trkpt lat="45.7406" lon="5.6233">
        <ele>326</ele>
        <time>2020-05-17T13:18:27.439Z</time>
      </trkpt>
      <trkpt lat="45.74066" lon="5.62333">
        <ele>326</ele>
        <time>2020-05-17T13:18:32.463Z</time>
      </trkpt>
      <trkpt lat="45.74071" lon="5.62334">
        <ele>326</ele>
        <time>2020-05-17T13:18:36.456Z</time>
      </trkpt>
      <trkpt lat="45.74074" lon="5.62338">
        <ele>326</ele>
        <time>2020-05-17T13:18:40.465Z</time>
      </trkpt>
      <trkpt lat="45.74079" lon="5.62339">
        <ele>326</ele>
        <time>2020-05-17T13:18:45.496Z</time>
      </trkpt>
      <trkpt lat="45.74084" lon="5.6234">
        <ele>326</ele>
        <time>2020-05-17T13:18:50.438Z</time>
      </trkpt>
      <trkpt lat="45.74089" lon="5.62342">
        <ele>326</ele>
        <time>2020-05-17T13:18:55.449Z</time>
      </trkpt>
      <trkpt lat="45.74096" lon="5.62343">
        <ele>326</ele>
        <time>2020-05-17T13:19:00.471Z</time>
      </trkpt>
      <trkpt lat="45.74101" lon="5.62346">
        <ele>326</ele>
        <time>2020-05-17T13:19:05.453Z</time>
      </trkpt>
      <trkpt lat="45.74107" lon="5.62347">
        <ele>326</ele>
        <time>2020-05-17T13:19:10.517Z</time>
      </trkpt>
      <trkpt lat="45.74113" lon="5.62346">
        <ele>326</ele>
        <time>2020-05-17T13:19:15.438Z</time>
      </trkpt>
      <trkpt lat="45.74118" lon="5.62345">
        <ele>326</ele>
        <time>2020-05-17T13:19:19.461Z</time>
      </trkpt>
      <trkpt lat="45.74125" lon="5.62344">
        <ele>326</ele>
        <time>2020-05-17T13:19:24.472Z</time>
      </trkpt>
      <trkpt lat="45.74131" lon="5.62344">
        <ele>326</ele>
        <time>2020-05-17T13:19:29.409Z</time>
      </trkpt>
      <trkpt lat="45.74135" lon="5.62341">
        <ele>326</ele>
        <time>2020-05-17T13:19:33.496Z</time>
      </trkpt>
      <trkpt lat="45.7414" lon="5.62345">
        <ele>326</ele>
        <time>2020-05-17T13:19:38.468Z</time>
      </trkpt>
      <trkpt lat="45.74146" lon="5.62347">
        <ele>330</ele>
        <time>2020-05-17T13:19:43.464Z</time>
      </trkpt>
      <trkpt lat="45.74153" lon="5.62348">
        <ele>330</ele>
        <time>2020-05-17T13:19:48.473Z</time>
      </trkpt>
      <trkpt lat="45.74159" lon="5.62347">
        <ele>332</ele>
        <time>2020-05-17T13:19:53.449Z</time>
      </trkpt>
      <trkpt lat="45.74164" lon="5.62347">
        <ele>328</ele>
        <time>2020-05-17T13:19:57.508Z</time>
      </trkpt>
      <trkpt lat="45.74169" lon="5.62347">
        <ele>332</ele>
        <time>2020-05-17T13:20:02.464Z</time>
      </trkpt>
      <trkpt lat="45.74174" lon="5.62348">
        <ele>332</ele>
        <time>2020-05-17T13:20:07.459Z</time>
      </trkpt>
      <trkpt lat="45.7418" lon="5.62346">
        <ele>328</ele>
        <time>2020-05-17T13:20:12.440Z</time>
      </trkpt>
      <trkpt lat="45.74187" lon="5.62342">
        <ele>328</ele>
        <time>2020-05-17T13:20:17.417Z</time>
      </trkpt>
      <trkpt lat="45.74192" lon="5.62337">
        <ele>328</ele>
        <time>2020-05-17T13:20:21.480Z</time>
      </trkpt>
      <trkpt lat="45.74195" lon="5.6233">
        <ele>328</ele>
        <time>2020-05-17T13:20:26.440Z</time>
      </trkpt>
      <trkpt lat="45.742" lon="5.62325">
        <ele>328</ele>
        <time>2020-05-17T13:20:31.437Z</time>
      </trkpt>
      <trkpt lat="45.74205" lon="5.62323">
        <ele>328</ele>
        <time>2020-05-17T13:20:35.463Z</time>
      </trkpt>
      <trkpt lat="45.74212" lon="5.62324">
        <ele>329</ele>
        <time>2020-05-17T13:20:40.456Z</time>
      </trkpt>
      <trkpt lat="45.74219" lon="5.62325">
        <ele>329</ele>
        <time>2020-05-17T13:20:45.469Z</time>
      </trkpt>
      <trkpt lat="45.74225" lon="5.62326">
        <ele>329</ele>
        <time>2020-05-17T13:20:50.445Z</time>
      </trkpt>
      <trkpt lat="45.74229" lon="5.62327">
        <ele>329</ele>
        <time>2020-05-17T13:20:54.458Z</time>
      </trkpt>
      <trkpt lat="45.74236" lon="5.62329">
        <ele>331</ele>
        <time>2020-05-17T13:20:59.462Z</time>
      </trkpt>
      <trkpt lat="45.74241" lon="5.6233">
        <ele>331</ele>
        <time>2020-05-17T13:21:04.523Z</time>
      </trkpt>
      <trkpt lat="45.74247" lon="5.6233">
        <ele>331</ele>
        <time>2020-05-17T13:21:09.467Z</time>
      </trkpt>
      <trkpt lat="45.74251" lon="5.62327">
        <ele>331</ele>
        <time>2020-05-17T13:21:14.467Z</time>
      </trkpt>
      <trkpt lat="45.74257" lon="5.62325">
        <ele>331</ele>
        <time>2020-05-17T13:21:19.468Z</time>
      </trkpt>
      <trkpt lat="45.74262" lon="5.62326">
        <ele>331</ele>
        <time>2020-05-17T13:21:24.457Z</time>
      </trkpt>
      <trkpt lat="45.74265" lon="5.62325">
        <ele>330</ele>
        <time>2020-05-17T13:21:29.436Z</time>
      </trkpt>
      <trkpt lat="45.7427" lon="5.62323">
        <ele>330</ele>
        <time>2020-05-17T13:21:34.448Z</time>
      </trkpt>
      <trkpt lat="45.74273" lon="5.62322">
        <ele>330</ele>
        <time>2020-05-17T13:21:39.526Z</time>
      </trkpt>
      <trkpt lat="45.74277" lon="5.62322">
        <ele>330</ele>
        <time>2020-05-17T13:21:44.455Z</time>
      </trkpt>
      <trkpt lat="45.74284" lon="5.62323">
        <ele>330</ele>
        <time>2020-05-17T13:21:49.447Z</time>
      </trkpt>
      <trkpt lat="45.74288" lon="5.62322">
        <ele>330</ele>
        <time>2020-05-17T13:21:53.454Z</time>
      </trkpt>
      <trkpt lat="45.74294" lon="5.62324">
        <ele>330</ele>
        <time>2020-05-17T13:21:58.447Z</time>
      </trkpt>
      <trkpt lat="45.74295" lon="5.62325">
        <ele>330</ele>
        <time>2020-05-17T13:22:03.494Z</time>
      </trkpt>
      <trkpt lat="45.743" lon="5.62325">
        <ele>330</ele>
        <time>2020-05-17T13:22:08.453Z</time>
      </trkpt>
      <trkpt lat="45.74305" lon="5.62328">
        <ele>330</ele>
        <time>2020-05-17T13:22:12.451Z</time>
      </trkpt>
      <trkpt lat="45.74311" lon="5.62331">
        <ele>330</ele>
        <time>2020-05-17T13:22:17.463Z</time>
      </trkpt>
      <trkpt lat="45.74315" lon="5.62335">
        <ele>330</ele>
        <time>2020-05-17T13:22:22.474Z</time>
      </trkpt>
      <trkpt lat="45.74325" lon="5.62342">
        <ele>329</ele>
        <time>2020-05-17T13:22:27.455Z</time>
      </trkpt>
      <trkpt lat="45.74336" lon="5.62347">
        <ele>329</ele>
        <time>2020-05-17T13:22:32.444Z</time>
      </trkpt>
      <trkpt lat="45.74343" lon="5.62347">
        <ele>329</ele>
        <time>2020-05-17T13:22:37.480Z</time>
      </trkpt>
      <trkpt lat="45.74349" lon="5.6235">
        <ele>333</ele>
        <time>2020-05-17T13:22:42.449Z</time>
      </trkpt>
      <trkpt lat="45.74352" lon="5.62353">
        <ele>333</ele>
        <time>2020-05-17T13:22:47.505Z</time>
      </trkpt>
      <trkpt lat="45.74353" lon="5.62359">
        <ele>333</ele>
        <time>2020-05-17T13:22:52.453Z</time>
      </trkpt>
      <trkpt lat="45.74354" lon="5.62364">
        <ele>333</ele>
        <time>2020-05-17T13:22:57.441Z</time>
      </trkpt>
      <trkpt lat="45.7436" lon="5.62367">
        <ele>333</ele>
        <time>2020-05-17T13:23:01.441Z</time>
      </trkpt>
      <trkpt lat="45.7437" lon="5.62365">
        <ele>333</ele>
        <time>2020-05-17T13:23:05.461Z</time>
      </trkpt>
      <trkpt lat="45.74386" lon="5.6236">
        <ele>335</ele>
        <time>2020-05-17T13:23:10.447Z</time>
      </trkpt>
      <trkpt lat="45.7441" lon="5.62357">
        <ele>335</ele>
        <time>2020-05-17T13:23:15.458Z</time>
      </trkpt>
      <trkpt lat="45.74429" lon="5.62357">
        <ele>335</ele>
        <time>2020-05-17T13:23:19.473Z</time>
      </trkpt>
      <trkpt lat="45.74453" lon="5.62355">
        <ele>336</ele>
        <time>2020-05-17T13:23:24.463Z</time>
      </trkpt>
      <trkpt lat="45.74469" lon="5.62356">
        <ele>338</ele>
        <time>2020-05-17T13:23:28.441Z</time>
      </trkpt>
      <trkpt lat="45.74493" lon="5.62358">
        <ele>337</ele>
        <time>2020-05-17T13:23:33.434Z</time>
      </trkpt>
      <trkpt lat="45.74523" lon="5.62357">
        <ele>339</ele>
        <time>2020-05-17T13:23:38.443Z</time>
      </trkpt>
      <trkpt lat="45.74555" lon="5.62357">
        <ele>338</ele>
        <time>2020-05-17T13:23:43.473Z</time>
      </trkpt>
      <trkpt lat="45.74583" lon="5.62356">
        <ele>336</ele>
        <time>2020-05-17T13:23:48.436Z</time>
      </trkpt>
      <trkpt lat="45.7461" lon="5.62363">
        <ele>336</ele>
        <time>2020-05-17T13:23:53.450Z</time>
      </trkpt>
      <trkpt lat="45.74638" lon="5.62373">
        <ele>337</ele>
        <time>2020-05-17T13:23:58.512Z</time>
      </trkpt>
      <trkpt lat="45.74664" lon="5.62375">
        <ele>337</ele>
        <time>2020-05-17T13:24:03.457Z</time>
      </trkpt>
      <trkpt lat="45.74689" lon="5.62377">
        <ele>348</ele>
        <time>2020-05-17T13:24:08.447Z</time>
      </trkpt>
      <trkpt lat="45.74715" lon="5.62378">
        <ele>350</ele>
        <time>2020-05-17T13:24:13.436Z</time>
      </trkpt>
      <trkpt lat="45.74741" lon="5.62385">
        <ele>349</ele>
        <time>2020-05-17T13:24:18.454Z</time>
      </trkpt>
      <trkpt lat="45.7477" lon="5.62387">
        <ele>348</ele>
        <time>2020-05-17T13:24:23.453Z</time>
      </trkpt>
      <trkpt lat="45.74792" lon="5.62388">
        <ele>346</ele>
        <time>2020-05-17T13:24:27.456Z</time>
      </trkpt>
      <trkpt lat="45.74819" lon="5.62385">
        <ele>346</ele>
        <time>2020-05-17T13:24:32.459Z</time>
      </trkpt>
      <trkpt lat="45.74837" lon="5.62381">
        <ele>343</ele>
        <time>2020-05-17T13:24:37.443Z</time>
      </trkpt>
      <trkpt lat="45.74848" lon="5.62381">
        <ele>344</ele>
        <time>2020-05-17T13:24:42.447Z</time>
      </trkpt>
      <trkpt lat="45.74851" lon="5.62382">
        <ele>344</ele>
        <time>2020-05-17T13:24:46.462Z</time>
      </trkpt>
      <trkpt lat="45.74859" lon="5.62382">
        <ele>344</ele>
        <time>2020-05-17T13:24:51.450Z</time>
      </trkpt>
      <trkpt lat="45.74866" lon="5.62384">
        <ele>344</ele>
        <time>2020-05-17T13:24:56.433Z</time>
      </trkpt>
      <trkpt lat="45.74879" lon="5.62385">
        <ele>342</ele>
        <time>2020-05-17T13:25:06.478Z</time>
      </trkpt>
      <trkpt lat="45.74889" lon="5.62386">
        <ele>342</ele>
        <time>2020-05-17T13:25:11.443Z</time>
      </trkpt>
      <trkpt lat="45.74891" lon="5.62386">
        <ele>342</ele>
        <time>2020-05-17T13:25:15.450Z</time>
      </trkpt>
      <trkpt lat="45.749" lon="5.62384">
        <ele>342</ele>
        <time>2020-05-17T13:25:20.450Z</time>
      </trkpt>
      <trkpt lat="45.74908" lon="5.62382">
        <ele>342</ele>
        <time>2020-05-17T13:25:25.473Z</time>
      </trkpt>
      <trkpt lat="45.74922" lon="5.62384">
        <ele>342</ele>
        <time>2020-05-17T13:25:30.422Z</time>
      </trkpt>
      <trkpt lat="45.74936" lon="5.62384">
        <ele>341</ele>
        <time>2020-05-17T13:25:34.443Z</time>
      </trkpt>
      <trkpt lat="45.74958" lon="5.62384">
        <ele>341</ele>
        <time>2020-05-17T13:25:39.440Z</time>
      </trkpt>
      <trkpt lat="45.7498" lon="5.62385">
        <ele>342</ele>
        <time>2020-05-17T13:25:44.475Z</time>
      </trkpt>
      <trkpt lat="45.75" lon="5.62391">
        <ele>342</ele>
        <time>2020-05-17T13:25:49.450Z</time>
      </trkpt>
      <trkpt lat="45.75024" lon="5.6239">
        <ele>341</ele>
        <time>2020-05-17T13:25:54.431Z</time>
      </trkpt>
      <trkpt lat="45.75042" lon="5.62397">
        <ele>343</ele>
        <time>2020-05-17T13:25:58.441Z</time>
      </trkpt>
      <trkpt lat="45.75072" lon="5.62403">
        <ele>357</ele>
        <time>2020-05-17T13:26:03.445Z</time>
      </trkpt>
      <trkpt lat="45.75099" lon="5.62407">
        <ele>356</ele>
        <time>2020-05-17T13:26:08.437Z</time>
      </trkpt>
      <trkpt lat="45.75125" lon="5.62414">
        <ele>356</ele>
        <time>2020-05-17T13:26:13.462Z</time>
      </trkpt>
      <trkpt lat="45.7516" lon="5.62404">
        <ele>353</ele>
        <time>2020-05-17T13:26:18.465Z</time>
      </trkpt>
      <trkpt lat="45.75174" lon="5.62393">
        <ele>342</ele>
        <time>2020-05-17T13:26:23.446Z</time>
      </trkpt>
      <trkpt lat="45.75176" lon="5.62383">
        <ele>342</ele>
        <time>2020-05-17T13:27:11.417Z</time>
      </trkpt>
      <trkpt lat="45.75177" lon="5.62371">
        <ele>336</ele>
        <time>2020-05-17T13:28:39.437Z</time>
      </trkpt>
      <trkpt lat="45.75177" lon="5.6237">
        <ele>336</ele>
        <time>2020-05-17T13:28:43.504Z</time>
      </trkpt>
      <trkpt lat="45.7518" lon="5.62385">
        <ele>342</ele>
        <time>2020-05-17T13:33:33.444Z</time>
      </trkpt>
      <trkpt lat="45.7518" lon="5.62386">
        <ele>342</ele>
        <time>2020-05-17T13:33:38.470Z</time>
      </trkpt>
      <trkpt lat="45.7518" lon="5.62386">
        <ele>342</ele>
        <time>2020-05-17T13:33:43.407Z</time>
      </trkpt>
      <trkpt lat="45.75181" lon="5.62385">
        <ele>343</ele>
        <time>2020-05-17T13:33:47.460Z</time>
      </trkpt>
      <trkpt lat="45.75182" lon="5.62389">
        <ele>343</ele>
        <time>2020-05-17T13:33:52.511Z</time>
      </trkpt>
      <trkpt lat="45.75186" lon="5.62387">
        <ele>343</ele>
        <time>2020-05-17T13:36:35.516Z</time>
      </trkpt>
      <trkpt lat="45.75178" lon="5.62386">
        <ele>342</ele>
        <time>2020-05-17T13:36:40.486Z</time>
      </trkpt>
      <trkpt lat="45.75175" lon="5.62386">
        <ele>342</ele>
        <time>2020-05-17T13:36:45.444Z</time>
      </trkpt>
      <trkpt lat="45.75173" lon="5.62386">
        <ele>342</ele>
        <time>2020-05-17T13:36:49.457Z</time>
      </trkpt>
      <trkpt lat="45.75172" lon="5.62386">
        <ele>342</ele>
        <time>2020-05-17T13:36:53.454Z</time>
      </trkpt>
      <trkpt lat="45.75172" lon="5.62386">
        <ele>342</ele>
        <time>2020-05-17T13:37:03.438Z</time>
      </trkpt>
      <trkpt lat="45.75173" lon="5.62387">
        <ele>342</ele>
        <time>2020-05-17T13:37:08.410Z</time>
      </trkpt>
      <trkpt lat="45.75176" lon="5.62383">
        <ele>342</ele>
        <time>2020-05-17T13:37:13.427Z</time>
      </trkpt>
      <trkpt lat="45.75178" lon="5.62385">
        <ele>342</ele>
        <time>2020-05-17T13:37:18.387Z</time>
      </trkpt>
      <trkpt lat="45.75181" lon="5.62386">
        <ele>343</ele>
        <time>2020-05-17T13:37:22.419Z</time>
      </trkpt>
      <trkpt lat="45.75182" lon="5.62382">
        <ele>343</ele>
        <time>2020-05-17T13:39:17.436Z</time>
      </trkpt>
      <trkpt lat="45.75187" lon="5.62383">
        <ele>343</ele>
        <time>2020-05-17T13:39:22.455Z</time>
      </trkpt>
      <trkpt lat="45.7519" lon="5.62383">
        <ele>343</ele>
        <time>2020-05-17T13:39:27.429Z</time>
      </trkpt>
      <trkpt lat="45.75195" lon="5.62382">
        <ele>343</ele>
        <time>2020-05-17T13:39:31.474Z</time>
      </trkpt>
      <trkpt lat="45.75201" lon="5.62382">
        <ele>343</ele>
        <time>2020-05-17T13:39:36.470Z</time>
      </trkpt>
      <trkpt lat="45.75218" lon="5.62382">
        <ele>344</ele>
        <time>2020-05-17T13:39:40.458Z</time>
      </trkpt>
      <trkpt lat="45.75234" lon="5.62386">
        <ele>344</ele>
        <time>2020-05-17T13:39:44.486Z</time>
      </trkpt>
      <trkpt lat="45.75254" lon="5.62392">
        <ele>345</ele>
        <time>2020-05-17T13:39:49.439Z</time>
      </trkpt>
      <trkpt lat="45.75277" lon="5.62396">
        <ele>344</ele>
        <time>2020-05-17T13:39:54.449Z</time>
      </trkpt>
      <trkpt lat="45.75295" lon="5.62398">
        <ele>343</ele>
        <time>2020-05-17T13:39:58.459Z</time>
      </trkpt>
      <trkpt lat="45.75324" lon="5.62397">
        <ele>342</ele>
        <time>2020-05-17T13:40:03.457Z</time>
      </trkpt>
      <trkpt lat="45.75351" lon="5.624">
        <ele>343</ele>
        <time>2020-05-17T13:40:08.458Z</time>
      </trkpt>
      <trkpt lat="45.75376" lon="5.62405">
        <ele>350</ele>
        <time>2020-05-17T13:40:13.454Z</time>
      </trkpt>
      <trkpt lat="45.75405" lon="5.62407">
        <ele>351</ele>
        <time>2020-05-17T13:40:18.460Z</time>
      </trkpt>
      <trkpt lat="45.75429" lon="5.62413">
        <ele>351</ele>
        <time>2020-05-17T13:40:23.480Z</time>
      </trkpt>
      <trkpt lat="45.75451" lon="5.62424">
        <ele>350</ele>
        <time>2020-05-17T13:40:28.427Z</time>
      </trkpt>
      <trkpt lat="45.75468" lon="5.62435">
        <ele>355</ele>
        <time>2020-05-17T13:40:32.433Z</time>
      </trkpt>
      <trkpt lat="45.75491" lon="5.62443">
        <ele>350</ele>
        <time>2020-05-17T13:40:37.430Z</time>
      </trkpt>
      <trkpt lat="45.75514" lon="5.62448">
        <ele>350</ele>
        <time>2020-05-17T13:40:41.436Z</time>
      </trkpt>
      <trkpt lat="45.75539" lon="5.62454">
        <ele>346</ele>
        <time>2020-05-17T13:40:46.441Z</time>
      </trkpt>
      <trkpt lat="45.75569" lon="5.62462">
        <ele>352</ele>
        <time>2020-05-17T13:40:51.439Z</time>
      </trkpt>
      <trkpt lat="45.75596" lon="5.62469">
        <ele>351</ele>
        <time>2020-05-17T13:40:55.440Z</time>
      </trkpt>
      <trkpt lat="45.75623" lon="5.62475">
        <ele>349</ele>
        <time>2020-05-17T13:41:00.469Z</time>
      </trkpt>
      <trkpt lat="45.75641" lon="5.62475">
        <ele>346</ele>
        <time>2020-05-17T13:41:05.464Z</time>
      </trkpt>
      <trkpt lat="45.75649" lon="5.62473">
        <ele>346</ele>
        <time>2020-05-17T13:41:10.472Z</time>
      </trkpt>
      <trkpt lat="45.75664" lon="5.62472">
        <ele>347</ele>
        <time>2020-05-17T13:41:15.445Z</time>
      </trkpt>
      <trkpt lat="45.75681" lon="5.62469">
        <ele>347</ele>
        <time>2020-05-17T13:41:20.454Z</time>
      </trkpt>
      <trkpt lat="45.75688" lon="5.62468">
        <ele>347</ele>
        <time>2020-05-17T13:41:25.446Z</time>
      </trkpt>
      <trkpt lat="45.75698" lon="5.62466">
        <ele>347</ele>
        <time>2020-05-17T13:41:30.480Z</time>
      </trkpt>
      <trkpt lat="45.75707" lon="5.62465">
        <ele>347</ele>
        <time>2020-05-17T13:41:35.447Z</time>
      </trkpt>
      <trkpt lat="45.75713" lon="5.62464">
        <ele>349</ele>
        <time>2020-05-17T13:41:40.460Z</time>
      </trkpt>
      <trkpt lat="45.7572" lon="5.62462">
        <ele>349</ele>
        <time>2020-05-17T13:41:45.460Z</time>
      </trkpt>
      <trkpt lat="45.75727" lon="5.62461">
        <ele>349</ele>
        <time>2020-05-17T13:41:50.422Z</time>
      </trkpt>
      <trkpt lat="45.75742" lon="5.6246">
        <ele>351</ele>
        <time>2020-05-17T13:41:54.447Z</time>
      </trkpt>
      <trkpt lat="45.75757" lon="5.62464">
        <ele>351</ele>
        <time>2020-05-17T13:41:58.519Z</time>
      </trkpt>
      <trkpt lat="45.75778" lon="5.6247">
        <ele>351</ele>
        <time>2020-05-17T13:42:03.471Z</time>
      </trkpt>
      <trkpt lat="45.758" lon="5.62478">
        <ele>352</ele>
        <time>2020-05-17T13:42:08.462Z</time>
      </trkpt>
      <trkpt lat="45.75825" lon="5.62481">
        <ele>353</ele>
        <time>2020-05-17T13:42:13.444Z</time>
      </trkpt>
      <trkpt lat="45.75853" lon="5.62488">
        <ele>354</ele>
        <time>2020-05-17T13:42:18.438Z</time>
      </trkpt>
      <trkpt lat="45.75875" lon="5.62501">
        <ele>354</ele>
        <time>2020-05-17T13:42:23.480Z</time>
      </trkpt>
      <trkpt lat="45.75894" lon="5.62516">
        <ele>355</ele>
        <time>2020-05-17T13:42:28.479Z</time>
      </trkpt>
      <trkpt lat="45.75921" lon="5.62527">
        <ele>353</ele>
        <time>2020-05-17T13:42:33.471Z</time>
      </trkpt>
      <trkpt lat="45.75953" lon="5.62529">
        <ele>350</ele>
        <time>2020-05-17T13:42:38.461Z</time>
      </trkpt>
      <trkpt lat="45.75985" lon="5.62535">
        <ele>350</ele>
        <time>2020-05-17T13:42:43.406Z</time>
      </trkpt>
      <trkpt lat="45.7601" lon="5.62542">
        <ele>353</ele>
        <time>2020-05-17T13:42:47.444Z</time>
      </trkpt>
      <trkpt lat="45.76042" lon="5.62562">
        <ele>351</ele>
        <time>2020-05-17T13:42:52.441Z</time>
      </trkpt>
      <trkpt lat="45.76068" lon="5.62581">
        <ele>353</ele>
        <time>2020-05-17T13:42:57.438Z</time>
      </trkpt>
      <trkpt lat="45.76077" lon="5.62592">
        <ele>351</ele>
        <time>2020-05-17T13:43:02.433Z</time>
      </trkpt>
      <trkpt lat="45.76083" lon="5.62601">
        <ele>353</ele>
        <time>2020-05-17T13:43:07.423Z</time>
      </trkpt>
      <trkpt lat="45.76087" lon="5.62611">
        <ele>353</ele>
        <time>2020-05-17T13:43:11.445Z</time>
      </trkpt>
      <trkpt lat="45.76088" lon="5.62614">
        <ele>353</ele>
        <time>2020-05-17T13:43:15.455Z</time>
      </trkpt>
      <trkpt lat="45.76092" lon="5.62625">
        <ele>353</ele>
        <time>2020-05-17T13:43:20.441Z</time>
      </trkpt>
      <trkpt lat="45.76098" lon="5.62633">
        <ele>353</ele>
        <time>2020-05-17T13:43:29.456Z</time>
      </trkpt>
      <trkpt lat="45.76107" lon="5.62644">
        <ele>353</ele>
        <time>2020-05-17T13:43:39.462Z</time>
      </trkpt>
      <trkpt lat="45.76118" lon="5.62653">
        <ele>356</ele>
        <time>2020-05-17T13:43:44.459Z</time>
      </trkpt>
      <trkpt lat="45.76132" lon="5.62663">
        <ele>354</ele>
        <time>2020-05-17T13:43:54.498Z</time>
      </trkpt>
      <trkpt lat="45.76136" lon="5.62666">
        <ele>354</ele>
        <time>2020-05-17T13:43:59.462Z</time>
      </trkpt>
      <trkpt lat="45.76142" lon="5.6267">
        <ele>354</ele>
        <time>2020-05-17T13:44:04.469Z</time>
      </trkpt>
      <trkpt lat="45.76148" lon="5.62676">
        <ele>354</ele>
        <time>2020-05-17T13:44:09.483Z</time>
      </trkpt>
      <trkpt lat="45.76158" lon="5.62684">
        <ele>353</ele>
        <time>2020-05-17T13:44:14.451Z</time>
      </trkpt>
      <trkpt lat="45.76165" lon="5.62692">
        <ele>353</ele>
        <time>2020-05-17T13:44:19.473Z</time>
      </trkpt>
      <trkpt lat="45.7617" lon="5.62702">
        <ele>353</ele>
        <time>2020-05-17T13:44:24.430Z</time>
      </trkpt>
      <trkpt lat="45.76174" lon="5.62713">
        <ele>355</ele>
        <time>2020-05-17T13:44:29.466Z</time>
      </trkpt>
      <trkpt lat="45.76177" lon="5.62724">
        <ele>355</ele>
        <time>2020-05-17T13:44:34.437Z</time>
      </trkpt>
      <trkpt lat="45.76178" lon="5.62733">
        <ele>355</ele>
        <time>2020-05-17T13:44:39.455Z</time>
      </trkpt>
      <trkpt lat="45.7618" lon="5.6274">
        <ele>357</ele>
        <time>2020-05-17T13:44:43.446Z</time>
      </trkpt>
      <trkpt lat="45.76182" lon="5.62748">
        <ele>353</ele>
        <time>2020-05-17T13:44:48.498Z</time>
      </trkpt>
      <trkpt lat="45.76185" lon="5.62753">
        <ele>353</ele>
        <time>2020-05-17T13:44:53.437Z</time>
      </trkpt>
      <trkpt lat="45.76189" lon="5.62757">
        <ele>353</ele>
        <time>2020-05-17T13:44:58.440Z</time>
      </trkpt>
      <trkpt lat="45.76196" lon="5.6276">
        <ele>353</ele>
        <time>2020-05-17T13:45:03.447Z</time>
      </trkpt>
      <trkpt lat="45.76202" lon="5.62763">
        <ele>353</ele>
        <time>2020-05-17T13:45:08.465Z</time>
      </trkpt>
      <trkpt lat="45.76208" lon="5.62765">
        <ele>355</ele>
        <time>2020-05-17T13:45:12.506Z</time>
      </trkpt>
      <trkpt lat="45.76214" lon="5.62768">
        <ele>352</ele>
        <time>2020-05-17T13:45:17.441Z</time>
      </trkpt>
      <trkpt lat="45.76221" lon="5.62773">
        <ele>352</ele>
        <time>2020-05-17T13:45:22.447Z</time>
      </trkpt>
      <trkpt lat="45.76227" lon="5.62775">
        <ele>352</ele>
        <time>2020-05-17T13:45:26.454Z</time>
      </trkpt>
      <trkpt lat="45.76233" lon="5.62781">
        <ele>352</ele>
        <time>2020-05-17T13:45:31.441Z</time>
      </trkpt>
      <trkpt lat="45.76241" lon="5.62787">
        <ele>349</ele>
        <time>2020-05-17T13:45:36.475Z</time>
      </trkpt>
      <trkpt lat="45.76251" lon="5.62793">
        <ele>350</ele>
        <time>2020-05-17T13:45:41.454Z</time>
      </trkpt>
      <trkpt lat="45.76258" lon="5.62797">
        <ele>350</ele>
        <time>2020-05-17T13:45:45.467Z</time>
      </trkpt>
      <trkpt lat="45.76263" lon="5.62806">
        <ele>350</ele>
        <time>2020-05-17T13:45:50.468Z</time>
      </trkpt>
      <trkpt lat="45.76265" lon="5.62818">
        <ele>348</ele>
        <time>2020-05-17T13:45:55.445Z</time>
      </trkpt>
      <trkpt lat="45.76266" lon="5.62827">
        <ele>349</ele>
        <time>2020-05-17T13:46:00.444Z</time>
      </trkpt>
      <trkpt lat="45.76266" lon="5.62835">
        <ele>349</ele>
        <time>2020-05-17T13:46:04.445Z</time>
      </trkpt>
      <trkpt lat="45.76266" lon="5.62845">
        <ele>349</ele>
        <time>2020-05-17T13:46:09.458Z</time>
      </trkpt>
      <trkpt lat="45.76266" lon="5.62854">
        <ele>351</ele>
        <time>2020-05-17T13:46:14.451Z</time>
      </trkpt>
      <trkpt lat="45.76265" lon="5.62863">
        <ele>351</ele>
        <time>2020-05-17T13:46:19.454Z</time>
      </trkpt>
      <trkpt lat="45.7626" lon="5.62877">
        <ele>351</ele>
        <time>2020-05-17T13:46:29.478Z</time>
      </trkpt>
      <trkpt lat="45.76251" lon="5.6288">
        <ele>351</ele>
        <time>2020-05-17T13:46:34.485Z</time>
      </trkpt>
      <trkpt lat="45.76244" lon="5.6288">
        <ele>351</ele>
        <time>2020-05-17T13:46:39.443Z</time>
      </trkpt>
      <trkpt lat="45.76237" lon="5.62881">
        <ele>351</ele>
        <time>2020-05-17T13:46:44.445Z</time>
      </trkpt>
      <trkpt lat="45.76231" lon="5.62881">
        <ele>353</ele>
        <time>2020-05-17T13:46:48.481Z</time>
      </trkpt>
      <trkpt lat="45.76224" lon="5.62885">
        <ele>353</ele>
        <time>2020-05-17T13:46:53.468Z</time>
      </trkpt>
      <trkpt lat="45.76215" lon="5.62892">
        <ele>353</ele>
        <time>2020-05-17T13:46:58.469Z</time>
      </trkpt>
      <trkpt lat="45.76209" lon="5.629">
        <ele>353</ele>
        <time>2020-05-17T13:47:03.453Z</time>
      </trkpt>
      <trkpt lat="45.76203" lon="5.62907">
        <ele>353</ele>
        <time>2020-05-17T13:47:08.461Z</time>
      </trkpt>
      <trkpt lat="45.76199" lon="5.62912">
        <ele>353</ele>
        <time>2020-05-17T13:47:13.448Z</time>
      </trkpt>
      <trkpt lat="45.76195" lon="5.62916">
        <ele>353</ele>
        <time>2020-05-17T13:47:17.505Z</time>
      </trkpt>
      <trkpt lat="45.76188" lon="5.62922">
        <ele>353</ele>
        <time>2020-05-17T13:47:22.464Z</time>
      </trkpt>
      <trkpt lat="45.76183" lon="5.62928">
        <ele>353</ele>
        <time>2020-05-17T13:47:27.477Z</time>
      </trkpt>
      <trkpt lat="45.76178" lon="5.62934">
        <ele>352</ele>
        <time>2020-05-17T13:47:32.434Z</time>
      </trkpt>
      <trkpt lat="45.76175" lon="5.62941">
        <ele>352</ele>
        <time>2020-05-17T13:47:36.448Z</time>
      </trkpt>
      <trkpt lat="45.76171" lon="5.6295">
        <ele>352</ele>
        <time>2020-05-17T13:47:41.445Z</time>
      </trkpt>
      <trkpt lat="45.76169" lon="5.62955">
        <ele>352</ele>
        <time>2020-05-17T13:47:46.468Z</time>
      </trkpt>
      <trkpt lat="45.76166" lon="5.62962">
        <ele>351</ele>
        <time>2020-05-17T13:47:51.470Z</time>
      </trkpt>
      <trkpt lat="45.76164" lon="5.62972">
        <ele>351</ele>
        <time>2020-05-17T13:47:56.449Z</time>
      </trkpt>
      <trkpt lat="45.76164" lon="5.62981">
        <ele>351</ele>
        <time>2020-05-17T13:48:01.430Z</time>
      </trkpt>
      <trkpt lat="45.76165" lon="5.62989">
        <ele>350</ele>
        <time>2020-05-17T13:48:06.412Z</time>
      </trkpt>
      <trkpt lat="45.76167" lon="5.62997">
        <ele>350</ele>
        <time>2020-05-17T13:48:10.468Z</time>
      </trkpt>
      <trkpt lat="45.76169" lon="5.6301">
        <ele>350</ele>
        <time>2020-05-17T13:48:15.483Z</time>
      </trkpt>
      <trkpt lat="45.76171" lon="5.63022">
        <ele>350</ele>
        <time>2020-05-17T13:48:20.470Z</time>
      </trkpt>
      <trkpt lat="45.76172" lon="5.6303">
        <ele>350</ele>
        <time>2020-05-17T13:48:24.461Z</time>
      </trkpt>
      <trkpt lat="45.76173" lon="5.63037">
        <ele>350</ele>
        <time>2020-05-17T13:48:29.464Z</time>
      </trkpt>
      <trkpt lat="45.76173" lon="5.63043">
        <ele>353</ele>
        <time>2020-05-17T13:48:33.464Z</time>
      </trkpt>
      <trkpt lat="45.76172" lon="5.63052">
        <ele>353</ele>
        <time>2020-05-17T13:48:38.453Z</time>
      </trkpt>
      <trkpt lat="45.7617" lon="5.63064">
        <ele>353</ele>
        <time>2020-05-17T13:48:43.459Z</time>
      </trkpt>
      <trkpt lat="45.7617" lon="5.63075">
        <ele>357</ele>
        <time>2020-05-17T13:48:48.443Z</time>
      </trkpt>
      <trkpt lat="45.76171" lon="5.63086">
        <ele>357</ele>
        <time>2020-05-17T13:48:53.452Z</time>
      </trkpt>
      <trkpt lat="45.76171" lon="5.63094">
        <ele>357</ele>
        <time>2020-05-17T13:48:58.455Z</time>
      </trkpt>
      <trkpt lat="45.76172" lon="5.631">
        <ele>361</ele>
        <time>2020-05-17T13:49:02.465Z</time>
      </trkpt>
      <trkpt lat="45.76176" lon="5.63108">
        <ele>361</ele>
        <time>2020-05-17T13:49:07.440Z</time>
      </trkpt>
      <trkpt lat="45.7618" lon="5.63111">
        <ele>361</ele>
        <time>2020-05-17T13:49:12.461Z</time>
      </trkpt>
      <trkpt lat="45.76186" lon="5.63111">
        <ele>358</ele>
        <time>2020-05-17T13:49:17.457Z</time>
      </trkpt>
      <trkpt lat="45.76191" lon="5.6311">
        <ele>358</ele>
        <time>2020-05-17T13:49:21.483Z</time>
      </trkpt>
      <trkpt lat="45.76198" lon="5.63106">
        <ele>358</ele>
        <time>2020-05-17T13:49:26.449Z</time>
      </trkpt>
      <trkpt lat="45.76203" lon="5.63106">
        <ele>358</ele>
        <time>2020-05-17T13:49:31.515Z</time>
      </trkpt>
      <trkpt lat="45.76211" lon="5.63104">
        <ele>358</ele>
        <time>2020-05-17T13:49:36.447Z</time>
      </trkpt>
      <trkpt lat="45.76217" lon="5.63103">
        <ele>358</ele>
        <time>2020-05-17T13:49:41.424Z</time>
      </trkpt>
      <trkpt lat="45.76225" lon="5.63102">
        <ele>358</ele>
        <time>2020-05-17T13:49:46.435Z</time>
      </trkpt>
      <trkpt lat="45.76233" lon="5.63102">
        <ele>358</ele>
        <time>2020-05-17T13:49:51.459Z</time>
      </trkpt>
      <trkpt lat="45.7624" lon="5.63102">
        <ele>359</ele>
        <time>2020-05-17T13:49:56.471Z</time>
      </trkpt>
      <trkpt lat="45.76247" lon="5.63103">
        <ele>359</ele>
        <time>2020-05-17T13:50:01.452Z</time>
      </trkpt>
      <trkpt lat="45.76252" lon="5.63102">
        <ele>359</ele>
        <time>2020-05-17T13:50:06.452Z</time>
      </trkpt>
      <trkpt lat="45.76253" lon="5.63102">
        <ele>359</ele>
        <time>2020-05-17T13:50:10.504Z</time>
      </trkpt>
      <trkpt lat="45.76254" lon="5.63102">
        <ele>359</ele>
        <time>2020-05-17T13:50:15.442Z</time>
      </trkpt>
      <trkpt lat="45.76261" lon="5.63106">
        <ele>359</ele>
        <time>2020-05-17T13:50:20.448Z</time>
      </trkpt>
      <trkpt lat="45.76269" lon="5.63113">
        <ele>357</ele>
        <time>2020-05-17T13:50:25.465Z</time>
      </trkpt>
      <trkpt lat="45.76284" lon="5.6312">
        <ele>357</ele>
        <time>2020-05-17T13:50:30.467Z</time>
      </trkpt>
      <trkpt lat="45.76292" lon="5.63124">
        <ele>357</ele>
        <time>2020-05-17T13:50:35.487Z</time>
      </trkpt>
      <trkpt lat="45.76299" lon="5.63128">
        <ele>359</ele>
        <time>2020-05-17T13:50:40.458Z</time>
      </trkpt>
      <trkpt lat="45.76308" lon="5.63134">
        <ele>359</ele>
        <time>2020-05-17T13:50:45.515Z</time>
      </trkpt>
      <trkpt lat="45.76314" lon="5.6314">
        <ele>359</ele>
        <time>2020-05-17T13:50:50.437Z</time>
      </trkpt>
      <trkpt lat="45.76318" lon="5.63146">
        <ele>359</ele>
        <time>2020-05-17T13:50:55.461Z</time>
      </trkpt>
      <trkpt lat="45.76324" lon="5.63152">
        <ele>358</ele>
        <time>2020-05-17T13:51:00.473Z</time>
      </trkpt>
      <trkpt lat="45.76329" lon="5.63157">
        <ele>358</ele>
        <time>2020-05-17T13:51:04.493Z</time>
      </trkpt>
      <trkpt lat="45.76334" lon="5.63164">
        <ele>358</ele>
        <time>2020-05-17T13:51:09.444Z</time>
      </trkpt>
      <trkpt lat="45.7634" lon="5.63171">
        <ele>358</ele>
        <time>2020-05-17T13:51:14.460Z</time>
      </trkpt>
      <trkpt lat="45.76347" lon="5.63177">
        <ele>357</ele>
        <time>2020-05-17T13:51:19.451Z</time>
      </trkpt>
      <trkpt lat="45.76351" lon="5.63183">
        <ele>355</ele>
        <time>2020-05-17T13:51:23.487Z</time>
      </trkpt>
      <trkpt lat="45.76353" lon="5.6319">
        <ele>355</ele>
        <time>2020-05-17T13:51:28.450Z</time>
      </trkpt>
      <trkpt lat="45.76356" lon="5.63196">
        <ele>355</ele>
        <time>2020-05-17T13:51:32.454Z</time>
      </trkpt>
      <trkpt lat="45.76357" lon="5.63202">
        <ele>355</ele>
        <time>2020-05-17T13:51:37.439Z</time>
      </trkpt>
      <trkpt lat="45.76357" lon="5.63209">
        <ele>352</ele>
        <time>2020-05-17T13:51:42.472Z</time>
      </trkpt>
      <trkpt lat="45.7636" lon="5.63217">
        <ele>352</ele>
        <time>2020-05-17T13:51:47.454Z</time>
      </trkpt>
      <trkpt lat="45.76363" lon="5.63223">
        <ele>352</ele>
        <time>2020-05-17T13:51:51.479Z</time>
      </trkpt>
      <trkpt lat="45.76367" lon="5.63225">
        <ele>352</ele>
        <time>2020-05-17T13:51:56.414Z</time>
      </trkpt>
      <trkpt lat="45.76371" lon="5.63224">
        <ele>352</ele>
        <time>2020-05-17T13:52:01.417Z</time>
      </trkpt>
      <trkpt lat="45.76377" lon="5.63225">
        <ele>353</ele>
        <time>2020-05-17T13:52:05.441Z</time>
      </trkpt>
      <trkpt lat="45.76384" lon="5.63226">
        <ele>353</ele>
        <time>2020-05-17T13:52:09.478Z</time>
      </trkpt>
      <trkpt lat="45.76392" lon="5.63227">
        <ele>353</ele>
        <time>2020-05-17T13:52:14.444Z</time>
      </trkpt>
      <trkpt lat="45.764" lon="5.63228">
        <ele>353</ele>
        <time>2020-05-17T13:52:19.463Z</time>
      </trkpt>
      <trkpt lat="45.76407" lon="5.63227">
        <ele>354</ele>
        <time>2020-05-17T13:52:24.458Z</time>
      </trkpt>
      <trkpt lat="45.76414" lon="5.63227">
        <ele>354</ele>
        <time>2020-05-17T13:52:28.478Z</time>
      </trkpt>
      <trkpt lat="45.76421" lon="5.63227">
        <ele>354</ele>
        <time>2020-05-17T13:52:33.442Z</time>
      </trkpt>
      <trkpt lat="45.76424" lon="5.63227">
        <ele>354</ele>
        <time>2020-05-17T13:52:37.454Z</time>
      </trkpt>
      <trkpt lat="45.76429" lon="5.63228">
        <ele>354</ele>
        <time>2020-05-17T13:52:42.443Z</time>
      </trkpt>
      <trkpt lat="45.76434" lon="5.63228">
        <ele>355</ele>
        <time>2020-05-17T13:52:46.462Z</time>
      </trkpt>
      <trkpt lat="45.76439" lon="5.63232">
        <ele>355</ele>
        <time>2020-05-17T13:52:51.413Z</time>
      </trkpt>
      <trkpt lat="45.76441" lon="5.63237">
        <ele>352</ele>
        <time>2020-05-17T13:52:55.467Z</time>
      </trkpt>
      <trkpt lat="45.76441" lon="5.63245">
        <ele>352</ele>
        <time>2020-05-17T13:53:00.448Z</time>
      </trkpt>
      <trkpt lat="45.76441" lon="5.63254">
        <ele>352</ele>
        <time>2020-05-17T13:53:05.460Z</time>
      </trkpt>
      <trkpt lat="45.76443" lon="5.63261">
        <ele>352</ele>
        <time>2020-05-17T13:53:10.467Z</time>
      </trkpt>
      <trkpt lat="45.76446" lon="5.63271">
        <ele>351</ele>
        <time>2020-05-17T13:53:15.471Z</time>
      </trkpt>
      <trkpt lat="45.76448" lon="5.6328">
        <ele>351</ele>
        <time>2020-05-17T13:53:19.446Z</time>
      </trkpt>
      <trkpt lat="45.76448" lon="5.63289">
        <ele>351</ele>
        <time>2020-05-17T13:53:24.448Z</time>
      </trkpt>
      <trkpt lat="45.76445" lon="5.63298">
        <ele>349</ele>
        <time>2020-05-17T13:53:29.444Z</time>
      </trkpt>
      <trkpt lat="45.76444" lon="5.63307">
        <ele>349</ele>
        <time>2020-05-17T13:53:34.523Z</time>
      </trkpt>
      <trkpt lat="45.76444" lon="5.63317">
        <ele>349</ele>
        <time>2020-05-17T13:53:39.458Z</time>
      </trkpt>
      <trkpt lat="45.76444" lon="5.63325">
        <ele>348</ele>
        <time>2020-05-17T13:53:44.484Z</time>
      </trkpt>
      <trkpt lat="45.76444" lon="5.63334">
        <ele>348</ele>
        <time>2020-05-17T13:53:49.465Z</time>
      </trkpt>
      <trkpt lat="45.76444" lon="5.63341">
        <ele>348</ele>
        <time>2020-05-17T13:53:53.471Z</time>
      </trkpt>
      <trkpt lat="45.76445" lon="5.63349">
        <ele>347</ele>
        <time>2020-05-17T13:53:58.450Z</time>
      </trkpt>
      <trkpt lat="45.76447" lon="5.63359">
        <ele>347</ele>
        <time>2020-05-17T13:54:03.464Z</time>
      </trkpt>
      <trkpt lat="45.76447" lon="5.63368">
        <ele>347</ele>
        <time>2020-05-17T13:54:08.470Z</time>
      </trkpt>
      <trkpt lat="45.76446" lon="5.63377">
        <ele>347</ele>
        <time>2020-05-17T13:54:13.454Z</time>
      </trkpt>
      <trkpt lat="45.76446" lon="5.63385">
        <ele>347</ele>
        <time>2020-05-17T13:54:18.470Z</time>
      </trkpt>
      <trkpt lat="45.76447" lon="5.63394">
        <ele>347</ele>
        <time>2020-05-17T13:54:23.466Z</time>
      </trkpt>
      <trkpt lat="45.76449" lon="5.63407">
        <ele>348</ele>
        <time>2020-05-17T13:54:28.460Z</time>
      </trkpt>
      <trkpt lat="45.76451" lon="5.63417">
        <ele>348</ele>
        <time>2020-05-17T13:54:32.454Z</time>
      </trkpt>
      <trkpt lat="45.76453" lon="5.63427">
        <ele>348</ele>
        <time>2020-05-17T13:54:37.518Z</time>
      </trkpt>
      <trkpt lat="45.76454" lon="5.63438">
        <ele>349</ele>
        <time>2020-05-17T13:54:42.461Z</time>
      </trkpt>
      <trkpt lat="45.76455" lon="5.63449">
        <ele>349</ele>
        <time>2020-05-17T13:54:47.461Z</time>
      </trkpt>
      <trkpt lat="45.76452" lon="5.63459">
        <ele>351</ele>
        <time>2020-05-17T13:54:52.452Z</time>
      </trkpt>
      <trkpt lat="45.76445" lon="5.63467">
        <ele>351</ele>
        <time>2020-05-17T13:54:57.490Z</time>
      </trkpt>
      <trkpt lat="45.76439" lon="5.63474">
        <ele>351</ele>
        <time>2020-05-17T13:55:02.472Z</time>
      </trkpt>
      <trkpt lat="45.76434" lon="5.63482">
        <ele>351</ele>
        <time>2020-05-17T13:55:06.531Z</time>
      </trkpt>
      <trkpt lat="45.76427" lon="5.63486">
        <ele>348</ele>
        <time>2020-05-17T13:55:11.466Z</time>
      </trkpt>
      <trkpt lat="45.7642" lon="5.63492">
        <ele>348</ele>
        <time>2020-05-17T13:55:16.457Z</time>
      </trkpt>
      <trkpt lat="45.76414" lon="5.63497">
        <ele>348</ele>
        <time>2020-05-17T13:55:21.478Z</time>
      </trkpt>
      <trkpt lat="45.76409" lon="5.63503">
        <ele>348</ele>
        <time>2020-05-17T13:55:26.473Z</time>
      </trkpt>
      <trkpt lat="45.76404" lon="5.63509">
        <ele>348</ele>
        <time>2020-05-17T13:55:31.485Z</time>
      </trkpt>
      <trkpt lat="45.76399" lon="5.63514">
        <ele>343</ele>
        <time>2020-05-17T13:55:36.468Z</time>
      </trkpt>
      <trkpt lat="45.76393" lon="5.63517">
        <ele>343</ele>
        <time>2020-05-17T13:55:41.473Z</time>
      </trkpt>
      <trkpt lat="45.76388" lon="5.63519">
        <ele>343</ele>
        <time>2020-05-17T13:55:46.462Z</time>
      </trkpt>
      <trkpt lat="45.76382" lon="5.63523">
        <ele>343</ele>
        <time>2020-05-17T13:55:51.474Z</time>
      </trkpt>
      <trkpt lat="45.76376" lon="5.63524">
        <ele>343</ele>
        <time>2020-05-17T13:55:56.461Z</time>
      </trkpt>
      <trkpt lat="45.76371" lon="5.63524">
        <ele>342</ele>
        <time>2020-05-17T13:56:01.454Z</time>
      </trkpt>
      <trkpt lat="45.76366" lon="5.63523">
        <ele>342</ele>
        <time>2020-05-17T13:56:06.448Z</time>
      </trkpt>
      <trkpt lat="45.76359" lon="5.63524">
        <ele>342</ele>
        <time>2020-05-17T13:56:11.470Z</time>
      </trkpt>
      <trkpt lat="45.76352" lon="5.63524">
        <ele>342</ele>
        <time>2020-05-17T13:56:16.448Z</time>
      </trkpt>
      <trkpt lat="45.76347" lon="5.63525">
        <ele>342</ele>
        <time>2020-05-17T13:56:21.459Z</time>
      </trkpt>
      <trkpt lat="45.76341" lon="5.63527">
        <ele>342</ele>
        <time>2020-05-17T13:56:26.457Z</time>
      </trkpt>
      <trkpt lat="45.76336" lon="5.63532">
        <ele>342</ele>
        <time>2020-05-17T13:56:31.460Z</time>
      </trkpt>
      <trkpt lat="45.7633" lon="5.6353">
        <ele>342</ele>
        <time>2020-05-17T13:56:36.453Z</time>
      </trkpt>
      <trkpt lat="45.76325" lon="5.63528">
        <ele>342</ele>
        <time>2020-05-17T13:56:41.478Z</time>
      </trkpt>
      <trkpt lat="45.76318" lon="5.63527">
        <ele>342</ele>
        <time>2020-05-17T13:56:46.471Z</time>
      </trkpt>
      <trkpt lat="45.76311" lon="5.63528">
        <ele>342</ele>
        <time>2020-05-17T13:56:51.445Z</time>
      </trkpt>
      <trkpt lat="45.76305" lon="5.63526">
        <ele>342</ele>
        <time>2020-05-17T13:56:56.470Z</time>
      </trkpt>
      <trkpt lat="45.76301" lon="5.63527">
        <ele>342</ele>
        <time>2020-05-17T13:57:01.448Z</time>
      </trkpt>
      <trkpt lat="45.76295" lon="5.63525">
        <ele>342</ele>
        <time>2020-05-17T13:57:06.451Z</time>
      </trkpt>
      <trkpt lat="45.76289" lon="5.63524">
        <ele>342</ele>
        <time>2020-05-17T13:57:10.450Z</time>
      </trkpt>
      <trkpt lat="45.76284" lon="5.63521">
        <ele>342</ele>
        <time>2020-05-17T13:57:15.439Z</time>
      </trkpt>
      <trkpt lat="45.76277" lon="5.6352">
        <ele>342</ele>
        <time>2020-05-17T13:57:19.448Z</time>
      </trkpt>
      <trkpt lat="45.7627" lon="5.63518">
        <ele>342</ele>
        <time>2020-05-17T13:57:23.460Z</time>
      </trkpt>
      <trkpt lat="45.76264" lon="5.63515">
        <ele>342</ele>
        <time>2020-05-17T13:57:28.526Z</time>
      </trkpt>
      <trkpt lat="45.76259" lon="5.63512">
        <ele>341</ele>
        <time>2020-05-17T13:57:33.447Z</time>
      </trkpt>
      <trkpt lat="45.76255" lon="5.63512">
        <ele>341</ele>
        <time>2020-05-17T13:57:38.447Z</time>
      </trkpt>
      <trkpt lat="45.76254" lon="5.63516">
        <ele>341</ele>
        <time>2020-05-17T13:57:42.455Z</time>
      </trkpt>
      <trkpt lat="45.76252" lon="5.63526">
        <ele>341</ele>
        <time>2020-05-17T13:57:46.508Z</time>
      </trkpt>
      <trkpt lat="45.76252" lon="5.63538">
        <ele>341</ele>
        <time>2020-05-17T13:57:51.456Z</time>
      </trkpt>
      <trkpt lat="45.7625" lon="5.6355">
        <ele>341</ele>
        <time>2020-05-17T13:57:56.480Z</time>
      </trkpt>
      <trkpt lat="45.7625" lon="5.63562">
        <ele>341</ele>
        <time>2020-05-17T13:58:01.471Z</time>
      </trkpt>
      <trkpt lat="45.76246" lon="5.63568">
        <ele>341</ele>
        <time>2020-05-17T13:58:06.455Z</time>
      </trkpt>
      <trkpt lat="45.76243" lon="5.63576">
        <ele>341</ele>
        <time>2020-05-17T13:58:11.461Z</time>
      </trkpt>
      <trkpt lat="45.76243" lon="5.63581">
        <ele>341</ele>
        <time>2020-05-17T13:58:16.520Z</time>
      </trkpt>
      <trkpt lat="45.7624" lon="5.6359">
        <ele>341</ele>
        <time>2020-05-17T13:58:21.425Z</time>
      </trkpt>
      <trkpt lat="45.76235" lon="5.63601">
        <ele>343</ele>
        <time>2020-05-17T13:58:26.458Z</time>
      </trkpt>
      <trkpt lat="45.76227" lon="5.63608">
        <ele>343</ele>
        <time>2020-05-17T13:58:31.413Z</time>
      </trkpt>
      <trkpt lat="45.76223" lon="5.63611">
        <ele>343</ele>
        <time>2020-05-17T13:58:35.446Z</time>
      </trkpt>
      <trkpt lat="45.76218" lon="5.63618">
        <ele>343</ele>
        <time>2020-05-17T13:58:40.440Z</time>
      </trkpt>
      <trkpt lat="45.76215" lon="5.63629">
        <ele>344</ele>
        <time>2020-05-17T13:58:45.433Z</time>
      </trkpt>
      <trkpt lat="45.76213" lon="5.63639">
        <ele>344</ele>
        <time>2020-05-17T13:58:50.429Z</time>
      </trkpt>
      <trkpt lat="45.76211" lon="5.63647">
        <ele>344</ele>
        <time>2020-05-17T13:58:55.465Z</time>
      </trkpt>
      <trkpt lat="45.76208" lon="5.63655">
        <ele>346</ele>
        <time>2020-05-17T13:59:00.422Z</time>
      </trkpt>
      <trkpt lat="45.76204" lon="5.6366">
        <ele>346</ele>
        <time>2020-05-17T13:59:04.443Z</time>
      </trkpt>
      <trkpt lat="45.76198" lon="5.63667">
        <ele>346</ele>
        <time>2020-05-17T13:59:09.448Z</time>
      </trkpt>
      <trkpt lat="45.76193" lon="5.63673">
        <ele>346</ele>
        <time>2020-05-17T13:59:13.449Z</time>
      </trkpt>
      <trkpt lat="45.76189" lon="5.63678">
        <ele>346</ele>
        <time>2020-05-17T13:59:17.452Z</time>
      </trkpt>
      <trkpt lat="45.76185" lon="5.63687">
        <ele>346</ele>
        <time>2020-05-17T13:59:22.449Z</time>
      </trkpt>
      <trkpt lat="45.76181" lon="5.63694">
        <ele>346</ele>
        <time>2020-05-17T13:59:26.452Z</time>
      </trkpt>
      <trkpt lat="45.76179" lon="5.63701">
        <ele>344</ele>
        <time>2020-05-17T13:59:31.451Z</time>
      </trkpt>
      <trkpt lat="45.76175" lon="5.63709">
        <ele>344</ele>
        <time>2020-05-17T13:59:36.453Z</time>
      </trkpt>
      <trkpt lat="45.76171" lon="5.63716">
        <ele>344</ele>
        <time>2020-05-17T13:59:41.460Z</time>
      </trkpt>
      <trkpt lat="45.76167" lon="5.63722">
        <ele>344</ele>
        <time>2020-05-17T13:59:46.446Z</time>
      </trkpt>
      <trkpt lat="45.76162" lon="5.6373">
        <ele>344</ele>
        <time>2020-05-17T13:59:51.505Z</time>
      </trkpt>
      <trkpt lat="45.76156" lon="5.6374">
        <ele>345</ele>
        <time>2020-05-17T13:59:56.465Z</time>
      </trkpt>
      <trkpt lat="45.76154" lon="5.63748">
        <ele>345</ele>
        <time>2020-05-17T14:00:01.469Z</time>
      </trkpt>
      <trkpt lat="45.76152" lon="5.63755">
        <ele>344</ele>
        <time>2020-05-17T14:00:06.490Z</time>
      </trkpt>
      <trkpt lat="45.76148" lon="5.63764">
        <ele>345</ele>
        <time>2020-05-17T14:00:11.471Z</time>
      </trkpt>
      <trkpt lat="45.76147" lon="5.63771">
        <ele>345</ele>
        <time>2020-05-17T14:00:15.468Z</time>
      </trkpt>
      <trkpt lat="45.76145" lon="5.63779">
        <ele>345</ele>
        <time>2020-05-17T14:00:20.467Z</time>
      </trkpt>
      <trkpt lat="45.76143" lon="5.63785">
        <ele>345</ele>
        <time>2020-05-17T14:00:25.459Z</time>
      </trkpt>
      <trkpt lat="45.76138" lon="5.63794">
        <ele>347</ele>
        <time>2020-05-17T14:00:30.457Z</time>
      </trkpt>
      <trkpt lat="45.76133" lon="5.63798">
        <ele>347</ele>
        <time>2020-05-17T14:00:35.449Z</time>
      </trkpt>
      <trkpt lat="45.76128" lon="5.638">
        <ele>347</ele>
        <time>2020-05-17T14:00:39.463Z</time>
      </trkpt>
      <trkpt lat="45.76122" lon="5.63802">
        <ele>347</ele>
        <time>2020-05-17T14:00:44.450Z</time>
      </trkpt>
      <trkpt lat="45.76115" lon="5.63803">
        <ele>347</ele>
        <time>2020-05-17T14:00:49.474Z</time>
      </trkpt>
      <trkpt lat="45.76108" lon="5.63801">
        <ele>347</ele>
        <time>2020-05-17T14:00:54.435Z</time>
      </trkpt>
      <trkpt lat="45.76102" lon="5.638">
        <ele>347</ele>
        <time>2020-05-17T14:00:59.446Z</time>
      </trkpt>
      <trkpt lat="45.76096" lon="5.63803">
        <ele>349</ele>
        <time>2020-05-17T14:01:04.487Z</time>
      </trkpt>
      <trkpt lat="45.76087" lon="5.63803">
        <ele>349</ele>
        <time>2020-05-17T14:01:18.453Z</time>
      </trkpt>
      <trkpt lat="45.76086" lon="5.63808">
        <ele>349</ele>
        <time>2020-05-17T14:01:23.457Z</time>
      </trkpt>
      <trkpt lat="45.76082" lon="5.63811">
        <ele>349</ele>
        <time>2020-05-17T14:01:28.472Z</time>
      </trkpt>
      <trkpt lat="45.76074" lon="5.63813">
        <ele>349</ele>
        <time>2020-05-17T14:01:33.467Z</time>
      </trkpt>
      <trkpt lat="45.76067" lon="5.63815">
        <ele>348</ele>
        <time>2020-05-17T14:01:38.464Z</time>
      </trkpt>
      <trkpt lat="45.76057" lon="5.63819">
        <ele>348</ele>
        <time>2020-05-17T14:01:43.455Z</time>
      </trkpt>
      <trkpt lat="45.76051" lon="5.6382">
        <ele>352</ele>
        <time>2020-05-17T14:01:48.450Z</time>
      </trkpt>
      <trkpt lat="45.76044" lon="5.63823">
        <ele>352</ele>
        <time>2020-05-17T14:01:52.473Z</time>
      </trkpt>
      <trkpt lat="45.76041" lon="5.63825">
        <ele>351</ele>
        <time>2020-05-17T14:01:57.493Z</time>
      </trkpt>
      <trkpt lat="45.76034" lon="5.63831">
        <ele>351</ele>
        <time>2020-05-17T14:02:02.447Z</time>
      </trkpt>
      <trkpt lat="45.76029" lon="5.63835">
        <ele>351</ele>
        <time>2020-05-17T14:02:07.446Z</time>
      </trkpt>
      <trkpt lat="45.76018" lon="5.63841">
        <ele>351</ele>
        <time>2020-05-17T14:02:12.410Z</time>
      </trkpt>
      <trkpt lat="45.76011" lon="5.63847">
        <ele>348</ele>
        <time>2020-05-17T14:02:16.460Z</time>
      </trkpt>
      <trkpt lat="45.76004" lon="5.6385">
        <ele>354</ele>
        <time>2020-05-17T14:02:21.432Z</time>
      </trkpt>
      <trkpt lat="45.75998" lon="5.63851">
        <ele>354</ele>
        <time>2020-05-17T14:02:25.450Z</time>
      </trkpt>
      <trkpt lat="45.75993" lon="5.63853">
        <ele>354</ele>
        <time>2020-05-17T14:02:29.509Z</time>
      </trkpt>
      <trkpt lat="45.75987" lon="5.63855">
        <ele>354</ele>
        <time>2020-05-17T14:02:34.463Z</time>
      </trkpt>
      <trkpt lat="45.7598" lon="5.63858">
        <ele>353</ele>
        <time>2020-05-17T14:02:39.443Z</time>
      </trkpt>
      <trkpt lat="45.75975" lon="5.63859">
        <ele>353</ele>
        <time>2020-05-17T14:02:43.438Z</time>
      </trkpt>
      <trkpt lat="45.75968" lon="5.63857">
        <ele>353</ele>
        <time>2020-05-17T14:02:47.449Z</time>
      </trkpt>
      <trkpt lat="45.75962" lon="5.63852">
        <ele>353</ele>
        <time>2020-05-17T14:02:52.428Z</time>
      </trkpt>
      <trkpt lat="45.75956" lon="5.63848">
        <ele>351</ele>
        <time>2020-05-17T14:02:56.436Z</time>
      </trkpt>
      <trkpt lat="45.75949" lon="5.63845">
        <ele>347</ele>
        <time>2020-05-17T14:03:01.443Z</time>
      </trkpt>
      <trkpt lat="45.75942" lon="5.63844">
        <ele>347</ele>
        <time>2020-05-17T14:03:06.442Z</time>
      </trkpt>
      <trkpt lat="45.75937" lon="5.63842">
        <ele>347</ele>
        <time>2020-05-17T14:03:10.448Z</time>
      </trkpt>
      <trkpt lat="45.75931" lon="5.63841">
        <ele>347</ele>
        <time>2020-05-17T14:03:15.457Z</time>
      </trkpt>
      <trkpt lat="45.75924" lon="5.63839">
        <ele>346</ele>
        <time>2020-05-17T14:03:20.448Z</time>
      </trkpt>
      <trkpt lat="45.75918" lon="5.63838">
        <ele>346</ele>
        <time>2020-05-17T14:03:25.436Z</time>
      </trkpt>
      <trkpt lat="45.75912" lon="5.63837">
        <ele>346</ele>
        <time>2020-05-17T14:03:29.446Z</time>
      </trkpt>
      <trkpt lat="45.75905" lon="5.63833">
        <ele>346</ele>
        <time>2020-05-17T14:03:34.448Z</time>
      </trkpt>
      <trkpt lat="45.75899" lon="5.63831">
        <ele>346</ele>
        <time>2020-05-17T14:03:39.460Z</time>
      </trkpt>
      <trkpt lat="45.75893" lon="5.63832">
        <ele>346</ele>
        <time>2020-05-17T14:03:44.464Z</time>
      </trkpt>
      <trkpt lat="45.75886" lon="5.63831">
        <ele>346</ele>
        <time>2020-05-17T14:03:49.446Z</time>
      </trkpt>
      <trkpt lat="45.75878" lon="5.63829">
        <ele>346</ele>
        <time>2020-05-17T14:03:54.491Z</time>
      </trkpt>
      <trkpt lat="45.75872" lon="5.63829">
        <ele>346</ele>
        <time>2020-05-17T14:03:59.452Z</time>
      </trkpt>
      <trkpt lat="45.75866" lon="5.63827">
        <ele>346</ele>
        <time>2020-05-17T14:04:04.465Z</time>
      </trkpt>
      <trkpt lat="45.75859" lon="5.63825">
        <ele>346</ele>
        <time>2020-05-17T14:04:09.443Z</time>
      </trkpt>
      <trkpt lat="45.75853" lon="5.63829">
        <ele>346</ele>
        <time>2020-05-17T14:04:14.422Z</time>
      </trkpt>
      <trkpt lat="45.75847" lon="5.63829">
        <ele>347</ele>
        <time>2020-05-17T14:04:18.437Z</time>
      </trkpt>
      <trkpt lat="45.75843" lon="5.6383">
        <ele>347</ele>
        <time>2020-05-17T14:04:22.461Z</time>
      </trkpt>
      <trkpt lat="45.75837" lon="5.63832">
        <ele>347</ele>
        <time>2020-05-17T14:04:27.440Z</time>
      </trkpt>
      <trkpt lat="45.75829" lon="5.63836">
        <ele>347</ele>
        <time>2020-05-17T14:04:32.440Z</time>
      </trkpt>
      <trkpt lat="45.75826" lon="5.63839">
        <ele>347</ele>
        <time>2020-05-17T14:04:36.467Z</time>
      </trkpt>
      <trkpt lat="45.7582" lon="5.63842">
        <ele>347</ele>
        <time>2020-05-17T14:04:41.453Z</time>
      </trkpt>
      <trkpt lat="45.75814" lon="5.63846">
        <ele>348</ele>
        <time>2020-05-17T14:04:46.426Z</time>
      </trkpt>
      <trkpt lat="45.75809" lon="5.63852">
        <ele>349</ele>
        <time>2020-05-17T14:04:50.439Z</time>
      </trkpt>
      <trkpt lat="45.75803" lon="5.63857">
        <ele>349</ele>
        <time>2020-05-17T14:04:55.445Z</time>
      </trkpt>
      <trkpt lat="45.75798" lon="5.6386">
        <ele>349</ele>
        <time>2020-05-17T14:05:00.441Z</time>
      </trkpt>
      <trkpt lat="45.75793" lon="5.63865">
        <ele>349</ele>
        <time>2020-05-17T14:05:05.458Z</time>
      </trkpt>
      <trkpt lat="45.75788" lon="5.63869">
        <ele>348</ele>
        <time>2020-05-17T14:05:10.439Z</time>
      </trkpt>
      <trkpt lat="45.75782" lon="5.63871">
        <ele>348</ele>
        <time>2020-05-17T14:05:15.453Z</time>
      </trkpt>
      <trkpt lat="45.75776" lon="5.6387">
        <ele>348</ele>
        <time>2020-05-17T14:05:20.442Z</time>
      </trkpt>
      <trkpt lat="45.75769" lon="5.6387">
        <ele>348</ele>
        <time>2020-05-17T14:05:25.454Z</time>
      </trkpt>
      <trkpt lat="45.75764" lon="5.63869">
        <ele>348</ele>
        <time>2020-05-17T14:05:29.448Z</time>
      </trkpt>
      <trkpt lat="45.75758" lon="5.63869">
        <ele>346</ele>
        <time>2020-05-17T14:05:34.439Z</time>
      </trkpt>
      <trkpt lat="45.75751" lon="5.63869">
        <ele>346</ele>
        <time>2020-05-17T14:05:39.444Z</time>
      </trkpt>
      <trkpt lat="45.75745" lon="5.63866">
        <ele>346</ele>
        <time>2020-05-17T14:05:43.505Z</time>
      </trkpt>
      <trkpt lat="45.75738" lon="5.63864">
        <ele>346</ele>
        <time>2020-05-17T14:05:48.463Z</time>
      </trkpt>
      <trkpt lat="45.75731" lon="5.63862">
        <ele>346</ele>
        <time>2020-05-17T14:05:53.441Z</time>
      </trkpt>
      <trkpt lat="45.75724" lon="5.63862">
        <ele>346</ele>
        <time>2020-05-17T14:05:58.441Z</time>
      </trkpt>
      <trkpt lat="45.75718" lon="5.63862">
        <ele>346</ele>
        <time>2020-05-17T14:06:02.468Z</time>
      </trkpt>
      <trkpt lat="45.75711" lon="5.63861">
        <ele>346</ele>
        <time>2020-05-17T14:06:07.438Z</time>
      </trkpt>
      <trkpt lat="45.75704" lon="5.63859">
        <ele>350</ele>
        <time>2020-05-17T14:06:12.460Z</time>
      </trkpt>
      <trkpt lat="45.75697" lon="5.63859">
        <ele>350</ele>
        <time>2020-05-17T14:06:16.454Z</time>
      </trkpt>
      <trkpt lat="45.7569" lon="5.63862">
        <ele>350</ele>
        <time>2020-05-17T14:06:21.504Z</time>
      </trkpt>
      <trkpt lat="45.75683" lon="5.63865">
        <ele>350</ele>
        <time>2020-05-17T14:06:46.438Z</time>
      </trkpt>
      <trkpt lat="45.75682" lon="5.63865">
        <ele>350</ele>
        <time>2020-05-17T14:06:51.457Z</time>
      </trkpt>
      <trkpt lat="45.7568" lon="5.63868">
        <ele>354</ele>
        <time>2020-05-17T14:06:56.367Z</time>
      </trkpt>
      <trkpt lat="45.75679" lon="5.63869">
        <ele>354</ele>
        <time>2020-05-17T14:07:00.440Z</time>
      </trkpt>
      <trkpt lat="45.75676" lon="5.63866">
        <ele>354</ele>
        <time>2020-05-17T14:07:04.469Z</time>
      </trkpt>
      <trkpt lat="45.75675" lon="5.63866">
        <ele>354</ele>
        <time>2020-05-17T14:07:09.420Z</time>
      </trkpt>
      <trkpt lat="45.75674" lon="5.63865">
        <ele>354</ele>
        <time>2020-05-17T14:07:13.439Z</time>
      </trkpt>
      <trkpt lat="45.75668" lon="5.63861">
        <ele>354</ele>
        <time>2020-05-17T14:07:17.444Z</time>
      </trkpt>
      <trkpt lat="45.7566" lon="5.63857">
        <ele>354</ele>
        <time>2020-05-17T14:07:22.470Z</time>
      </trkpt>
      <trkpt lat="45.75654" lon="5.63855">
        <ele>354</ele>
        <time>2020-05-17T14:07:26.469Z</time>
      </trkpt>
      <trkpt lat="45.75646" lon="5.63852">
        <ele>355</ele>
        <time>2020-05-17T14:07:31.452Z</time>
      </trkpt>
      <trkpt lat="45.75638" lon="5.63854">
        <ele>355</ele>
        <time>2020-05-17T14:07:36.486Z</time>
      </trkpt>
      <trkpt lat="45.75631" lon="5.63853">
        <ele>355</ele>
        <time>2020-05-17T14:07:41.452Z</time>
      </trkpt>
      <trkpt lat="45.75624" lon="5.63856">
        <ele>355</ele>
        <time>2020-05-17T14:07:45.476Z</time>
      </trkpt>
      <trkpt lat="45.75618" lon="5.63858">
        <ele>355</ele>
        <time>2020-05-17T14:07:50.456Z</time>
      </trkpt>
      <trkpt lat="45.75613" lon="5.63859">
        <ele>355</ele>
        <time>2020-05-17T14:07:54.496Z</time>
      </trkpt>
      <trkpt lat="45.75606" lon="5.63861">
        <ele>355</ele>
        <time>2020-05-17T14:07:59.470Z</time>
      </trkpt>
      <trkpt lat="45.75602" lon="5.63862">
        <ele>355</ele>
        <time>2020-05-17T14:08:04.445Z</time>
      </trkpt>
      <trkpt lat="45.75595" lon="5.63863">
        <ele>356</ele>
        <time>2020-05-17T14:08:09.466Z</time>
      </trkpt>
      <trkpt lat="45.75587" lon="5.63864">
        <ele>356</ele>
        <time>2020-05-17T14:08:14.514Z</time>
      </trkpt>
      <trkpt lat="45.7558" lon="5.63868">
        <ele>356</ele>
        <time>2020-05-17T14:08:19.482Z</time>
      </trkpt>
      <trkpt lat="45.75575" lon="5.63876">
        <ele>359</ele>
        <time>2020-05-17T14:08:24.460Z</time>
      </trkpt>
      <trkpt lat="45.75572" lon="5.63881">
        <ele>359</ele>
        <time>2020-05-17T14:08:29.459Z</time>
      </trkpt>
      <trkpt lat="45.75568" lon="5.63886">
        <ele>359</ele>
        <time>2020-05-17T14:08:34.441Z</time>
      </trkpt>
      <trkpt lat="45.75564" lon="5.63891">
        <ele>359</ele>
        <time>2020-05-17T14:08:39.449Z</time>
      </trkpt>
      <trkpt lat="45.75558" lon="5.63892">
        <ele>359</ele>
        <time>2020-05-17T14:08:43.510Z</time>
      </trkpt>
      <trkpt lat="45.7555" lon="5.63894">
        <ele>359</ele>
        <time>2020-05-17T14:08:48.464Z</time>
      </trkpt>
      <trkpt lat="45.75546" lon="5.63895">
        <ele>359</ele>
        <time>2020-05-17T14:08:52.480Z</time>
      </trkpt>
      <trkpt lat="45.75537" lon="5.63895">
        <ele>357</ele>
        <time>2020-05-17T14:08:57.460Z</time>
      </trkpt>
      <trkpt lat="45.75531" lon="5.63895">
        <ele>357</ele>
        <time>2020-05-17T14:09:01.450Z</time>
      </trkpt>
      <trkpt lat="45.75524" lon="5.63893">
        <ele>357</ele>
        <time>2020-05-17T14:09:06.416Z</time>
      </trkpt>
      <trkpt lat="45.75517" lon="5.63891">
        <ele>357</ele>
        <time>2020-05-17T14:09:10.455Z</time>
      </trkpt>
      <trkpt lat="45.7551" lon="5.6389">
        <ele>354</ele>
        <time>2020-05-17T14:09:15.476Z</time>
      </trkpt>
      <trkpt lat="45.75502" lon="5.6389">
        <ele>354</ele>
        <time>2020-05-17T14:09:20.454Z</time>
      </trkpt>
      <trkpt lat="45.75496" lon="5.63891">
        <ele>354</ele>
        <time>2020-05-17T14:09:24.458Z</time>
      </trkpt>
      <trkpt lat="45.75494" lon="5.63893">
        <ele>354</ele>
        <time>2020-05-17T14:09:29.450Z</time>
      </trkpt>
      <trkpt lat="45.75492" lon="5.63895">
        <ele>354</ele>
        <time>2020-05-17T14:09:34.452Z</time>
      </trkpt>
      <trkpt lat="45.75481" lon="5.639">
        <ele>354</ele>
        <time>2020-05-17T14:09:39.466Z</time>
      </trkpt>
      <trkpt lat="45.75474" lon="5.63903">
        <ele>354</ele>
        <time>2020-05-17T14:09:44.453Z</time>
      </trkpt>
      <trkpt lat="45.75466" lon="5.63908">
        <ele>355</ele>
        <time>2020-05-17T14:09:49.445Z</time>
      </trkpt>
      <trkpt lat="45.75464" lon="5.63912">
        <ele>355</ele>
        <time>2020-05-17T14:09:53.505Z</time>
      </trkpt>
      <trkpt lat="45.75458" lon="5.63921">
        <ele>355</ele>
        <time>2020-05-17T14:09:58.470Z</time>
      </trkpt>
      <trkpt lat="45.75454" lon="5.63924">
        <ele>355</ele>
        <time>2020-05-17T14:10:03.459Z</time>
      </trkpt>
      <trkpt lat="45.75447" lon="5.63931">
        <ele>355</ele>
        <time>2020-05-17T14:10:08.431Z</time>
      </trkpt>
      <trkpt lat="45.75438" lon="5.63939">
        <ele>355</ele>
        <time>2020-05-17T14:10:13.447Z</time>
      </trkpt>
      <trkpt lat="45.75432" lon="5.63944">
        <ele>355</ele>
        <time>2020-05-17T14:10:17.471Z</time>
      </trkpt>
      <trkpt lat="45.75427" lon="5.63949">
        <ele>355</ele>
        <time>2020-05-17T14:10:21.469Z</time>
      </trkpt>
      <trkpt lat="45.75424" lon="5.63954">
        <ele>355</ele>
        <time>2020-05-17T14:10:26.454Z</time>
      </trkpt>
      <trkpt lat="45.75421" lon="5.63966">
        <ele>355</ele>
        <time>2020-05-17T14:10:31.460Z</time>
      </trkpt>
      <trkpt lat="45.75422" lon="5.6398">
        <ele>355</ele>
        <time>2020-05-17T14:10:36.428Z</time>
      </trkpt>
      <trkpt lat="45.75423" lon="5.63992">
        <ele>356</ele>
        <time>2020-05-17T14:10:40.451Z</time>
      </trkpt>
      <trkpt lat="45.75426" lon="5.64008">
        <ele>356</ele>
        <time>2020-05-17T14:10:45.467Z</time>
      </trkpt>
      <trkpt lat="45.75429" lon="5.64021">
        <ele>358</ele>
        <time>2020-05-17T14:10:49.516Z</time>
      </trkpt>
      <trkpt lat="45.75432" lon="5.64042">
        <ele>358</ele>
        <time>2020-05-17T14:10:54.463Z</time>
      </trkpt>
      <trkpt lat="45.75436" lon="5.64059">
        <ele>358</ele>
        <time>2020-05-17T14:10:59.457Z</time>
      </trkpt>
      <trkpt lat="45.75436" lon="5.64071">
        <ele>360</ele>
        <time>2020-05-17T14:11:04.462Z</time>
      </trkpt>
      <trkpt lat="45.75437" lon="5.64079">
        <ele>360</ele>
        <time>2020-05-17T14:11:09.443Z</time>
      </trkpt>
      <trkpt lat="45.75437" lon="5.64081">
        <ele>360</ele>
        <time>2020-05-17T14:11:14.465Z</time>
      </trkpt>
      <trkpt lat="45.75431" lon="5.64094">
        <ele>360</ele>
        <time>2020-05-17T14:11:19.442Z</time>
      </trkpt>
      <trkpt lat="45.75426" lon="5.64104">
        <ele>361</ele>
        <time>2020-05-17T14:11:23.511Z</time>
      </trkpt>
      <trkpt lat="45.75422" lon="5.64112">
        <ele>361</ele>
        <time>2020-05-17T14:11:28.462Z</time>
      </trkpt>
      <trkpt lat="45.75414" lon="5.64116">
        <ele>361</ele>
        <time>2020-05-17T14:11:33.441Z</time>
      </trkpt>
      <trkpt lat="45.75407" lon="5.64116">
        <ele>361</ele>
        <time>2020-05-17T14:11:38.447Z</time>
      </trkpt>
      <trkpt lat="45.754" lon="5.64116">
        <ele>361</ele>
        <time>2020-05-17T14:11:43.468Z</time>
      </trkpt>
      <trkpt lat="45.75397" lon="5.64114">
        <ele>361</ele>
        <time>2020-05-17T14:11:48.480Z</time>
      </trkpt>
      <trkpt lat="45.75391" lon="5.64114">
        <ele>361</ele>
        <time>2020-05-17T14:11:52.470Z</time>
      </trkpt>
      <trkpt lat="45.75381" lon="5.64117">
        <ele>361</ele>
        <time>2020-05-17T14:11:57.459Z</time>
      </trkpt>
      <trkpt lat="45.75376" lon="5.6412">
        <ele>361</ele>
        <time>2020-05-17T14:12:02.460Z</time>
      </trkpt>
      <trkpt lat="45.7537" lon="5.6412">
        <ele>361</ele>
        <time>2020-05-17T14:12:07.433Z</time>
      </trkpt>
      <trkpt lat="45.75365" lon="5.64121">
        <ele>361</ele>
        <time>2020-05-17T14:12:11.509Z</time>
      </trkpt>
      <trkpt lat="45.75356" lon="5.64124">
        <ele>361</ele>
        <time>2020-05-17T14:12:16.455Z</time>
      </trkpt>
      <trkpt lat="45.75346" lon="5.64126">
        <ele>357</ele>
        <time>2020-05-17T14:12:21.449Z</time>
      </trkpt>
      <trkpt lat="45.75338" lon="5.64127">
        <ele>357</ele>
        <time>2020-05-17T14:12:25.455Z</time>
      </trkpt>
      <trkpt lat="45.75329" lon="5.64129">
        <ele>357</ele>
        <time>2020-05-17T14:12:29.514Z</time>
      </trkpt>
      <trkpt lat="45.75322" lon="5.64131">
        <ele>357</ele>
        <time>2020-05-17T14:12:34.454Z</time>
      </trkpt>
      <trkpt lat="45.75317" lon="5.6413">
        <ele>355</ele>
        <time>2020-05-17T14:12:38.455Z</time>
      </trkpt>
      <trkpt lat="45.7531" lon="5.64132">
        <ele>355</ele>
        <time>2020-05-17T14:12:43.450Z</time>
      </trkpt>
      <trkpt lat="45.75303" lon="5.64131">
        <ele>355</ele>
        <time>2020-05-17T14:12:48.454Z</time>
      </trkpt>
      <trkpt lat="45.75299" lon="5.64132">
        <ele>355</ele>
        <time>2020-05-17T14:12:52.499Z</time>
      </trkpt>
      <trkpt lat="45.75293" lon="5.64134">
        <ele>355</ele>
        <time>2020-05-17T14:12:57.472Z</time>
      </trkpt>
      <trkpt lat="45.75288" lon="5.64136">
        <ele>355</ele>
        <time>2020-05-17T14:13:02.453Z</time>
      </trkpt>
      <trkpt lat="45.75284" lon="5.64136">
        <ele>355</ele>
        <time>2020-05-17T14:13:06.469Z</time>
      </trkpt>
      <trkpt lat="45.75281" lon="5.64136">
        <ele>355</ele>
        <time>2020-05-17T14:13:10.529Z</time>
      </trkpt>
      <trkpt lat="45.75279" lon="5.64137">
        <ele>355</ele>
        <time>2020-05-17T14:13:15.456Z</time>
      </trkpt>
      <trkpt lat="45.75275" lon="5.64137">
        <ele>355</ele>
        <time>2020-05-17T14:13:20.450Z</time>
      </trkpt>
      <trkpt lat="45.75271" lon="5.64138">
        <ele>355</ele>
        <time>2020-05-17T14:13:25.442Z</time>
      </trkpt>
      <trkpt lat="45.75264" lon="5.64137">
        <ele>355</ele>
        <time>2020-05-17T14:13:30.442Z</time>
      </trkpt>
      <trkpt lat="45.75257" lon="5.64137">
        <ele>354</ele>
        <time>2020-05-17T14:13:34.493Z</time>
      </trkpt>
      <trkpt lat="45.75249" lon="5.64134">
        <ele>354</ele>
        <time>2020-05-17T14:13:39.456Z</time>
      </trkpt>
      <trkpt lat="45.75243" lon="5.64133">
        <ele>354</ele>
        <time>2020-05-17T14:13:43.478Z</time>
      </trkpt>
      <trkpt lat="45.7524" lon="5.64133">
        <ele>354</ele>
        <time>2020-05-17T14:13:48.453Z</time>
      </trkpt>
      <trkpt lat="45.75238" lon="5.64137">
        <ele>354</ele>
        <time>2020-05-17T14:13:53.452Z</time>
      </trkpt>
      <trkpt lat="45.7524" lon="5.64142">
        <ele>354</ele>
        <time>2020-05-17T14:13:58.485Z</time>
      </trkpt>
      <trkpt lat="45.75245" lon="5.64148">
        <ele>354</ele>
        <time>2020-05-17T14:14:03.446Z</time>
      </trkpt>
      <trkpt lat="45.75253" lon="5.64156">
        <ele>351</ele>
        <time>2020-05-17T14:14:08.466Z</time>
      </trkpt>
      <trkpt lat="45.75259" lon="5.64162">
        <ele>351</ele>
        <time>2020-05-17T14:14:13.458Z</time>
      </trkpt>
      <trkpt lat="45.75263" lon="5.64165">
        <ele>351</ele>
        <time>2020-05-17T14:14:18.452Z</time>
      </trkpt>
      <trkpt lat="45.75269" lon="5.64168">
        <ele>352</ele>
        <time>2020-05-17T14:14:23.445Z</time>
      </trkpt>
      <trkpt lat="45.75271" lon="5.6417">
        <ele>352</ele>
        <time>2020-05-17T14:14:28.449Z</time>
      </trkpt>
      <trkpt lat="45.75279" lon="5.64176">
        <ele>352</ele>
        <time>2020-05-17T14:14:33.469Z</time>
      </trkpt>
      <trkpt lat="45.75287" lon="5.64178">
        <ele>352</ele>
        <time>2020-05-17T14:14:38.454Z</time>
      </trkpt>
      <trkpt lat="45.75293" lon="5.64181">
        <ele>348</ele>
        <time>2020-05-17T14:14:43.451Z</time>
      </trkpt>
      <trkpt lat="45.75304" lon="5.6419">
        <ele>348</ele>
        <time>2020-05-17T14:14:57.442Z</time>
      </trkpt>
      <trkpt lat="45.75305" lon="5.64191">
        <ele>348</ele>
        <time>2020-05-17T14:15:01.480Z</time>
      </trkpt>
      <trkpt lat="45.75306" lon="5.64192">
        <ele>348</ele>
        <time>2020-05-17T14:15:06.467Z</time>
      </trkpt>
      <trkpt lat="45.75307" lon="5.64194">
        <ele>348</ele>
        <time>2020-05-17T14:15:11.418Z</time>
      </trkpt>
      <trkpt lat="45.75313" lon="5.64201">
        <ele>348</ele>
        <time>2020-05-17T14:15:15.462Z</time>
      </trkpt>
      <trkpt lat="45.75314" lon="5.64203">
        <ele>348</ele>
        <time>2020-05-17T14:15:20.438Z</time>
      </trkpt>
      <trkpt lat="45.75316" lon="5.64205">
        <ele>348</ele>
        <time>2020-05-17T14:15:25.428Z</time>
      </trkpt>
      <trkpt lat="45.75317" lon="5.64207">
        <ele>348</ele>
        <time>2020-05-17T14:15:29.501Z</time>
      </trkpt>
      <trkpt lat="45.75328" lon="5.64218">
        <ele>341</ele>
        <time>2020-05-17T14:15:34.463Z</time>
      </trkpt>
      <trkpt lat="45.75335" lon="5.64218">
        <ele>341</ele>
        <time>2020-05-17T14:15:39.449Z</time>
      </trkpt>
      <trkpt lat="45.75341" lon="5.64218">
        <ele>341</ele>
        <time>2020-05-17T14:15:44.471Z</time>
      </trkpt>
      <trkpt lat="45.75345" lon="5.64217">
        <ele>341</ele>
        <time>2020-05-17T14:15:49.469Z</time>
      </trkpt>
      <trkpt lat="45.75347" lon="5.64218">
        <ele>341</ele>
        <time>2020-05-17T14:15:53.461Z</time>
      </trkpt>
      <trkpt lat="45.75348" lon="5.64219">
        <ele>337</ele>
        <time>2020-05-17T14:15:58.462Z</time>
      </trkpt>
      <trkpt lat="45.75349" lon="5.64219">
        <ele>337</ele>
        <time>2020-05-17T14:16:03.454Z</time>
      </trkpt>
      <trkpt lat="45.7535" lon="5.6422">
        <ele>337</ele>
        <time>2020-05-17T14:16:08.439Z</time>
      </trkpt>
      <trkpt lat="45.75356" lon="5.64226">
        <ele>337</ele>
        <time>2020-05-17T14:16:13.436Z</time>
      </trkpt>
      <trkpt lat="45.75359" lon="5.64228">
        <ele>337</ele>
        <time>2020-05-17T14:16:33.451Z</time>
      </trkpt>
      <trkpt lat="45.7536" lon="5.64228">
        <ele>337</ele>
        <time>2020-05-17T14:16:38.438Z</time>
      </trkpt>
      <trkpt lat="45.75361" lon="5.64229">
        <ele>337</ele>
        <time>2020-05-17T14:16:42.453Z</time>
      </trkpt>
      <trkpt lat="45.75362" lon="5.6423">
        <ele>337</ele>
        <time>2020-05-17T14:16:46.531Z</time>
      </trkpt>
      <trkpt lat="45.7537" lon="5.64233">
        <ele>337</ele>
        <time>2020-05-17T14:16:51.466Z</time>
      </trkpt>
      <trkpt lat="45.75376" lon="5.64239">
        <ele>329</ele>
        <time>2020-05-17T14:17:06.443Z</time>
      </trkpt>
      <trkpt lat="45.75376" lon="5.64241">
        <ele>329</ele>
        <time>2020-05-17T14:17:11.451Z</time>
      </trkpt>
      <trkpt lat="45.75377" lon="5.64243">
        <ele>329</ele>
        <time>2020-05-17T14:17:16.510Z</time>
      </trkpt>
      <trkpt lat="45.75377" lon="5.64245">
        <ele>329</ele>
        <time>2020-05-17T14:17:21.460Z</time>
      </trkpt>
      <trkpt lat="45.75378" lon="5.64246">
        <ele>329</ele>
        <time>2020-05-17T14:17:26.447Z</time>
      </trkpt>
      <trkpt lat="45.75379" lon="5.64251">
        <ele>329</ele>
        <time>2020-05-17T14:17:44.416Z</time>
      </trkpt>
      <trkpt lat="45.75379" lon="5.64255">
        <ele>329</ele>
        <time>2020-05-17T14:17:48.433Z</time>
      </trkpt>
      <trkpt lat="45.7538" lon="5.64259">
        <ele>329</ele>
        <time>2020-05-17T14:17:52.519Z</time>
      </trkpt>
      <trkpt lat="45.7538" lon="5.6426">
        <ele>329</ele>
        <time>2020-05-17T14:17:57.459Z</time>
      </trkpt>
      <trkpt lat="45.7538" lon="5.64262">
        <ele>329</ele>
        <time>2020-05-17T14:18:02.465Z</time>
      </trkpt>
      <trkpt lat="45.7538" lon="5.64274">
        <ele>325</ele>
        <time>2020-05-17T14:19:17.436Z</time>
      </trkpt>
      <trkpt lat="45.75374" lon="5.64279">
        <ele>326</ele>
        <time>2020-05-17T14:19:22.463Z</time>
      </trkpt>
      <trkpt lat="45.75371" lon="5.6428">
        <ele>326</ele>
        <time>2020-05-17T14:19:26.462Z</time>
      </trkpt>
      <trkpt lat="45.75364" lon="5.64284">
        <ele>326</ele>
        <time>2020-05-17T14:19:31.441Z</time>
      </trkpt>
      <trkpt lat="45.7536" lon="5.64288">
        <ele>326</ele>
        <time>2020-05-17T14:19:36.470Z</time>
      </trkpt>
      <trkpt lat="45.75356" lon="5.64293">
        <ele>324</ele>
        <time>2020-05-17T14:19:41.475Z</time>
      </trkpt>
      <trkpt lat="45.75353" lon="5.64293">
        <ele>324</ele>
        <time>2020-05-17T14:19:46.446Z</time>
      </trkpt>
      <trkpt lat="45.75348" lon="5.64299">
        <ele>324</ele>
        <time>2020-05-17T14:19:50.491Z</time>
      </trkpt>
      <trkpt lat="45.75342" lon="5.64304">
        <ele>324</ele>
        <time>2020-05-17T14:19:55.444Z</time>
      </trkpt>
      <trkpt lat="45.75335" lon="5.64307">
        <ele>324</ele>
        <time>2020-05-17T14:20:00.516Z</time>
      </trkpt>
      <trkpt lat="45.75329" lon="5.6431">
        <ele>324</ele>
        <time>2020-05-17T14:20:05.455Z</time>
      </trkpt>
      <trkpt lat="45.75324" lon="5.64312">
        <ele>324</ele>
        <time>2020-05-17T14:20:10.462Z</time>
      </trkpt>
      <trkpt lat="45.75319" lon="5.64319">
        <ele>326</ele>
        <time>2020-05-17T14:20:15.418Z</time>
      </trkpt>
      <trkpt lat="45.75314" lon="5.64321">
        <ele>323</ele>
        <time>2020-05-17T14:20:19.460Z</time>
      </trkpt>
      <trkpt lat="45.7531" lon="5.64323">
        <ele>323</ele>
        <time>2020-05-17T14:20:24.465Z</time>
      </trkpt>
      <trkpt lat="45.75307" lon="5.64324">
        <ele>323</ele>
        <time>2020-05-17T14:20:29.449Z</time>
      </trkpt>
      <trkpt lat="45.75301" lon="5.64327">
        <ele>323</ele>
        <time>2020-05-17T14:20:33.451Z</time>
      </trkpt>
      <trkpt lat="45.75295" lon="5.64329">
        <ele>323</ele>
        <time>2020-05-17T14:20:38.457Z</time>
      </trkpt>
      <trkpt lat="45.75293" lon="5.6433">
        <ele>323</ele>
        <time>2020-05-17T14:20:43.457Z</time>
      </trkpt>
      <trkpt lat="45.75287" lon="5.64334">
        <ele>322</ele>
        <time>2020-05-17T14:20:48.446Z</time>
      </trkpt>
      <trkpt lat="45.7528" lon="5.64335">
        <ele>322</ele>
        <time>2020-05-17T14:20:52.526Z</time>
      </trkpt>
      <trkpt lat="45.7527" lon="5.64339">
        <ele>322</ele>
        <time>2020-05-17T14:20:57.445Z</time>
      </trkpt>
      <trkpt lat="45.75263" lon="5.64341">
        <ele>323</ele>
        <time>2020-05-17T14:21:02.444Z</time>
      </trkpt>
      <trkpt lat="45.75255" lon="5.64346">
        <ele>323</ele>
        <time>2020-05-17T14:21:07.453Z</time>
      </trkpt>
      <trkpt lat="45.75249" lon="5.64345">
        <ele>323</ele>
        <time>2020-05-17T14:21:12.452Z</time>
      </trkpt>
      <trkpt lat="45.75246" lon="5.64344">
        <ele>323</ele>
        <time>2020-05-17T14:21:17.479Z</time>
      </trkpt>
      <trkpt lat="45.75243" lon="5.64342">
        <ele>323</ele>
        <time>2020-05-17T14:21:22.489Z</time>
      </trkpt>
      <trkpt lat="45.7524" lon="5.64343">
        <ele>323</ele>
        <time>2020-05-17T14:21:27.457Z</time>
      </trkpt>
      <trkpt lat="45.75232" lon="5.64343">
        <ele>324</ele>
        <time>2020-05-17T14:21:31.465Z</time>
      </trkpt>
      <trkpt lat="45.75223" lon="5.64343">
        <ele>324</ele>
        <time>2020-05-17T14:21:36.482Z</time>
      </trkpt>
      <trkpt lat="45.75217" lon="5.6434">
        <ele>324</ele>
        <time>2020-05-17T14:21:41.447Z</time>
      </trkpt>
      <trkpt lat="45.7521" lon="5.64338">
        <ele>324</ele>
        <time>2020-05-17T14:21:46.470Z</time>
      </trkpt>
      <trkpt lat="45.75202" lon="5.64337">
        <ele>323</ele>
        <time>2020-05-17T14:21:51.453Z</time>
      </trkpt>
      <trkpt lat="45.75197" lon="5.64336">
        <ele>323</ele>
        <time>2020-05-17T14:21:56.464Z</time>
      </trkpt>
      <trkpt lat="45.75191" lon="5.64335">
        <ele>323</ele>
        <time>2020-05-17T14:22:01.471Z</time>
      </trkpt>
      <trkpt lat="45.75186" lon="5.64337">
        <ele>323</ele>
        <time>2020-05-17T14:22:06.436Z</time>
      </trkpt>
      <trkpt lat="45.75181" lon="5.64337">
        <ele>323</ele>
        <time>2020-05-17T14:22:11.501Z</time>
      </trkpt>
      <trkpt lat="45.75173" lon="5.64337">
        <ele>326</ele>
        <time>2020-05-17T14:22:16.450Z</time>
      </trkpt>
      <trkpt lat="45.75164" lon="5.64337">
        <ele>326</ele>
        <time>2020-05-17T14:22:21.448Z</time>
      </trkpt>
      <trkpt lat="45.75158" lon="5.6434">
        <ele>326</ele>
        <time>2020-05-17T14:22:26.451Z</time>
      </trkpt>
      <trkpt lat="45.75151" lon="5.64341">
        <ele>328</ele>
        <time>2020-05-17T14:22:31.430Z</time>
      </trkpt>
      <trkpt lat="45.75145" lon="5.64342">
        <ele>328</ele>
        <time>2020-05-17T14:22:35.444Z</time>
      </trkpt>
      <trkpt lat="45.75137" lon="5.64341">
        <ele>328</ele>
        <time>2020-05-17T14:22:40.494Z</time>
      </trkpt>
      <trkpt lat="45.7513" lon="5.64342">
        <ele>328</ele>
        <time>2020-05-17T14:22:45.450Z</time>
      </trkpt>
      <trkpt lat="45.75123" lon="5.64342">
        <ele>327</ele>
        <time>2020-05-17T14:22:50.471Z</time>
      </trkpt>
      <trkpt lat="45.75112" lon="5.64339">
        <ele>327</ele>
        <time>2020-05-17T14:23:30.437Z</time>
      </trkpt>
      <trkpt lat="45.75112" lon="5.64339">
        <ele>327</ele>
        <time>2020-05-17T14:23:35.443Z</time>
      </trkpt>
      <trkpt lat="45.75111" lon="5.64339">
        <ele>327</ele>
        <time>2020-05-17T14:23:40.429Z</time>
      </trkpt>
      <trkpt lat="45.75108" lon="5.64339">
        <ele>327</ele>
        <time>2020-05-17T14:23:44.464Z</time>
      </trkpt>
      <trkpt lat="45.75105" lon="5.64341">
        <ele>327</ele>
        <time>2020-05-17T14:23:48.466Z</time>
      </trkpt>
      <trkpt lat="45.75101" lon="5.64342">
        <ele>327</ele>
        <time>2020-05-17T14:23:52.459Z</time>
      </trkpt>
      <trkpt lat="45.75098" lon="5.64343">
        <ele>327</ele>
        <time>2020-05-17T14:23:57.496Z</time>
      </trkpt>
      <trkpt lat="45.75094" lon="5.64344">
        <ele>325</ele>
        <time>2020-05-17T14:24:01.463Z</time>
      </trkpt>
      <trkpt lat="45.75086" lon="5.64347">
        <ele>333</ele>
        <time>2020-05-17T14:24:06.489Z</time>
      </trkpt>
      <trkpt lat="45.75081" lon="5.64347">
        <ele>333</ele>
        <time>2020-05-17T14:24:11.425Z</time>
      </trkpt>
      <trkpt lat="45.75077" lon="5.64349">
        <ele>333</ele>
        <time>2020-05-17T14:24:15.465Z</time>
      </trkpt>
      <trkpt lat="45.75069" lon="5.64348">
        <ele>330</ele>
        <time>2020-05-17T14:24:19.466Z</time>
      </trkpt>
      <trkpt lat="45.75062" lon="5.64347">
        <ele>324</ele>
        <time>2020-05-17T14:24:24.450Z</time>
      </trkpt>
      <trkpt lat="45.75055" lon="5.64346">
        <ele>324</ele>
        <time>2020-05-17T14:24:34.477Z</time>
      </trkpt>
      <trkpt lat="45.75054" lon="5.64346">
        <ele>324</ele>
        <time>2020-05-17T14:24:39.441Z</time>
      </trkpt>
      <trkpt lat="45.75053" lon="5.64346">
        <ele>324</ele>
        <time>2020-05-17T14:24:43.454Z</time>
      </trkpt>
      <trkpt lat="45.7505" lon="5.64346">
        <ele>324</ele>
        <time>2020-05-17T14:24:48.438Z</time>
      </trkpt>
      <trkpt lat="45.75045" lon="5.64346">
        <ele>324</ele>
        <time>2020-05-17T14:24:52.452Z</time>
      </trkpt>
      <trkpt lat="45.75044" lon="5.64345">
        <ele>324</ele>
        <time>2020-05-17T14:25:01.427Z</time>
      </trkpt>
      <trkpt lat="45.75044" lon="5.64345">
        <ele>324</ele>
        <time>2020-05-17T14:25:06.458Z</time>
      </trkpt>
      <trkpt lat="45.7504" lon="5.64345">
        <ele>324</ele>
        <time>2020-05-17T14:25:11.454Z</time>
      </trkpt>
      <trkpt lat="45.75038" lon="5.64345">
        <ele>324</ele>
        <time>2020-05-17T14:25:15.458Z</time>
      </trkpt>
      <trkpt lat="45.75033" lon="5.64347">
        <ele>330</ele>
        <time>2020-05-17T14:25:19.455Z</time>
      </trkpt>
      <trkpt lat="45.75028" lon="5.64348">
        <ele>330</ele>
        <time>2020-05-17T14:25:24.462Z</time>
      </trkpt>
      <trkpt lat="45.75022" lon="5.64349">
        <ele>330</ele>
        <time>2020-05-17T14:25:29.454Z</time>
      </trkpt>
      <trkpt lat="45.75016" lon="5.64349">
        <ele>330</ele>
        <time>2020-05-17T14:25:34.459Z</time>
      </trkpt>
      <trkpt lat="45.75008" lon="5.64349">
        <ele>329</ele>
        <time>2020-05-17T14:25:38.458Z</time>
      </trkpt>
      <trkpt lat="45.75002" lon="5.6435">
        <ele>329</ele>
        <time>2020-05-17T14:25:43.445Z</time>
      </trkpt>
      <trkpt lat="45.74997" lon="5.6435">
        <ele>329</ele>
        <time>2020-05-17T14:25:48.471Z</time>
      </trkpt>
      <trkpt lat="45.74989" lon="5.64352">
        <ele>329</ele>
        <time>2020-05-17T14:25:53.457Z</time>
      </trkpt>
      <trkpt lat="45.74982" lon="5.64354">
        <ele>327</ele>
        <time>2020-05-17T14:25:58.447Z</time>
      </trkpt>
      <trkpt lat="45.74976" lon="5.64355">
        <ele>327</ele>
        <time>2020-05-17T14:26:03.457Z</time>
      </trkpt>
      <trkpt lat="45.74969" lon="5.64356">
        <ele>327</ele>
        <time>2020-05-17T14:26:07.513Z</time>
      </trkpt>
      <trkpt lat="45.74962" lon="5.64359">
        <ele>327</ele>
        <time>2020-05-17T14:26:12.461Z</time>
      </trkpt>
      <trkpt lat="45.74956" lon="5.6436">
        <ele>324</ele>
        <time>2020-05-17T14:26:17.475Z</time>
      </trkpt>
      <trkpt lat="45.74947" lon="5.64361">
        <ele>324</ele>
        <time>2020-05-17T14:26:22.465Z</time>
      </trkpt>
      <trkpt lat="45.74942" lon="5.64361">
        <ele>324</ele>
        <time>2020-05-17T14:26:27.416Z</time>
      </trkpt>
      <trkpt lat="45.74935" lon="5.64362">
        <ele>324</ele>
        <time>2020-05-17T14:26:32.408Z</time>
      </trkpt>
      <trkpt lat="45.74931" lon="5.64364">
        <ele>324</ele>
        <time>2020-05-17T14:26:36.451Z</time>
      </trkpt>
      <trkpt lat="45.74924" lon="5.64367">
        <ele>324</ele>
        <time>2020-05-17T14:26:41.416Z</time>
      </trkpt>
      <trkpt lat="45.74919" lon="5.64367">
        <ele>324</ele>
        <time>2020-05-17T14:26:45.414Z</time>
      </trkpt>
      <trkpt lat="45.74913" lon="5.64367">
        <ele>324</ele>
        <time>2020-05-17T14:26:50.449Z</time>
      </trkpt>
      <trkpt lat="45.74909" lon="5.64368">
        <ele>324</ele>
        <time>2020-05-17T14:26:54.453Z</time>
      </trkpt>
      <trkpt lat="45.74903" lon="5.64369">
        <ele>324</ele>
        <time>2020-05-17T14:26:59.439Z</time>
      </trkpt>
      <trkpt lat="45.74899" lon="5.6437">
        <ele>325</ele>
        <time>2020-05-17T14:27:03.469Z</time>
      </trkpt>
      <trkpt lat="45.74892" lon="5.64369">
        <ele>325</ele>
        <time>2020-05-17T14:27:08.442Z</time>
      </trkpt>
      <trkpt lat="45.74887" lon="5.64368">
        <ele>325</ele>
        <time>2020-05-17T14:27:13.430Z</time>
      </trkpt>
      <trkpt lat="45.7488" lon="5.64366">
        <ele>325</ele>
        <time>2020-05-17T14:27:18.433Z</time>
      </trkpt>
      <trkpt lat="45.74875" lon="5.64365">
        <ele>325</ele>
        <time>2020-05-17T14:27:22.449Z</time>
      </trkpt>
      <trkpt lat="45.74868" lon="5.64363">
        <ele>325</ele>
        <time>2020-05-17T14:27:27.406Z</time>
      </trkpt>
      <trkpt lat="45.74862" lon="5.64362">
        <ele>325</ele>
        <time>2020-05-17T14:27:31.417Z</time>
      </trkpt>
      <trkpt lat="45.74856" lon="5.64361">
        <ele>325</ele>
        <time>2020-05-17T14:27:35.431Z</time>
      </trkpt>
      <trkpt lat="45.74852" lon="5.64361">
        <ele>325</ele>
        <time>2020-05-17T14:27:39.463Z</time>
      </trkpt>
      <trkpt lat="45.74846" lon="5.6436">
        <ele>323</ele>
        <time>2020-05-17T14:27:44.426Z</time>
      </trkpt>
      <trkpt lat="45.7484" lon="5.64361">
        <ele>323</ele>
        <time>2020-05-17T14:27:49.425Z</time>
      </trkpt>
      <trkpt lat="45.74833" lon="5.64363">
        <ele>323</ele>
        <time>2020-05-17T14:27:54.429Z</time>
      </trkpt>
      <trkpt lat="45.74827" lon="5.64363">
        <ele>323</ele>
        <time>2020-05-17T14:27:58.451Z</time>
      </trkpt>
      <trkpt lat="45.7482" lon="5.64363">
        <ele>323</ele>
        <time>2020-05-17T14:28:03.448Z</time>
      </trkpt>
      <trkpt lat="45.74816" lon="5.64363">
        <ele>323</ele>
        <time>2020-05-17T14:28:07.486Z</time>
      </trkpt>
      <trkpt lat="45.74811" lon="5.64363">
        <ele>323</ele>
        <time>2020-05-17T14:28:12.449Z</time>
      </trkpt>
      <trkpt lat="45.74804" lon="5.64364">
        <ele>323</ele>
        <time>2020-05-17T14:28:17.470Z</time>
      </trkpt>
      <trkpt lat="45.74799" lon="5.64367">
        <ele>323</ele>
        <time>2020-05-17T14:28:22.454Z</time>
      </trkpt>
      <trkpt lat="45.74793" lon="5.6437">
        <ele>323</ele>
        <time>2020-05-17T14:28:27.446Z</time>
      </trkpt>
      <trkpt lat="45.74789" lon="5.6437">
        <ele>322</ele>
        <time>2020-05-17T14:28:31.517Z</time>
      </trkpt>
      <trkpt lat="45.74784" lon="5.64371">
        <ele>322</ele>
        <time>2020-05-17T14:28:36.462Z</time>
      </trkpt>
      <trkpt lat="45.74778" lon="5.64374">
        <ele>322</ele>
        <time>2020-05-17T14:28:40.469Z</time>
      </trkpt>
      <trkpt lat="45.74776" lon="5.64375">
        <ele>327</ele>
        <time>2020-05-17T14:28:45.500Z</time>
      </trkpt>
      <trkpt lat="45.74771" lon="5.64375">
        <ele>327</ele>
        <time>2020-05-17T14:28:50.469Z</time>
      </trkpt>
      <trkpt lat="45.74766" lon="5.64376">
        <ele>327</ele>
        <time>2020-05-17T14:28:55.464Z</time>
      </trkpt>
      <trkpt lat="45.74765" lon="5.64376">
        <ele>327</ele>
        <time>2020-05-17T14:29:00.462Z</time>
      </trkpt>
      <trkpt lat="45.74756" lon="5.64375">
        <ele>320</ele>
        <time>2020-05-17T14:29:05.451Z</time>
      </trkpt>
      <trkpt lat="45.74749" lon="5.64376">
        <ele>326</ele>
        <time>2020-05-17T14:29:09.447Z</time>
      </trkpt>
      <trkpt lat="45.74742" lon="5.64378">
        <ele>326</ele>
        <time>2020-05-17T14:29:13.533Z</time>
      </trkpt>
      <trkpt lat="45.74737" lon="5.6438">
        <ele>326</ele>
        <time>2020-05-17T14:29:18.484Z</time>
      </trkpt>
      <trkpt lat="45.74737" lon="5.64379">
        <ele>326</ele>
        <time>2020-05-17T14:29:23.442Z</time>
      </trkpt>
      <trkpt lat="45.74736" lon="5.64376">
        <ele>322</ele>
        <time>2020-05-17T14:29:46.457Z</time>
      </trkpt>
      <trkpt lat="45.7473" lon="5.64374">
        <ele>319</ele>
        <time>2020-05-17T14:29:51.446Z</time>
      </trkpt>
      <trkpt lat="45.7473" lon="5.64374">
        <ele>319</ele>
        <time>2020-05-17T14:29:56.442Z</time>
      </trkpt>
      <trkpt lat="45.7473" lon="5.64374">
        <ele>319</ele>
        <time>2020-05-17T14:30:01.456Z</time>
      </trkpt>
      <trkpt lat="45.74729" lon="5.64373">
        <ele>319</ele>
        <time>2020-05-17T14:30:05.449Z</time>
      </trkpt>
      <trkpt lat="45.74728" lon="5.6438">
        <ele>322</ele>
        <time>2020-05-17T14:30:39.442Z</time>
      </trkpt>
      <trkpt lat="45.74723" lon="5.6438">
        <ele>322</ele>
        <time>2020-05-17T14:30:44.433Z</time>
      </trkpt>
      <trkpt lat="45.74718" lon="5.64381">
        <ele>322</ele>
        <time>2020-05-17T14:30:48.451Z</time>
      </trkpt>
      <trkpt lat="45.74714" lon="5.64382">
        <ele>322</ele>
        <time>2020-05-17T14:30:52.514Z</time>
      </trkpt>
      <trkpt lat="45.74708" lon="5.64385">
        <ele>316</ele>
        <time>2020-05-17T14:30:57.458Z</time>
      </trkpt>
      <trkpt lat="45.74702" lon="5.64387">
        <ele>316</ele>
        <time>2020-05-17T14:31:02.438Z</time>
      </trkpt>
      <trkpt lat="45.74697" lon="5.64389">
        <ele>316</ele>
        <time>2020-05-17T14:31:06.471Z</time>
      </trkpt>
      <trkpt lat="45.74694" lon="5.64389">
        <ele>316</ele>
        <time>2020-05-17T14:31:10.458Z</time>
      </trkpt>
      <trkpt lat="45.7469" lon="5.64389">
        <ele>316</ele>
        <time>2020-05-17T14:31:15.432Z</time>
      </trkpt>
      <trkpt lat="45.74686" lon="5.64389">
        <ele>316</ele>
        <time>2020-05-17T14:31:19.444Z</time>
      </trkpt>
      <trkpt lat="45.74681" lon="5.6439">
        <ele>316</ele>
        <time>2020-05-17T14:31:24.413Z</time>
      </trkpt>
      <trkpt lat="45.74677" lon="5.64391">
        <ele>313</ele>
        <time>2020-05-17T14:31:28.454Z</time>
      </trkpt>
      <trkpt lat="45.74669" lon="5.64392">
        <ele>313</ele>
        <time>2020-05-17T14:31:33.441Z</time>
      </trkpt>
      <trkpt lat="45.74663" lon="5.64392">
        <ele>313</ele>
        <time>2020-05-17T14:31:38.461Z</time>
      </trkpt>
      <trkpt lat="45.7466" lon="5.64392">
        <ele>313</ele>
        <time>2020-05-17T14:31:43.481Z</time>
      </trkpt>
      <trkpt lat="45.74653" lon="5.64392">
        <ele>313</ele>
        <time>2020-05-17T14:31:48.456Z</time>
      </trkpt>
      <trkpt lat="45.74647" lon="5.64393">
        <ele>313</ele>
        <time>2020-05-17T14:31:52.458Z</time>
      </trkpt>
      <trkpt lat="45.74643" lon="5.64395">
        <ele>313</ele>
        <time>2020-05-17T14:31:57.445Z</time>
      </trkpt>
      <trkpt lat="45.74637" lon="5.64397">
        <ele>313</ele>
        <time>2020-05-17T14:32:02.454Z</time>
      </trkpt>
      <trkpt lat="45.74631" lon="5.64396">
        <ele>313</ele>
        <time>2020-05-17T14:32:07.443Z</time>
      </trkpt>
      <trkpt lat="45.74626" lon="5.64396">
        <ele>313</ele>
        <time>2020-05-17T14:32:12.493Z</time>
      </trkpt>
      <trkpt lat="45.74624" lon="5.64396">
        <ele>312</ele>
        <time>2020-05-17T14:32:16.462Z</time>
      </trkpt>
      <trkpt lat="45.74616" lon="5.64398">
        <ele>312</ele>
        <time>2020-05-17T14:32:21.447Z</time>
      </trkpt>
      <trkpt lat="45.7461" lon="5.644">
        <ele>312</ele>
        <time>2020-05-17T14:32:26.459Z</time>
      </trkpt>
      <trkpt lat="45.74608" lon="5.644">
        <ele>312</ele>
        <time>2020-05-17T14:32:31.449Z</time>
      </trkpt>
      <trkpt lat="45.74601" lon="5.644">
        <ele>312</ele>
        <time>2020-05-17T14:32:35.446Z</time>
      </trkpt>
      <trkpt lat="45.74593" lon="5.64401">
        <ele>308</ele>
        <time>2020-05-17T14:32:40.419Z</time>
      </trkpt>
      <trkpt lat="45.74585" lon="5.64405">
        <ele>312</ele>
        <time>2020-05-17T14:32:45.440Z</time>
      </trkpt>
      <trkpt lat="45.74581" lon="5.64406">
        <ele>312</ele>
        <time>2020-05-17T14:32:50.478Z</time>
      </trkpt>
      <trkpt lat="45.74576" lon="5.64405">
        <ele>312</ele>
        <time>2020-05-17T14:32:55.456Z</time>
      </trkpt>
      <trkpt lat="45.74569" lon="5.64405">
        <ele>309</ele>
        <time>2020-05-17T14:33:00.438Z</time>
      </trkpt>
      <trkpt lat="45.74563" lon="5.64406">
        <ele>309</ele>
        <time>2020-05-17T14:33:05.486Z</time>
      </trkpt>
      <trkpt lat="45.74552" lon="5.64406">
        <ele>309</ele>
        <time>2020-05-17T14:33:10.447Z</time>
      </trkpt>
      <trkpt lat="45.74546" lon="5.64403">
        <ele>309</ele>
        <time>2020-05-17T14:33:14.474Z</time>
      </trkpt>
      <trkpt lat="45.74539" lon="5.64404">
        <ele>308</ele>
        <time>2020-05-17T14:33:18.509Z</time>
      </trkpt>
      <trkpt lat="45.74532" lon="5.64404">
        <ele>308</ele>
        <time>2020-05-17T14:33:23.472Z</time>
      </trkpt>
      <trkpt lat="45.74527" lon="5.64405">
        <ele>308</ele>
        <time>2020-05-17T14:33:28.496Z</time>
      </trkpt>
      <trkpt lat="45.74522" lon="5.64408">
        <ele>308</ele>
        <time>2020-05-17T14:33:33.464Z</time>
      </trkpt>
      <trkpt lat="45.74515" lon="5.64409">
        <ele>308</ele>
        <time>2020-05-17T14:33:38.466Z</time>
      </trkpt>
      <trkpt lat="45.74507" lon="5.6441">
        <ele>304</ele>
        <time>2020-05-17T14:33:43.456Z</time>
      </trkpt>
      <trkpt lat="45.74503" lon="5.64412">
        <ele>304</ele>
        <time>2020-05-17T14:33:47.453Z</time>
      </trkpt>
      <trkpt lat="45.745" lon="5.64413">
        <ele>304</ele>
        <time>2020-05-17T14:33:52.457Z</time>
      </trkpt>
      <trkpt lat="45.74494" lon="5.64416">
        <ele>304</ele>
        <time>2020-05-17T14:33:57.446Z</time>
      </trkpt>
      <trkpt lat="45.74489" lon="5.64418">
        <ele>304</ele>
        <time>2020-05-17T14:34:01.475Z</time>
      </trkpt>
      <trkpt lat="45.74484" lon="5.6442">
        <ele>297</ele>
        <time>2020-05-17T14:34:06.454Z</time>
      </trkpt>
      <trkpt lat="45.74481" lon="5.64419">
        <ele>297</ele>
        <time>2020-05-17T14:34:11.442Z</time>
      </trkpt>
      <trkpt lat="45.74479" lon="5.6442">
        <ele>297</ele>
        <time>2020-05-17T14:34:16.409Z</time>
      </trkpt>
      <trkpt lat="45.74475" lon="5.64424">
        <ele>297</ele>
        <time>2020-05-17T14:34:20.434Z</time>
      </trkpt>
      <trkpt lat="45.74468" lon="5.64428">
        <ele>297</ele>
        <time>2020-05-17T14:34:24.429Z</time>
      </trkpt>
      <trkpt lat="45.74463" lon="5.64431">
        <ele>300</ele>
        <time>2020-05-17T14:34:29.399Z</time>
      </trkpt>
      <trkpt lat="45.74457" lon="5.64434">
        <ele>294</ele>
        <time>2020-05-17T14:34:33.431Z</time>
      </trkpt>
      <trkpt lat="45.74451" lon="5.64439">
        <ele>294</ele>
        <time>2020-05-17T14:34:37.456Z</time>
      </trkpt>
      <trkpt lat="45.74449" lon="5.64441">
        <ele>294</ele>
        <time>2020-05-17T14:34:42.458Z</time>
      </trkpt>
      <trkpt lat="45.74443" lon="5.64448">
        <ele>294</ele>
        <time>2020-05-17T14:34:46.469Z</time>
      </trkpt>
      <trkpt lat="45.74439" lon="5.64452">
        <ele>294</ele>
        <time>2020-05-17T14:34:51.444Z</time>
      </trkpt>
      <trkpt lat="45.74436" lon="5.64455">
        <ele>294</ele>
        <time>2020-05-17T14:34:56.452Z</time>
      </trkpt>
      <trkpt lat="45.7443" lon="5.64459">
        <ele>292</ele>
        <time>2020-05-17T14:35:01.441Z</time>
      </trkpt>
      <trkpt lat="45.74428" lon="5.64462">
        <ele>292</ele>
        <time>2020-05-17T14:35:05.474Z</time>
      </trkpt>
      <trkpt lat="45.74426" lon="5.64468">
        <ele>292</ele>
        <time>2020-05-17T14:35:10.473Z</time>
      </trkpt>
      <trkpt lat="45.74425" lon="5.6447">
        <ele>292</ele>
        <time>2020-05-17T14:35:15.444Z</time>
      </trkpt>
      <trkpt lat="45.74425" lon="5.64481">
        <ele>292</ele>
        <time>2020-05-17T14:35:20.464Z</time>
      </trkpt>
      <trkpt lat="45.74426" lon="5.64489">
        <ele>294</ele>
        <time>2020-05-17T14:35:24.499Z</time>
      </trkpt>
      <trkpt lat="45.74426" lon="5.64496">
        <ele>294</ele>
        <time>2020-05-17T14:35:29.464Z</time>
      </trkpt>
      <trkpt lat="45.74425" lon="5.64504">
        <ele>294</ele>
        <time>2020-05-17T14:35:34.464Z</time>
      </trkpt>
      <trkpt lat="45.74423" lon="5.64507">
        <ele>294</ele>
        <time>2020-05-17T14:35:39.474Z</time>
      </trkpt>
      <trkpt lat="45.74418" lon="5.64509">
        <ele>294</ele>
        <time>2020-05-17T14:35:44.455Z</time>
      </trkpt>
      <trkpt lat="45.74413" lon="5.64508">
        <ele>294</ele>
        <time>2020-05-17T14:35:49.474Z</time>
      </trkpt>
      <trkpt lat="45.74411" lon="5.64509">
        <ele>294</ele>
        <time>2020-05-17T14:35:54.461Z</time>
      </trkpt>
      <trkpt lat="45.74409" lon="5.6451">
        <ele>294</ele>
        <time>2020-05-17T14:35:59.414Z</time>
      </trkpt>
      <trkpt lat="45.74409" lon="5.64511">
        <ele>294</ele>
        <time>2020-05-17T14:36:03.449Z</time>
      </trkpt>
      <trkpt lat="45.74412" lon="5.64512">
        <ele>294</ele>
        <time>2020-05-17T14:37:43.471Z</time>
      </trkpt>
      <trkpt lat="45.74413" lon="5.64512">
        <ele>294</ele>
        <time>2020-05-17T14:37:48.454Z</time>
      </trkpt>
      <trkpt lat="45.74413" lon="5.64513">
        <ele>294</ele>
        <time>2020-05-17T14:37:53.447Z</time>
      </trkpt>
      <trkpt lat="45.74414" lon="5.64513">
        <ele>294</ele>
        <time>2020-05-17T14:37:57.454Z</time>
      </trkpt>
      <trkpt lat="45.74417" lon="5.6452">
        <ele>298</ele>
        <time>2020-05-17T14:38:02.510Z</time>
      </trkpt>
      <trkpt lat="45.74423" lon="5.64529">
        <ele>298</ele>
        <time>2020-05-17T14:38:07.457Z</time>
      </trkpt>
      <trkpt lat="45.74424" lon="5.64532">
        <ele>298</ele>
        <time>2020-05-17T14:38:11.465Z</time>
      </trkpt>
      <trkpt lat="45.74424" lon="5.64538">
        <ele>298</ele>
        <time>2020-05-17T14:38:16.461Z</time>
      </trkpt>
      <trkpt lat="45.74425" lon="5.64542">
        <ele>300</ele>
        <time>2020-05-17T14:38:21.451Z</time>
      </trkpt>
      <trkpt lat="45.74426" lon="5.64549">
        <ele>300</ele>
        <time>2020-05-17T14:38:26.469Z</time>
      </trkpt>
      <trkpt lat="45.74426" lon="5.64553">
        <ele>300</ele>
        <time>2020-05-17T14:38:31.467Z</time>
      </trkpt>
      <trkpt lat="45.74428" lon="5.64562">
        <ele>300</ele>
        <time>2020-05-17T14:38:36.466Z</time>
      </trkpt>
      <trkpt lat="45.74428" lon="5.64574">
        <ele>299</ele>
        <time>2020-05-17T14:38:41.451Z</time>
      </trkpt>
      <trkpt lat="45.74427" lon="5.64586">
        <ele>299</ele>
        <time>2020-05-17T14:38:46.459Z</time>
      </trkpt>
      <trkpt lat="45.74425" lon="5.64594">
        <ele>299</ele>
        <time>2020-05-17T14:38:51.466Z</time>
      </trkpt>
      <trkpt lat="45.74425" lon="5.64596">
        <ele>299</ele>
        <time>2020-05-17T14:38:56.449Z</time>
      </trkpt>
      <trkpt lat="45.74425" lon="5.64601">
        <ele>299</ele>
        <time>2020-05-17T14:39:01.479Z</time>
      </trkpt>
      <trkpt lat="45.74424" lon="5.64615">
        <ele>299</ele>
        <time>2020-05-17T14:39:06.464Z</time>
      </trkpt>
      <trkpt lat="45.7442" lon="5.64624">
        <ele>299</ele>
        <time>2020-05-17T14:39:11.516Z</time>
      </trkpt>
      <trkpt lat="45.74418" lon="5.64633">
        <ele>299</ele>
        <time>2020-05-17T14:39:16.406Z</time>
      </trkpt>
      <trkpt lat="45.74417" lon="5.64644">
        <ele>299</ele>
        <time>2020-05-17T14:39:20.458Z</time>
      </trkpt>
      <trkpt lat="45.74417" lon="5.6465">
        <ele>299</ele>
        <time>2020-05-17T14:39:25.430Z</time>
      </trkpt>
      <trkpt lat="45.74416" lon="5.64651">
        <ele>299</ele>
        <time>2020-05-17T14:39:30.444Z</time>
      </trkpt>
      <trkpt lat="45.74416" lon="5.64652">
        <ele>299</ele>
        <time>2020-05-17T14:39:34.468Z</time>
      </trkpt>
      <trkpt lat="45.74416" lon="5.64654">
        <ele>293</ele>
        <time>2020-05-17T14:39:39.450Z</time>
      </trkpt>
      <trkpt lat="45.74417" lon="5.64661">
        <ele>293</ele>
        <time>2020-05-17T14:39:44.454Z</time>
      </trkpt>
      <trkpt lat="45.74419" lon="5.64669">
        <ele>293</ele>
        <time>2020-05-17T14:39:49.461Z</time>
      </trkpt>
      <trkpt lat="45.74419" lon="5.64672">
        <ele>293</ele>
        <time>2020-05-17T14:39:54.426Z</time>
      </trkpt>
      <trkpt lat="45.74419" lon="5.64674">
        <ele>293</ele>
        <time>2020-05-17T14:39:59.449Z</time>
      </trkpt>
      <trkpt lat="45.74419" lon="5.64677">
        <ele>293</ele>
        <time>2020-05-17T14:40:03.459Z</time>
      </trkpt>
      <trkpt lat="45.74418" lon="5.64684">
        <ele>290</ele>
        <time>2020-05-17T14:40:08.427Z</time>
      </trkpt>
      <trkpt lat="45.74417" lon="5.64692">
        <ele>290</ele>
        <time>2020-05-17T14:40:13.441Z</time>
      </trkpt>
      <trkpt lat="45.74417" lon="5.64698">
        <ele>290</ele>
        <time>2020-05-17T14:40:18.461Z</time>
      </trkpt>
      <trkpt lat="45.7441" lon="5.64714">
        <ele>287</ele>
        <time>2020-05-17T14:40:23.438Z</time>
      </trkpt>
      <trkpt lat="45.74408" lon="5.64724">
        <ele>287</ele>
        <time>2020-05-17T14:40:27.449Z</time>
      </trkpt>
      <trkpt lat="45.74407" lon="5.64731">
        <ele>287</ele>
        <time>2020-05-17T14:40:32.435Z</time>
      </trkpt>
      <trkpt lat="45.74405" lon="5.64736">
        <ele>287</ele>
        <time>2020-05-17T14:40:45.471Z</time>
      </trkpt>
      <trkpt lat="45.74404" lon="5.64738">
        <ele>286</ele>
        <time>2020-05-17T14:40:49.454Z</time>
      </trkpt>
      <trkpt lat="45.74403" lon="5.64739">
        <ele>286</ele>
        <time>2020-05-17T14:40:54.449Z</time>
      </trkpt>
      <trkpt lat="45.74402" lon="5.64741">
        <ele>281</ele>
        <time>2020-05-17T14:40:59.445Z</time>
      </trkpt>
      <trkpt lat="45.74401" lon="5.64743">
        <ele>281</ele>
        <time>2020-05-17T14:41:04.455Z</time>
      </trkpt>
      <trkpt lat="45.74399" lon="5.64745">
        <ele>281</ele>
        <time>2020-05-17T14:41:09.455Z</time>
      </trkpt>
      <trkpt lat="45.74396" lon="5.64748">
        <ele>281</ele>
        <time>2020-05-17T14:41:14.469Z</time>
      </trkpt>
      <trkpt lat="45.74388" lon="5.64759">
        <ele>281</ele>
        <time>2020-05-17T14:41:18.522Z</time>
      </trkpt>
      <trkpt lat="45.74383" lon="5.64766">
        <ele>281</ele>
        <time>2020-05-17T14:41:23.464Z</time>
      </trkpt>
      <trkpt lat="45.74379" lon="5.64773">
        <ele>281</ele>
        <time>2020-05-17T14:41:38.457Z</time>
      </trkpt>
      <trkpt lat="45.74378" lon="5.64774">
        <ele>281</ele>
        <time>2020-05-17T14:41:42.461Z</time>
      </trkpt>
      <trkpt lat="45.74377" lon="5.64777">
        <ele>281</ele>
        <time>2020-05-17T14:41:47.440Z</time>
      </trkpt>
      <trkpt lat="45.74376" lon="5.64779">
        <ele>281</ele>
        <time>2020-05-17T14:41:52.438Z</time>
      </trkpt>
      <trkpt lat="45.74373" lon="5.64784">
        <ele>289</ele>
        <time>2020-05-17T14:41:56.490Z</time>
      </trkpt>
      <trkpt lat="45.7437" lon="5.64793">
        <ele>285</ele>
        <time>2020-05-17T14:42:01.435Z</time>
      </trkpt>
      <trkpt lat="45.74365" lon="5.64802">
        <ele>285</ele>
        <time>2020-05-17T14:42:06.488Z</time>
      </trkpt>
      <trkpt lat="45.74365" lon="5.64804">
        <ele>285</ele>
        <time>2020-05-17T14:42:11.435Z</time>
      </trkpt>
      <trkpt lat="45.74363" lon="5.64806">
        <ele>285</ele>
        <time>2020-05-17T14:42:16.446Z</time>
      </trkpt>
      <trkpt lat="45.74358" lon="5.6482">
        <ele>281</ele>
        <time>2020-05-17T14:42:20.443Z</time>
      </trkpt>
      <trkpt lat="45.74349" lon="5.6484">
        <ele>281</ele>
        <time>2020-05-17T14:42:25.465Z</time>
      </trkpt>
      <trkpt lat="45.74344" lon="5.64855">
        <ele>283</ele>
        <time>2020-05-17T14:42:30.444Z</time>
      </trkpt>
      <trkpt lat="45.74339" lon="5.64864">
        <ele>283</ele>
        <time>2020-05-17T14:42:34.447Z</time>
      </trkpt>
      <trkpt lat="45.7433" lon="5.64877">
        <ele>277</ele>
        <time>2020-05-17T14:42:39.458Z</time>
      </trkpt>
      <trkpt lat="45.74318" lon="5.64893">
        <ele>283</ele>
        <time>2020-05-17T14:42:44.458Z</time>
      </trkpt>
      <trkpt lat="45.7431" lon="5.64905">
        <ele>277</ele>
        <time>2020-05-17T14:42:48.511Z</time>
      </trkpt>
      <trkpt lat="45.74302" lon="5.64912">
        <ele>277</ele>
        <time>2020-05-17T14:42:53.445Z</time>
      </trkpt>
      <trkpt lat="45.74291" lon="5.64919">
        <ele>278</ele>
        <time>2020-05-17T14:42:58.454Z</time>
      </trkpt>
      <trkpt lat="45.74282" lon="5.6492">
        <ele>278</ele>
        <time>2020-05-17T14:43:03.479Z</time>
      </trkpt>
      <trkpt lat="45.74273" lon="5.64922">
        <ele>278</ele>
        <time>2020-05-17T14:43:08.442Z</time>
      </trkpt>
      <trkpt lat="45.74267" lon="5.64925">
        <ele>278</ele>
        <time>2020-05-17T14:43:12.473Z</time>
      </trkpt>
      <trkpt lat="45.74256" lon="5.64927">
        <ele>274</ele>
        <time>2020-05-17T14:43:17.457Z</time>
      </trkpt>
      <trkpt lat="45.74248" lon="5.64926">
        <ele>274</ele>
        <time>2020-05-17T14:43:22.458Z</time>
      </trkpt>
      <trkpt lat="45.74241" lon="5.64926">
        <ele>274</ele>
        <time>2020-05-17T14:43:27.459Z</time>
      </trkpt>
      <trkpt lat="45.74233" lon="5.64926">
        <ele>271</ele>
        <time>2020-05-17T14:43:32.444Z</time>
      </trkpt>
      <trkpt lat="45.74226" lon="5.64924">
        <ele>271</ele>
        <time>2020-05-17T14:43:37.458Z</time>
      </trkpt>
      <trkpt lat="45.74221" lon="5.64922">
        <ele>271</ele>
        <time>2020-05-17T14:43:41.495Z</time>
      </trkpt>
      <trkpt lat="45.74216" lon="5.6492">
        <ele>271</ele>
        <time>2020-05-17T14:43:46.474Z</time>
      </trkpt>
      <trkpt lat="45.7421" lon="5.64919">
        <ele>271</ele>
        <time>2020-05-17T14:43:51.462Z</time>
      </trkpt>
      <trkpt lat="45.74204" lon="5.64916">
        <ele>274</ele>
        <time>2020-05-17T14:43:56.465Z</time>
      </trkpt>
      <trkpt lat="45.742" lon="5.64915">
        <ele>274</ele>
        <time>2020-05-17T14:44:01.462Z</time>
      </trkpt>
      <trkpt lat="45.74194" lon="5.64914">
        <ele>274</ele>
        <time>2020-05-17T14:44:06.454Z</time>
      </trkpt>
      <trkpt lat="45.74187" lon="5.64913">
        <ele>274</ele>
        <time>2020-05-17T14:44:11.455Z</time>
      </trkpt>
      <trkpt lat="45.74181" lon="5.64914">
        <ele>274</ele>
        <time>2020-05-17T14:44:16.517Z</time>
      </trkpt>
      <trkpt lat="45.74174" lon="5.64915">
        <ele>276</ele>
        <time>2020-05-17T14:44:21.477Z</time>
      </trkpt>
      <trkpt lat="45.74168" lon="5.64914">
        <ele>276</ele>
        <time>2020-05-17T14:44:26.458Z</time>
      </trkpt>
      <trkpt lat="45.74161" lon="5.64915">
        <ele>276</ele>
        <time>2020-05-17T14:44:31.457Z</time>
      </trkpt>
      <trkpt lat="45.74154" lon="5.64913">
        <ele>276</ele>
        <time>2020-05-17T14:44:36.470Z</time>
      </trkpt>
      <trkpt lat="45.74146" lon="5.6491">
        <ele>277</ele>
        <time>2020-05-17T14:44:41.463Z</time>
      </trkpt>
      <trkpt lat="45.74142" lon="5.6491">
        <ele>277</ele>
        <time>2020-05-17T14:44:45.458Z</time>
      </trkpt>
      <trkpt lat="45.74136" lon="5.64908">
        <ele>277</ele>
        <time>2020-05-17T14:44:49.462Z</time>
      </trkpt>
      <trkpt lat="45.7413" lon="5.64908">
        <ele>277</ele>
        <time>2020-05-17T14:44:54.443Z</time>
      </trkpt>
      <trkpt lat="45.74126" lon="5.64906">
        <ele>277</ele>
        <time>2020-05-17T14:44:58.516Z</time>
      </trkpt>
      <trkpt lat="45.74119" lon="5.64907">
        <ele>280</ele>
        <time>2020-05-17T14:45:03.413Z</time>
      </trkpt>
      <trkpt lat="45.74114" lon="5.64907">
        <ele>280</ele>
        <time>2020-05-17T14:45:07.487Z</time>
      </trkpt>
      <trkpt lat="45.74108" lon="5.64906">
        <ele>280</ele>
        <time>2020-05-17T14:45:12.470Z</time>
      </trkpt>
      <trkpt lat="45.741" lon="5.64907">
        <ele>280</ele>
        <time>2020-05-17T14:45:17.449Z</time>
      </trkpt>
      <trkpt lat="45.74094" lon="5.64908">
        <ele>281</ele>
        <time>2020-05-17T14:45:21.461Z</time>
      </trkpt>
      <trkpt lat="45.7409" lon="5.64908">
        <ele>281</ele>
        <time>2020-05-17T14:45:25.457Z</time>
      </trkpt>
      <trkpt lat="45.74082" lon="5.64908">
        <ele>281</ele>
        <time>2020-05-17T14:45:30.474Z</time>
      </trkpt>
      <trkpt lat="45.74076" lon="5.64907">
        <ele>281</ele>
        <time>2020-05-17T14:45:34.529Z</time>
      </trkpt>
      <trkpt lat="45.7407" lon="5.64906">
        <ele>281</ele>
        <time>2020-05-17T14:45:39.475Z</time>
      </trkpt>
      <trkpt lat="45.74063" lon="5.64905">
        <ele>280</ele>
        <time>2020-05-17T14:45:44.453Z</time>
      </trkpt>
      <trkpt lat="45.74058" lon="5.64904">
        <ele>280</ele>
        <time>2020-05-17T14:45:48.468Z</time>
      </trkpt>
      <trkpt lat="45.74054" lon="5.64902">
        <ele>289</ele>
        <time>2020-05-17T14:45:52.513Z</time>
      </trkpt>
      <trkpt lat="45.74051" lon="5.64902">
        <ele>289</ele>
        <time>2020-05-17T14:45:57.497Z</time>
      </trkpt>
      <trkpt lat="45.74043" lon="5.64902">
        <ele>289</ele>
        <time>2020-05-17T14:46:02.456Z</time>
      </trkpt>
      <trkpt lat="45.74036" lon="5.64902">
        <ele>290</ele>
        <time>2020-05-17T14:46:07.462Z</time>
      </trkpt>
      <trkpt lat="45.74029" lon="5.64903">
        <ele>282</ele>
        <time>2020-05-17T14:46:12.474Z</time>
      </trkpt>
      <trkpt lat="45.74021" lon="5.64904">
        <ele>282</ele>
        <time>2020-05-17T14:46:17.475Z</time>
      </trkpt>
      <trkpt lat="45.74015" lon="5.64904">
        <ele>282</ele>
        <time>2020-05-17T14:46:22.469Z</time>
      </trkpt>
      <trkpt lat="45.74007" lon="5.64904">
        <ele>284</ele>
        <time>2020-05-17T14:46:27.450Z</time>
      </trkpt>
      <trkpt lat="45.74005" lon="5.64904">
        <ele>284</ele>
        <time>2020-05-17T14:46:31.476Z</time>
      </trkpt>
      <trkpt lat="45.73996" lon="5.64903">
        <ele>284</ele>
        <time>2020-05-17T14:46:36.429Z</time>
      </trkpt>
      <trkpt lat="45.73988" lon="5.64903">
        <ele>291</ele>
        <time>2020-05-17T14:46:41.422Z</time>
      </trkpt>
      <trkpt lat="45.73981" lon="5.64902">
        <ele>292</ele>
        <time>2020-05-17T14:46:45.434Z</time>
      </trkpt>
      <trkpt lat="45.73972" lon="5.64901">
        <ele>292</ele>
        <time>2020-05-17T14:46:50.413Z</time>
      </trkpt>
      <trkpt lat="45.73966" lon="5.649">
        <ele>292</ele>
        <time>2020-05-17T14:46:55.425Z</time>
      </trkpt>
      <trkpt lat="45.73957" lon="5.64901">
        <ele>293</ele>
        <time>2020-05-17T14:47:00.431Z</time>
      </trkpt>
      <trkpt lat="45.73949" lon="5.64902">
        <ele>293</ele>
        <time>2020-05-17T14:47:05.420Z</time>
      </trkpt>
      <trkpt lat="45.73944" lon="5.64902">
        <ele>293</ele>
        <time>2020-05-17T14:47:09.451Z</time>
      </trkpt>
      <trkpt lat="45.73939" lon="5.64903">
        <ele>293</ele>
        <time>2020-05-17T14:47:14.486Z</time>
      </trkpt>
      <trkpt lat="45.73932" lon="5.64901">
        <ele>293</ele>
        <time>2020-05-17T14:47:19.467Z</time>
      </trkpt>
      <trkpt lat="45.73928" lon="5.64901">
        <ele>294</ele>
        <time>2020-05-17T14:47:24.469Z</time>
      </trkpt>
      <trkpt lat="45.73918" lon="5.649">
        <ele>294</ele>
        <time>2020-05-17T14:47:29.456Z</time>
      </trkpt>
      <trkpt lat="45.73911" lon="5.64903">
        <ele>292</ele>
        <time>2020-05-17T14:47:34.471Z</time>
      </trkpt>
      <trkpt lat="45.73905" lon="5.64902">
        <ele>294</ele>
        <time>2020-05-17T14:47:38.471Z</time>
      </trkpt>
      <trkpt lat="45.73899" lon="5.64903">
        <ele>292</ele>
        <time>2020-05-17T14:47:42.464Z</time>
      </trkpt>
      <trkpt lat="45.73893" lon="5.64902">
        <ele>295</ele>
        <time>2020-05-17T14:47:47.454Z</time>
      </trkpt>
      <trkpt lat="45.73892" lon="5.64902">
        <ele>295</ele>
        <time>2020-05-17T14:47:52.439Z</time>
      </trkpt>
      <trkpt lat="45.7389" lon="5.64901">
        <ele>295</ele>
        <time>2020-05-17T14:47:57.449Z</time>
      </trkpt>
      <trkpt lat="45.73879" lon="5.64898">
        <ele>295</ele>
        <time>2020-05-17T14:48:02.456Z</time>
      </trkpt>
      <trkpt lat="45.73872" lon="5.64891">
        <ele>295</ele>
        <time>2020-05-17T14:48:07.492Z</time>
      </trkpt>
      <trkpt lat="45.73863" lon="5.64884">
        <ele>295</ele>
        <time>2020-05-17T14:48:12.496Z</time>
      </trkpt>
      <trkpt lat="45.73859" lon="5.64878">
        <ele>295</ele>
        <time>2020-05-17T14:48:17.539Z</time>
      </trkpt>
      <trkpt lat="45.73854" lon="5.64871">
        <ele>299</ele>
        <time>2020-05-17T14:48:22.471Z</time>
      </trkpt>
      <trkpt lat="45.73847" lon="5.64866">
        <ele>299</ele>
        <time>2020-05-17T14:48:27.448Z</time>
      </trkpt>
      <trkpt lat="45.73841" lon="5.64863">
        <ele>299</ele>
        <time>2020-05-17T14:48:32.471Z</time>
      </trkpt>
      <trkpt lat="45.73833" lon="5.64863">
        <ele>299</ele>
        <time>2020-05-17T14:48:37.450Z</time>
      </trkpt>
      <trkpt lat="45.73824" lon="5.64862">
        <ele>299</ele>
        <time>2020-05-17T14:48:42.475Z</time>
      </trkpt>
      <trkpt lat="45.73816" lon="5.6486">
        <ele>300</ele>
        <time>2020-05-17T14:48:47.479Z</time>
      </trkpt>
      <trkpt lat="45.73812" lon="5.64858">
        <ele>300</ele>
        <time>2020-05-17T14:48:52.466Z</time>
      </trkpt>
      <trkpt lat="45.7381" lon="5.64858">
        <ele>300</ele>
        <time>2020-05-17T14:48:57.470Z</time>
      </trkpt>
      <trkpt lat="45.73808" lon="5.64858">
        <ele>300</ele>
        <time>2020-05-17T14:49:02.478Z</time>
      </trkpt>
      <trkpt lat="45.73788" lon="5.64859">
        <ele>300</ele>
        <time>2020-05-17T14:49:07.476Z</time>
      </trkpt>
      <trkpt lat="45.73775" lon="5.64859">
        <ele>300</ele>
        <time>2020-05-17T14:49:12.466Z</time>
      </trkpt>
      <trkpt lat="45.73767" lon="5.64856">
        <ele>300</ele>
        <time>2020-05-17T14:49:16.454Z</time>
      </trkpt>
      <trkpt lat="45.73755" lon="5.64853">
        <ele>299</ele>
        <time>2020-05-17T14:49:21.478Z</time>
      </trkpt>
      <trkpt lat="45.73744" lon="5.6485">
        <ele>299</ele>
        <time>2020-05-17T14:49:26.442Z</time>
      </trkpt>
      <trkpt lat="45.73737" lon="5.64847">
        <ele>299</ele>
        <time>2020-05-17T14:49:31.467Z</time>
      </trkpt>
      <trkpt lat="45.7373" lon="5.64845">
        <ele>304</ele>
        <time>2020-05-17T14:49:36.464Z</time>
      </trkpt>
      <trkpt lat="45.73725" lon="5.64842">
        <ele>304</ele>
        <time>2020-05-17T14:49:40.445Z</time>
      </trkpt>
      <trkpt lat="45.7372" lon="5.6484">
        <ele>304</ele>
        <time>2020-05-17T14:49:44.477Z</time>
      </trkpt>
      <trkpt lat="45.73713" lon="5.64838">
        <ele>304</ele>
        <time>2020-05-17T14:49:49.450Z</time>
      </trkpt>
      <trkpt lat="45.73707" lon="5.64836">
        <ele>303</ele>
        <time>2020-05-17T14:49:53.439Z</time>
      </trkpt>
      <trkpt lat="45.73701" lon="5.64833">
        <ele>303</ele>
        <time>2020-05-17T14:49:57.513Z</time>
      </trkpt>
      <trkpt lat="45.73698" lon="5.64832">
        <ele>303</ele>
        <time>2020-05-17T14:50:02.479Z</time>
      </trkpt>
      <trkpt lat="45.73694" lon="5.64835">
        <ele>303</ele>
        <time>2020-05-17T14:50:07.484Z</time>
      </trkpt>
      <trkpt lat="45.73688" lon="5.64835">
        <ele>303</ele>
        <time>2020-05-17T14:50:12.458Z</time>
      </trkpt>
      <trkpt lat="45.73683" lon="5.64834">
        <ele>303</ele>
        <time>2020-05-17T14:50:17.463Z</time>
      </trkpt>
      <trkpt lat="45.73676" lon="5.64833">
        <ele>303</ele>
        <time>2020-05-17T14:50:22.462Z</time>
      </trkpt>
      <trkpt lat="45.7367" lon="5.64831">
        <ele>303</ele>
        <time>2020-05-17T14:50:26.438Z</time>
      </trkpt>
      <trkpt lat="45.73665" lon="5.6483">
        <ele>303</ele>
        <time>2020-05-17T14:50:31.494Z</time>
      </trkpt>
      <trkpt lat="45.7366" lon="5.64828">
        <ele>303</ele>
        <time>2020-05-17T14:50:36.472Z</time>
      </trkpt>
      <trkpt lat="45.73654" lon="5.64824">
        <ele>303</ele>
        <time>2020-05-17T14:50:41.445Z</time>
      </trkpt>
      <trkpt lat="45.73648" lon="5.64822">
        <ele>301</ele>
        <time>2020-05-17T14:50:46.460Z</time>
      </trkpt>
      <trkpt lat="45.73642" lon="5.6482">
        <ele>301</ele>
        <time>2020-05-17T14:50:51.478Z</time>
      </trkpt>
      <trkpt lat="45.73638" lon="5.64818">
        <ele>304</ele>
        <time>2020-05-17T14:50:55.471Z</time>
      </trkpt>
      <trkpt lat="45.73633" lon="5.64816">
        <ele>304</ele>
        <time>2020-05-17T14:51:00.449Z</time>
      </trkpt>
      <trkpt lat="45.73626" lon="5.64813">
        <ele>304</ele>
        <time>2020-05-17T14:51:04.499Z</time>
      </trkpt>
      <trkpt lat="45.73617" lon="5.6481">
        <ele>301</ele>
        <time>2020-05-17T14:51:09.463Z</time>
      </trkpt>
      <trkpt lat="45.73609" lon="5.64807">
        <ele>301</ele>
        <time>2020-05-17T14:51:14.435Z</time>
      </trkpt>
      <trkpt lat="45.73603" lon="5.64806">
        <ele>301</ele>
        <time>2020-05-17T14:51:18.473Z</time>
      </trkpt>
      <trkpt lat="45.73595" lon="5.64809">
        <ele>300</ele>
        <time>2020-05-17T14:51:23.453Z</time>
      </trkpt>
      <trkpt lat="45.73587" lon="5.64813">
        <ele>300</ele>
        <time>2020-05-17T14:51:28.474Z</time>
      </trkpt>
      <trkpt lat="45.73583" lon="5.64815">
        <ele>300</ele>
        <time>2020-05-17T14:51:33.452Z</time>
      </trkpt>
      <trkpt lat="45.73579" lon="5.64818">
        <ele>300</ele>
        <time>2020-05-17T14:51:37.453Z</time>
      </trkpt>
      <trkpt lat="45.73573" lon="5.64821">
        <ele>298</ele>
        <time>2020-05-17T14:51:42.462Z</time>
      </trkpt>
      <trkpt lat="45.73568" lon="5.64824">
        <ele>298</ele>
        <time>2020-05-17T14:51:46.465Z</time>
      </trkpt>
      <trkpt lat="45.73557" lon="5.6483">
        <ele>298</ele>
        <time>2020-05-17T14:51:51.466Z</time>
      </trkpt>
      <trkpt lat="45.73549" lon="5.64833">
        <ele>298</ele>
        <time>2020-05-17T14:51:56.469Z</time>
      </trkpt>
      <trkpt lat="45.73543" lon="5.64833">
        <ele>298</ele>
        <time>2020-05-17T14:52:00.498Z</time>
      </trkpt>
      <trkpt lat="45.73538" lon="5.64833">
        <ele>297</ele>
        <time>2020-05-17T14:52:04.501Z</time>
      </trkpt>
      <trkpt lat="45.73531" lon="5.64834">
        <ele>297</ele>
        <time>2020-05-17T14:52:09.484Z</time>
      </trkpt>
      <trkpt lat="45.73524" lon="5.64833">
        <ele>297</ele>
        <time>2020-05-17T14:52:14.460Z</time>
      </trkpt>
      <trkpt lat="45.73519" lon="5.64828">
        <ele>297</ele>
        <time>2020-05-17T14:52:19.499Z</time>
      </trkpt>
      <trkpt lat="45.73514" lon="5.64825">
        <ele>297</ele>
        <time>2020-05-17T14:52:24.465Z</time>
      </trkpt>
      <trkpt lat="45.73508" lon="5.64822">
        <ele>297</ele>
        <time>2020-05-17T14:52:29.524Z</time>
      </trkpt>
      <trkpt lat="45.73502" lon="5.64818">
        <ele>299</ele>
        <time>2020-05-17T14:52:34.463Z</time>
      </trkpt>
      <trkpt lat="45.73498" lon="5.64818">
        <ele>299</ele>
        <time>2020-05-17T14:52:39.505Z</time>
      </trkpt>
      <trkpt lat="45.73493" lon="5.64819">
        <ele>299</ele>
        <time>2020-05-17T14:52:44.484Z</time>
      </trkpt>
      <trkpt lat="45.73487" lon="5.64817">
        <ele>299</ele>
        <time>2020-05-17T14:52:48.475Z</time>
      </trkpt>
      <trkpt lat="45.73482" lon="5.64815">
        <ele>299</ele>
        <time>2020-05-17T14:52:53.443Z</time>
      </trkpt>
      <trkpt lat="45.73477" lon="5.64811">
        <ele>299</ele>
        <time>2020-05-17T14:52:58.467Z</time>
      </trkpt>
      <trkpt lat="45.73473" lon="5.64812">
        <ele>299</ele>
        <time>2020-05-17T14:53:03.450Z</time>
      </trkpt>
      <trkpt lat="45.73466" lon="5.64815">
        <ele>299</ele>
        <time>2020-05-17T14:53:08.460Z</time>
      </trkpt>
      <trkpt lat="45.73459" lon="5.64816">
        <ele>299</ele>
        <time>2020-05-17T14:53:13.493Z</time>
      </trkpt>
      <trkpt lat="45.73453" lon="5.64817">
        <ele>298</ele>
        <time>2020-05-17T14:53:18.476Z</time>
      </trkpt>
      <trkpt lat="45.73449" lon="5.64819">
        <ele>298</ele>
        <time>2020-05-17T14:53:22.468Z</time>
      </trkpt>
      <trkpt lat="45.73444" lon="5.64818">
        <ele>298</ele>
        <time>2020-05-17T14:53:27.463Z</time>
      </trkpt>
      <trkpt lat="45.73438" lon="5.64821">
        <ele>296</ele>
        <time>2020-05-17T14:53:32.480Z</time>
      </trkpt>
      <trkpt lat="45.73432" lon="5.64822">
        <ele>296</ele>
        <time>2020-05-17T14:53:36.492Z</time>
      </trkpt>
      <trkpt lat="45.73426" lon="5.64821">
        <ele>295</ele>
        <time>2020-05-17T14:53:41.479Z</time>
      </trkpt>
      <trkpt lat="45.73418" lon="5.64822">
        <ele>295</ele>
        <time>2020-05-17T14:53:46.475Z</time>
      </trkpt>
      <trkpt lat="45.73413" lon="5.64825">
        <ele>295</ele>
        <time>2020-05-17T14:53:51.476Z</time>
      </trkpt>
      <trkpt lat="45.73408" lon="5.64824">
        <ele>295</ele>
        <time>2020-05-17T14:53:56.493Z</time>
      </trkpt>
      <trkpt lat="45.73403" lon="5.64823">
        <ele>295</ele>
        <time>2020-05-17T14:54:01.484Z</time>
      </trkpt>
      <trkpt lat="45.73396" lon="5.64822">
        <ele>295</ele>
        <time>2020-05-17T14:54:06.483Z</time>
      </trkpt>
      <trkpt lat="45.73391" lon="5.64819">
        <ele>295</ele>
        <time>2020-05-17T14:54:10.484Z</time>
      </trkpt>
      <trkpt lat="45.73384" lon="5.64818">
        <ele>295</ele>
        <time>2020-05-17T14:54:15.458Z</time>
      </trkpt>
      <trkpt lat="45.7338" lon="5.64817">
        <ele>295</ele>
        <time>2020-05-17T14:54:20.483Z</time>
      </trkpt>
      <trkpt lat="45.73373" lon="5.64818">
        <ele>296</ele>
        <time>2020-05-17T14:54:25.487Z</time>
      </trkpt>
      <trkpt lat="45.73367" lon="5.64819">
        <ele>296</ele>
        <time>2020-05-17T14:54:30.474Z</time>
      </trkpt>
      <trkpt lat="45.73361" lon="5.64822">
        <ele>297</ele>
        <time>2020-05-17T14:54:34.492Z</time>
      </trkpt>
      <trkpt lat="45.73352" lon="5.64825">
        <ele>297</ele>
        <time>2020-05-17T14:54:39.471Z</time>
      </trkpt>
      <trkpt lat="45.73348" lon="5.64837">
        <ele>297</ele>
        <time>2020-05-17T14:55:47.452Z</time>
      </trkpt>
      <trkpt lat="45.73345" lon="5.64838">
        <ele>299</ele>
        <time>2020-05-17T14:55:51.464Z</time>
      </trkpt>
      <trkpt lat="45.73343" lon="5.64843">
        <ele>299</ele>
        <time>2020-05-17T14:55:56.486Z</time>
      </trkpt>
      <trkpt lat="45.7334" lon="5.64851">
        <ele>297</ele>
        <time>2020-05-17T14:56:01.467Z</time>
      </trkpt>
      <trkpt lat="45.73335" lon="5.64858">
        <ele>297</ele>
        <time>2020-05-17T14:56:06.491Z</time>
      </trkpt>
      <trkpt lat="45.7333" lon="5.64861">
        <ele>297</ele>
        <time>2020-05-17T14:56:11.464Z</time>
      </trkpt>
      <trkpt lat="45.73324" lon="5.64864">
        <ele>297</ele>
        <time>2020-05-17T14:56:16.477Z</time>
      </trkpt>
      <trkpt lat="45.73318" lon="5.64867">
        <ele>296</ele>
        <time>2020-05-17T14:56:21.473Z</time>
      </trkpt>
      <trkpt lat="45.73313" lon="5.64868">
        <ele>296</ele>
        <time>2020-05-17T14:56:26.457Z</time>
      </trkpt>
      <trkpt lat="45.73307" lon="5.64869">
        <ele>296</ele>
        <time>2020-05-17T14:56:31.478Z</time>
      </trkpt>
      <trkpt lat="45.73301" lon="5.64872">
        <ele>296</ele>
        <time>2020-05-17T14:56:36.509Z</time>
      </trkpt>
      <trkpt lat="45.73296" lon="5.64873">
        <ele>296</ele>
        <time>2020-05-17T14:56:41.470Z</time>
      </trkpt>
      <trkpt lat="45.73291" lon="5.64875">
        <ele>290</ele>
        <time>2020-05-17T14:56:46.474Z</time>
      </trkpt>
      <trkpt lat="45.73286" lon="5.64877">
        <ele>290</ele>
        <time>2020-05-17T14:56:50.480Z</time>
      </trkpt>
      <trkpt lat="45.73281" lon="5.6488">
        <ele>290</ele>
        <time>2020-05-17T14:56:54.487Z</time>
      </trkpt>
      <trkpt lat="45.73277" lon="5.64882">
        <ele>290</ele>
        <time>2020-05-17T14:56:59.482Z</time>
      </trkpt>
      <trkpt lat="45.7327" lon="5.64885">
        <ele>290</ele>
        <time>2020-05-17T14:57:04.490Z</time>
      </trkpt>
      <trkpt lat="45.73263" lon="5.64889">
        <ele>290</ele>
        <time>2020-05-17T14:57:09.471Z</time>
      </trkpt>
      <trkpt lat="45.73258" lon="5.6489">
        <ele>290</ele>
        <time>2020-05-17T14:57:13.481Z</time>
      </trkpt>
      <trkpt lat="45.73251" lon="5.64891">
        <ele>290</ele>
        <time>2020-05-17T14:57:18.455Z</time>
      </trkpt>
      <trkpt lat="45.73245" lon="5.64894">
        <ele>290</ele>
        <time>2020-05-17T14:57:23.462Z</time>
      </trkpt>
      <trkpt lat="45.7324" lon="5.64897">
        <ele>290</ele>
        <time>2020-05-17T14:57:27.486Z</time>
      </trkpt>
      <trkpt lat="45.73235" lon="5.64901">
        <ele>290</ele>
        <time>2020-05-17T14:57:32.477Z</time>
      </trkpt>
      <trkpt lat="45.73229" lon="5.64905">
        <ele>288</ele>
        <time>2020-05-17T14:57:37.470Z</time>
      </trkpt>
      <trkpt lat="45.73224" lon="5.64905">
        <ele>288</ele>
        <time>2020-05-17T14:57:42.466Z</time>
      </trkpt>
      <trkpt lat="45.73217" lon="5.64908">
        <ele>288</ele>
        <time>2020-05-17T14:57:47.489Z</time>
      </trkpt>
      <trkpt lat="45.7321" lon="5.64907">
        <ele>288</ele>
        <time>2020-05-17T14:57:52.470Z</time>
      </trkpt>
      <trkpt lat="45.73204" lon="5.64908">
        <ele>288</ele>
        <time>2020-05-17T14:57:57.473Z</time>
      </trkpt>
      <trkpt lat="45.73199" lon="5.64908">
        <ele>288</ele>
        <time>2020-05-17T14:58:02.470Z</time>
      </trkpt>
      <trkpt lat="45.73193" lon="5.64907">
        <ele>288</ele>
        <time>2020-05-17T14:58:07.470Z</time>
      </trkpt>
      <trkpt lat="45.73188" lon="5.64905">
        <ele>288</ele>
        <time>2020-05-17T14:58:12.469Z</time>
      </trkpt>
      <trkpt lat="45.73183" lon="5.64905">
        <ele>288</ele>
        <time>2020-05-17T14:58:17.524Z</time>
      </trkpt>
      <trkpt lat="45.73177" lon="5.64907">
        <ele>290</ele>
        <time>2020-05-17T14:58:22.427Z</time>
      </trkpt>
      <trkpt lat="45.73172" lon="5.64907">
        <ele>290</ele>
        <time>2020-05-17T14:58:26.477Z</time>
      </trkpt>
      <trkpt lat="45.73166" lon="5.64907">
        <ele>290</ele>
        <time>2020-05-17T14:58:31.478Z</time>
      </trkpt>
      <trkpt lat="45.73161" lon="5.6491">
        <ele>290</ele>
        <time>2020-05-17T14:58:36.482Z</time>
      </trkpt>
      <trkpt lat="45.73155" lon="5.64911">
        <ele>290</ele>
        <time>2020-05-17T14:58:41.464Z</time>
      </trkpt>
      <trkpt lat="45.73149" lon="5.64911">
        <ele>291</ele>
        <time>2020-05-17T14:58:46.471Z</time>
      </trkpt>
      <trkpt lat="45.73144" lon="5.64911">
        <ele>291</ele>
        <time>2020-05-17T14:58:50.473Z</time>
      </trkpt>
      <trkpt lat="45.73138" lon="5.64912">
        <ele>291</ele>
        <time>2020-05-17T14:58:55.485Z</time>
      </trkpt>
      <trkpt lat="45.73132" lon="5.64911">
        <ele>291</ele>
        <time>2020-05-17T14:59:00.486Z</time>
      </trkpt>
      <trkpt lat="45.73126" lon="5.64909">
        <ele>291</ele>
        <time>2020-05-17T14:59:05.486Z</time>
      </trkpt>
      <trkpt lat="45.73121" lon="5.64907">
        <ele>291</ele>
        <time>2020-05-17T14:59:09.490Z</time>
      </trkpt>
      <trkpt lat="45.73115" lon="5.64903">
        <ele>291</ele>
        <time>2020-05-17T14:59:14.425Z</time>
      </trkpt>
      <trkpt lat="45.7311" lon="5.649">
        <ele>292</ele>
        <time>2020-05-17T14:59:18.486Z</time>
      </trkpt>
      <trkpt lat="45.73104" lon="5.64897">
        <ele>292</ele>
        <time>2020-05-17T14:59:23.465Z</time>
      </trkpt>
      <trkpt lat="45.73098" lon="5.64893">
        <ele>292</ele>
        <time>2020-05-17T14:59:28.455Z</time>
      </trkpt>
      <trkpt lat="45.73092" lon="5.64891">
        <ele>292</ele>
        <time>2020-05-17T14:59:33.522Z</time>
      </trkpt>
      <trkpt lat="45.73086" lon="5.64891">
        <ele>292</ele>
        <time>2020-05-17T14:59:38.465Z</time>
      </trkpt>
      <trkpt lat="45.73081" lon="5.64892">
        <ele>292</ele>
        <time>2020-05-17T14:59:43.467Z</time>
      </trkpt>
      <trkpt lat="45.73074" lon="5.64894">
        <ele>292</ele>
        <time>2020-05-17T14:59:48.461Z</time>
      </trkpt>
      <trkpt lat="45.73068" lon="5.64898">
        <ele>292</ele>
        <time>2020-05-17T14:59:53.453Z</time>
      </trkpt>
      <trkpt lat="45.73063" lon="5.64903">
        <ele>292</ele>
        <time>2020-05-17T14:59:58.456Z</time>
      </trkpt>
      <trkpt lat="45.73058" lon="5.64909">
        <ele>289</ele>
        <time>2020-05-17T15:00:03.458Z</time>
      </trkpt>
      <trkpt lat="45.73054" lon="5.64915">
        <ele>289</ele>
        <time>2020-05-17T15:00:08.507Z</time>
      </trkpt>
      <trkpt lat="45.73051" lon="5.6492">
        <ele>289</ele>
        <time>2020-05-17T15:00:13.486Z</time>
      </trkpt>
      <trkpt lat="45.73049" lon="5.64926">
        <ele>289</ele>
        <time>2020-05-17T15:00:17.505Z</time>
      </trkpt>
      <trkpt lat="45.73044" lon="5.64935">
        <ele>286</ele>
        <time>2020-05-17T15:00:22.479Z</time>
      </trkpt>
      <trkpt lat="45.73041" lon="5.64943">
        <ele>287</ele>
        <time>2020-05-17T15:00:27.498Z</time>
      </trkpt>
      <trkpt lat="45.73037" lon="5.64951">
        <ele>287</ele>
        <time>2020-05-17T15:00:32.459Z</time>
      </trkpt>
      <trkpt lat="45.73033" lon="5.64959">
        <ele>284</ele>
        <time>2020-05-17T15:00:36.519Z</time>
      </trkpt>
      <trkpt lat="45.73029" lon="5.64967">
        <ele>284</ele>
        <time>2020-05-17T15:00:41.483Z</time>
      </trkpt>
      <trkpt lat="45.73024" lon="5.64973">
        <ele>284</ele>
        <time>2020-05-17T15:00:46.460Z</time>
      </trkpt>
      <trkpt lat="45.73018" lon="5.64977">
        <ele>284</ele>
        <time>2020-05-17T15:00:51.463Z</time>
      </trkpt>
      <trkpt lat="45.73012" lon="5.64978">
        <ele>285</ele>
        <time>2020-05-17T15:00:56.476Z</time>
      </trkpt>
      <trkpt lat="45.73006" lon="5.6498">
        <ele>285</ele>
        <time>2020-05-17T15:01:01.479Z</time>
      </trkpt>
      <trkpt lat="45.73" lon="5.64981">
        <ele>285</ele>
        <time>2020-05-17T15:01:05.544Z</time>
      </trkpt>
      <trkpt lat="45.72995" lon="5.64982">
        <ele>285</ele>
        <time>2020-05-17T15:01:10.483Z</time>
      </trkpt>
      <trkpt lat="45.7299" lon="5.6498">
        <ele>285</ele>
        <time>2020-05-17T15:01:15.445Z</time>
      </trkpt>
      <trkpt lat="45.72985" lon="5.6498">
        <ele>286</ele>
        <time>2020-05-17T15:01:19.499Z</time>
      </trkpt>
      <trkpt lat="45.72978" lon="5.64982">
        <ele>286</ele>
        <time>2020-05-17T15:01:23.456Z</time>
      </trkpt>
      <trkpt lat="45.72972" lon="5.64987">
        <ele>282</ele>
        <time>2020-05-17T15:01:28.498Z</time>
      </trkpt>
      <trkpt lat="45.72969" lon="5.64993">
        <ele>282</ele>
        <time>2020-05-17T15:01:33.476Z</time>
      </trkpt>
      <trkpt lat="45.72966" lon="5.64998">
        <ele>282</ele>
        <time>2020-05-17T15:01:38.490Z</time>
      </trkpt>
      <trkpt lat="45.72962" lon="5.65002">
        <ele>282</ele>
        <time>2020-05-17T15:01:42.491Z</time>
      </trkpt>
      <trkpt lat="45.72957" lon="5.65008">
        <ele>281</ele>
        <time>2020-05-17T15:01:47.467Z</time>
      </trkpt>
      <trkpt lat="45.72953" lon="5.65014">
        <ele>279</ele>
        <time>2020-05-17T15:01:51.485Z</time>
      </trkpt>
      <trkpt lat="45.72948" lon="5.65019">
        <ele>279</ele>
        <time>2020-05-17T15:01:55.478Z</time>
      </trkpt>
      <trkpt lat="45.72943" lon="5.65025">
        <ele>279</ele>
        <time>2020-05-17T15:02:00.501Z</time>
      </trkpt>
      <trkpt lat="45.72938" lon="5.6503">
        <ele>279</ele>
        <time>2020-05-17T15:02:05.485Z</time>
      </trkpt>
      <trkpt lat="45.72931" lon="5.65035">
        <ele>279</ele>
        <time>2020-05-17T15:02:10.476Z</time>
      </trkpt>
      <trkpt lat="45.72926" lon="5.65042">
        <ele>277</ele>
        <time>2020-05-17T15:02:15.488Z</time>
      </trkpt>
      <trkpt lat="45.72922" lon="5.65048">
        <ele>277</ele>
        <time>2020-05-17T15:02:20.433Z</time>
      </trkpt>
      <trkpt lat="45.7292" lon="5.65054">
        <ele>277</ele>
        <time>2020-05-17T15:02:24.475Z</time>
      </trkpt>
      <trkpt lat="45.72918" lon="5.65063">
        <ele>277</ele>
        <time>2020-05-17T15:02:29.470Z</time>
      </trkpt>
      <trkpt lat="45.72914" lon="5.65071">
        <ele>275</ele>
        <time>2020-05-17T15:02:34.499Z</time>
      </trkpt>
      <trkpt lat="45.7291" lon="5.65077">
        <ele>275</ele>
        <time>2020-05-17T15:02:39.471Z</time>
      </trkpt>
      <trkpt lat="45.72906" lon="5.65081">
        <ele>275</ele>
        <time>2020-05-17T15:02:43.538Z</time>
      </trkpt>
      <trkpt lat="45.729" lon="5.65081">
        <ele>274</ele>
        <time>2020-05-17T15:02:48.468Z</time>
      </trkpt>
      <trkpt lat="45.72894" lon="5.65081">
        <ele>274</ele>
        <time>2020-05-17T15:02:52.472Z</time>
      </trkpt>
      <trkpt lat="45.72888" lon="5.65077">
        <ele>274</ele>
        <time>2020-05-17T15:02:57.514Z</time>
      </trkpt>
      <trkpt lat="45.72883" lon="5.65076">
        <ele>274</ele>
        <time>2020-05-17T15:03:02.481Z</time>
      </trkpt>
      <trkpt lat="45.72878" lon="5.65075">
        <ele>274</ele>
        <time>2020-05-17T15:03:06.503Z</time>
      </trkpt>
      <trkpt lat="45.72871" lon="5.65074">
        <ele>275</ele>
        <time>2020-05-17T15:03:11.478Z</time>
      </trkpt>
      <trkpt lat="45.72865" lon="5.6507">
        <ele>275</ele>
        <time>2020-05-17T15:03:16.482Z</time>
      </trkpt>
      <trkpt lat="45.72858" lon="5.65066">
        <ele>277</ele>
        <time>2020-05-17T15:03:21.455Z</time>
      </trkpt>
      <trkpt lat="45.72853" lon="5.65064">
        <ele>277</ele>
        <time>2020-05-17T15:03:25.497Z</time>
      </trkpt>
      <trkpt lat="45.72848" lon="5.65068">
        <ele>277</ele>
        <time>2020-05-17T15:03:30.484Z</time>
      </trkpt>
      <trkpt lat="45.72844" lon="5.65072">
        <ele>276</ele>
        <time>2020-05-17T15:03:34.534Z</time>
      </trkpt>
      <trkpt lat="45.72838" lon="5.65079">
        <ele>276</ele>
        <time>2020-05-17T15:03:39.508Z</time>
      </trkpt>
      <trkpt lat="45.72836" lon="5.65086">
        <ele>276</ele>
        <time>2020-05-17T15:03:44.503Z</time>
      </trkpt>
      <trkpt lat="45.72837" lon="5.65078">
        <ele>276</ele>
        <time>2020-05-17T15:07:57.476Z</time>
      </trkpt>
      <trkpt lat="45.72837" lon="5.65078">
        <ele>276</ele>
        <time>2020-05-17T15:08:01.492Z</time>
      </trkpt>
      <trkpt lat="45.72834" lon="5.65079">
        <ele>276</ele>
        <time>2020-05-17T15:08:06.494Z</time>
      </trkpt>
      <trkpt lat="45.72833" lon="5.65079">
        <ele>276</ele>
        <time>2020-05-17T15:08:10.483Z</time>
      </trkpt>
      <trkpt lat="45.72829" lon="5.65084">
        <ele>276</ele>
        <time>2020-05-17T15:08:15.499Z</time>
      </trkpt>
      <trkpt lat="45.72828" lon="5.65084">
        <ele>276</ele>
        <time>2020-05-17T15:09:08.491Z</time>
      </trkpt>
      <trkpt lat="45.72822" lon="5.65085">
        <ele>276</ele>
        <time>2020-05-17T15:09:12.484Z</time>
      </trkpt>
      <trkpt lat="45.72816" lon="5.65086">
        <ele>276</ele>
        <time>2020-05-17T15:09:17.504Z</time>
      </trkpt>
      <trkpt lat="45.7281" lon="5.65089">
        <ele>276</ele>
        <time>2020-05-17T15:09:22.527Z</time>
      </trkpt>
      <trkpt lat="45.72804" lon="5.65093">
        <ele>276</ele>
        <time>2020-05-17T15:09:27.471Z</time>
      </trkpt>
      <trkpt lat="45.72799" lon="5.65096">
        <ele>276</ele>
        <time>2020-05-17T15:09:31.491Z</time>
      </trkpt>
      <trkpt lat="45.72793" lon="5.651">
        <ele>276</ele>
        <time>2020-05-17T15:09:36.469Z</time>
      </trkpt>
      <trkpt lat="45.72787" lon="5.65103">
        <ele>276</ele>
        <time>2020-05-17T15:09:41.467Z</time>
      </trkpt>
      <trkpt lat="45.72783" lon="5.65105">
        <ele>276</ele>
        <time>2020-05-17T15:09:45.520Z</time>
      </trkpt>
      <trkpt lat="45.72777" lon="5.65109">
        <ele>276</ele>
        <time>2020-05-17T15:09:50.476Z</time>
      </trkpt>
      <trkpt lat="45.72771" lon="5.65113">
        <ele>276</ele>
        <time>2020-05-17T15:09:55.477Z</time>
      </trkpt>
      <trkpt lat="45.72765" lon="5.65117">
        <ele>276</ele>
        <time>2020-05-17T15:10:00.466Z</time>
      </trkpt>
      <trkpt lat="45.72761" lon="5.65123">
        <ele>277</ele>
        <time>2020-05-17T15:10:04.509Z</time>
      </trkpt>
      <trkpt lat="45.72755" lon="5.65127">
        <ele>278</ele>
        <time>2020-05-17T15:10:09.465Z</time>
      </trkpt>
      <trkpt lat="45.72749" lon="5.65131">
        <ele>278</ele>
        <time>2020-05-17T15:10:14.453Z</time>
      </trkpt>
      <trkpt lat="45.72744" lon="5.65135">
        <ele>278</ele>
        <time>2020-05-17T15:10:19.522Z</time>
      </trkpt>
      <trkpt lat="45.7274" lon="5.6514">
        <ele>278</ele>
        <time>2020-05-17T15:10:24.453Z</time>
      </trkpt>
      <trkpt lat="45.72736" lon="5.65143">
        <ele>280</ele>
        <time>2020-05-17T15:10:28.456Z</time>
      </trkpt>
      <trkpt lat="45.7273" lon="5.65147">
        <ele>280</ele>
        <time>2020-05-17T15:10:33.475Z</time>
      </trkpt>
      <trkpt lat="45.72725" lon="5.65151">
        <ele>280</ele>
        <time>2020-05-17T15:10:38.471Z</time>
      </trkpt>
      <trkpt lat="45.72721" lon="5.65155">
        <ele>282</ele>
        <time>2020-05-17T15:10:42.454Z</time>
      </trkpt>
      <trkpt lat="45.72715" lon="5.6516">
        <ele>282</ele>
        <time>2020-05-17T15:10:47.452Z</time>
      </trkpt>
      <trkpt lat="45.72707" lon="5.65163">
        <ele>282</ele>
        <time>2020-05-17T15:10:52.451Z</time>
      </trkpt>
      <trkpt lat="45.72701" lon="5.65164">
        <ele>282</ele>
        <time>2020-05-17T15:10:56.479Z</time>
      </trkpt>
      <trkpt lat="45.72694" lon="5.65166">
        <ele>282</ele>
        <time>2020-05-17T15:11:01.477Z</time>
      </trkpt>
      <trkpt lat="45.72688" lon="5.6517">
        <ele>282</ele>
        <time>2020-05-17T15:11:06.463Z</time>
      </trkpt>
      <trkpt lat="45.72681" lon="5.65174">
        <ele>282</ele>
        <time>2020-05-17T15:11:11.508Z</time>
      </trkpt>
      <trkpt lat="45.72675" lon="5.65179">
        <ele>282</ele>
        <time>2020-05-17T15:11:16.454Z</time>
      </trkpt>
      <trkpt lat="45.72669" lon="5.65186">
        <ele>283</ele>
        <time>2020-05-17T15:11:21.439Z</time>
      </trkpt>
      <trkpt lat="45.72664" lon="5.65189">
        <ele>283</ele>
        <time>2020-05-17T15:11:25.491Z</time>
      </trkpt>
      <trkpt lat="45.7266" lon="5.6519">
        <ele>283</ele>
        <time>2020-05-17T15:11:29.521Z</time>
      </trkpt>
      <trkpt lat="45.72654" lon="5.65193">
        <ele>283</ele>
        <time>2020-05-17T15:11:34.487Z</time>
      </trkpt>
      <trkpt lat="45.7265" lon="5.65198">
        <ele>285</ele>
        <time>2020-05-17T15:11:39.483Z</time>
      </trkpt>
      <trkpt lat="45.72645" lon="5.65202">
        <ele>285</ele>
        <time>2020-05-17T15:11:44.462Z</time>
      </trkpt>
      <trkpt lat="45.72643" lon="5.65208">
        <ele>285</ele>
        <time>2020-05-17T15:11:49.489Z</time>
      </trkpt>
      <trkpt lat="45.72647" lon="5.65216">
        <ele>285</ele>
        <time>2020-05-17T15:11:54.503Z</time>
      </trkpt>
      <trkpt lat="45.72648" lon="5.65227">
        <ele>285</ele>
        <time>2020-05-17T15:11:59.476Z</time>
      </trkpt>
      <trkpt lat="45.72648" lon="5.65236">
        <ele>286</ele>
        <time>2020-05-17T15:12:04.513Z</time>
      </trkpt>
      <trkpt lat="45.72649" lon="5.65245">
        <ele>286</ele>
        <time>2020-05-17T15:12:09.483Z</time>
      </trkpt>
      <trkpt lat="45.72649" lon="5.65254">
        <ele>286</ele>
        <time>2020-05-17T15:12:14.477Z</time>
      </trkpt>
      <trkpt lat="45.7265" lon="5.65262">
        <ele>286</ele>
        <time>2020-05-17T15:12:18.471Z</time>
      </trkpt>
      <trkpt lat="45.72651" lon="5.6527">
        <ele>285</ele>
        <time>2020-05-17T15:12:23.476Z</time>
      </trkpt>
      <trkpt lat="45.7265" lon="5.65278">
        <ele>285</ele>
        <time>2020-05-17T15:12:28.474Z</time>
      </trkpt>
      <trkpt lat="45.7265" lon="5.65286">
        <ele>285</ele>
        <time>2020-05-17T15:12:33.463Z</time>
      </trkpt>
      <trkpt lat="45.72648" lon="5.65294">
        <ele>283</ele>
        <time>2020-05-17T15:12:38.465Z</time>
      </trkpt>
      <trkpt lat="45.72645" lon="5.65301">
        <ele>283</ele>
        <time>2020-05-17T15:12:43.462Z</time>
      </trkpt>
      <trkpt lat="45.72642" lon="5.65307">
        <ele>283</ele>
        <time>2020-05-17T15:12:47.493Z</time>
      </trkpt>
      <trkpt lat="45.72638" lon="5.65316">
        <ele>283</ele>
        <time>2020-05-17T15:12:52.478Z</time>
      </trkpt>
      <trkpt lat="45.72635" lon="5.65326">
        <ele>280</ele>
        <time>2020-05-17T15:12:57.458Z</time>
      </trkpt>
      <trkpt lat="45.7263" lon="5.65333">
        <ele>280</ele>
        <time>2020-05-17T15:13:02.498Z</time>
      </trkpt>
      <trkpt lat="45.72626" lon="5.6534">
        <ele>280</ele>
        <time>2020-05-17T15:13:07.481Z</time>
      </trkpt>
      <trkpt lat="45.72623" lon="5.65347">
        <ele>281</ele>
        <time>2020-05-17T15:13:12.475Z</time>
      </trkpt>
      <trkpt lat="45.7262" lon="5.65353">
        <ele>281</ele>
        <time>2020-05-17T15:13:16.528Z</time>
      </trkpt>
      <trkpt lat="45.72616" lon="5.65359">
        <ele>281</ele>
        <time>2020-05-17T15:13:21.430Z</time>
      </trkpt>
      <trkpt lat="45.72613" lon="5.65364">
        <ele>281</ele>
        <time>2020-05-17T15:13:25.429Z</time>
      </trkpt>
      <trkpt lat="45.72609" lon="5.65368">
        <ele>281</ele>
        <time>2020-05-17T15:13:29.495Z</time>
      </trkpt>
      <trkpt lat="45.72606" lon="5.65375">
        <ele>280</ele>
        <time>2020-05-17T15:13:34.492Z</time>
      </trkpt>
      <trkpt lat="45.72603" lon="5.65382">
        <ele>280</ele>
        <time>2020-05-17T15:13:39.474Z</time>
      </trkpt>
      <trkpt lat="45.72598" lon="5.6539">
        <ele>280</ele>
        <time>2020-05-17T15:13:44.466Z</time>
      </trkpt>
      <trkpt lat="45.72592" lon="5.65396">
        <ele>282</ele>
        <time>2020-05-17T15:13:49.507Z</time>
      </trkpt>
      <trkpt lat="45.72586" lon="5.65401">
        <ele>282</ele>
        <time>2020-05-17T15:13:54.419Z</time>
      </trkpt>
      <trkpt lat="45.72582" lon="5.65406">
        <ele>280</ele>
        <time>2020-05-17T15:13:58.463Z</time>
      </trkpt>
      <trkpt lat="45.72578" lon="5.65411">
        <ele>280</ele>
        <time>2020-05-17T15:14:03.473Z</time>
      </trkpt>
      <trkpt lat="45.72572" lon="5.65415">
        <ele>280</ele>
        <time>2020-05-17T15:14:08.457Z</time>
      </trkpt>
      <trkpt lat="45.72566" lon="5.65417">
        <ele>283</ele>
        <time>2020-05-17T15:14:13.514Z</time>
      </trkpt>
      <trkpt lat="45.72559" lon="5.65422">
        <ele>283</ele>
        <time>2020-05-17T15:14:18.478Z</time>
      </trkpt>
      <trkpt lat="45.72552" lon="5.65432">
        <ele>278</ele>
        <time>2020-05-17T15:14:23.458Z</time>
      </trkpt>
      <trkpt lat="45.72545" lon="5.65437">
        <ele>278</ele>
        <time>2020-05-17T15:14:28.461Z</time>
      </trkpt>
      <trkpt lat="45.72538" lon="5.65442">
        <ele>282</ele>
        <time>2020-05-17T15:14:33.474Z</time>
      </trkpt>
      <trkpt lat="45.72532" lon="5.65446">
        <ele>282</ele>
        <time>2020-05-17T15:14:38.476Z</time>
      </trkpt>
      <trkpt lat="45.72528" lon="5.6545">
        <ele>282</ele>
        <time>2020-05-17T15:14:42.548Z</time>
      </trkpt>
      <trkpt lat="45.72521" lon="5.65456">
        <ele>282</ele>
        <time>2020-05-17T15:14:47.464Z</time>
      </trkpt>
      <trkpt lat="45.72516" lon="5.6546">
        <ele>277</ele>
        <time>2020-05-17T15:14:51.486Z</time>
      </trkpt>
      <trkpt lat="45.7251" lon="5.65471">
        <ele>282</ele>
        <time>2020-05-17T15:14:56.495Z</time>
      </trkpt>
      <trkpt lat="45.72504" lon="5.65478">
        <ele>282</ele>
        <time>2020-05-17T15:15:01.436Z</time>
      </trkpt>
      <trkpt lat="45.72499" lon="5.65483">
        <ele>282</ele>
        <time>2020-05-17T15:15:05.470Z</time>
      </trkpt>
      <trkpt lat="45.72494" lon="5.65486">
        <ele>278</ele>
        <time>2020-05-17T15:15:10.499Z</time>
      </trkpt>
      <trkpt lat="45.72488" lon="5.65491">
        <ele>278</ele>
        <time>2020-05-17T15:15:15.492Z</time>
      </trkpt>
      <trkpt lat="45.72482" lon="5.65497">
        <ele>281</ele>
        <time>2020-05-17T15:15:20.475Z</time>
      </trkpt>
      <trkpt lat="45.72475" lon="5.655">
        <ele>281</ele>
        <time>2020-05-17T15:15:25.453Z</time>
      </trkpt>
      <trkpt lat="45.72471" lon="5.65505">
        <ele>281</ele>
        <time>2020-05-17T15:15:29.487Z</time>
      </trkpt>
      <trkpt lat="45.72464" lon="5.6551">
        <ele>281</ele>
        <time>2020-05-17T15:15:34.510Z</time>
      </trkpt>
      <trkpt lat="45.72458" lon="5.65515">
        <ele>279</ele>
        <time>2020-05-17T15:15:39.468Z</time>
      </trkpt>
      <trkpt lat="45.72454" lon="5.6552">
        <ele>282</ele>
        <time>2020-05-17T15:15:43.480Z</time>
      </trkpt>
      <trkpt lat="45.72447" lon="5.65526">
        <ele>282</ele>
        <time>2020-05-17T15:15:48.496Z</time>
      </trkpt>
      <trkpt lat="45.72441" lon="5.65532">
        <ele>282</ele>
        <time>2020-05-17T15:15:53.472Z</time>
      </trkpt>
      <trkpt lat="45.72436" lon="5.65536">
        <ele>282</ele>
        <time>2020-05-17T15:15:57.474Z</time>
      </trkpt>
      <trkpt lat="45.72431" lon="5.65544">
        <ele>281</ele>
        <time>2020-05-17T15:16:02.483Z</time>
      </trkpt>
      <trkpt lat="45.72427" lon="5.65551">
        <ele>282</ele>
        <time>2020-05-17T15:16:06.504Z</time>
      </trkpt>
      <trkpt lat="45.72423" lon="5.65557">
        <ele>282</ele>
        <time>2020-05-17T15:16:10.554Z</time>
      </trkpt>
      <trkpt lat="45.72418" lon="5.65563">
        <ele>282</ele>
        <time>2020-05-17T15:16:15.484Z</time>
      </trkpt>
      <trkpt lat="45.72413" lon="5.6557">
        <ele>282</ele>
        <time>2020-05-17T15:16:20.482Z</time>
      </trkpt>
      <trkpt lat="45.72407" lon="5.65574">
        <ele>282</ele>
        <time>2020-05-17T15:16:25.442Z</time>
      </trkpt>
      <trkpt lat="45.72402" lon="5.65578">
        <ele>282</ele>
        <time>2020-05-17T15:16:29.476Z</time>
      </trkpt>
      <trkpt lat="45.72396" lon="5.65583">
        <ele>282</ele>
        <time>2020-05-17T15:16:34.478Z</time>
      </trkpt>
      <trkpt lat="45.7239" lon="5.65587">
        <ele>282</ele>
        <time>2020-05-17T15:16:39.482Z</time>
      </trkpt>
      <trkpt lat="45.72384" lon="5.65591">
        <ele>282</ele>
        <time>2020-05-17T15:16:44.455Z</time>
      </trkpt>
      <trkpt lat="45.72378" lon="5.65592">
        <ele>282</ele>
        <time>2020-05-17T15:16:48.475Z</time>
      </trkpt>
      <trkpt lat="45.72371" lon="5.65594">
        <ele>283</ele>
        <time>2020-05-17T15:16:53.466Z</time>
      </trkpt>
      <trkpt lat="45.72365" lon="5.65595">
        <ele>283</ele>
        <time>2020-05-17T15:16:58.498Z</time>
      </trkpt>
      <trkpt lat="45.72358" lon="5.65597">
        <ele>283</ele>
        <time>2020-05-17T15:17:03.441Z</time>
      </trkpt>
      <trkpt lat="45.72354" lon="5.65597">
        <ele>284</ele>
        <time>2020-05-17T15:17:07.498Z</time>
      </trkpt>
      <trkpt lat="45.72349" lon="5.65599">
        <ele>284</ele>
        <time>2020-05-17T15:17:11.493Z</time>
      </trkpt>
      <trkpt lat="45.72342" lon="5.65599">
        <ele>284</ele>
        <time>2020-05-17T15:17:16.466Z</time>
      </trkpt>
      <trkpt lat="45.72335" lon="5.65601">
        <ele>284</ele>
        <time>2020-05-17T15:17:21.449Z</time>
      </trkpt>
      <trkpt lat="45.72329" lon="5.65601">
        <ele>284</ele>
        <time>2020-05-17T15:17:26.465Z</time>
      </trkpt>
      <trkpt lat="45.72323" lon="5.65601">
        <ele>284</ele>
        <time>2020-05-17T15:17:30.492Z</time>
      </trkpt>
      <trkpt lat="45.72317" lon="5.65602">
        <ele>284</ele>
        <time>2020-05-17T15:17:35.476Z</time>
      </trkpt>
      <trkpt lat="45.7231" lon="5.65602">
        <ele>284</ele>
        <time>2020-05-17T15:17:40.490Z</time>
      </trkpt>
      <trkpt lat="45.72303" lon="5.65602">
        <ele>284</ele>
        <time>2020-05-17T15:17:45.491Z</time>
      </trkpt>
      <trkpt lat="45.72296" lon="5.65602">
        <ele>284</ele>
        <time>2020-05-17T15:17:50.469Z</time>
      </trkpt>
      <trkpt lat="45.72289" lon="5.65603">
        <ele>284</ele>
        <time>2020-05-17T15:17:55.547Z</time>
      </trkpt>
      <trkpt lat="45.72282" lon="5.65603">
        <ele>284</ele>
        <time>2020-05-17T15:18:00.441Z</time>
      </trkpt>
      <trkpt lat="45.72275" lon="5.65603">
        <ele>284</ele>
        <time>2020-05-17T15:18:05.480Z</time>
      </trkpt>
      <trkpt lat="45.72268" lon="5.65603">
        <ele>284</ele>
        <time>2020-05-17T15:18:10.456Z</time>
      </trkpt>
      <trkpt lat="45.72261" lon="5.65602">
        <ele>284</ele>
        <time>2020-05-17T15:18:15.474Z</time>
      </trkpt>
      <trkpt lat="45.72254" lon="5.65602">
        <ele>284</ele>
        <time>2020-05-17T15:18:20.472Z</time>
      </trkpt>
      <trkpt lat="45.72249" lon="5.65603">
        <ele>284</ele>
        <time>2020-05-17T15:18:25.477Z</time>
      </trkpt>
      <trkpt lat="45.72245" lon="5.65602">
        <ele>284</ele>
        <time>2020-05-17T15:18:29.471Z</time>
      </trkpt>
      <trkpt lat="45.72237" lon="5.65602">
        <ele>284</ele>
        <time>2020-05-17T15:18:34.471Z</time>
      </trkpt>
      <trkpt lat="45.72231" lon="5.65601">
        <ele>285</ele>
        <time>2020-05-17T15:18:39.521Z</time>
      </trkpt>
      <trkpt lat="45.72226" lon="5.65602">
        <ele>285</ele>
        <time>2020-05-17T15:18:44.486Z</time>
      </trkpt>
      <trkpt lat="45.72219" lon="5.65605">
        <ele>285</ele>
        <time>2020-05-17T15:18:49.449Z</time>
      </trkpt>
      <trkpt lat="45.72214" lon="5.65607">
        <ele>285</ele>
        <time>2020-05-17T15:18:53.493Z</time>
      </trkpt>
      <trkpt lat="45.72208" lon="5.65605">
        <ele>284</ele>
        <time>2020-05-17T15:18:57.486Z</time>
      </trkpt>
      <trkpt lat="45.72202" lon="5.65604">
        <ele>284</ele>
        <time>2020-05-17T15:19:02.457Z</time>
      </trkpt>
      <trkpt lat="45.72198" lon="5.65603">
        <ele>284</ele>
        <time>2020-05-17T15:19:06.544Z</time>
      </trkpt>
      <trkpt lat="45.72192" lon="5.65603">
        <ele>284</ele>
        <time>2020-05-17T15:19:11.509Z</time>
      </trkpt>
      <trkpt lat="45.72185" lon="5.65602">
        <ele>284</ele>
        <time>2020-05-17T15:19:16.481Z</time>
      </trkpt>
      <trkpt lat="45.72176" lon="5.65604">
        <ele>282</ele>
        <time>2020-05-17T15:19:21.466Z</time>
      </trkpt>
      <trkpt lat="45.7217" lon="5.65604">
        <ele>282</ele>
        <time>2020-05-17T15:19:25.493Z</time>
      </trkpt>
      <trkpt lat="45.72162" lon="5.65606">
        <ele>282</ele>
        <time>2020-05-17T15:19:30.459Z</time>
      </trkpt>
      <trkpt lat="45.72155" lon="5.65607">
        <ele>282</ele>
        <time>2020-05-17T15:19:34.478Z</time>
      </trkpt>
      <trkpt lat="45.72147" lon="5.65606">
        <ele>282</ele>
        <time>2020-05-17T15:19:39.436Z</time>
      </trkpt>
      <trkpt lat="45.72142" lon="5.65606">
        <ele>282</ele>
        <time>2020-05-17T15:19:43.500Z</time>
      </trkpt>
      <trkpt lat="45.72135" lon="5.65604">
        <ele>282</ele>
        <time>2020-05-17T15:19:48.501Z</time>
      </trkpt>
      <trkpt lat="45.72128" lon="5.65603">
        <ele>282</ele>
        <time>2020-05-17T15:19:53.477Z</time>
      </trkpt>
      <trkpt lat="45.72122" lon="5.65603">
        <ele>282</ele>
        <time>2020-05-17T15:19:57.494Z</time>
      </trkpt>
      <trkpt lat="45.72115" lon="5.65602">
        <ele>282</ele>
        <time>2020-05-17T15:20:02.503Z</time>
      </trkpt>
      <trkpt lat="45.72107" lon="5.656">
        <ele>282</ele>
        <time>2020-05-17T15:20:07.467Z</time>
      </trkpt>
      <trkpt lat="45.721" lon="5.65599">
        <ele>282</ele>
        <time>2020-05-17T15:20:12.458Z</time>
      </trkpt>
      <trkpt lat="45.72094" lon="5.65599">
        <ele>282</ele>
        <time>2020-05-17T15:20:16.468Z</time>
      </trkpt>
      <trkpt lat="45.72087" lon="5.65596">
        <ele>281</ele>
        <time>2020-05-17T15:20:21.513Z</time>
      </trkpt>
      <trkpt lat="45.72079" lon="5.65596">
        <ele>281</ele>
        <time>2020-05-17T15:20:26.491Z</time>
      </trkpt>
      <trkpt lat="45.72073" lon="5.65595">
        <ele>281</ele>
        <time>2020-05-17T15:20:31.468Z</time>
      </trkpt>
      <trkpt lat="45.72065" lon="5.65592">
        <ele>282</ele>
        <time>2020-05-17T15:20:36.524Z</time>
      </trkpt>
      <trkpt lat="45.72058" lon="5.6559">
        <ele>282</ele>
        <time>2020-05-17T15:20:41.463Z</time>
      </trkpt>
      <trkpt lat="45.7205" lon="5.65587">
        <ele>282</ele>
        <time>2020-05-17T15:20:46.466Z</time>
      </trkpt>
      <trkpt lat="45.72045" lon="5.65585">
        <ele>282</ele>
        <time>2020-05-17T15:20:50.473Z</time>
      </trkpt>
      <trkpt lat="45.72038" lon="5.65582">
        <ele>285</ele>
        <time>2020-05-17T15:20:55.481Z</time>
      </trkpt>
      <trkpt lat="45.72031" lon="5.65579">
        <ele>285</ele>
        <time>2020-05-17T15:21:00.453Z</time>
      </trkpt>
      <trkpt lat="45.72026" lon="5.65578">
        <ele>285</ele>
        <time>2020-05-17T15:21:04.470Z</time>
      </trkpt>
      <trkpt lat="45.72021" lon="5.65575">
        <ele>285</ele>
        <time>2020-05-17T15:21:08.478Z</time>
      </trkpt>
      <trkpt lat="45.72015" lon="5.65572">
        <ele>285</ele>
        <time>2020-05-17T15:21:13.455Z</time>
      </trkpt>
      <trkpt lat="45.7201" lon="5.65569">
        <ele>284</ele>
        <time>2020-05-17T15:21:17.464Z</time>
      </trkpt>
      <trkpt lat="45.72004" lon="5.65566">
        <ele>284</ele>
        <time>2020-05-17T15:21:21.478Z</time>
      </trkpt>
      <trkpt lat="45.71998" lon="5.65563">
        <ele>284</ele>
        <time>2020-05-17T15:21:26.467Z</time>
      </trkpt>
      <trkpt lat="45.71991" lon="5.6556">
        <ele>284</ele>
        <time>2020-05-17T15:21:31.449Z</time>
      </trkpt>
      <trkpt lat="45.71984" lon="5.65556">
        <ele>283</ele>
        <time>2020-05-17T15:21:36.466Z</time>
      </trkpt>
      <trkpt lat="45.71978" lon="5.65554">
        <ele>283</ele>
        <time>2020-05-17T15:21:41.460Z</time>
      </trkpt>
      <trkpt lat="45.71972" lon="5.65552">
        <ele>283</ele>
        <time>2020-05-17T15:21:46.457Z</time>
      </trkpt>
      <trkpt lat="45.71965" lon="5.6555">
        <ele>283</ele>
        <time>2020-05-17T15:21:51.472Z</time>
      </trkpt>
      <trkpt lat="45.71958" lon="5.65549">
        <ele>283</ele>
        <time>2020-05-17T15:21:56.489Z</time>
      </trkpt>
      <trkpt lat="45.71951" lon="5.65549">
        <ele>283</ele>
        <time>2020-05-17T15:22:01.433Z</time>
      </trkpt>
      <trkpt lat="45.71946" lon="5.65547">
        <ele>283</ele>
        <time>2020-05-17T15:22:05.467Z</time>
      </trkpt>
      <trkpt lat="45.7194" lon="5.65548">
        <ele>283</ele>
        <time>2020-05-17T15:22:09.461Z</time>
      </trkpt>
      <trkpt lat="45.71934" lon="5.65547">
        <ele>283</ele>
        <time>2020-05-17T15:22:13.530Z</time>
      </trkpt>
      <trkpt lat="45.71927" lon="5.65546">
        <ele>284</ele>
        <time>2020-05-17T15:22:18.484Z</time>
      </trkpt>
      <trkpt lat="45.7192" lon="5.65545">
        <ele>284</ele>
        <time>2020-05-17T15:22:23.468Z</time>
      </trkpt>
      <trkpt lat="45.71913" lon="5.65543">
        <ele>284</ele>
        <time>2020-05-17T15:22:28.471Z</time>
      </trkpt>
      <trkpt lat="45.71906" lon="5.65541">
        <ele>283</ele>
        <time>2020-05-17T15:22:33.462Z</time>
      </trkpt>
      <trkpt lat="45.719" lon="5.65539">
        <ele>285</ele>
        <time>2020-05-17T15:22:37.498Z</time>
      </trkpt>
      <trkpt lat="45.71895" lon="5.65537">
        <ele>285</ele>
        <time>2020-05-17T15:22:41.460Z</time>
      </trkpt>
      <trkpt lat="45.71888" lon="5.65536">
        <ele>285</ele>
        <time>2020-05-17T15:22:46.475Z</time>
      </trkpt>
      <trkpt lat="45.71881" lon="5.65533">
        <ele>285</ele>
        <time>2020-05-17T15:22:51.443Z</time>
      </trkpt>
      <trkpt lat="45.71878" lon="5.65531">
        <ele>285</ele>
        <time>2020-05-17T15:22:55.489Z</time>
      </trkpt>
      <trkpt lat="45.7187" lon="5.6553">
        <ele>286</ele>
        <time>2020-05-17T15:23:00.455Z</time>
      </trkpt>
      <trkpt lat="45.71865" lon="5.65528">
        <ele>286</ele>
        <time>2020-05-17T15:23:04.515Z</time>
      </trkpt>
      <trkpt lat="45.71858" lon="5.65524">
        <ele>286</ele>
        <time>2020-05-17T15:23:09.461Z</time>
      </trkpt>
      <trkpt lat="45.71852" lon="5.65522">
        <ele>286</ele>
        <time>2020-05-17T15:23:13.454Z</time>
      </trkpt>
      <trkpt lat="45.71846" lon="5.65518">
        <ele>287</ele>
        <time>2020-05-17T15:23:18.474Z</time>
      </trkpt>
      <trkpt lat="45.71839" lon="5.65516">
        <ele>287</ele>
        <time>2020-05-17T15:23:23.471Z</time>
      </trkpt>
      <trkpt lat="45.71833" lon="5.65513">
        <ele>285</ele>
        <time>2020-05-17T15:23:28.463Z</time>
      </trkpt>
      <trkpt lat="45.71826" lon="5.6551">
        <ele>285</ele>
        <time>2020-05-17T15:23:33.428Z</time>
      </trkpt>
      <trkpt lat="45.7182" lon="5.65508">
        <ele>285</ele>
        <time>2020-05-17T15:23:37.457Z</time>
      </trkpt>
      <trkpt lat="45.71813" lon="5.65507">
        <ele>286</ele>
        <time>2020-05-17T15:23:42.477Z</time>
      </trkpt>
      <trkpt lat="45.71805" lon="5.65507">
        <ele>286</ele>
        <time>2020-05-17T15:23:47.474Z</time>
      </trkpt>
      <trkpt lat="45.71798" lon="5.65507">
        <ele>286</ele>
        <time>2020-05-17T15:23:52.495Z</time>
      </trkpt>
      <trkpt lat="45.71792" lon="5.65507">
        <ele>286</ele>
        <time>2020-05-17T15:23:57.487Z</time>
      </trkpt>
      <trkpt lat="45.71785" lon="5.65506">
        <ele>286</ele>
        <time>2020-05-17T15:24:02.472Z</time>
      </trkpt>
      <trkpt lat="45.71777" lon="5.65504">
        <ele>286</ele>
        <time>2020-05-17T15:24:07.460Z</time>
      </trkpt>
      <trkpt lat="45.71771" lon="5.65501">
        <ele>286</ele>
        <time>2020-05-17T15:24:12.472Z</time>
      </trkpt>
      <trkpt lat="45.71765" lon="5.65497">
        <ele>286</ele>
        <time>2020-05-17T15:24:17.482Z</time>
      </trkpt>
      <trkpt lat="45.71759" lon="5.65493">
        <ele>287</ele>
        <time>2020-05-17T15:24:22.472Z</time>
      </trkpt>
      <trkpt lat="45.71754" lon="5.65489">
        <ele>287</ele>
        <time>2020-05-17T15:24:26.462Z</time>
      </trkpt>
      <trkpt lat="45.71748" lon="5.65485">
        <ele>286</ele>
        <time>2020-05-17T15:24:31.411Z</time>
      </trkpt>
      <trkpt lat="45.71743" lon="5.65483">
        <ele>286</ele>
        <time>2020-05-17T15:24:35.463Z</time>
      </trkpt>
      <trkpt lat="45.71737" lon="5.65478">
        <ele>286</ele>
        <time>2020-05-17T15:24:40.466Z</time>
      </trkpt>
      <trkpt lat="45.71731" lon="5.65473">
        <ele>286</ele>
        <time>2020-05-17T15:24:45.453Z</time>
      </trkpt>
      <trkpt lat="45.71724" lon="5.65469">
        <ele>286</ele>
        <time>2020-05-17T15:24:50.440Z</time>
      </trkpt>
      <trkpt lat="45.71718" lon="5.65464">
        <ele>286</ele>
        <time>2020-05-17T15:24:55.455Z</time>
      </trkpt>
      <trkpt lat="45.71714" lon="5.6546">
        <ele>286</ele>
        <time>2020-05-17T15:24:59.463Z</time>
      </trkpt>
      <trkpt lat="45.71708" lon="5.65455">
        <ele>286</ele>
        <time>2020-05-17T15:25:04.461Z</time>
      </trkpt>
      <trkpt lat="45.71702" lon="5.6545">
        <ele>286</ele>
        <time>2020-05-17T15:25:09.435Z</time>
      </trkpt>
      <trkpt lat="45.71697" lon="5.65447">
        <ele>286</ele>
        <time>2020-05-17T15:25:13.455Z</time>
      </trkpt>
      <trkpt lat="45.71692" lon="5.65443">
        <ele>286</ele>
        <time>2020-05-17T15:25:18.463Z</time>
      </trkpt>
      <trkpt lat="45.71686" lon="5.65439">
        <ele>286</ele>
        <time>2020-05-17T15:25:23.457Z</time>
      </trkpt>
      <trkpt lat="45.7168" lon="5.65435">
        <ele>285</ele>
        <time>2020-05-17T15:25:28.459Z</time>
      </trkpt>
      <trkpt lat="45.71675" lon="5.65433">
        <ele>285</ele>
        <time>2020-05-17T15:25:32.482Z</time>
      </trkpt>
      <trkpt lat="45.71669" lon="5.6543">
        <ele>285</ele>
        <time>2020-05-17T15:25:37.476Z</time>
      </trkpt>
      <trkpt lat="45.71663" lon="5.65426">
        <ele>285</ele>
        <time>2020-05-17T15:25:42.461Z</time>
      </trkpt>
      <trkpt lat="45.71658" lon="5.65423">
        <ele>285</ele>
        <time>2020-05-17T15:25:46.477Z</time>
      </trkpt>
      <trkpt lat="45.71654" lon="5.65419">
        <ele>285</ele>
        <time>2020-05-17T15:25:50.540Z</time>
      </trkpt>
      <trkpt lat="45.71648" lon="5.65414">
        <ele>284</ele>
        <time>2020-05-17T15:25:55.463Z</time>
      </trkpt>
      <trkpt lat="45.71643" lon="5.65409">
        <ele>284</ele>
        <time>2020-05-17T15:26:00.489Z</time>
      </trkpt>
      <trkpt lat="45.71637" lon="5.65405">
        <ele>284</ele>
        <time>2020-05-17T15:26:05.469Z</time>
      </trkpt>
      <trkpt lat="45.71632" lon="5.65401">
        <ele>284</ele>
        <time>2020-05-17T15:26:09.480Z</time>
      </trkpt>
      <trkpt lat="45.71625" lon="5.65396">
        <ele>283</ele>
        <time>2020-05-17T15:26:14.457Z</time>
      </trkpt>
      <trkpt lat="45.71619" lon="5.65393">
        <ele>283</ele>
        <time>2020-05-17T15:26:18.519Z</time>
      </trkpt>
      <trkpt lat="45.71612" lon="5.65388">
        <ele>283</ele>
        <time>2020-05-17T15:26:23.476Z</time>
      </trkpt>
      <trkpt lat="45.71605" lon="5.65383">
        <ele>283</ele>
        <time>2020-05-17T15:26:28.463Z</time>
      </trkpt>
      <trkpt lat="45.71598" lon="5.65378">
        <ele>283</ele>
        <time>2020-05-17T15:26:33.471Z</time>
      </trkpt>
      <trkpt lat="45.71592" lon="5.65372">
        <ele>280</ele>
        <time>2020-05-17T15:26:38.456Z</time>
      </trkpt>
      <trkpt lat="45.71587" lon="5.65368">
        <ele>280</ele>
        <time>2020-05-17T15:26:42.452Z</time>
      </trkpt>
      <trkpt lat="45.71581" lon="5.65365">
        <ele>280</ele>
        <time>2020-05-17T15:26:47.448Z</time>
      </trkpt>
      <trkpt lat="45.71576" lon="5.65362">
        <ele>280</ele>
        <time>2020-05-17T15:26:51.471Z</time>
      </trkpt>
      <trkpt lat="45.71569" lon="5.65361">
        <ele>278</ele>
        <time>2020-05-17T15:26:56.468Z</time>
      </trkpt>
      <trkpt lat="45.71561" lon="5.65361">
        <ele>278</ele>
        <time>2020-05-17T15:27:01.489Z</time>
      </trkpt>
      <trkpt lat="45.71553" lon="5.65364">
        <ele>278</ele>
        <time>2020-05-17T15:27:06.467Z</time>
      </trkpt>
      <trkpt lat="45.71547" lon="5.65366">
        <ele>278</ele>
        <time>2020-05-17T15:27:10.539Z</time>
      </trkpt>
      <trkpt lat="45.7154" lon="5.65369">
        <ele>278</ele>
        <time>2020-05-17T15:27:15.500Z</time>
      </trkpt>
      <trkpt lat="45.71532" lon="5.65371">
        <ele>278</ele>
        <time>2020-05-17T15:27:20.452Z</time>
      </trkpt>
      <trkpt lat="45.71526" lon="5.65372">
        <ele>278</ele>
        <time>2020-05-17T15:27:24.459Z</time>
      </trkpt>
      <trkpt lat="45.71521" lon="5.65375">
        <ele>278</ele>
        <time>2020-05-17T15:27:28.483Z</time>
      </trkpt>
      <trkpt lat="45.71514" lon="5.65373">
        <ele>278</ele>
        <time>2020-05-17T15:27:33.460Z</time>
      </trkpt>
      <trkpt lat="45.71509" lon="5.65371">
        <ele>276</ele>
        <time>2020-05-17T15:27:37.473Z</time>
      </trkpt>
      <trkpt lat="45.71503" lon="5.65367">
        <ele>276</ele>
        <time>2020-05-17T15:27:42.458Z</time>
      </trkpt>
      <trkpt lat="45.71497" lon="5.65363">
        <ele>276</ele>
        <time>2020-05-17T15:27:47.462Z</time>
      </trkpt>
      <trkpt lat="45.71491" lon="5.65358">
        <ele>276</ele>
        <time>2020-05-17T15:27:52.497Z</time>
      </trkpt>
      <trkpt lat="45.71486" lon="5.65355">
        <ele>275</ele>
        <time>2020-05-17T15:27:57.478Z</time>
      </trkpt>
      <trkpt lat="45.7148" lon="5.65351">
        <ele>275</ele>
        <time>2020-05-17T15:28:02.487Z</time>
      </trkpt>
      <trkpt lat="45.71475" lon="5.65349">
        <ele>275</ele>
        <time>2020-05-17T15:28:06.464Z</time>
      </trkpt>
      <trkpt lat="45.71469" lon="5.65343">
        <ele>275</ele>
        <time>2020-05-17T15:28:11.465Z</time>
      </trkpt>
      <trkpt lat="45.71463" lon="5.65338">
        <ele>275</ele>
        <time>2020-05-17T15:28:16.472Z</time>
      </trkpt>
      <trkpt lat="45.71457" lon="5.65334">
        <ele>275</ele>
        <time>2020-05-17T15:28:21.479Z</time>
      </trkpt>
      <trkpt lat="45.71451" lon="5.65329">
        <ele>275</ele>
        <time>2020-05-17T15:28:26.455Z</time>
      </trkpt>
      <trkpt lat="45.71445" lon="5.65325">
        <ele>275</ele>
        <time>2020-05-17T15:28:31.484Z</time>
      </trkpt>
      <trkpt lat="45.7144" lon="5.65321">
        <ele>275</ele>
        <time>2020-05-17T15:28:36.469Z</time>
      </trkpt>
      <trkpt lat="45.71433" lon="5.65317">
        <ele>275</ele>
        <time>2020-05-17T15:28:41.464Z</time>
      </trkpt>
      <trkpt lat="45.71427" lon="5.65314">
        <ele>275</ele>
        <time>2020-05-17T15:28:45.460Z</time>
      </trkpt>
      <trkpt lat="45.7142" lon="5.65309">
        <ele>275</ele>
        <time>2020-05-17T15:28:50.474Z</time>
      </trkpt>
      <trkpt lat="45.71414" lon="5.65305">
        <ele>275</ele>
        <time>2020-05-17T15:28:55.467Z</time>
      </trkpt>
      <trkpt lat="45.71408" lon="5.65299">
        <ele>275</ele>
        <time>2020-05-17T15:29:00.461Z</time>
      </trkpt>
      <trkpt lat="45.71402" lon="5.65294">
        <ele>275</ele>
        <time>2020-05-17T15:29:05.436Z</time>
      </trkpt>
      <trkpt lat="45.71397" lon="5.65291">
        <ele>274</ele>
        <time>2020-05-17T15:29:09.456Z</time>
      </trkpt>
      <trkpt lat="45.71392" lon="5.65287">
        <ele>274</ele>
        <time>2020-05-17T15:29:14.466Z</time>
      </trkpt>
      <trkpt lat="45.71387" lon="5.65284">
        <ele>274</ele>
        <time>2020-05-17T15:29:18.457Z</time>
      </trkpt>
      <trkpt lat="45.71381" lon="5.65279">
        <ele>274</ele>
        <time>2020-05-17T15:29:23.464Z</time>
      </trkpt>
      <trkpt lat="45.71376" lon="5.65274">
        <ele>274</ele>
        <time>2020-05-17T15:29:28.453Z</time>
      </trkpt>
      <trkpt lat="45.71371" lon="5.65271">
        <ele>273</ele>
        <time>2020-05-17T15:29:32.463Z</time>
      </trkpt>
      <trkpt lat="45.71366" lon="5.65267">
        <ele>273</ele>
        <time>2020-05-17T15:29:36.464Z</time>
      </trkpt>
      <trkpt lat="45.7136" lon="5.65263">
        <ele>271</ele>
        <time>2020-05-17T15:29:41.449Z</time>
      </trkpt>
      <trkpt lat="45.71353" lon="5.65259">
        <ele>271</ele>
        <time>2020-05-17T15:29:46.456Z</time>
      </trkpt>
      <trkpt lat="45.71347" lon="5.65255">
        <ele>271</ele>
        <time>2020-05-17T15:29:51.474Z</time>
      </trkpt>
      <trkpt lat="45.71343" lon="5.65252">
        <ele>271</ele>
        <time>2020-05-17T15:29:55.513Z</time>
      </trkpt>
      <trkpt lat="45.71336" lon="5.65248">
        <ele>271</ele>
        <time>2020-05-17T15:30:00.497Z</time>
      </trkpt>
      <trkpt lat="45.71329" lon="5.65248">
        <ele>271</ele>
        <time>2020-05-17T15:30:05.485Z</time>
      </trkpt>
      <trkpt lat="45.71323" lon="5.65247">
        <ele>271</ele>
        <time>2020-05-17T15:30:09.465Z</time>
      </trkpt>
      <trkpt lat="45.71316" lon="5.65247">
        <ele>271</ele>
        <time>2020-05-17T15:30:14.480Z</time>
      </trkpt>
      <trkpt lat="45.71309" lon="5.65248">
        <ele>271</ele>
        <time>2020-05-17T15:30:19.467Z</time>
      </trkpt>
      <trkpt lat="45.71304" lon="5.65249">
        <ele>271</ele>
        <time>2020-05-17T15:30:23.470Z</time>
      </trkpt>
      <trkpt lat="45.71297" lon="5.65249">
        <ele>271</ele>
        <time>2020-05-17T15:30:28.480Z</time>
      </trkpt>
      <trkpt lat="45.71289" lon="5.65251">
        <ele>271</ele>
        <time>2020-05-17T15:30:33.467Z</time>
      </trkpt>
      <trkpt lat="45.71284" lon="5.6525">
        <ele>271</ele>
        <time>2020-05-17T15:30:38.485Z</time>
      </trkpt>
      <trkpt lat="45.71276" lon="5.65251">
        <ele>271</ele>
        <time>2020-05-17T15:30:43.448Z</time>
      </trkpt>
      <trkpt lat="45.7127" lon="5.65252">
        <ele>271</ele>
        <time>2020-05-17T15:30:47.464Z</time>
      </trkpt>
      <trkpt lat="45.71263" lon="5.65255">
        <ele>270</ele>
        <time>2020-05-17T15:30:52.462Z</time>
      </trkpt>
      <trkpt lat="45.71258" lon="5.65256">
        <ele>270</ele>
        <time>2020-05-17T15:30:56.467Z</time>
      </trkpt>
      <trkpt lat="45.71252" lon="5.65258">
        <ele>270</ele>
        <time>2020-05-17T15:31:01.473Z</time>
      </trkpt>
      <trkpt lat="45.71251" lon="5.65269">
        <ele>270</ele>
        <time>2020-05-17T15:31:06.449Z</time>
      </trkpt>
      <trkpt lat="45.71254" lon="5.65294">
        <ele>270</ele>
        <time>2020-05-17T15:31:11.460Z</time>
      </trkpt>
      <trkpt lat="45.71258" lon="5.65339">
        <ele>269</ele>
        <time>2020-05-17T15:31:16.493Z</time>
      </trkpt>
      <trkpt lat="45.71254" lon="5.65385">
        <ele>270</ele>
        <time>2020-05-17T15:31:21.470Z</time>
      </trkpt>
      <trkpt lat="45.71247" lon="5.65428">
        <ele>272</ele>
        <time>2020-05-17T15:31:26.465Z</time>
      </trkpt>
      <trkpt lat="45.71245" lon="5.65439">
        <ele>275</ele>
        <time>2020-05-17T15:31:30.485Z</time>
      </trkpt>
      <trkpt lat="45.71244" lon="5.65446">
        <ele>275</ele>
        <time>2020-05-17T15:31:35.472Z</time>
      </trkpt>
      <trkpt lat="45.71243" lon="5.65453">
        <ele>275</ele>
        <time>2020-05-17T15:31:39.469Z</time>
      </trkpt>
      <trkpt lat="45.71241" lon="5.65462">
        <ele>279</ele>
        <time>2020-05-17T15:31:44.478Z</time>
      </trkpt>
      <trkpt lat="45.71237" lon="5.65473">
        <ele>279</ele>
        <time>2020-05-17T15:31:49.475Z</time>
      </trkpt>
      <trkpt lat="45.71217" lon="5.65485">
        <ele>279</ele>
        <time>2020-05-17T15:31:54.473Z</time>
      </trkpt>
      <trkpt lat="45.71207" lon="5.65492">
        <ele>279</ele>
        <time>2020-05-17T15:31:59.452Z</time>
      </trkpt>
      <trkpt lat="45.71202" lon="5.65495">
        <ele>279</ele>
        <time>2020-05-17T15:32:04.479Z</time>
      </trkpt>
      <trkpt lat="45.71196" lon="5.65499">
        <ele>279</ele>
        <time>2020-05-17T15:32:09.451Z</time>
      </trkpt>
      <trkpt lat="45.71189" lon="5.65499">
        <ele>279</ele>
        <time>2020-05-17T15:32:14.457Z</time>
      </trkpt>
      <trkpt lat="45.71183" lon="5.65497">
        <ele>279</ele>
        <time>2020-05-17T15:32:19.453Z</time>
      </trkpt>
      <trkpt lat="45.71177" lon="5.65494">
        <ele>277</ele>
        <time>2020-05-17T15:32:23.478Z</time>
      </trkpt>
      <trkpt lat="45.71169" lon="5.65489">
        <ele>277</ele>
        <time>2020-05-17T15:32:28.452Z</time>
      </trkpt>
      <trkpt lat="45.71161" lon="5.65485">
        <ele>274</ele>
        <time>2020-05-17T15:32:33.482Z</time>
      </trkpt>
      <trkpt lat="45.71153" lon="5.6548">
        <ele>274</ele>
        <time>2020-05-17T15:32:38.481Z</time>
      </trkpt>
      <trkpt lat="45.71146" lon="5.65477">
        <ele>273</ele>
        <time>2020-05-17T15:32:43.452Z</time>
      </trkpt>
      <trkpt lat="45.71135" lon="5.65474">
        <ele>273</ele>
        <time>2020-05-17T15:32:47.441Z</time>
      </trkpt>
      <trkpt lat="45.71109" lon="5.65467">
        <ele>272</ele>
        <time>2020-05-17T15:32:52.474Z</time>
      </trkpt>
      <trkpt lat="45.71092" lon="5.65462">
        <ele>270</ele>
        <time>2020-05-17T15:32:57.472Z</time>
      </trkpt>
      <trkpt lat="45.71085" lon="5.65455">
        <ele>272</ele>
        <time>2020-05-17T15:33:02.452Z</time>
      </trkpt>
      <trkpt lat="45.7108" lon="5.65449">
        <ele>272</ele>
        <time>2020-05-17T15:33:06.474Z</time>
      </trkpt>
      <trkpt lat="45.71073" lon="5.65443">
        <ele>272</ele>
        <time>2020-05-17T15:33:11.471Z</time>
      </trkpt>
      <trkpt lat="45.71068" lon="5.6544">
        <ele>269</ele>
        <time>2020-05-17T15:33:15.486Z</time>
      </trkpt>
      <trkpt lat="45.71062" lon="5.65435">
        <ele>269</ele>
        <time>2020-05-17T15:33:20.479Z</time>
      </trkpt>
      <trkpt lat="45.71056" lon="5.65428">
        <ele>270</ele>
        <time>2020-05-17T15:33:25.494Z</time>
      </trkpt>
      <trkpt lat="45.71047" lon="5.65422">
        <ele>270</ele>
        <time>2020-05-17T15:33:30.479Z</time>
      </trkpt>
      <trkpt lat="45.71042" lon="5.65417">
        <ele>270</ele>
        <time>2020-05-17T15:33:35.438Z</time>
      </trkpt>
      <trkpt lat="45.71037" lon="5.65413">
        <ele>270</ele>
        <time>2020-05-17T15:33:40.453Z</time>
      </trkpt>
      <trkpt lat="45.71033" lon="5.6541">
        <ele>270</ele>
        <time>2020-05-17T15:33:45.415Z</time>
      </trkpt>
      <trkpt lat="45.71032" lon="5.65409">
        <ele>270</ele>
        <time>2020-05-17T15:33:49.452Z</time>
      </trkpt>
      <trkpt lat="45.71025" lon="5.65404">
        <ele>270</ele>
        <time>2020-05-17T15:33:54.464Z</time>
      </trkpt>
      <trkpt lat="45.71019" lon="5.654">
        <ele>270</ele>
        <time>2020-05-17T15:33:58.451Z</time>
      </trkpt>
      <trkpt lat="45.71012" lon="5.65396">
        <ele>269</ele>
        <time>2020-05-17T15:34:03.485Z</time>
      </trkpt>
      <trkpt lat="45.71008" lon="5.65395">
        <ele>269</ele>
        <time>2020-05-17T15:34:07.482Z</time>
      </trkpt>
      <trkpt lat="45.70999" lon="5.65386">
        <ele>269</ele>
        <time>2020-05-17T15:34:17.472Z</time>
      </trkpt>
      <trkpt lat="45.70992" lon="5.65376">
        <ele>269</ele>
        <time>2020-05-17T15:34:22.489Z</time>
      </trkpt>
      <trkpt lat="45.70984" lon="5.65366">
        <ele>266</ele>
        <time>2020-05-17T15:34:27.473Z</time>
      </trkpt>
      <trkpt lat="45.70977" lon="5.65359">
        <ele>266</ele>
        <time>2020-05-17T15:34:32.474Z</time>
      </trkpt>
      <trkpt lat="45.70971" lon="5.65351">
        <ele>266</ele>
        <time>2020-05-17T15:34:37.451Z</time>
      </trkpt>
      <trkpt lat="45.70964" lon="5.65345">
        <ele>264</ele>
        <time>2020-05-17T15:34:42.469Z</time>
      </trkpt>
      <trkpt lat="45.70957" lon="5.65339">
        <ele>266</ele>
        <time>2020-05-17T15:34:47.430Z</time>
      </trkpt>
      <trkpt lat="45.70955" lon="5.65332">
        <ele>266</ele>
        <time>2020-05-17T15:34:51.456Z</time>
      </trkpt>
      <trkpt lat="45.7095" lon="5.65323">
        <ele>266</ele>
        <time>2020-05-17T15:34:56.441Z</time>
      </trkpt>
      <trkpt lat="45.70944" lon="5.65317">
        <ele>263</ele>
        <time>2020-05-17T15:35:01.458Z</time>
      </trkpt>
      <trkpt lat="45.70938" lon="5.65316">
        <ele>263</ele>
        <time>2020-05-17T15:35:11.452Z</time>
      </trkpt>
      <trkpt lat="45.70932" lon="5.65317">
        <ele>263</ele>
        <time>2020-05-17T15:35:16.455Z</time>
      </trkpt>
      <trkpt lat="45.70926" lon="5.65317">
        <ele>262</ele>
        <time>2020-05-17T15:35:25.481Z</time>
      </trkpt>
      <trkpt lat="45.7092" lon="5.65314">
        <ele>262</ele>
        <time>2020-05-17T15:35:30.450Z</time>
      </trkpt>
      <trkpt lat="45.70918" lon="5.65312">
        <ele>262</ele>
        <time>2020-05-17T15:35:35.447Z</time>
      </trkpt>
      <trkpt lat="45.70913" lon="5.65307">
        <ele>262</ele>
        <time>2020-05-17T15:35:40.461Z</time>
      </trkpt>
      <trkpt lat="45.70908" lon="5.65304">
        <ele>262</ele>
        <time>2020-05-17T15:35:45.468Z</time>
      </trkpt>
      <trkpt lat="45.70902" lon="5.65299">
        <ele>257</ele>
        <time>2020-05-17T15:35:50.473Z</time>
      </trkpt>
      <trkpt lat="45.70897" lon="5.65296">
        <ele>257</ele>
        <time>2020-05-17T15:35:54.458Z</time>
      </trkpt>
      <trkpt lat="45.70893" lon="5.65296">
        <ele>257</ele>
        <time>2020-05-17T15:35:59.493Z</time>
      </trkpt>
      <trkpt lat="45.70887" lon="5.65296">
        <ele>257</ele>
        <time>2020-05-17T15:36:04.481Z</time>
      </trkpt>
      <trkpt lat="45.70882" lon="5.65297">
        <ele>257</ele>
        <time>2020-05-17T15:36:09.456Z</time>
      </trkpt>
      <trkpt lat="45.70877" lon="5.65301">
        <ele>257</ele>
        <time>2020-05-17T15:36:19.494Z</time>
      </trkpt>
      <trkpt lat="45.70861" lon="5.65313">
        <ele>250</ele>
        <time>2020-05-17T15:36:29.519Z</time>
      </trkpt>
      <trkpt lat="45.70855" lon="5.65317">
        <ele>250</ele>
        <time>2020-05-17T15:36:34.468Z</time>
      </trkpt>
      <trkpt lat="45.7085" lon="5.65321">
        <ele>250</ele>
        <time>2020-05-17T15:36:39.486Z</time>
      </trkpt>
      <trkpt lat="45.70845" lon="5.65326">
        <ele>244</ele>
        <time>2020-05-17T15:36:44.472Z</time>
      </trkpt>
      <trkpt lat="45.70834" lon="5.65334">
        <ele>244</ele>
        <time>2020-05-17T15:36:49.468Z</time>
      </trkpt>
      <trkpt lat="45.70828" lon="5.65336">
        <ele>244</ele>
        <time>2020-05-17T15:36:53.515Z</time>
      </trkpt>
      <trkpt lat="45.70824" lon="5.65338">
        <ele>244</ele>
        <time>2020-05-17T15:36:58.459Z</time>
      </trkpt>
      <trkpt lat="45.7082" lon="5.65342">
        <ele>244</ele>
        <time>2020-05-17T15:37:03.464Z</time>
      </trkpt>
      <trkpt lat="45.70816" lon="5.65348">
        <ele>240</ele>
        <time>2020-05-17T15:37:08.448Z</time>
      </trkpt>
      <trkpt lat="45.70813" lon="5.65353">
        <ele>240</ele>
        <time>2020-05-17T15:37:12.479Z</time>
      </trkpt>
      <trkpt lat="45.7081" lon="5.6536">
        <ele>240</ele>
        <time>2020-05-17T15:37:17.470Z</time>
      </trkpt>
      <trkpt lat="45.70806" lon="5.65368">
        <ele>240</ele>
        <time>2020-05-17T15:37:22.467Z</time>
      </trkpt>
      <trkpt lat="45.70802" lon="5.65377">
        <ele>238</ele>
        <time>2020-05-17T15:37:27.488Z</time>
      </trkpt>
      <trkpt lat="45.708" lon="5.65385">
        <ele>238</ele>
        <time>2020-05-17T15:37:32.480Z</time>
      </trkpt>
      <trkpt lat="45.70797" lon="5.65391">
        <ele>238</ele>
        <time>2020-05-17T15:37:37.461Z</time>
      </trkpt>
      <trkpt lat="45.70793" lon="5.65395">
        <ele>238</ele>
        <time>2020-05-17T15:37:42.459Z</time>
      </trkpt>
      <trkpt lat="45.70787" lon="5.65405">
        <ele>237</ele>
        <time>2020-05-17T15:37:47.457Z</time>
      </trkpt>
      <trkpt lat="45.70781" lon="5.6541">
        <ele>237</ele>
        <time>2020-05-17T15:37:51.506Z</time>
      </trkpt>
      <trkpt lat="45.70777" lon="5.65413">
        <ele>237</ele>
        <time>2020-05-17T15:37:55.471Z</time>
      </trkpt>
      <trkpt lat="45.70779" lon="5.65424">
        <ele>237</ele>
        <time>2020-05-17T15:38:00.487Z</time>
      </trkpt>
      <trkpt lat="45.70782" lon="5.65431">
        <ele>237</ele>
        <time>2020-05-17T15:38:05.479Z</time>
      </trkpt>
      <trkpt lat="45.70787" lon="5.65439">
        <ele>237</ele>
        <time>2020-05-17T15:38:10.486Z</time>
      </trkpt>
      <trkpt lat="45.70792" lon="5.65446">
        <ele>237</ele>
        <time>2020-05-17T15:38:15.484Z</time>
      </trkpt>
      <trkpt lat="45.70796" lon="5.65451">
        <ele>236</ele>
        <time>2020-05-17T15:38:20.466Z</time>
      </trkpt>
      <trkpt lat="45.70801" lon="5.65458">
        <ele>236</ele>
        <time>2020-05-17T15:38:25.481Z</time>
      </trkpt>
      <trkpt lat="45.70806" lon="5.65464">
        <ele>236</ele>
        <time>2020-05-17T15:38:30.466Z</time>
      </trkpt>
      <trkpt lat="45.70809" lon="5.65467">
        <ele>236</ele>
        <time>2020-05-17T15:38:34.490Z</time>
      </trkpt>
      <trkpt lat="45.70809" lon="5.6547">
        <ele>236</ele>
        <time>2020-05-17T15:38:39.488Z</time>
      </trkpt>
      <trkpt lat="45.70803" lon="5.65478">
        <ele>236</ele>
        <time>2020-05-17T15:38:44.486Z</time>
      </trkpt>
      <trkpt lat="45.70798" lon="5.65486">
        <ele>236</ele>
        <time>2020-05-17T15:38:49.481Z</time>
      </trkpt>
      <trkpt lat="45.70796" lon="5.65494">
        <ele>236</ele>
        <time>2020-05-17T15:38:54.480Z</time>
      </trkpt>
      <trkpt lat="45.70791" lon="5.65498">
        <ele>236</ele>
        <time>2020-05-17T15:38:59.487Z</time>
      </trkpt>
      <trkpt lat="45.70785" lon="5.65506">
        <ele>236</ele>
        <time>2020-05-17T15:39:04.474Z</time>
      </trkpt>
      <trkpt lat="45.7078" lon="5.65515">
        <ele>236</ele>
        <time>2020-05-17T15:39:09.497Z</time>
      </trkpt>
      <trkpt lat="45.70778" lon="5.65519">
        <ele>236</ele>
        <time>2020-05-17T15:39:14.482Z</time>
      </trkpt>
      <trkpt lat="45.70775" lon="5.65522">
        <ele>236</ele>
        <time>2020-05-17T15:39:19.488Z</time>
      </trkpt>
      <trkpt lat="45.7077" lon="5.65523">
        <ele>236</ele>
        <time>2020-05-17T15:39:24.490Z</time>
      </trkpt>
      <trkpt lat="45.70764" lon="5.65525">
        <ele>236</ele>
        <time>2020-05-17T15:39:29.493Z</time>
      </trkpt>
      <trkpt lat="45.70759" lon="5.65528">
        <ele>237</ele>
        <time>2020-05-17T15:39:34.500Z</time>
      </trkpt>
      <trkpt lat="45.70755" lon="5.65531">
        <ele>237</ele>
        <time>2020-05-17T15:39:39.499Z</time>
      </trkpt>
      <trkpt lat="45.7075" lon="5.65535">
        <ele>237</ele>
        <time>2020-05-17T15:39:43.538Z</time>
      </trkpt>
      <trkpt lat="45.70745" lon="5.65542">
        <ele>237</ele>
        <time>2020-05-17T15:39:48.479Z</time>
      </trkpt>
      <trkpt lat="45.7074" lon="5.65546">
        <ele>237</ele>
        <time>2020-05-17T15:39:53.492Z</time>
      </trkpt>
      <trkpt lat="45.70733" lon="5.65552">
        <ele>237</ele>
        <time>2020-05-17T15:39:58.479Z</time>
      </trkpt>
      <trkpt lat="45.70729" lon="5.65556">
        <ele>237</ele>
        <time>2020-05-17T15:40:03.492Z</time>
      </trkpt>
      <trkpt lat="45.70725" lon="5.65563">
        <ele>237</ele>
        <time>2020-05-17T15:40:08.480Z</time>
      </trkpt>
      <trkpt lat="45.7072" lon="5.65568">
        <ele>237</ele>
        <time>2020-05-17T15:40:13.469Z</time>
      </trkpt>
      <trkpt lat="45.70716" lon="5.65573">
        <ele>235</ele>
        <time>2020-05-17T15:40:18.478Z</time>
      </trkpt>
      <trkpt lat="45.7071" lon="5.65581">
        <ele>235</ele>
        <time>2020-05-17T15:40:23.469Z</time>
      </trkpt>
      <trkpt lat="45.70705" lon="5.65588">
        <ele>236</ele>
        <time>2020-05-17T15:40:28.482Z</time>
      </trkpt>
      <trkpt lat="45.70701" lon="5.65597">
        <ele>236</ele>
        <time>2020-05-17T15:40:33.503Z</time>
      </trkpt>
      <trkpt lat="45.70698" lon="5.65606">
        <ele>233</ele>
        <time>2020-05-17T15:40:38.475Z</time>
      </trkpt>
      <trkpt lat="45.70695" lon="5.65615">
        <ele>233</ele>
        <time>2020-05-17T15:40:43.478Z</time>
      </trkpt>
      <trkpt lat="45.7069" lon="5.65622">
        <ele>233</ele>
        <time>2020-05-17T15:40:48.543Z</time>
      </trkpt>
      <trkpt lat="45.70686" lon="5.65628">
        <ele>230</ele>
        <time>2020-05-17T15:40:53.470Z</time>
      </trkpt>
      <trkpt lat="45.70681" lon="5.65631">
        <ele>230</ele>
        <time>2020-05-17T15:40:58.475Z</time>
      </trkpt>
      <trkpt lat="45.70674" lon="5.65635">
        <ele>231</ele>
        <time>2020-05-17T15:41:03.483Z</time>
      </trkpt>
      <trkpt lat="45.70669" lon="5.65638">
        <ele>231</ele>
        <time>2020-05-17T15:41:08.492Z</time>
      </trkpt>
      <trkpt lat="45.70663" lon="5.65643">
        <ele>231</ele>
        <time>2020-05-17T15:41:13.510Z</time>
      </trkpt>
      <trkpt lat="45.70655" lon="5.65644">
        <ele>231</ele>
        <time>2020-05-17T15:41:18.516Z</time>
      </trkpt>
      <trkpt lat="45.70649" lon="5.6564">
        <ele>231</ele>
        <time>2020-05-17T15:42:09.491Z</time>
      </trkpt>
      <trkpt lat="45.70642" lon="5.65641">
        <ele>231</ele>
        <time>2020-05-17T15:42:14.488Z</time>
      </trkpt>
      <trkpt lat="45.70637" lon="5.65646">
        <ele>231</ele>
        <time>2020-05-17T15:42:18.480Z</time>
      </trkpt>
      <trkpt lat="45.70631" lon="5.65653">
        <ele>230</ele>
        <time>2020-05-17T15:42:23.453Z</time>
      </trkpt>
      <trkpt lat="45.70627" lon="5.65658">
        <ele>230</ele>
        <time>2020-05-17T15:42:27.474Z</time>
      </trkpt>
      <trkpt lat="45.70624" lon="5.65663">
        <ele>230</ele>
        <time>2020-05-17T15:42:32.496Z</time>
      </trkpt>
      <trkpt lat="45.70618" lon="5.65666">
        <ele>230</ele>
        <time>2020-05-17T15:42:37.489Z</time>
      </trkpt>
      <trkpt lat="45.70611" lon="5.6567">
        <ele>230</ele>
        <time>2020-05-17T15:42:42.494Z</time>
      </trkpt>
      <trkpt lat="45.70607" lon="5.65676">
        <ele>230</ele>
        <time>2020-05-17T15:42:47.467Z</time>
      </trkpt>
      <trkpt lat="45.70601" lon="5.65683">
        <ele>228</ele>
        <time>2020-05-17T15:42:52.460Z</time>
      </trkpt>
      <trkpt lat="45.70595" lon="5.65689">
        <ele>228</ele>
        <time>2020-05-17T15:42:57.470Z</time>
      </trkpt>
      <trkpt lat="45.70591" lon="5.65693">
        <ele>228</ele>
        <time>2020-05-17T15:43:01.502Z</time>
      </trkpt>
      <trkpt lat="45.70586" lon="5.657">
        <ele>228</ele>
        <time>2020-05-17T15:43:06.511Z</time>
      </trkpt>
      <trkpt lat="45.70581" lon="5.65706">
        <ele>228</ele>
        <time>2020-05-17T15:43:11.471Z</time>
      </trkpt>
      <trkpt lat="45.70577" lon="5.65712">
        <ele>227</ele>
        <time>2020-05-17T15:43:15.476Z</time>
      </trkpt>
      <trkpt lat="45.70575" lon="5.65721">
        <ele>227</ele>
        <time>2020-05-17T15:43:20.477Z</time>
      </trkpt>
      <trkpt lat="45.70573" lon="5.65731">
        <ele>227</ele>
        <time>2020-05-17T15:43:25.464Z</time>
      </trkpt>
      <trkpt lat="45.7057" lon="5.65741">
        <ele>226</ele>
        <time>2020-05-17T15:43:30.474Z</time>
      </trkpt>
      <trkpt lat="45.70568" lon="5.6575">
        <ele>227</ele>
        <time>2020-05-17T15:43:34.462Z</time>
      </trkpt>
      <trkpt lat="45.70565" lon="5.6576">
        <ele>227</ele>
        <time>2020-05-17T15:43:39.490Z</time>
      </trkpt>
      <trkpt lat="45.70556" lon="5.65786">
        <ele>227</ele>
        <time>2020-05-17T15:43:44.476Z</time>
      </trkpt>
      <trkpt lat="45.70547" lon="5.65816">
        <ele>226</ele>
        <time>2020-05-17T15:43:49.482Z</time>
      </trkpt>
      <trkpt lat="45.70534" lon="5.65841">
        <ele>227</ele>
        <time>2020-05-17T15:43:54.456Z</time>
      </trkpt>
      <trkpt lat="45.70515" lon="5.65848">
        <ele>226</ele>
        <time>2020-05-17T15:43:58.452Z</time>
      </trkpt>
      <trkpt lat="45.70493" lon="5.65855">
        <ele>227</ele>
        <time>2020-05-17T15:44:02.462Z</time>
      </trkpt>
      <trkpt lat="45.70468" lon="5.65862">
        <ele>230</ele>
        <time>2020-05-17T15:44:07.476Z</time>
      </trkpt>
      <trkpt lat="45.70442" lon="5.65868">
        <ele>231</ele>
        <time>2020-05-17T15:44:12.478Z</time>
      </trkpt>
      <trkpt lat="45.70413" lon="5.65873">
        <ele>229</ele>
        <time>2020-05-17T15:44:17.478Z</time>
      </trkpt>
      <trkpt lat="45.70387" lon="5.65884">
        <ele>224</ele>
        <time>2020-05-17T15:44:22.463Z</time>
      </trkpt>
      <trkpt lat="45.70364" lon="5.65919">
        <ele>225</ele>
        <time>2020-05-17T15:44:27.458Z</time>
      </trkpt>
      <trkpt lat="45.70342" lon="5.65961">
        <ele>226</ele>
        <time>2020-05-17T15:44:32.468Z</time>
      </trkpt>
      <trkpt lat="45.70321" lon="5.65998">
        <ele>225</ele>
        <time>2020-05-17T15:44:37.495Z</time>
      </trkpt>
      <trkpt lat="45.70298" lon="5.66027">
        <ele>226</ele>
        <time>2020-05-17T15:44:42.436Z</time>
      </trkpt>
      <trkpt lat="45.70281" lon="5.66043">
        <ele>226</ele>
        <time>2020-05-17T15:44:46.472Z</time>
      </trkpt>
      <trkpt lat="45.7026" lon="5.66064">
        <ele>227</ele>
        <time>2020-05-17T15:44:51.429Z</time>
      </trkpt>
      <trkpt lat="45.70237" lon="5.66089">
        <ele>226</ele>
        <time>2020-05-17T15:44:56.464Z</time>
      </trkpt>
      <trkpt lat="45.7022" lon="5.66105">
        <ele>226</ele>
        <time>2020-05-17T15:45:01.468Z</time>
      </trkpt>
      <trkpt lat="45.70212" lon="5.66111">
        <ele>226</ele>
        <time>2020-05-17T15:45:06.501Z</time>
      </trkpt>
      <trkpt lat="45.70206" lon="5.66118">
        <ele>226</ele>
        <time>2020-05-17T15:45:11.473Z</time>
      </trkpt>
      <trkpt lat="45.70199" lon="5.66125">
        <ele>226</ele>
        <time>2020-05-17T15:45:16.455Z</time>
      </trkpt>
      <trkpt lat="45.70195" lon="5.6613">
        <ele>227</ele>
        <time>2020-05-17T15:45:20.448Z</time>
      </trkpt>
      <trkpt lat="45.70189" lon="5.66134">
        <ele>227</ele>
        <time>2020-05-17T15:45:25.444Z</time>
      </trkpt>
      <trkpt lat="45.70182" lon="5.66138">
        <ele>227</ele>
        <time>2020-05-17T15:45:29.461Z</time>
      </trkpt>
      <trkpt lat="45.70174" lon="5.66145">
        <ele>227</ele>
        <time>2020-05-17T15:45:34.458Z</time>
      </trkpt>
      <trkpt lat="45.7017" lon="5.6615">
        <ele>227</ele>
        <time>2020-05-17T15:45:38.469Z</time>
      </trkpt>
      <trkpt lat="45.70165" lon="5.66157">
        <ele>226</ele>
        <time>2020-05-17T15:45:43.471Z</time>
      </trkpt>
      <trkpt lat="45.70157" lon="5.66164">
        <ele>226</ele>
        <time>2020-05-17T15:45:48.470Z</time>
      </trkpt>
      <trkpt lat="45.70142" lon="5.6618">
        <ele>226</ele>
        <time>2020-05-17T15:45:53.467Z</time>
      </trkpt>
      <trkpt lat="45.70122" lon="5.66199">
        <ele>226</ele>
        <time>2020-05-17T15:45:58.466Z</time>
      </trkpt>
      <trkpt lat="45.70106" lon="5.66214">
        <ele>225</ele>
        <time>2020-05-17T15:46:02.452Z</time>
      </trkpt>
      <trkpt lat="45.70089" lon="5.66233">
        <ele>225</ele>
        <time>2020-05-17T15:46:06.504Z</time>
      </trkpt>
      <trkpt lat="45.70068" lon="5.66255">
        <ele>226</ele>
        <time>2020-05-17T15:46:11.475Z</time>
      </trkpt>
      <trkpt lat="45.70046" lon="5.66275">
        <ele>225</ele>
        <time>2020-05-17T15:46:16.469Z</time>
      </trkpt>
      <trkpt lat="45.70024" lon="5.66297">
        <ele>226</ele>
        <time>2020-05-17T15:46:21.447Z</time>
      </trkpt>
      <trkpt lat="45.70008" lon="5.66323">
        <ele>226</ele>
        <time>2020-05-17T15:46:25.463Z</time>
      </trkpt>
      <trkpt lat="45.69992" lon="5.66354">
        <ele>225</ele>
        <time>2020-05-17T15:46:30.485Z</time>
      </trkpt>
      <trkpt lat="45.69976" lon="5.66384">
        <ele>225</ele>
        <time>2020-05-17T15:46:35.486Z</time>
      </trkpt>
      <trkpt lat="45.69967" lon="5.66403">
        <ele>223</ele>
        <time>2020-05-17T15:46:40.466Z</time>
      </trkpt>
      <trkpt lat="45.69969" lon="5.6642">
        <ele>223</ele>
        <time>2020-05-17T15:46:44.469Z</time>
      </trkpt>
      <trkpt lat="45.69987" lon="5.66453">
        <ele>223</ele>
        <time>2020-05-17T15:46:48.478Z</time>
      </trkpt>
      <trkpt lat="45.7001" lon="5.66504">
        <ele>224</ele>
        <time>2020-05-17T15:46:53.475Z</time>
      </trkpt>
      <trkpt lat="45.70034" lon="5.66555">
        <ele>226</ele>
        <time>2020-05-17T15:46:58.503Z</time>
      </trkpt>
      <trkpt lat="45.70054" lon="5.66601">
        <ele>228</ele>
        <time>2020-05-17T15:47:03.478Z</time>
      </trkpt>
      <trkpt lat="45.70073" lon="5.66643">
        <ele>229</ele>
        <time>2020-05-17T15:47:08.468Z</time>
      </trkpt>
      <trkpt lat="45.70091" lon="5.66682">
        <ele>229</ele>
        <time>2020-05-17T15:47:13.478Z</time>
      </trkpt>
      <trkpt lat="45.70103" lon="5.6671">
        <ele>230</ele>
        <time>2020-05-17T15:47:18.478Z</time>
      </trkpt>
      <trkpt lat="45.70104" lon="5.66715">
        <ele>230</ele>
        <time>2020-05-17T15:47:22.537Z</time>
      </trkpt>
      <trkpt lat="45.70094" lon="5.66722">
        <ele>230</ele>
        <time>2020-05-17T15:47:27.419Z</time>
      </trkpt>
      <trkpt lat="45.70088" lon="5.66728">
        <ele>230</ele>
        <time>2020-05-17T15:47:31.463Z</time>
      </trkpt>
      <trkpt lat="45.70083" lon="5.66733">
        <ele>230</ele>
        <time>2020-05-17T15:47:35.469Z</time>
      </trkpt>
      <trkpt lat="45.70077" lon="5.6674">
        <ele>230</ele>
        <time>2020-05-17T15:47:40.518Z</time>
      </trkpt>
      <trkpt lat="45.7007" lon="5.66748">
        <ele>230</ele>
        <time>2020-05-17T15:47:45.478Z</time>
      </trkpt>
      <trkpt lat="45.70064" lon="5.66755">
        <ele>230</ele>
        <time>2020-05-17T15:47:50.481Z</time>
      </trkpt>
      <trkpt lat="45.70059" lon="5.66761">
        <ele>230</ele>
        <time>2020-05-17T15:47:54.481Z</time>
      </trkpt>
      <trkpt lat="45.70053" lon="5.66768">
        <ele>230</ele>
        <time>2020-05-17T15:47:59.481Z</time>
      </trkpt>
      <trkpt lat="45.70048" lon="5.66775">
        <ele>230</ele>
        <time>2020-05-17T15:48:03.499Z</time>
      </trkpt>
      <trkpt lat="45.70042" lon="5.66782">
        <ele>230</ele>
        <time>2020-05-17T15:48:08.478Z</time>
      </trkpt>
      <trkpt lat="45.70038" lon="5.66789">
        <ele>230</ele>
        <time>2020-05-17T15:48:13.452Z</time>
      </trkpt>
      <trkpt lat="45.70033" lon="5.66795">
        <ele>230</ele>
        <time>2020-05-17T15:48:17.484Z</time>
      </trkpt>
      <trkpt lat="45.70029" lon="5.66801">
        <ele>230</ele>
        <time>2020-05-17T15:48:21.482Z</time>
      </trkpt>
      <trkpt lat="45.70023" lon="5.66809">
        <ele>230</ele>
        <time>2020-05-17T15:48:26.468Z</time>
      </trkpt>
      <trkpt lat="45.70017" lon="5.66818">
        <ele>230</ele>
        <time>2020-05-17T15:48:31.483Z</time>
      </trkpt>
      <trkpt lat="45.70013" lon="5.66825">
        <ele>229</ele>
        <time>2020-05-17T15:48:35.479Z</time>
      </trkpt>
      <trkpt lat="45.70008" lon="5.66832">
        <ele>229</ele>
        <time>2020-05-17T15:48:40.482Z</time>
      </trkpt>
      <trkpt lat="45.70002" lon="5.66837">
        <ele>229</ele>
        <time>2020-05-17T15:48:45.473Z</time>
      </trkpt>
      <trkpt lat="45.69996" lon="5.66844">
        <ele>229</ele>
        <time>2020-05-17T15:48:50.480Z</time>
      </trkpt>
      <trkpt lat="45.69991" lon="5.6685">
        <ele>229</ele>
        <time>2020-05-17T15:48:55.493Z</time>
      </trkpt>
      <trkpt lat="45.69986" lon="5.66857">
        <ele>228</ele>
        <time>2020-05-17T15:49:00.476Z</time>
      </trkpt>
      <trkpt lat="45.69981" lon="5.66861">
        <ele>228</ele>
        <time>2020-05-17T15:49:04.469Z</time>
      </trkpt>
      <trkpt lat="45.69974" lon="5.66868">
        <ele>228</ele>
        <time>2020-05-17T15:49:09.468Z</time>
      </trkpt>
      <trkpt lat="45.69968" lon="5.66874">
        <ele>228</ele>
        <time>2020-05-17T15:49:14.456Z</time>
      </trkpt>
      <trkpt lat="45.69962" lon="5.66881">
        <ele>226</ele>
        <time>2020-05-17T15:49:19.485Z</time>
      </trkpt>
      <trkpt lat="45.69955" lon="5.66889">
        <ele>227</ele>
        <time>2020-05-17T15:49:24.462Z</time>
      </trkpt>
      <trkpt lat="45.69949" lon="5.66897">
        <ele>227</ele>
        <time>2020-05-17T15:49:29.472Z</time>
      </trkpt>
      <trkpt lat="45.69944" lon="5.66902">
        <ele>227</ele>
        <time>2020-05-17T15:49:33.465Z</time>
      </trkpt>
      <trkpt lat="45.69938" lon="5.66909">
        <ele>226</ele>
        <time>2020-05-17T15:49:38.453Z</time>
      </trkpt>
      <trkpt lat="45.69934" lon="5.66914">
        <ele>226</ele>
        <time>2020-05-17T15:49:42.478Z</time>
      </trkpt>
      <trkpt lat="45.6993" lon="5.66921">
        <ele>227</ele>
        <time>2020-05-17T15:49:47.466Z</time>
      </trkpt>
      <trkpt lat="45.69926" lon="5.66929">
        <ele>227</ele>
        <time>2020-05-17T15:49:51.467Z</time>
      </trkpt>
      <trkpt lat="45.6992" lon="5.66937">
        <ele>227</ele>
        <time>2020-05-17T15:49:56.483Z</time>
      </trkpt>
      <trkpt lat="45.69915" lon="5.66944">
        <ele>227</ele>
        <time>2020-05-17T15:50:01.481Z</time>
      </trkpt>
      <trkpt lat="45.69911" lon="5.6695">
        <ele>227</ele>
        <time>2020-05-17T15:50:06.475Z</time>
      </trkpt>
      <trkpt lat="45.69903" lon="5.66955">
        <ele>227</ele>
        <time>2020-05-17T15:50:11.475Z</time>
      </trkpt>
      <trkpt lat="45.69898" lon="5.66959">
        <ele>226</ele>
        <time>2020-05-17T15:50:15.506Z</time>
      </trkpt>
      <trkpt lat="45.69892" lon="5.66964">
        <ele>226</ele>
        <time>2020-05-17T15:50:20.457Z</time>
      </trkpt>
      <trkpt lat="45.69884" lon="5.66969">
        <ele>226</ele>
        <time>2020-05-17T15:50:25.477Z</time>
      </trkpt>
      <trkpt lat="45.69878" lon="5.66971">
        <ele>226</ele>
        <time>2020-05-17T15:50:29.466Z</time>
      </trkpt>
      <trkpt lat="45.69871" lon="5.66974">
        <ele>226</ele>
        <time>2020-05-17T15:50:34.468Z</time>
      </trkpt>
      <trkpt lat="45.69865" lon="5.66976">
        <ele>226</ele>
        <time>2020-05-17T15:50:38.459Z</time>
      </trkpt>
      <trkpt lat="45.69858" lon="5.66978">
        <ele>226</ele>
        <time>2020-05-17T15:50:42.466Z</time>
      </trkpt>
      <trkpt lat="45.69851" lon="5.6698">
        <ele>226</ele>
        <time>2020-05-17T15:50:47.471Z</time>
      </trkpt>
      <trkpt lat="45.69842" lon="5.66981">
        <ele>226</ele>
        <time>2020-05-17T15:50:52.447Z</time>
      </trkpt>
      <trkpt lat="45.69835" lon="5.66981">
        <ele>226</ele>
        <time>2020-05-17T15:50:57.445Z</time>
      </trkpt>
      <trkpt lat="45.69829" lon="5.66981">
        <ele>226</ele>
        <time>2020-05-17T15:51:01.501Z</time>
      </trkpt>
      <trkpt lat="45.69821" lon="5.66981">
        <ele>226</ele>
        <time>2020-05-17T15:51:06.465Z</time>
      </trkpt>
      <trkpt lat="45.69815" lon="5.66979">
        <ele>226</ele>
        <time>2020-05-17T15:51:11.450Z</time>
      </trkpt>
      <trkpt lat="45.6981" lon="5.66978">
        <ele>226</ele>
        <time>2020-05-17T15:51:15.490Z</time>
      </trkpt>
      <trkpt lat="45.69802" lon="5.66977">
        <ele>226</ele>
        <time>2020-05-17T15:51:20.483Z</time>
      </trkpt>
      <trkpt lat="45.69794" lon="5.66976">
        <ele>226</ele>
        <time>2020-05-17T15:51:25.479Z</time>
      </trkpt>
      <trkpt lat="45.69786" lon="5.66974">
        <ele>225</ele>
        <time>2020-05-17T15:51:30.488Z</time>
      </trkpt>
      <trkpt lat="45.69778" lon="5.66972">
        <ele>225</ele>
        <time>2020-05-17T15:51:35.458Z</time>
      </trkpt>
      <trkpt lat="45.69771" lon="5.66969">
        <ele>225</ele>
        <time>2020-05-17T15:51:39.461Z</time>
      </trkpt>
      <trkpt lat="45.69765" lon="5.66967">
        <ele>225</ele>
        <time>2020-05-17T15:51:44.461Z</time>
      </trkpt>
      <trkpt lat="45.69757" lon="5.66965">
        <ele>223</ele>
        <time>2020-05-17T15:51:49.472Z</time>
      </trkpt>
      <trkpt lat="45.69751" lon="5.66962">
        <ele>223</ele>
        <time>2020-05-17T15:51:54.479Z</time>
      </trkpt>
      <trkpt lat="45.69742" lon="5.66959">
        <ele>223</ele>
        <time>2020-05-17T15:51:59.478Z</time>
      </trkpt>
      <trkpt lat="45.69735" lon="5.66955">
        <ele>222</ele>
        <time>2020-05-17T15:52:04.479Z</time>
      </trkpt>
      <trkpt lat="45.69727" lon="5.66953">
        <ele>222</ele>
        <time>2020-05-17T15:52:09.468Z</time>
      </trkpt>
      <trkpt lat="45.69719" lon="5.6695">
        <ele>222</ele>
        <time>2020-05-17T15:52:14.458Z</time>
      </trkpt>
      <trkpt lat="45.69712" lon="5.66947">
        <ele>222</ele>
        <time>2020-05-17T15:52:19.518Z</time>
      </trkpt>
      <trkpt lat="45.69705" lon="5.66945">
        <ele>221</ele>
        <time>2020-05-17T15:52:24.491Z</time>
      </trkpt>
      <trkpt lat="45.69698" lon="5.66943">
        <ele>221</ele>
        <time>2020-05-17T15:52:29.481Z</time>
      </trkpt>
      <trkpt lat="45.69691" lon="5.66945">
        <ele>221</ele>
        <time>2020-05-17T15:52:33.485Z</time>
      </trkpt>
      <trkpt lat="45.69687" lon="5.66952">
        <ele>221</ele>
        <time>2020-05-17T15:52:38.496Z</time>
      </trkpt>
      <trkpt lat="45.69683" lon="5.66971">
        <ele>222</ele>
        <time>2020-05-17T15:52:43.463Z</time>
      </trkpt>
      <trkpt lat="45.69678" lon="5.6699">
        <ele>223</ele>
        <time>2020-05-17T15:52:48.447Z</time>
      </trkpt>
      <trkpt lat="45.69673" lon="5.6701">
        <ele>223</ele>
        <time>2020-05-17T15:52:52.477Z</time>
      </trkpt>
      <trkpt lat="45.69665" lon="5.67043">
        <ele>224</ele>
        <time>2020-05-17T15:52:57.496Z</time>
      </trkpt>
      <trkpt lat="45.69657" lon="5.67071">
        <ele>224</ele>
        <time>2020-05-17T15:53:01.487Z</time>
      </trkpt>
      <trkpt lat="45.69649" lon="5.67106">
        <ele>224</ele>
        <time>2020-05-17T15:53:06.461Z</time>
      </trkpt>
      <trkpt lat="45.69644" lon="5.67134">
        <ele>224</ele>
        <time>2020-05-17T15:53:10.476Z</time>
      </trkpt>
      <trkpt lat="45.69637" lon="5.67172">
        <ele>224</ele>
        <time>2020-05-17T15:53:15.495Z</time>
      </trkpt>
      <trkpt lat="45.69633" lon="5.67211">
        <ele>224</ele>
        <time>2020-05-17T15:53:20.473Z</time>
      </trkpt>
      <trkpt lat="45.6963" lon="5.67243">
        <ele>224</ele>
        <time>2020-05-17T15:53:25.534Z</time>
      </trkpt>
      <trkpt lat="45.69629" lon="5.67253">
        <ele>224</ele>
        <time>2020-05-17T15:53:30.435Z</time>
      </trkpt>
      <trkpt lat="45.69629" lon="5.6726">
        <ele>224</ele>
        <time>2020-05-17T15:53:34.485Z</time>
      </trkpt>
      <trkpt lat="45.69629" lon="5.67274">
        <ele>224</ele>
        <time>2020-05-17T15:53:39.430Z</time>
      </trkpt>
      <trkpt lat="45.6963" lon="5.67282">
        <ele>224</ele>
        <time>2020-05-17T15:53:43.484Z</time>
      </trkpt>
      <trkpt lat="45.6963" lon="5.67298">
        <ele>223</ele>
        <time>2020-05-17T15:53:48.498Z</time>
      </trkpt>
      <trkpt lat="45.69629" lon="5.6731">
        <ele>223</ele>
        <time>2020-05-17T15:53:52.485Z</time>
      </trkpt>
      <trkpt lat="45.69627" lon="5.67321">
        <ele>221</ele>
        <time>2020-05-17T15:53:57.480Z</time>
      </trkpt>
      <trkpt lat="45.69627" lon="5.67335">
        <ele>221</ele>
        <time>2020-05-17T15:54:01.482Z</time>
      </trkpt>
      <trkpt lat="45.69626" lon="5.67346">
        <ele>221</ele>
        <time>2020-05-17T15:54:06.493Z</time>
      </trkpt>
      <trkpt lat="45.69627" lon="5.67356">
        <ele>220</ele>
        <time>2020-05-17T15:54:11.480Z</time>
      </trkpt>
      <trkpt lat="45.69628" lon="5.67366">
        <ele>220</ele>
        <time>2020-05-17T15:54:16.482Z</time>
      </trkpt>
      <trkpt lat="45.69628" lon="5.67379">
        <ele>219</ele>
        <time>2020-05-17T15:54:21.487Z</time>
      </trkpt>
      <trkpt lat="45.69626" lon="5.6739">
        <ele>219</ele>
        <time>2020-05-17T15:54:26.473Z</time>
      </trkpt>
      <trkpt lat="45.69626" lon="5.67397">
        <ele>219</ele>
        <time>2020-05-17T15:54:30.489Z</time>
      </trkpt>
      <trkpt lat="45.69626" lon="5.67416">
        <ele>219</ele>
        <time>2020-05-17T15:54:35.470Z</time>
      </trkpt>
      <trkpt lat="45.69626" lon="5.67428">
        <ele>219</ele>
        <time>2020-05-17T15:54:39.452Z</time>
      </trkpt>
      <trkpt lat="45.69628" lon="5.67439">
        <ele>220</ele>
        <time>2020-05-17T15:54:44.461Z</time>
      </trkpt>
      <trkpt lat="45.69628" lon="5.67449">
        <ele>220</ele>
        <time>2020-05-17T15:54:49.433Z</time>
      </trkpt>
      <trkpt lat="45.69627" lon="5.67458">
        <ele>220</ele>
        <time>2020-05-17T15:54:53.486Z</time>
      </trkpt>
      <trkpt lat="45.69626" lon="5.67469">
        <ele>220</ele>
        <time>2020-05-17T15:54:58.472Z</time>
      </trkpt>
      <trkpt lat="45.69627" lon="5.67483">
        <ele>220</ele>
        <time>2020-05-17T15:55:03.467Z</time>
      </trkpt>
      <trkpt lat="45.69626" lon="5.67501">
        <ele>221</ele>
        <time>2020-05-17T15:55:08.454Z</time>
      </trkpt>
      <trkpt lat="45.69627" lon="5.67511">
        <ele>221</ele>
        <time>2020-05-17T15:55:13.478Z</time>
      </trkpt>
      <trkpt lat="45.69629" lon="5.67521">
        <ele>221</ele>
        <time>2020-05-17T15:55:17.549Z</time>
      </trkpt>
      <trkpt lat="45.6963" lon="5.67534">
        <ele>221</ele>
        <time>2020-05-17T15:55:22.462Z</time>
      </trkpt>
      <trkpt lat="45.6963" lon="5.6755">
        <ele>222</ele>
        <time>2020-05-17T15:55:27.423Z</time>
      </trkpt>
      <trkpt lat="45.69631" lon="5.67562">
        <ele>222</ele>
        <time>2020-05-17T15:55:31.459Z</time>
      </trkpt>
      <trkpt lat="45.69633" lon="5.67566">
        <ele>222</ele>
        <time>2020-05-17T15:55:35.507Z</time>
      </trkpt>
      <trkpt lat="45.69632" lon="5.67576">
        <ele>222</ele>
        <time>2020-05-17T15:55:39.495Z</time>
      </trkpt>
      <trkpt lat="45.69636" lon="5.67602">
        <ele>222</ele>
        <time>2020-05-17T15:55:44.453Z</time>
      </trkpt>
      <trkpt lat="45.69641" lon="5.67624">
        <ele>222</ele>
        <time>2020-05-17T15:55:49.482Z</time>
      </trkpt>
      <trkpt lat="45.69645" lon="5.6763">
        <ele>223</ele>
        <time>2020-05-17T15:55:54.510Z</time>
      </trkpt>
      <trkpt lat="45.69648" lon="5.67634">
        <ele>223</ele>
        <time>2020-05-17T15:56:22.468Z</time>
      </trkpt>
      <trkpt lat="45.69654" lon="5.67644">
        <ele>223</ele>
        <time>2020-05-17T15:56:27.475Z</time>
      </trkpt>
      <trkpt lat="45.69659" lon="5.6765">
        <ele>223</ele>
        <time>2020-05-17T15:56:32.501Z</time>
      </trkpt>
      <trkpt lat="45.6966" lon="5.6766">
        <ele>223</ele>
        <time>2020-05-17T15:56:37.488Z</time>
      </trkpt>
      <trkpt lat="45.69663" lon="5.67669">
        <ele>223</ele>
        <time>2020-05-17T15:56:42.473Z</time>
      </trkpt>
      <trkpt lat="45.69665" lon="5.67678">
        <ele>223</ele>
        <time>2020-05-17T15:56:47.481Z</time>
      </trkpt>
      <trkpt lat="45.69666" lon="5.67684">
        <ele>222</ele>
        <time>2020-05-17T15:56:52.471Z</time>
      </trkpt>
      <trkpt lat="45.69666" lon="5.67694">
        <ele>222</ele>
        <time>2020-05-17T15:56:56.489Z</time>
      </trkpt>
      <trkpt lat="45.69666" lon="5.67705">
        <ele>222</ele>
        <time>2020-05-17T15:57:01.472Z</time>
      </trkpt>
      <trkpt lat="45.69666" lon="5.67717">
        <ele>221</ele>
        <time>2020-05-17T15:57:06.485Z</time>
      </trkpt>
      <trkpt lat="45.69667" lon="5.67726">
        <ele>221</ele>
        <time>2020-05-17T15:57:11.470Z</time>
      </trkpt>
      <trkpt lat="45.69668" lon="5.67734">
        <ele>221</ele>
        <time>2020-05-17T15:57:15.478Z</time>
      </trkpt>
      <trkpt lat="45.6967" lon="5.67743">
        <ele>222</ele>
        <time>2020-05-17T15:57:19.467Z</time>
      </trkpt>
      <trkpt lat="45.69673" lon="5.67754">
        <ele>222</ele>
        <time>2020-05-17T15:57:24.463Z</time>
      </trkpt>
      <trkpt lat="45.69676" lon="5.67763">
        <ele>222</ele>
        <time>2020-05-17T15:57:28.480Z</time>
      </trkpt>
      <trkpt lat="45.69677" lon="5.67773">
        <ele>223</ele>
        <time>2020-05-17T15:57:33.492Z</time>
      </trkpt>
      <trkpt lat="45.69676" lon="5.67782">
        <ele>223</ele>
        <time>2020-05-17T15:57:38.460Z</time>
      </trkpt>
      <trkpt lat="45.69676" lon="5.67793">
        <ele>223</ele>
        <time>2020-05-17T15:57:42.517Z</time>
      </trkpt>
      <trkpt lat="45.69678" lon="5.67804">
        <ele>223</ele>
        <time>2020-05-17T15:57:47.470Z</time>
      </trkpt>
      <trkpt lat="45.69678" lon="5.67813">
        <ele>223</ele>
        <time>2020-05-17T15:57:52.539Z</time>
      </trkpt>
      <trkpt lat="45.69677" lon="5.67821">
        <ele>223</ele>
        <time>2020-05-17T15:57:57.490Z</time>
      </trkpt>
      <trkpt lat="45.69678" lon="5.67831">
        <ele>223</ele>
        <time>2020-05-17T15:58:02.482Z</time>
      </trkpt>
      <trkpt lat="45.69682" lon="5.6784">
        <ele>223</ele>
        <time>2020-05-17T15:58:07.485Z</time>
      </trkpt>
      <trkpt lat="45.69684" lon="5.67848">
        <ele>223</ele>
        <time>2020-05-17T15:58:12.508Z</time>
      </trkpt>
      <trkpt lat="45.69678" lon="5.67855">
        <ele>223</ele>
        <time>2020-05-17T15:58:16.543Z</time>
      </trkpt>
      <trkpt lat="45.69665" lon="5.67856">
        <ele>223</ele>
        <time>2020-05-17T15:58:21.490Z</time>
      </trkpt>
      <trkpt lat="45.69656" lon="5.67857">
        <ele>223</ele>
        <time>2020-05-17T15:58:26.497Z</time>
      </trkpt>
      <trkpt lat="45.69645" lon="5.67858">
        <ele>221</ele>
        <time>2020-05-17T15:58:31.511Z</time>
      </trkpt>
      <trkpt lat="45.69635" lon="5.67858">
        <ele>221</ele>
        <time>2020-05-17T15:58:36.493Z</time>
      </trkpt>
      <trkpt lat="45.69626" lon="5.67861">
        <ele>221</ele>
        <time>2020-05-17T15:58:41.485Z</time>
      </trkpt>
      <trkpt lat="45.69616" lon="5.67861">
        <ele>220</ele>
        <time>2020-05-17T15:58:46.467Z</time>
      </trkpt>
      <trkpt lat="45.69608" lon="5.67864">
        <ele>220</ele>
        <time>2020-05-17T15:58:51.468Z</time>
      </trkpt>
      <trkpt lat="45.69601" lon="5.67866">
        <ele>220</ele>
        <time>2020-05-17T15:58:55.491Z</time>
      </trkpt>
      <trkpt lat="45.69575" lon="5.67866">
        <ele>219</ele>
        <time>2020-05-17T15:59:00.470Z</time>
      </trkpt>
      <trkpt lat="45.69551" lon="5.67866">
        <ele>219</ele>
        <time>2020-05-17T15:59:04.503Z</time>
      </trkpt>
      <trkpt lat="45.69518" lon="5.67867">
        <ele>219</ele>
        <time>2020-05-17T15:59:09.466Z</time>
      </trkpt>
      <trkpt lat="45.69489" lon="5.67867">
        <ele>220</ele>
        <time>2020-05-17T15:59:13.486Z</time>
      </trkpt>
      <trkpt lat="45.69454" lon="5.67868">
        <ele>221</ele>
        <time>2020-05-17T15:59:18.434Z</time>
      </trkpt>
      <trkpt lat="45.69425" lon="5.67868">
        <ele>222</ele>
        <time>2020-05-17T15:59:22.469Z</time>
      </trkpt>
      <trkpt lat="45.69396" lon="5.67869">
        <ele>221</ele>
        <time>2020-05-17T15:59:26.508Z</time>
      </trkpt>
      <trkpt lat="45.6936" lon="5.67869">
        <ele>221</ele>
        <time>2020-05-17T15:59:31.460Z</time>
      </trkpt>
      <trkpt lat="45.69329" lon="5.67867">
        <ele>223</ele>
        <time>2020-05-17T15:59:36.497Z</time>
      </trkpt>
      <trkpt lat="45.69308" lon="5.67862">
        <ele>223</ele>
        <time>2020-05-17T15:59:41.478Z</time>
      </trkpt>
      <trkpt lat="45.693" lon="5.67859">
        <ele>223</ele>
        <time>2020-05-17T15:59:46.474Z</time>
      </trkpt>
      <trkpt lat="45.69294" lon="5.67859">
        <ele>223</ele>
        <time>2020-05-17T15:59:50.478Z</time>
      </trkpt>
      <trkpt lat="45.6928" lon="5.67854">
        <ele>222</ele>
        <time>2020-05-17T15:59:55.506Z</time>
      </trkpt>
      <trkpt lat="45.69274" lon="5.67846">
        <ele>223</ele>
        <time>2020-05-17T16:00:00.440Z</time>
      </trkpt>
      <trkpt lat="45.6927" lon="5.67834">
        <ele>223</ele>
        <time>2020-05-17T16:00:04.496Z</time>
      </trkpt>
      <trkpt lat="45.69268" lon="5.67817">
        <ele>222</ele>
        <time>2020-05-17T16:00:09.486Z</time>
      </trkpt>
      <trkpt lat="45.69264" lon="5.67804">
        <ele>223</ele>
        <time>2020-05-17T16:00:14.449Z</time>
      </trkpt>
      <trkpt lat="45.69259" lon="5.67793">
        <ele>223</ele>
        <time>2020-05-17T16:00:18.514Z</time>
      </trkpt>
      <trkpt lat="45.69247" lon="5.6778">
        <ele>223</ele>
        <time>2020-05-17T16:00:23.468Z</time>
      </trkpt>
      <trkpt lat="45.69232" lon="5.6777">
        <ele>224</ele>
        <time>2020-05-17T16:00:28.491Z</time>
      </trkpt>
      <trkpt lat="45.69218" lon="5.67761">
        <ele>224</ele>
        <time>2020-05-17T16:00:33.488Z</time>
      </trkpt>
      <trkpt lat="45.69206" lon="5.67756">
        <ele>226</ele>
        <time>2020-05-17T16:00:38.471Z</time>
      </trkpt>
      <trkpt lat="45.69194" lon="5.67751">
        <ele>226</ele>
        <time>2020-05-17T16:00:43.485Z</time>
      </trkpt>
      <trkpt lat="45.69182" lon="5.67758">
        <ele>226</ele>
        <time>2020-05-17T16:00:48.452Z</time>
      </trkpt>
      <trkpt lat="45.69172" lon="5.67765">
        <ele>229</ele>
        <time>2020-05-17T16:00:52.490Z</time>
      </trkpt>
      <trkpt lat="45.69159" lon="5.6777">
        <ele>229</ele>
        <time>2020-05-17T16:00:57.468Z</time>
      </trkpt>
      <trkpt lat="45.6915" lon="5.67775">
        <ele>230</ele>
        <time>2020-05-17T16:01:01.477Z</time>
      </trkpt>
      <trkpt lat="45.69135" lon="5.67779">
        <ele>230</ele>
        <time>2020-05-17T16:01:06.427Z</time>
      </trkpt>
      <trkpt lat="45.69125" lon="5.67784">
        <ele>231</ele>
        <time>2020-05-17T16:01:10.491Z</time>
      </trkpt>
      <trkpt lat="45.6911" lon="5.67794">
        <ele>231</ele>
        <time>2020-05-17T16:01:15.482Z</time>
      </trkpt>
      <trkpt lat="45.69092" lon="5.67804">
        <ele>231</ele>
        <time>2020-05-17T16:01:20.444Z</time>
      </trkpt>
      <trkpt lat="45.6908" lon="5.67811">
        <ele>231</ele>
        <time>2020-05-17T16:01:24.478Z</time>
      </trkpt>
      <trkpt lat="45.6907" lon="5.67813">
        <ele>231</ele>
        <time>2020-05-17T16:01:29.487Z</time>
      </trkpt>
      <trkpt lat="45.69061" lon="5.67805">
        <ele>231</ele>
        <time>2020-05-17T16:01:34.467Z</time>
      </trkpt>
      <trkpt lat="45.69055" lon="5.67801">
        <ele>231</ele>
        <time>2020-05-17T16:01:38.514Z</time>
      </trkpt>
      <trkpt lat="45.69052" lon="5.67794">
        <ele>231</ele>
        <time>2020-05-17T16:01:43.494Z</time>
      </trkpt>
      <trkpt lat="45.69044" lon="5.67788">
        <ele>231</ele>
        <time>2020-05-17T16:01:48.478Z</time>
      </trkpt>
      <trkpt lat="45.69036" lon="5.67782">
        <ele>232</ele>
        <time>2020-05-17T16:01:52.474Z</time>
      </trkpt>
      <trkpt lat="45.69029" lon="5.67778">
        <ele>232</ele>
        <time>2020-05-17T16:01:57.451Z</time>
      </trkpt>
      <trkpt lat="45.69022" lon="5.67772">
        <ele>232</ele>
        <time>2020-05-17T16:02:02.505Z</time>
      </trkpt>
      <trkpt lat="45.69016" lon="5.67767">
        <ele>232</ele>
        <time>2020-05-17T16:02:07.491Z</time>
      </trkpt>
      <trkpt lat="45.6901" lon="5.67761">
        <ele>234</ele>
        <time>2020-05-17T16:02:12.495Z</time>
      </trkpt>
      <trkpt lat="45.69004" lon="5.67756">
        <ele>234</ele>
        <time>2020-05-17T16:02:16.486Z</time>
      </trkpt>
      <trkpt lat="45.68997" lon="5.67751">
        <ele>234</ele>
        <time>2020-05-17T16:02:21.459Z</time>
      </trkpt>
      <trkpt lat="45.68992" lon="5.67748">
        <ele>234</ele>
        <time>2020-05-17T16:02:25.503Z</time>
      </trkpt>
      <trkpt lat="45.68985" lon="5.67741">
        <ele>235</ele>
        <time>2020-05-17T16:02:30.466Z</time>
      </trkpt>
      <trkpt lat="45.68977" lon="5.67737">
        <ele>235</ele>
        <time>2020-05-17T16:02:34.473Z</time>
      </trkpt>
      <trkpt lat="45.68969" lon="5.67742">
        <ele>235</ele>
        <time>2020-05-17T16:02:39.471Z</time>
      </trkpt>
      <trkpt lat="45.68962" lon="5.67748">
        <ele>235</ele>
        <time>2020-05-17T16:02:43.483Z</time>
      </trkpt>
      <trkpt lat="45.68956" lon="5.67753">
        <ele>236</ele>
        <time>2020-05-17T16:02:48.418Z</time>
      </trkpt>
      <trkpt lat="45.6895" lon="5.6776">
        <ele>236</ele>
        <time>2020-05-17T16:02:53.482Z</time>
      </trkpt>
      <trkpt lat="45.68946" lon="5.67767">
        <ele>235</ele>
        <time>2020-05-17T16:02:57.500Z</time>
      </trkpt>
      <trkpt lat="45.68939" lon="5.67775">
        <ele>235</ele>
        <time>2020-05-17T16:03:02.490Z</time>
      </trkpt>
      <trkpt lat="45.68932" lon="5.67778">
        <ele>235</ele>
        <time>2020-05-17T16:03:07.472Z</time>
      </trkpt>
      <trkpt lat="45.68927" lon="5.67781">
        <ele>237</ele>
        <time>2020-05-17T16:03:11.470Z</time>
      </trkpt>
      <trkpt lat="45.68921" lon="5.67788">
        <ele>237</ele>
        <time>2020-05-17T16:03:16.476Z</time>
      </trkpt>
      <trkpt lat="45.6892" lon="5.67789">
        <ele>237</ele>
        <time>2020-05-17T16:03:21.493Z</time>
      </trkpt>
      <trkpt lat="45.68915" lon="5.67795">
        <ele>236</ele>
        <time>2020-05-17T16:03:26.509Z</time>
      </trkpt>
      <trkpt lat="45.68907" lon="5.67807">
        <ele>236</ele>
        <time>2020-05-17T16:03:31.471Z</time>
      </trkpt>
      <trkpt lat="45.68898" lon="5.67813">
        <ele>236</ele>
        <time>2020-05-17T16:03:36.491Z</time>
      </trkpt>
      <trkpt lat="45.68892" lon="5.67818">
        <ele>236</ele>
        <time>2020-05-17T16:03:40.489Z</time>
      </trkpt>
      <trkpt lat="45.68887" lon="5.67824">
        <ele>236</ele>
        <time>2020-05-17T16:03:45.485Z</time>
      </trkpt>
      <trkpt lat="45.68879" lon="5.67829">
        <ele>236</ele>
        <time>2020-05-17T16:03:50.489Z</time>
      </trkpt>
      <trkpt lat="45.68871" lon="5.67835">
        <ele>236</ele>
        <time>2020-05-17T16:03:55.477Z</time>
      </trkpt>
      <trkpt lat="45.68864" lon="5.67843">
        <ele>236</ele>
        <time>2020-05-17T16:04:00.490Z</time>
      </trkpt>
      <trkpt lat="45.6886" lon="5.67851">
        <ele>236</ele>
        <time>2020-05-17T16:04:05.470Z</time>
      </trkpt>
      <trkpt lat="45.68854" lon="5.67854">
        <ele>236</ele>
        <time>2020-05-17T16:04:10.469Z</time>
      </trkpt>
      <trkpt lat="45.68849" lon="5.67859">
        <ele>236</ele>
        <time>2020-05-17T16:04:15.453Z</time>
      </trkpt>
      <trkpt lat="45.68845" lon="5.67862">
        <ele>237</ele>
        <time>2020-05-17T16:04:19.478Z</time>
      </trkpt>
      <trkpt lat="45.68839" lon="5.67871">
        <ele>237</ele>
        <time>2020-05-17T16:04:24.462Z</time>
      </trkpt>
      <trkpt lat="45.68836" lon="5.67875">
        <ele>237</ele>
        <time>2020-05-17T16:04:28.497Z</time>
      </trkpt>
      <trkpt lat="45.68829" lon="5.67883">
        <ele>237</ele>
        <time>2020-05-17T16:04:33.476Z</time>
      </trkpt>
      <trkpt lat="45.68823" lon="5.67888">
        <ele>237</ele>
        <time>2020-05-17T16:04:37.477Z</time>
      </trkpt>
      <trkpt lat="45.68815" lon="5.67893">
        <ele>237</ele>
        <time>2020-05-17T16:04:42.478Z</time>
      </trkpt>
      <trkpt lat="45.68806" lon="5.679">
        <ele>237</ele>
        <time>2020-05-17T16:04:47.465Z</time>
      </trkpt>
      <trkpt lat="45.68803" lon="5.67906">
        <ele>237</ele>
        <time>2020-05-17T16:04:52.480Z</time>
      </trkpt>
      <trkpt lat="45.68797" lon="5.67911">
        <ele>237</ele>
        <time>2020-05-17T16:04:57.477Z</time>
      </trkpt>
      <trkpt lat="45.68792" lon="5.67916">
        <ele>237</ele>
        <time>2020-05-17T16:05:02.446Z</time>
      </trkpt>
      <trkpt lat="45.68785" lon="5.67922">
        <ele>236</ele>
        <time>2020-05-17T16:05:07.472Z</time>
      </trkpt>
      <trkpt lat="45.68779" lon="5.67925">
        <ele>236</ele>
        <time>2020-05-17T16:05:12.435Z</time>
      </trkpt>
      <trkpt lat="45.68774" lon="5.67931">
        <ele>236</ele>
        <time>2020-05-17T16:05:16.453Z</time>
      </trkpt>
      <trkpt lat="45.68771" lon="5.6794">
        <ele>236</ele>
        <time>2020-05-17T16:05:21.496Z</time>
      </trkpt>
      <trkpt lat="45.68765" lon="5.67948">
        <ele>236</ele>
        <time>2020-05-17T16:05:26.474Z</time>
      </trkpt>
      <trkpt lat="45.68759" lon="5.67956">
        <ele>235</ele>
        <time>2020-05-17T16:05:31.481Z</time>
      </trkpt>
      <trkpt lat="45.68752" lon="5.67963">
        <ele>234</ele>
        <time>2020-05-17T16:05:36.484Z</time>
      </trkpt>
      <trkpt lat="45.68747" lon="5.67969">
        <ele>234</ele>
        <time>2020-05-17T16:05:40.500Z</time>
      </trkpt>
      <trkpt lat="45.68741" lon="5.67976">
        <ele>234</ele>
        <time>2020-05-17T16:05:45.471Z</time>
      </trkpt>
      <trkpt lat="45.68735" lon="5.67981">
        <ele>234</ele>
        <time>2020-05-17T16:05:50.468Z</time>
      </trkpt>
      <trkpt lat="45.68728" lon="5.67987">
        <ele>234</ele>
        <time>2020-05-17T16:05:55.487Z</time>
      </trkpt>
      <trkpt lat="45.68721" lon="5.67993">
        <ele>234</ele>
        <time>2020-05-17T16:06:00.478Z</time>
      </trkpt>
      <trkpt lat="45.68714" lon="5.68">
        <ele>234</ele>
        <time>2020-05-17T16:06:05.442Z</time>
      </trkpt>
      <trkpt lat="45.68707" lon="5.68007">
        <ele>234</ele>
        <time>2020-05-17T16:06:10.477Z</time>
      </trkpt>
      <trkpt lat="45.68702" lon="5.68012">
        <ele>234</ele>
        <time>2020-05-17T16:06:15.468Z</time>
      </trkpt>
      <trkpt lat="45.68695" lon="5.68019">
        <ele>233</ele>
        <time>2020-05-17T16:06:20.489Z</time>
      </trkpt>
      <trkpt lat="45.68688" lon="5.68026">
        <ele>233</ele>
        <time>2020-05-17T16:06:25.504Z</time>
      </trkpt>
      <trkpt lat="45.6868" lon="5.68032">
        <ele>234</ele>
        <time>2020-05-17T16:06:30.466Z</time>
      </trkpt>
      <trkpt lat="45.68676" lon="5.68037">
        <ele>234</ele>
        <time>2020-05-17T16:06:34.485Z</time>
      </trkpt>
      <trkpt lat="45.68669" lon="5.68041">
        <ele>234</ele>
        <time>2020-05-17T16:06:39.473Z</time>
      </trkpt>
      <trkpt lat="45.68664" lon="5.68044">
        <ele>233</ele>
        <time>2020-05-17T16:06:43.502Z</time>
      </trkpt>
      <trkpt lat="45.68657" lon="5.6805">
        <ele>233</ele>
        <time>2020-05-17T16:06:48.493Z</time>
      </trkpt>
      <trkpt lat="45.68651" lon="5.68056">
        <ele>234</ele>
        <time>2020-05-17T16:06:53.495Z</time>
      </trkpt>
      <trkpt lat="45.68646" lon="5.68064">
        <ele>234</ele>
        <time>2020-05-17T16:06:58.487Z</time>
      </trkpt>
      <trkpt lat="45.6864" lon="5.68072">
        <ele>234</ele>
        <time>2020-05-17T16:07:03.494Z</time>
      </trkpt>
      <trkpt lat="45.68634" lon="5.68078">
        <ele>234</ele>
        <time>2020-05-17T16:07:08.496Z</time>
      </trkpt>
      <trkpt lat="45.68629" lon="5.68084">
        <ele>234</ele>
        <time>2020-05-17T16:07:13.477Z</time>
      </trkpt>
      <trkpt lat="45.68622" lon="5.68091">
        <ele>234</ele>
        <time>2020-05-17T16:07:18.463Z</time>
      </trkpt>
      <trkpt lat="45.68617" lon="5.68098">
        <ele>235</ele>
        <time>2020-05-17T16:07:23.489Z</time>
      </trkpt>
      <trkpt lat="45.68611" lon="5.68104">
        <ele>235</ele>
        <time>2020-05-17T16:07:28.448Z</time>
      </trkpt>
      <trkpt lat="45.68606" lon="5.6811">
        <ele>235</ele>
        <time>2020-05-17T16:07:32.479Z</time>
      </trkpt>
      <trkpt lat="45.686" lon="5.68118">
        <ele>235</ele>
        <time>2020-05-17T16:07:37.495Z</time>
      </trkpt>
      <trkpt lat="45.68597" lon="5.68125">
        <ele>234</ele>
        <time>2020-05-17T16:07:41.460Z</time>
      </trkpt>
      <trkpt lat="45.68591" lon="5.6813">
        <ele>234</ele>
        <time>2020-05-17T16:07:46.503Z</time>
      </trkpt>
      <trkpt lat="45.68585" lon="5.68136">
        <ele>234</ele>
        <time>2020-05-17T16:07:51.466Z</time>
      </trkpt>
      <trkpt lat="45.68579" lon="5.68141">
        <ele>234</ele>
        <time>2020-05-17T16:07:56.467Z</time>
      </trkpt>
      <trkpt lat="45.68573" lon="5.68148">
        <ele>234</ele>
        <time>2020-05-17T16:08:01.457Z</time>
      </trkpt>
      <trkpt lat="45.68567" lon="5.68156">
        <ele>233</ele>
        <time>2020-05-17T16:08:05.487Z</time>
      </trkpt>
      <trkpt lat="45.6856" lon="5.68164">
        <ele>233</ele>
        <time>2020-05-17T16:08:10.493Z</time>
      </trkpt>
      <trkpt lat="45.68555" lon="5.68171">
        <ele>233</ele>
        <time>2020-05-17T16:08:15.477Z</time>
      </trkpt>
      <trkpt lat="45.6855" lon="5.68177">
        <ele>233</ele>
        <time>2020-05-17T16:08:20.501Z</time>
      </trkpt>
      <trkpt lat="45.68544" lon="5.68184">
        <ele>233</ele>
        <time>2020-05-17T16:08:25.472Z</time>
      </trkpt>
      <trkpt lat="45.68538" lon="5.6819">
        <ele>233</ele>
        <time>2020-05-17T16:08:29.492Z</time>
      </trkpt>
      <trkpt lat="45.68532" lon="5.68198">
        <ele>233</ele>
        <time>2020-05-17T16:08:34.514Z</time>
      </trkpt>
      <trkpt lat="45.68525" lon="5.68206">
        <ele>233</ele>
        <time>2020-05-17T16:08:39.480Z</time>
      </trkpt>
      <trkpt lat="45.68519" lon="5.68214">
        <ele>233</ele>
        <time>2020-05-17T16:08:44.477Z</time>
      </trkpt>
      <trkpt lat="45.68515" lon="5.6822">
        <ele>233</ele>
        <time>2020-05-17T16:08:48.474Z</time>
      </trkpt>
      <trkpt lat="45.68508" lon="5.68229">
        <ele>233</ele>
        <time>2020-05-17T16:08:53.493Z</time>
      </trkpt>
      <trkpt lat="45.68502" lon="5.68237">
        <ele>233</ele>
        <time>2020-05-17T16:08:58.485Z</time>
      </trkpt>
      <trkpt lat="45.68493" lon="5.68246">
        <ele>233</ele>
        <time>2020-05-17T16:09:03.482Z</time>
      </trkpt>
      <trkpt lat="45.68484" lon="5.68258">
        <ele>233</ele>
        <time>2020-05-17T16:09:08.479Z</time>
      </trkpt>
      <trkpt lat="45.68475" lon="5.68266">
        <ele>232</ele>
        <time>2020-05-17T16:09:13.476Z</time>
      </trkpt>
      <trkpt lat="45.6847" lon="5.68274">
        <ele>232</ele>
        <time>2020-05-17T16:09:18.488Z</time>
      </trkpt>
      <trkpt lat="45.68463" lon="5.68279">
        <ele>232</ele>
        <time>2020-05-17T16:09:23.444Z</time>
      </trkpt>
      <trkpt lat="45.68458" lon="5.68283">
        <ele>232</ele>
        <time>2020-05-17T16:09:27.504Z</time>
      </trkpt>
      <trkpt lat="45.6845" lon="5.68288">
        <ele>232</ele>
        <time>2020-05-17T16:09:32.476Z</time>
      </trkpt>
      <trkpt lat="45.68445" lon="5.68289">
        <ele>232</ele>
        <time>2020-05-17T16:09:36.502Z</time>
      </trkpt>
      <trkpt lat="45.6844" lon="5.6827">
        <ele>232</ele>
        <time>2020-05-17T16:09:41.481Z</time>
      </trkpt>
      <trkpt lat="45.68434" lon="5.68227">
        <ele>233</ele>
        <time>2020-05-17T16:09:46.501Z</time>
      </trkpt>
      <trkpt lat="45.68428" lon="5.68183">
        <ele>233</ele>
        <time>2020-05-17T16:09:51.483Z</time>
      </trkpt>
      <trkpt lat="45.68424" lon="5.68147">
        <ele>234</ele>
        <time>2020-05-17T16:09:55.538Z</time>
      </trkpt>
      <trkpt lat="45.68416" lon="5.68096">
        <ele>235</ele>
        <time>2020-05-17T16:10:00.453Z</time>
      </trkpt>
      <trkpt lat="45.68411" lon="5.68056">
        <ele>235</ele>
        <time>2020-05-17T16:10:04.483Z</time>
      </trkpt>
      <trkpt lat="45.68406" lon="5.68006">
        <ele>236</ele>
        <time>2020-05-17T16:10:09.463Z</time>
      </trkpt>
      <trkpt lat="45.68401" lon="5.67968">
        <ele>237</ele>
        <time>2020-05-17T16:10:13.542Z</time>
      </trkpt>
      <trkpt lat="45.68397" lon="5.67925">
        <ele>239</ele>
        <time>2020-05-17T16:10:18.496Z</time>
      </trkpt>
      <trkpt lat="45.68392" lon="5.67885">
        <ele>239</ele>
        <time>2020-05-17T16:10:23.448Z</time>
      </trkpt>
      <trkpt lat="45.68389" lon="5.67859">
        <ele>240</ele>
        <time>2020-05-17T16:10:27.486Z</time>
      </trkpt>
      <trkpt lat="45.68387" lon="5.67843">
        <ele>240</ele>
        <time>2020-05-17T16:10:32.486Z</time>
      </trkpt>
      <trkpt lat="45.68386" lon="5.67835">
        <ele>240</ele>
        <time>2020-05-17T16:10:36.553Z</time>
      </trkpt>
      <trkpt lat="45.68385" lon="5.67831">
        <ele>240</ele>
        <time>2020-05-17T16:10:41.483Z</time>
      </trkpt>
      <trkpt lat="45.68384" lon="5.67825">
        <ele>240</ele>
        <time>2020-05-17T16:10:50.475Z</time>
      </trkpt>
      <trkpt lat="45.68382" lon="5.67798">
        <ele>241</ele>
        <time>2020-05-17T16:10:55.503Z</time>
      </trkpt>
      <trkpt lat="45.6838" lon="5.67781">
        <ele>243</ele>
        <time>2020-05-17T16:11:00.473Z</time>
      </trkpt>
      <trkpt lat="45.68378" lon="5.67769">
        <ele>243</ele>
        <time>2020-05-17T16:11:05.494Z</time>
      </trkpt>
      <trkpt lat="45.68374" lon="5.67758">
        <ele>244</ele>
        <time>2020-05-17T16:11:10.489Z</time>
      </trkpt>
      <trkpt lat="45.68372" lon="5.6775">
        <ele>244</ele>
        <time>2020-05-17T16:11:15.488Z</time>
      </trkpt>
      <trkpt lat="45.68371" lon="5.67745">
        <ele>244</ele>
        <time>2020-05-17T16:11:20.494Z</time>
      </trkpt>
      <trkpt lat="45.68365" lon="5.6773">
        <ele>244</ele>
        <time>2020-05-17T16:11:25.503Z</time>
      </trkpt>
      <trkpt lat="45.6836" lon="5.67732">
        <ele>244</ele>
        <time>2020-05-17T16:11:30.482Z</time>
      </trkpt>
      <trkpt lat="45.68355" lon="5.67733">
        <ele>244</ele>
        <time>2020-05-17T16:11:35.538Z</time>
      </trkpt>
      <trkpt lat="45.68347" lon="5.67734">
        <ele>244</ele>
        <time>2020-05-17T16:11:40.505Z</time>
      </trkpt>
      <trkpt lat="45.68339" lon="5.67736">
        <ele>244</ele>
        <time>2020-05-17T16:11:45.475Z</time>
      </trkpt>
      <trkpt lat="45.68331" lon="5.67737">
        <ele>243</ele>
        <time>2020-05-17T16:11:50.501Z</time>
      </trkpt>
      <trkpt lat="45.68324" lon="5.67739">
        <ele>243</ele>
        <time>2020-05-17T16:11:55.480Z</time>
      </trkpt>
      <trkpt lat="45.68319" lon="5.6774">
        <ele>243</ele>
        <time>2020-05-17T16:11:59.531Z</time>
      </trkpt>
      <trkpt lat="45.68313" lon="5.67741">
        <ele>243</ele>
        <time>2020-05-17T16:12:04.499Z</time>
      </trkpt>
      <trkpt lat="45.68306" lon="5.67745">
        <ele>243</ele>
        <time>2020-05-17T16:12:09.474Z</time>
      </trkpt>
      <trkpt lat="45.68298" lon="5.67747">
        <ele>243</ele>
        <time>2020-05-17T16:12:14.467Z</time>
      </trkpt>
      <trkpt lat="45.68288" lon="5.67745">
        <ele>242</ele>
        <time>2020-05-17T16:12:19.476Z</time>
      </trkpt>
      <trkpt lat="45.6828" lon="5.67745">
        <ele>242</ele>
        <time>2020-05-17T16:12:24.494Z</time>
      </trkpt>
      <trkpt lat="45.68272" lon="5.67746">
        <ele>242</ele>
        <time>2020-05-17T16:12:29.467Z</time>
      </trkpt>
      <trkpt lat="45.68267" lon="5.67746">
        <ele>242</ele>
        <time>2020-05-17T16:12:33.497Z</time>
      </trkpt>
      <trkpt lat="45.6826" lon="5.67746">
        <ele>241</ele>
        <time>2020-05-17T16:12:38.487Z</time>
      </trkpt>
      <trkpt lat="45.68251" lon="5.67746">
        <ele>241</ele>
        <time>2020-05-17T16:12:43.457Z</time>
      </trkpt>
      <trkpt lat="45.68245" lon="5.67748">
        <ele>241</ele>
        <time>2020-05-17T16:12:47.509Z</time>
      </trkpt>
      <trkpt lat="45.68238" lon="5.67752">
        <ele>241</ele>
        <time>2020-05-17T16:12:52.484Z</time>
      </trkpt>
      <trkpt lat="45.68231" lon="5.67752">
        <ele>241</ele>
        <time>2020-05-17T16:12:56.495Z</time>
      </trkpt>
      <trkpt lat="45.68224" lon="5.67751">
        <ele>241</ele>
        <time>2020-05-17T16:13:01.495Z</time>
      </trkpt>
      <trkpt lat="45.68217" lon="5.67749">
        <ele>241</ele>
        <time>2020-05-17T16:13:06.476Z</time>
      </trkpt>
      <trkpt lat="45.68209" lon="5.67748">
        <ele>241</ele>
        <time>2020-05-17T16:13:11.487Z</time>
      </trkpt>
      <trkpt lat="45.68203" lon="5.67749">
        <ele>241</ele>
        <time>2020-05-17T16:13:16.479Z</time>
      </trkpt>
      <trkpt lat="45.68196" lon="5.67749">
        <ele>241</ele>
        <time>2020-05-17T16:13:20.504Z</time>
      </trkpt>
      <trkpt lat="45.68188" lon="5.6775">
        <ele>241</ele>
        <time>2020-05-17T16:13:25.484Z</time>
      </trkpt>
      <trkpt lat="45.68181" lon="5.67751">
        <ele>241</ele>
        <time>2020-05-17T16:13:29.499Z</time>
      </trkpt>
      <trkpt lat="45.68178" lon="5.67758">
        <ele>241</ele>
        <time>2020-05-17T16:13:33.485Z</time>
      </trkpt>
      <trkpt lat="45.68177" lon="5.67773">
        <ele>242</ele>
        <time>2020-05-17T16:13:38.483Z</time>
      </trkpt>
      <trkpt lat="45.68176" lon="5.67785">
        <ele>242</ele>
        <time>2020-05-17T16:13:43.484Z</time>
      </trkpt>
      <trkpt lat="45.68175" lon="5.67793">
        <ele>243</ele>
        <time>2020-05-17T16:13:47.500Z</time>
      </trkpt>
      <trkpt lat="45.68168" lon="5.67795">
        <ele>243</ele>
        <time>2020-05-17T16:13:52.488Z</time>
      </trkpt>
      <trkpt lat="45.6816" lon="5.678">
        <ele>243</ele>
        <time>2020-05-17T16:13:57.492Z</time>
      </trkpt>
      <trkpt lat="45.68155" lon="5.67807">
        <ele>243</ele>
        <time>2020-05-17T16:14:02.463Z</time>
      </trkpt>
      <trkpt lat="45.68151" lon="5.67812">
        <ele>242</ele>
        <time>2020-05-17T16:14:06.503Z</time>
      </trkpt>
      <trkpt lat="45.68143" lon="5.67819">
        <ele>242</ele>
        <time>2020-05-17T16:14:11.467Z</time>
      </trkpt>
      <trkpt lat="45.68136" lon="5.6782">
        <ele>242</ele>
        <time>2020-05-17T16:14:15.480Z</time>
      </trkpt>
      <trkpt lat="45.68128" lon="5.67824">
        <ele>242</ele>
        <time>2020-05-17T16:14:20.481Z</time>
      </trkpt>
      <trkpt lat="45.68122" lon="5.67829">
        <ele>240</ele>
        <time>2020-05-17T16:14:25.435Z</time>
      </trkpt>
      <trkpt lat="45.68115" lon="5.67832">
        <ele>240</ele>
        <time>2020-05-17T16:14:29.519Z</time>
      </trkpt>
      <trkpt lat="45.68111" lon="5.67836">
        <ele>240</ele>
        <time>2020-05-17T16:14:34.481Z</time>
      </trkpt>
      <trkpt lat="45.68105" lon="5.6784">
        <ele>240</ele>
        <time>2020-05-17T16:14:38.501Z</time>
      </trkpt>
      <trkpt lat="45.68098" lon="5.67846">
        <ele>240</ele>
        <time>2020-05-17T16:14:43.483Z</time>
      </trkpt>
      <trkpt lat="45.68091" lon="5.67851">
        <ele>239</ele>
        <time>2020-05-17T16:14:48.506Z</time>
      </trkpt>
      <trkpt lat="45.68084" lon="5.67854">
        <ele>239</ele>
        <time>2020-05-17T16:14:53.509Z</time>
      </trkpt>
      <trkpt lat="45.68078" lon="5.67858">
        <ele>239</ele>
        <time>2020-05-17T16:14:58.483Z</time>
      </trkpt>
      <trkpt lat="45.6807" lon="5.67862">
        <ele>239</ele>
        <time>2020-05-17T16:15:03.443Z</time>
      </trkpt>
      <trkpt lat="45.68065" lon="5.67866">
        <ele>237</ele>
        <time>2020-05-17T16:15:07.459Z</time>
      </trkpt>
      <trkpt lat="45.68059" lon="5.67872">
        <ele>237</ele>
        <time>2020-05-17T16:15:12.484Z</time>
      </trkpt>
      <trkpt lat="45.68053" lon="5.67878">
        <ele>238</ele>
        <time>2020-05-17T16:15:17.511Z</time>
      </trkpt>
      <trkpt lat="45.68046" lon="5.6788">
        <ele>238</ele>
        <time>2020-05-17T16:15:21.530Z</time>
      </trkpt>
      <trkpt lat="45.68038" lon="5.67888">
        <ele>236</ele>
        <time>2020-05-17T16:15:26.488Z</time>
      </trkpt>
      <trkpt lat="45.68035" lon="5.67892">
        <ele>236</ele>
        <time>2020-05-17T16:15:30.494Z</time>
      </trkpt>
      <trkpt lat="45.68029" lon="5.67896">
        <ele>236</ele>
        <time>2020-05-17T16:15:35.504Z</time>
      </trkpt>
      <trkpt lat="45.68022" lon="5.67901">
        <ele>236</ele>
        <time>2020-05-17T16:15:40.502Z</time>
      </trkpt>
      <trkpt lat="45.68017" lon="5.67906">
        <ele>236</ele>
        <time>2020-05-17T16:15:45.494Z</time>
      </trkpt>
      <trkpt lat="45.68009" lon="5.67911">
        <ele>235</ele>
        <time>2020-05-17T16:15:50.553Z</time>
      </trkpt>
      <trkpt lat="45.68001" lon="5.67917">
        <ele>235</ele>
        <time>2020-05-17T16:15:55.487Z</time>
      </trkpt>
      <trkpt lat="45.67995" lon="5.67925">
        <ele>235</ele>
        <time>2020-05-17T16:16:00.475Z</time>
      </trkpt>
      <trkpt lat="45.67987" lon="5.67933">
        <ele>235</ele>
        <time>2020-05-17T16:16:05.414Z</time>
      </trkpt>
      <trkpt lat="45.67982" lon="5.67938">
        <ele>234</ele>
        <time>2020-05-17T16:16:09.435Z</time>
      </trkpt>
      <trkpt lat="45.67976" lon="5.67942">
        <ele>234</ele>
        <time>2020-05-17T16:16:13.452Z</time>
      </trkpt>
      <trkpt lat="45.67968" lon="5.67947">
        <ele>234</ele>
        <time>2020-05-17T16:16:18.455Z</time>
      </trkpt>
      <trkpt lat="45.67961" lon="5.67951">
        <ele>234</ele>
        <time>2020-05-17T16:16:23.436Z</time>
      </trkpt>
      <trkpt lat="45.67956" lon="5.67954">
        <ele>232</ele>
        <time>2020-05-17T16:16:27.499Z</time>
      </trkpt>
      <trkpt lat="45.67952" lon="5.67955">
        <ele>232</ele>
        <time>2020-05-17T16:16:31.498Z</time>
      </trkpt>
      <trkpt lat="45.67945" lon="5.6796">
        <ele>231</ele>
        <time>2020-05-17T16:16:36.497Z</time>
      </trkpt>
      <trkpt lat="45.67939" lon="5.67966">
        <ele>231</ele>
        <time>2020-05-17T16:16:41.492Z</time>
      </trkpt>
      <trkpt lat="45.67933" lon="5.67969">
        <ele>231</ele>
        <time>2020-05-17T16:18:27.481Z</time>
      </trkpt>
      <trkpt lat="45.67933" lon="5.67968">
        <ele>231</ele>
        <time>2020-05-17T16:18:31.463Z</time>
      </trkpt>
      <trkpt lat="45.67933" lon="5.67968">
        <ele>231</ele>
        <time>2020-05-17T16:18:36.407Z</time>
      </trkpt>
      <trkpt lat="45.67928" lon="5.67972">
        <ele>231</ele>
        <time>2020-05-17T16:18:40.455Z</time>
      </trkpt>
      <trkpt lat="45.67922" lon="5.67976">
        <ele>231</ele>
        <time>2020-05-17T16:18:44.479Z</time>
      </trkpt>
      <trkpt lat="45.67917" lon="5.6798">
        <ele>231</ele>
        <time>2020-05-17T16:18:48.492Z</time>
      </trkpt>
      <trkpt lat="45.67912" lon="5.67986">
        <ele>231</ele>
        <time>2020-05-17T16:18:53.480Z</time>
      </trkpt>
      <trkpt lat="45.67907" lon="5.67991">
        <ele>230</ele>
        <time>2020-05-17T16:18:58.467Z</time>
      </trkpt>
      <trkpt lat="45.67903" lon="5.67997">
        <ele>230</ele>
        <time>2020-05-17T16:19:03.471Z</time>
      </trkpt>
      <trkpt lat="45.67898" lon="5.68001">
        <ele>230</ele>
        <time>2020-05-17T16:19:07.526Z</time>
      </trkpt>
      <trkpt lat="45.67892" lon="5.68008">
        <ele>230</ele>
        <time>2020-05-17T16:19:12.509Z</time>
      </trkpt>
      <trkpt lat="45.67887" lon="5.68014">
        <ele>230</ele>
        <time>2020-05-17T16:19:17.480Z</time>
      </trkpt>
      <trkpt lat="45.6788" lon="5.68022">
        <ele>230</ele>
        <time>2020-05-17T16:19:22.470Z</time>
      </trkpt>
      <trkpt lat="45.67874" lon="5.68027">
        <ele>229</ele>
        <time>2020-05-17T16:19:27.500Z</time>
      </trkpt>
      <trkpt lat="45.6787" lon="5.68032">
        <ele>229</ele>
        <time>2020-05-17T16:19:32.469Z</time>
      </trkpt>
      <trkpt lat="45.67865" lon="5.68038">
        <ele>229</ele>
        <time>2020-05-17T16:19:37.515Z</time>
      </trkpt>
      <trkpt lat="45.67861" lon="5.68043">
        <ele>228</ele>
        <time>2020-05-17T16:19:42.499Z</time>
      </trkpt>
      <trkpt lat="45.67856" lon="5.68048">
        <ele>228</ele>
        <time>2020-05-17T16:19:47.503Z</time>
      </trkpt>
      <trkpt lat="45.67852" lon="5.68051">
        <ele>228</ele>
        <time>2020-05-17T16:19:51.507Z</time>
      </trkpt>
      <trkpt lat="45.67847" lon="5.68046">
        <ele>226</ele>
        <time>2020-05-17T16:19:56.499Z</time>
      </trkpt>
      <trkpt lat="45.67844" lon="5.68038">
        <ele>227</ele>
        <time>2020-05-17T16:20:01.496Z</time>
      </trkpt>
      <trkpt lat="45.67843" lon="5.68031">
        <ele>227</ele>
        <time>2020-05-17T16:20:06.499Z</time>
      </trkpt>
      <trkpt lat="45.67839" lon="5.68024">
        <ele>227</ele>
        <time>2020-05-17T16:20:11.445Z</time>
      </trkpt>
      <trkpt lat="45.67836" lon="5.68017">
        <ele>227</ele>
        <time>2020-05-17T16:20:15.466Z</time>
      </trkpt>
      <trkpt lat="45.67836" lon="5.68016">
        <ele>227</ele>
        <time>2020-05-17T16:20:20.500Z</time>
      </trkpt>
      <trkpt lat="45.67833" lon="5.68009">
        <ele>227</ele>
        <time>2020-05-17T16:20:25.482Z</time>
      </trkpt>
      <trkpt lat="45.67829" lon="5.68003">
        <ele>227</ele>
        <time>2020-05-17T16:20:29.547Z</time>
      </trkpt>
      <trkpt lat="45.67825" lon="5.67997">
        <ele>227</ele>
        <time>2020-05-17T16:20:34.486Z</time>
      </trkpt>
      <trkpt lat="45.67821" lon="5.6799">
        <ele>227</ele>
        <time>2020-05-17T16:20:38.513Z</time>
      </trkpt>
      <trkpt lat="45.6782" lon="5.67988">
        <ele>227</ele>
        <time>2020-05-17T16:20:43.454Z</time>
      </trkpt>
      <trkpt lat="45.67814" lon="5.67982">
        <ele>228</ele>
        <time>2020-05-17T16:20:48.490Z</time>
      </trkpt>
      <trkpt lat="45.67807" lon="5.67974">
        <ele>228</ele>
        <time>2020-05-17T16:20:53.473Z</time>
      </trkpt>
      <trkpt lat="45.67802" lon="5.67968">
        <ele>228</ele>
        <time>2020-05-17T16:20:58.442Z</time>
      </trkpt>
      <trkpt lat="45.67798" lon="5.67961">
        <ele>228</ele>
        <time>2020-05-17T16:21:02.468Z</time>
      </trkpt>
      <trkpt lat="45.67792" lon="5.67957">
        <ele>230</ele>
        <time>2020-05-17T16:21:07.509Z</time>
      </trkpt>
      <trkpt lat="45.67787" lon="5.67955">
        <ele>228</ele>
        <time>2020-05-17T16:21:12.486Z</time>
      </trkpt>
      <trkpt lat="45.67782" lon="5.67956">
        <ele>228</ele>
        <time>2020-05-17T16:21:17.459Z</time>
      </trkpt>
      <trkpt lat="45.67775" lon="5.67955">
        <ele>228</ele>
        <time>2020-05-17T16:21:22.487Z</time>
      </trkpt>
      <trkpt lat="45.67769" lon="5.6795">
        <ele>228</ele>
        <time>2020-05-17T16:21:27.460Z</time>
      </trkpt>
      <trkpt lat="45.67765" lon="5.67946">
        <ele>228</ele>
        <time>2020-05-17T16:21:31.482Z</time>
      </trkpt>
      <trkpt lat="45.67759" lon="5.67943">
        <ele>227</ele>
        <time>2020-05-17T16:21:36.480Z</time>
      </trkpt>
      <trkpt lat="45.67752" lon="5.6794">
        <ele>227</ele>
        <time>2020-05-17T16:21:41.494Z</time>
      </trkpt>
      <trkpt lat="45.67745" lon="5.6794">
        <ele>227</ele>
        <time>2020-05-17T16:21:46.502Z</time>
      </trkpt>
      <trkpt lat="45.6774" lon="5.67941">
        <ele>227</ele>
        <time>2020-05-17T16:21:51.465Z</time>
      </trkpt>
      <trkpt lat="45.67734" lon="5.6794">
        <ele>226</ele>
        <time>2020-05-17T16:21:56.505Z</time>
      </trkpt>
      <trkpt lat="45.67727" lon="5.67938">
        <ele>226</ele>
        <time>2020-05-17T16:22:01.453Z</time>
      </trkpt>
      <trkpt lat="45.67722" lon="5.67942">
        <ele>226</ele>
        <time>2020-05-17T16:22:05.486Z</time>
      </trkpt>
      <trkpt lat="45.67719" lon="5.67948">
        <ele>226</ele>
        <time>2020-05-17T16:22:10.490Z</time>
      </trkpt>
      <trkpt lat="45.67716" lon="5.67955">
        <ele>226</ele>
        <time>2020-05-17T16:22:15.484Z</time>
      </trkpt>
      <trkpt lat="45.67712" lon="5.67962">
        <ele>225</ele>
        <time>2020-05-17T16:22:19.525Z</time>
      </trkpt>
      <trkpt lat="45.67706" lon="5.67963">
        <ele>226</ele>
        <time>2020-05-17T16:22:24.482Z</time>
      </trkpt>
      <trkpt lat="45.67705" lon="5.6796">
        <ele>226</ele>
        <time>2020-05-17T16:22:28.486Z</time>
      </trkpt>
      <trkpt lat="45.67701" lon="5.67959">
        <ele>226</ele>
        <time>2020-05-17T16:22:33.487Z</time>
      </trkpt>
      <trkpt lat="45.67695" lon="5.67955">
        <ele>226</ele>
        <time>2020-05-17T16:22:46.509Z</time>
      </trkpt>
      <trkpt lat="45.67689" lon="5.67954">
        <ele>226</ele>
        <time>2020-05-17T16:22:51.472Z</time>
      </trkpt>
      <trkpt lat="45.67684" lon="5.67953">
        <ele>226</ele>
        <time>2020-05-17T16:22:56.462Z</time>
      </trkpt>
      <trkpt lat="45.67684" lon="5.67952">
        <ele>226</ele>
        <time>2020-05-17T16:23:00.471Z</time>
      </trkpt>
      <trkpt lat="45.6768" lon="5.67951">
        <ele>226</ele>
        <time>2020-05-17T16:23:05.503Z</time>
      </trkpt>
      <trkpt lat="45.67674" lon="5.6795">
        <ele>226</ele>
        <time>2020-05-17T16:23:10.493Z</time>
      </trkpt>
      <trkpt lat="45.67668" lon="5.67949">
        <ele>226</ele>
        <time>2020-05-17T16:23:15.507Z</time>
      </trkpt>
      <trkpt lat="45.67658" lon="5.67944">
        <ele>226</ele>
        <time>2020-05-17T16:23:19.487Z</time>
      </trkpt>
      <trkpt lat="45.67652" lon="5.67941">
        <ele>225</ele>
        <time>2020-05-17T16:23:24.507Z</time>
      </trkpt>
      <trkpt lat="45.67646" lon="5.67937">
        <ele>225</ele>
        <time>2020-05-17T16:23:29.489Z</time>
      </trkpt>
      <trkpt lat="45.67639" lon="5.67939">
        <ele>225</ele>
        <time>2020-05-17T16:23:34.484Z</time>
      </trkpt>
      <trkpt lat="45.67636" lon="5.67938">
        <ele>225</ele>
        <time>2020-05-17T16:23:39.460Z</time>
      </trkpt>
      <trkpt lat="45.67632" lon="5.67936">
        <ele>225</ele>
        <time>2020-05-17T16:23:43.490Z</time>
      </trkpt>
      <trkpt lat="45.67624" lon="5.67933">
        <ele>225</ele>
        <time>2020-05-17T16:23:48.465Z</time>
      </trkpt>
      <trkpt lat="45.67618" lon="5.67929">
        <ele>226</ele>
        <time>2020-05-17T16:23:53.489Z</time>
      </trkpt>
      <trkpt lat="45.67611" lon="5.67926">
        <ele>226</ele>
        <time>2020-05-17T16:23:58.482Z</time>
      </trkpt>
      <trkpt lat="45.67605" lon="5.67926">
        <ele>226</ele>
        <time>2020-05-17T16:24:03.496Z</time>
      </trkpt>
      <trkpt lat="45.67606" lon="5.67936">
        <ele>225</ele>
        <time>2020-05-17T16:24:18.498Z</time>
      </trkpt>
      <trkpt lat="45.67607" lon="5.6794">
        <ele>225</ele>
        <time>2020-05-17T16:24:23.465Z</time>
      </trkpt>
      <trkpt lat="45.67607" lon="5.67941">
        <ele>225</ele>
        <time>2020-05-17T16:24:28.469Z</time>
      </trkpt>
      <trkpt lat="45.67607" lon="5.67941">
        <ele>225</ele>
        <time>2020-05-17T16:24:32.488Z</time>
      </trkpt>
      <trkpt lat="45.67608" lon="5.67945">
        <ele>225</ele>
        <time>2020-05-17T16:24:37.483Z</time>
      </trkpt>
      <trkpt lat="45.67608" lon="5.67946">
        <ele>225</ele>
        <time>2020-05-17T16:25:16.476Z</time>
      </trkpt>
      <trkpt lat="45.6761" lon="5.67946">
        <ele>225</ele>
        <time>2020-05-17T16:25:21.464Z</time>
      </trkpt>
      <trkpt lat="45.6761" lon="5.67947">
        <ele>225</ele>
        <time>2020-05-17T16:25:25.485Z</time>
      </trkpt>
      <trkpt lat="45.67615" lon="5.6794">
        <ele>225</ele>
        <time>2020-05-17T16:25:30.481Z</time>
      </trkpt>
      <trkpt lat="45.67617" lon="5.67936">
        <ele>225</ele>
        <time>2020-05-17T16:25:35.462Z</time>
      </trkpt>
    </trkseg>
  </trk>
</gpx>